<?xml version="1.0" encoding="UTF-8" standalone="no" ?>
<gpx xmlns="http://www.topografix.com/GPX/1/1" xmlns:xsi="http://www.w3.org/2001/XMLSchema-instance" xsi:schemaLocation="http://www.topografix.com/GPX/1/1 http://www.topografix.com/GPX/1/1/gpx.xsd" version="1.1" creator="VisuGPX - https://www.visugpx.com">
  <metadata>
    <name>Foncine le Bas-source de la saine...</name>
  </metadata>
  <trk>
    <name><![CDATA[T2022-10-25-15-56]]></name>
    <extensions>
      <line xmlns="http://www.topografix.com/GPX/gpx_style/0/2">
        <color>0000FF</color>
        <width>4</width>
      </line>
    </extensions>
    <trkseg>
      <trkpt lat="46.63887" lon="6.02999">
        <ele>796.6</ele>
        <time>2022-10-25T06:29:44Z</time>
      </trkpt>
      <trkpt lat="46.63891" lon="6.03003">
        <ele>795</ele>
        <time>2022-10-25T06:29:51Z</time>
      </trkpt>
      <trkpt lat="46.63896" lon="6.03005">
        <ele>795.7</ele>
        <time>2022-10-25T06:29:57Z</time>
      </trkpt>
      <trkpt lat="46.63901" lon="6.03008">
        <ele>796.5</ele>
        <time>2022-10-25T06:30:03Z</time>
      </trkpt>
      <trkpt lat="46.63905" lon="6.03011">
        <ele>797</ele>
        <time>2022-10-25T06:30:07Z</time>
      </trkpt>
      <trkpt lat="46.6391" lon="6.03014">
        <ele>797.8</ele>
        <time>2022-10-25T06:30:11Z</time>
      </trkpt>
      <trkpt lat="46.63915" lon="6.03014">
        <ele>799.6</ele>
        <time>2022-10-25T06:30:15Z</time>
      </trkpt>
      <trkpt lat="46.63921" lon="6.03012">
        <ele>801.4</ele>
        <time>2022-10-25T06:30:20Z</time>
      </trkpt>
      <trkpt lat="46.63926" lon="6.0301">
        <ele>800.9</ele>
        <time>2022-10-25T06:30:26Z</time>
      </trkpt>
      <trkpt lat="46.63931" lon="6.0301">
        <ele>799.9</ele>
        <time>2022-10-25T06:30:31Z</time>
      </trkpt>
      <trkpt lat="46.63936" lon="6.03011">
        <ele>798.7</ele>
        <time>2022-10-25T06:30:37Z</time>
      </trkpt>
      <trkpt lat="46.63941" lon="6.03011">
        <ele>797.3</ele>
        <time>2022-10-25T06:30:43Z</time>
      </trkpt>
      <trkpt lat="46.63946" lon="6.0301">
        <ele>796.3</ele>
        <time>2022-10-25T06:30:48Z</time>
      </trkpt>
      <trkpt lat="46.63952" lon="6.03008">
        <ele>795.2</ele>
        <time>2022-10-25T06:30:53Z</time>
      </trkpt>
      <trkpt lat="46.63957" lon="6.03006">
        <ele>794.1</ele>
        <time>2022-10-25T06:30:57Z</time>
      </trkpt>
      <trkpt lat="46.63963" lon="6.03005">
        <ele>792.5</ele>
        <time>2022-10-25T06:31:02Z</time>
      </trkpt>
      <trkpt lat="46.63968" lon="6.03004">
        <ele>791.1</ele>
        <time>2022-10-25T06:31:07Z</time>
      </trkpt>
      <trkpt lat="46.63973" lon="6.03003">
        <ele>790.1</ele>
        <time>2022-10-25T06:31:13Z</time>
      </trkpt>
      <trkpt lat="46.63978" lon="6.03001">
        <ele>790.2</ele>
        <time>2022-10-25T06:31:19Z</time>
      </trkpt>
      <trkpt lat="46.63983" lon="6.02999">
        <ele>790.3</ele>
        <time>2022-10-25T06:31:24Z</time>
      </trkpt>
      <trkpt lat="46.63988" lon="6.02998">
        <ele>790.2</ele>
        <time>2022-10-25T06:31:29Z</time>
      </trkpt>
      <trkpt lat="46.63994" lon="6.02996">
        <ele>790.6</ele>
        <time>2022-10-25T06:31:34Z</time>
      </trkpt>
      <trkpt lat="46.63998" lon="6.02996">
        <ele>791.2</ele>
        <time>2022-10-25T06:31:38Z</time>
      </trkpt>
      <trkpt lat="46.64003" lon="6.02996">
        <ele>792</ele>
        <time>2022-10-25T06:31:44Z</time>
      </trkpt>
      <trkpt lat="46.64008" lon="6.02995">
        <ele>792.6</ele>
        <time>2022-10-25T06:31:49Z</time>
      </trkpt>
      <trkpt lat="46.64013" lon="6.02993">
        <ele>792.7</ele>
        <time>2022-10-25T06:31:54Z</time>
      </trkpt>
      <trkpt lat="46.64017" lon="6.02996">
        <ele>792.9</ele>
        <time>2022-10-25T06:32:09Z</time>
      </trkpt>
      <trkpt lat="46.64022" lon="6.02995">
        <ele>792.7</ele>
        <time>2022-10-25T06:32:14Z</time>
      </trkpt>
      <trkpt lat="46.64027" lon="6.02995">
        <ele>791.7</ele>
        <time>2022-10-25T06:32:20Z</time>
      </trkpt>
      <trkpt lat="46.64032" lon="6.02994">
        <ele>790.8</ele>
        <time>2022-10-25T06:32:25Z</time>
      </trkpt>
      <trkpt lat="46.64037" lon="6.02992">
        <ele>790.4</ele>
        <time>2022-10-25T06:32:29Z</time>
      </trkpt>
      <trkpt lat="46.64042" lon="6.02993">
        <ele>790.1</ele>
        <time>2022-10-25T06:32:34Z</time>
      </trkpt>
      <trkpt lat="46.64048" lon="6.02994">
        <ele>790.1</ele>
        <time>2022-10-25T06:32:39Z</time>
      </trkpt>
      <trkpt lat="46.64053" lon="6.02993">
        <ele>790.6</ele>
        <time>2022-10-25T06:32:43Z</time>
      </trkpt>
      <trkpt lat="46.64058" lon="6.02994">
        <ele>791.3</ele>
        <time>2022-10-25T06:32:47Z</time>
      </trkpt>
      <trkpt lat="46.64063" lon="6.02996">
        <ele>792.5</ele>
        <time>2022-10-25T06:32:52Z</time>
      </trkpt>
      <trkpt lat="46.64068" lon="6.02998">
        <ele>793.4</ele>
        <time>2022-10-25T06:32:57Z</time>
      </trkpt>
      <trkpt lat="46.64073" lon="6.03001">
        <ele>794</ele>
        <time>2022-10-25T06:33:01Z</time>
      </trkpt>
      <trkpt lat="46.64077" lon="6.03004">
        <ele>794.4</ele>
        <time>2022-10-25T06:33:05Z</time>
      </trkpt>
      <trkpt lat="46.64082" lon="6.03007">
        <ele>794.6</ele>
        <time>2022-10-25T06:33:09Z</time>
      </trkpt>
      <trkpt lat="46.64086" lon="6.0301">
        <ele>794.8</ele>
        <time>2022-10-25T06:33:13Z</time>
      </trkpt>
      <trkpt lat="46.6409" lon="6.03015">
        <ele>795.3</ele>
        <time>2022-10-25T06:33:18Z</time>
      </trkpt>
      <trkpt lat="46.64094" lon="6.03019">
        <ele>795.4</ele>
        <time>2022-10-25T06:33:23Z</time>
      </trkpt>
      <trkpt lat="46.64098" lon="6.03023">
        <ele>795.5</ele>
        <time>2022-10-25T06:33:27Z</time>
      </trkpt>
      <trkpt lat="46.64102" lon="6.03027">
        <ele>795.3</ele>
        <time>2022-10-25T06:33:32Z</time>
      </trkpt>
      <trkpt lat="46.64106" lon="6.03031">
        <ele>795.4</ele>
        <time>2022-10-25T06:33:36Z</time>
      </trkpt>
      <trkpt lat="46.64111" lon="6.03036">
        <ele>795.8</ele>
        <time>2022-10-25T06:33:41Z</time>
      </trkpt>
      <trkpt lat="46.64115" lon="6.0304">
        <ele>795.9</ele>
        <time>2022-10-25T06:33:46Z</time>
      </trkpt>
      <trkpt lat="46.64119" lon="6.03045">
        <ele>795.9</ele>
        <time>2022-10-25T06:33:51Z</time>
      </trkpt>
      <trkpt lat="46.64123" lon="6.03051">
        <ele>795.9</ele>
        <time>2022-10-25T06:33:56Z</time>
      </trkpt>
      <trkpt lat="46.64128" lon="6.03055">
        <ele>795.8</ele>
        <time>2022-10-25T06:34:01Z</time>
      </trkpt>
      <trkpt lat="46.64132" lon="6.03059">
        <ele>795.4</ele>
        <time>2022-10-25T06:34:06Z</time>
      </trkpt>
      <trkpt lat="46.64135" lon="6.03064">
        <ele>794.9</ele>
        <time>2022-10-25T06:34:11Z</time>
      </trkpt>
      <trkpt lat="46.64139" lon="6.0307">
        <ele>794.2</ele>
        <time>2022-10-25T06:34:16Z</time>
      </trkpt>
      <trkpt lat="46.64142" lon="6.03076">
        <ele>794</ele>
        <time>2022-10-25T06:34:21Z</time>
      </trkpt>
      <trkpt lat="46.64146" lon="6.03081">
        <ele>793.8</ele>
        <time>2022-10-25T06:34:26Z</time>
      </trkpt>
      <trkpt lat="46.64148" lon="6.03087">
        <ele>794.3</ele>
        <time>2022-10-25T06:34:30Z</time>
      </trkpt>
      <trkpt lat="46.64151" lon="6.03092">
        <ele>794.7</ele>
        <time>2022-10-25T06:34:35Z</time>
      </trkpt>
      <trkpt lat="46.64153" lon="6.03099">
        <ele>794.4</ele>
        <time>2022-10-25T06:34:40Z</time>
      </trkpt>
      <trkpt lat="46.64156" lon="6.03105">
        <ele>794.1</ele>
        <time>2022-10-25T06:34:44Z</time>
      </trkpt>
      <trkpt lat="46.64158" lon="6.03111">
        <ele>794</ele>
        <time>2022-10-25T06:34:48Z</time>
      </trkpt>
      <trkpt lat="46.6416" lon="6.03117">
        <ele>794.3</ele>
        <time>2022-10-25T06:34:52Z</time>
      </trkpt>
      <trkpt lat="46.64162" lon="6.03125">
        <ele>794.9</ele>
        <time>2022-10-25T06:34:57Z</time>
      </trkpt>
      <trkpt lat="46.64163" lon="6.03131">
        <ele>795.4</ele>
        <time>2022-10-25T06:35:02Z</time>
      </trkpt>
      <trkpt lat="46.64163" lon="6.03138">
        <ele>795.7</ele>
        <time>2022-10-25T06:35:06Z</time>
      </trkpt>
      <trkpt lat="46.64163" lon="6.03146">
        <ele>796</ele>
        <time>2022-10-25T06:35:10Z</time>
      </trkpt>
      <trkpt lat="46.64163" lon="6.03153">
        <ele>796.6</ele>
        <time>2022-10-25T06:35:15Z</time>
      </trkpt>
      <trkpt lat="46.64162" lon="6.0316">
        <ele>797.3</ele>
        <time>2022-10-25T06:35:19Z</time>
      </trkpt>
      <trkpt lat="46.64161" lon="6.03168">
        <ele>797.7</ele>
        <time>2022-10-25T06:35:24Z</time>
      </trkpt>
      <trkpt lat="46.6416" lon="6.03176">
        <ele>797.8</ele>
        <time>2022-10-25T06:35:29Z</time>
      </trkpt>
      <trkpt lat="46.64161" lon="6.03183">
        <ele>797.1</ele>
        <time>2022-10-25T06:35:36Z</time>
      </trkpt>
      <trkpt lat="46.64165" lon="6.03187">
        <ele>795.1</ele>
        <time>2022-10-25T06:35:44Z</time>
      </trkpt>
      <trkpt lat="46.6417" lon="6.03185">
        <ele>793.6</ele>
        <time>2022-10-25T06:35:49Z</time>
      </trkpt>
      <trkpt lat="46.64175" lon="6.03184">
        <ele>792.8</ele>
        <time>2022-10-25T06:35:54Z</time>
      </trkpt>
      <trkpt lat="46.6418" lon="6.03186">
        <ele>792.4</ele>
        <time>2022-10-25T06:36:01Z</time>
      </trkpt>
      <trkpt lat="46.64185" lon="6.03187">
        <ele>793</ele>
        <time>2022-10-25T06:36:07Z</time>
      </trkpt>
      <trkpt lat="46.6419" lon="6.03188">
        <ele>795.3</ele>
        <time>2022-10-25T06:36:14Z</time>
      </trkpt>
      <trkpt lat="46.64194" lon="6.03187">
        <ele>797.2</ele>
        <time>2022-10-25T06:36:19Z</time>
      </trkpt>
      <trkpt lat="46.64199" lon="6.03188">
        <ele>799.1</ele>
        <time>2022-10-25T06:36:25Z</time>
      </trkpt>
      <trkpt lat="46.64205" lon="6.03189">
        <ele>799.8</ele>
        <time>2022-10-25T06:36:38Z</time>
      </trkpt>
      <trkpt lat="46.64209" lon="6.03188">
        <ele>799.8</ele>
        <time>2022-10-25T06:36:44Z</time>
      </trkpt>
      <trkpt lat="46.64214" lon="6.03187">
        <ele>800.3</ele>
        <time>2022-10-25T06:36:50Z</time>
      </trkpt>
      <trkpt lat="46.64218" lon="6.03184">
        <ele>800.5</ele>
        <time>2022-10-25T06:36:54Z</time>
      </trkpt>
      <trkpt lat="46.64221" lon="6.03178">
        <ele>801</ele>
        <time>2022-10-25T06:37:01Z</time>
      </trkpt>
      <trkpt lat="46.64224" lon="6.03173">
        <ele>802.2</ele>
        <time>2022-10-25T06:37:08Z</time>
      </trkpt>
      <trkpt lat="46.64228" lon="6.03169">
        <ele>803.8</ele>
        <time>2022-10-25T06:37:16Z</time>
      </trkpt>
      <trkpt lat="46.64233" lon="6.03169">
        <ele>805.7</ele>
        <time>2022-10-25T06:37:21Z</time>
      </trkpt>
      <trkpt lat="46.64237" lon="6.03168">
        <ele>807.3</ele>
        <time>2022-10-25T06:37:27Z</time>
      </trkpt>
      <trkpt lat="46.64242" lon="6.0317">
        <ele>808.1</ele>
        <time>2022-10-25T06:37:33Z</time>
      </trkpt>
      <trkpt lat="46.64246" lon="6.03172">
        <ele>808</ele>
        <time>2022-10-25T06:37:38Z</time>
      </trkpt>
      <trkpt lat="46.64251" lon="6.03174">
        <ele>807.6</ele>
        <time>2022-10-25T06:37:43Z</time>
      </trkpt>
      <trkpt lat="46.64255" lon="6.03171">
        <ele>807.9</ele>
        <time>2022-10-25T06:37:51Z</time>
      </trkpt>
      <trkpt lat="46.64259" lon="6.03168">
        <ele>808.5</ele>
        <time>2022-10-25T06:37:58Z</time>
      </trkpt>
      <trkpt lat="46.64264" lon="6.03166">
        <ele>808.7</ele>
        <time>2022-10-25T06:38:06Z</time>
      </trkpt>
      <trkpt lat="46.64268" lon="6.03162">
        <ele>809.3</ele>
        <time>2022-10-25T06:38:11Z</time>
      </trkpt>
      <trkpt lat="46.64272" lon="6.03158">
        <ele>810.1</ele>
        <time>2022-10-25T06:38:18Z</time>
      </trkpt>
      <trkpt lat="46.64276" lon="6.03154">
        <ele>810.7</ele>
        <time>2022-10-25T06:38:25Z</time>
      </trkpt>
      <trkpt lat="46.6428" lon="6.03149">
        <ele>810.7</ele>
        <time>2022-10-25T06:38:31Z</time>
      </trkpt>
      <trkpt lat="46.64281" lon="6.03143">
        <ele>811.1</ele>
        <time>2022-10-25T06:38:36Z</time>
      </trkpt>
      <trkpt lat="46.64284" lon="6.03138">
        <ele>812.6</ele>
        <time>2022-10-25T06:38:42Z</time>
      </trkpt>
      <trkpt lat="46.64288" lon="6.03133">
        <ele>814</ele>
        <time>2022-10-25T06:38:49Z</time>
      </trkpt>
      <trkpt lat="46.64292" lon="6.03129">
        <ele>815.2</ele>
        <time>2022-10-25T06:38:56Z</time>
      </trkpt>
      <trkpt lat="46.64295" lon="6.03125">
        <ele>816.6</ele>
        <time>2022-10-25T06:39:03Z</time>
      </trkpt>
      <trkpt lat="46.643" lon="6.03122">
        <ele>817</ele>
        <time>2022-10-25T06:39:09Z</time>
      </trkpt>
      <trkpt lat="46.64304" lon="6.03121">
        <ele>817</ele>
        <time>2022-10-25T06:39:15Z</time>
      </trkpt>
      <trkpt lat="46.6431" lon="6.03119">
        <ele>817.2</ele>
        <time>2022-10-25T06:39:22Z</time>
      </trkpt>
      <trkpt lat="46.64314" lon="6.03117">
        <ele>817.6</ele>
        <time>2022-10-25T06:39:28Z</time>
      </trkpt>
      <trkpt lat="46.64319" lon="6.03115">
        <ele>818.4</ele>
        <time>2022-10-25T06:39:35Z</time>
      </trkpt>
      <trkpt lat="46.64324" lon="6.03113">
        <ele>819.5</ele>
        <time>2022-10-25T06:39:41Z</time>
      </trkpt>
      <trkpt lat="46.64329" lon="6.03112">
        <ele>820.3</ele>
        <time>2022-10-25T06:39:46Z</time>
      </trkpt>
      <trkpt lat="46.64334" lon="6.03112">
        <ele>821</ele>
        <time>2022-10-25T06:39:53Z</time>
      </trkpt>
      <trkpt lat="46.64339" lon="6.03111">
        <ele>822</ele>
        <time>2022-10-25T06:40:00Z</time>
      </trkpt>
      <trkpt lat="46.64344" lon="6.0311">
        <ele>822.9</ele>
        <time>2022-10-25T06:40:06Z</time>
      </trkpt>
      <trkpt lat="46.64349" lon="6.0311">
        <ele>823.3</ele>
        <time>2022-10-25T06:40:11Z</time>
      </trkpt>
      <trkpt lat="46.64354" lon="6.03109">
        <ele>824</ele>
        <time>2022-10-25T06:40:16Z</time>
      </trkpt>
      <trkpt lat="46.64359" lon="6.03108">
        <ele>825.5</ele>
        <time>2022-10-25T06:40:22Z</time>
      </trkpt>
      <trkpt lat="46.64359" lon="6.03116">
        <ele>826.8</ele>
        <time>2022-10-25T06:40:44Z</time>
      </trkpt>
      <trkpt lat="46.64358" lon="6.03123">
        <ele>827.1</ele>
        <time>2022-10-25T06:40:49Z</time>
      </trkpt>
      <trkpt lat="46.64357" lon="6.0313">
        <ele>827.1</ele>
        <time>2022-10-25T06:40:55Z</time>
      </trkpt>
      <trkpt lat="46.64355" lon="6.03137">
        <ele>826.9</ele>
        <time>2022-10-25T06:41:00Z</time>
      </trkpt>
      <trkpt lat="46.64354" lon="6.03145">
        <ele>827.1</ele>
        <time>2022-10-25T06:41:05Z</time>
      </trkpt>
      <trkpt lat="46.64352" lon="6.03152">
        <ele>828</ele>
        <time>2022-10-25T06:41:10Z</time>
      </trkpt>
      <trkpt lat="46.6435" lon="6.03158">
        <ele>829.4</ele>
        <time>2022-10-25T06:41:16Z</time>
      </trkpt>
      <trkpt lat="46.64348" lon="6.03164">
        <ele>831</ele>
        <time>2022-10-25T06:41:23Z</time>
      </trkpt>
      <trkpt lat="46.64347" lon="6.03171">
        <ele>831.7</ele>
        <time>2022-10-25T06:41:29Z</time>
      </trkpt>
      <trkpt lat="46.64346" lon="6.03178">
        <ele>832.3</ele>
        <time>2022-10-25T06:41:36Z</time>
      </trkpt>
      <trkpt lat="46.64349" lon="6.03184">
        <ele>832.8</ele>
        <time>2022-10-25T06:41:44Z</time>
      </trkpt>
      <trkpt lat="46.64352" lon="6.0319">
        <ele>833.3</ele>
        <time>2022-10-25T06:41:50Z</time>
      </trkpt>
      <trkpt lat="46.64356" lon="6.03191">
        <ele>834.6</ele>
        <time>2022-10-25T06:41:57Z</time>
      </trkpt>
      <trkpt lat="46.64361" lon="6.03195">
        <ele>835.6</ele>
        <time>2022-10-25T06:42:03Z</time>
      </trkpt>
      <trkpt lat="46.64364" lon="6.032">
        <ele>836.5</ele>
        <time>2022-10-25T06:42:11Z</time>
      </trkpt>
      <trkpt lat="46.64369" lon="6.03203">
        <ele>837.9</ele>
        <time>2022-10-25T06:42:18Z</time>
      </trkpt>
      <trkpt lat="46.64372" lon="6.03207">
        <ele>838.7</ele>
        <time>2022-10-25T06:42:26Z</time>
      </trkpt>
      <trkpt lat="46.64377" lon="6.03211">
        <ele>838.7</ele>
        <time>2022-10-25T06:42:32Z</time>
      </trkpt>
      <trkpt lat="46.64381" lon="6.03213">
        <ele>838.8</ele>
        <time>2022-10-25T06:42:39Z</time>
      </trkpt>
      <trkpt lat="46.64386" lon="6.03215">
        <ele>838.9</ele>
        <time>2022-10-25T06:42:47Z</time>
      </trkpt>
      <trkpt lat="46.6439" lon="6.03217">
        <ele>839.2</ele>
        <time>2022-10-25T06:42:53Z</time>
      </trkpt>
      <trkpt lat="46.64395" lon="6.03219">
        <ele>840.2</ele>
        <time>2022-10-25T06:42:59Z</time>
      </trkpt>
      <trkpt lat="46.644" lon="6.03222">
        <ele>841.3</ele>
        <time>2022-10-25T06:43:06Z</time>
      </trkpt>
      <trkpt lat="46.64404" lon="6.03226">
        <ele>841.8</ele>
        <time>2022-10-25T06:43:13Z</time>
      </trkpt>
      <trkpt lat="46.64409" lon="6.03228">
        <ele>842.8</ele>
        <time>2022-10-25T06:43:20Z</time>
      </trkpt>
      <trkpt lat="46.64413" lon="6.03232">
        <ele>844</ele>
        <time>2022-10-25T06:43:27Z</time>
      </trkpt>
      <trkpt lat="46.64416" lon="6.03237">
        <ele>844.6</ele>
        <time>2022-10-25T06:43:33Z</time>
      </trkpt>
      <trkpt lat="46.64419" lon="6.03244">
        <ele>844.9</ele>
        <time>2022-10-25T06:43:40Z</time>
      </trkpt>
      <trkpt lat="46.64422" lon="6.03249">
        <ele>844.9</ele>
        <time>2022-10-25T06:43:45Z</time>
      </trkpt>
      <trkpt lat="46.64426" lon="6.03252">
        <ele>844.9</ele>
        <time>2022-10-25T06:43:51Z</time>
      </trkpt>
      <trkpt lat="46.64431" lon="6.03255">
        <ele>845.4</ele>
        <time>2022-10-25T06:43:56Z</time>
      </trkpt>
      <trkpt lat="46.64436" lon="6.03257">
        <ele>846.3</ele>
        <time>2022-10-25T06:44:02Z</time>
      </trkpt>
      <trkpt lat="46.6444" lon="6.03259">
        <ele>846.7</ele>
        <time>2022-10-25T06:44:08Z</time>
      </trkpt>
      <trkpt lat="46.64445" lon="6.03261">
        <ele>847.4</ele>
        <time>2022-10-25T06:44:14Z</time>
      </trkpt>
      <trkpt lat="46.6445" lon="6.03263">
        <ele>847.9</ele>
        <time>2022-10-25T06:44:20Z</time>
      </trkpt>
      <trkpt lat="46.64454" lon="6.03267">
        <ele>848.4</ele>
        <time>2022-10-25T06:44:26Z</time>
      </trkpt>
      <trkpt lat="46.64459" lon="6.0327">
        <ele>849.2</ele>
        <time>2022-10-25T06:44:32Z</time>
      </trkpt>
      <trkpt lat="46.64464" lon="6.03272">
        <ele>849.6</ele>
        <time>2022-10-25T06:44:38Z</time>
      </trkpt>
      <trkpt lat="46.64468" lon="6.03275">
        <ele>850.6</ele>
        <time>2022-10-25T06:44:43Z</time>
      </trkpt>
      <trkpt lat="46.64472" lon="6.03278">
        <ele>851.2</ele>
        <time>2022-10-25T06:44:49Z</time>
      </trkpt>
      <trkpt lat="46.64475" lon="6.03284">
        <ele>850.9</ele>
        <time>2022-10-25T06:44:55Z</time>
      </trkpt>
      <trkpt lat="46.64479" lon="6.03289">
        <ele>850.9</ele>
        <time>2022-10-25T06:45:01Z</time>
      </trkpt>
      <trkpt lat="46.64484" lon="6.03292">
        <ele>850.8</ele>
        <time>2022-10-25T06:45:07Z</time>
      </trkpt>
      <trkpt lat="46.64487" lon="6.03297">
        <ele>850.3</ele>
        <time>2022-10-25T06:45:12Z</time>
      </trkpt>
      <trkpt lat="46.64491" lon="6.033">
        <ele>850</ele>
        <time>2022-10-25T06:45:17Z</time>
      </trkpt>
      <trkpt lat="46.64494" lon="6.03305">
        <ele>850.1</ele>
        <time>2022-10-25T06:45:22Z</time>
      </trkpt>
      <trkpt lat="46.64497" lon="6.03312">
        <ele>850.1</ele>
        <time>2022-10-25T06:45:28Z</time>
      </trkpt>
      <trkpt lat="46.64499" lon="6.03318">
        <ele>849.9</ele>
        <time>2022-10-25T06:45:33Z</time>
      </trkpt>
      <trkpt lat="46.64502" lon="6.03323">
        <ele>849.7</ele>
        <time>2022-10-25T06:45:38Z</time>
      </trkpt>
      <trkpt lat="46.64504" lon="6.03329">
        <ele>849.9</ele>
        <time>2022-10-25T06:45:43Z</time>
      </trkpt>
      <trkpt lat="46.64508" lon="6.03334">
        <ele>850.2</ele>
        <time>2022-10-25T06:45:48Z</time>
      </trkpt>
      <trkpt lat="46.6451" lon="6.03339">
        <ele>850.7</ele>
        <time>2022-10-25T06:45:53Z</time>
      </trkpt>
      <trkpt lat="46.64514" lon="6.03343">
        <ele>851.1</ele>
        <time>2022-10-25T06:45:58Z</time>
      </trkpt>
      <trkpt lat="46.64518" lon="6.03348">
        <ele>851.5</ele>
        <time>2022-10-25T06:46:03Z</time>
      </trkpt>
      <trkpt lat="46.64522" lon="6.03352">
        <ele>851.7</ele>
        <time>2022-10-25T06:46:08Z</time>
      </trkpt>
      <trkpt lat="46.64526" lon="6.03356">
        <ele>852.1</ele>
        <time>2022-10-25T06:46:13Z</time>
      </trkpt>
      <trkpt lat="46.64529" lon="6.03361">
        <ele>852.4</ele>
        <time>2022-10-25T06:46:19Z</time>
      </trkpt>
      <trkpt lat="46.64533" lon="6.03366">
        <ele>852.6</ele>
        <time>2022-10-25T06:46:26Z</time>
      </trkpt>
      <trkpt lat="46.64537" lon="6.03372">
        <ele>852.7</ele>
        <time>2022-10-25T06:46:31Z</time>
      </trkpt>
      <trkpt lat="46.6454" lon="6.03376">
        <ele>853</ele>
        <time>2022-10-25T06:46:37Z</time>
      </trkpt>
      <trkpt lat="46.64543" lon="6.03382">
        <ele>853.7</ele>
        <time>2022-10-25T06:46:43Z</time>
      </trkpt>
      <trkpt lat="46.64547" lon="6.03387">
        <ele>853.9</ele>
        <time>2022-10-25T06:46:48Z</time>
      </trkpt>
      <trkpt lat="46.6455" lon="6.03393">
        <ele>854</ele>
        <time>2022-10-25T06:46:54Z</time>
      </trkpt>
      <trkpt lat="46.64553" lon="6.03399">
        <ele>854.3</ele>
        <time>2022-10-25T06:47:00Z</time>
      </trkpt>
      <trkpt lat="46.64555" lon="6.03406">
        <ele>855.4</ele>
        <time>2022-10-25T06:47:06Z</time>
      </trkpt>
      <trkpt lat="46.64558" lon="6.03412">
        <ele>856.6</ele>
        <time>2022-10-25T06:47:11Z</time>
      </trkpt>
      <trkpt lat="46.64561" lon="6.03418">
        <ele>857.4</ele>
        <time>2022-10-25T06:47:16Z</time>
      </trkpt>
      <trkpt lat="46.64563" lon="6.03425">
        <ele>858.3</ele>
        <time>2022-10-25T06:47:22Z</time>
      </trkpt>
      <trkpt lat="46.64566" lon="6.03431">
        <ele>858.5</ele>
        <time>2022-10-25T06:47:27Z</time>
      </trkpt>
      <trkpt lat="46.64569" lon="6.03436">
        <ele>858.5</ele>
        <time>2022-10-25T06:47:32Z</time>
      </trkpt>
      <trkpt lat="46.64573" lon="6.0344">
        <ele>858.9</ele>
        <time>2022-10-25T06:47:37Z</time>
      </trkpt>
      <trkpt lat="46.64577" lon="6.03444">
        <ele>859.1</ele>
        <time>2022-10-25T06:47:43Z</time>
      </trkpt>
      <trkpt lat="46.64581" lon="6.03448">
        <ele>859.3</ele>
        <time>2022-10-25T06:47:49Z</time>
      </trkpt>
      <trkpt lat="46.64584" lon="6.03454">
        <ele>860.3</ele>
        <time>2022-10-25T06:47:56Z</time>
      </trkpt>
      <trkpt lat="46.64584" lon="6.03461">
        <ele>861.1</ele>
        <time>2022-10-25T06:48:03Z</time>
      </trkpt>
      <trkpt lat="46.64584" lon="6.03468">
        <ele>861.2</ele>
        <time>2022-10-25T06:48:21Z</time>
      </trkpt>
      <trkpt lat="46.64585" lon="6.03476">
        <ele>860.8</ele>
        <time>2022-10-25T06:48:27Z</time>
      </trkpt>
      <trkpt lat="46.64587" lon="6.03483">
        <ele>860.9</ele>
        <time>2022-10-25T06:48:33Z</time>
      </trkpt>
      <trkpt lat="46.64589" lon="6.03489">
        <ele>860.9</ele>
        <time>2022-10-25T06:48:39Z</time>
      </trkpt>
      <trkpt lat="46.64592" lon="6.03495">
        <ele>861.3</ele>
        <time>2022-10-25T06:48:45Z</time>
      </trkpt>
      <trkpt lat="46.64596" lon="6.03499">
        <ele>862</ele>
        <time>2022-10-25T06:48:51Z</time>
      </trkpt>
      <trkpt lat="46.64599" lon="6.03504">
        <ele>863.1</ele>
        <time>2022-10-25T06:48:58Z</time>
      </trkpt>
      <trkpt lat="46.64601" lon="6.03511">
        <ele>863.7</ele>
        <time>2022-10-25T06:49:04Z</time>
      </trkpt>
      <trkpt lat="46.64603" lon="6.03517">
        <ele>864.1</ele>
        <time>2022-10-25T06:49:11Z</time>
      </trkpt>
      <trkpt lat="46.64605" lon="6.03524">
        <ele>865</ele>
        <time>2022-10-25T06:49:17Z</time>
      </trkpt>
      <trkpt lat="46.64606" lon="6.03531">
        <ele>865.8</ele>
        <time>2022-10-25T06:49:22Z</time>
      </trkpt>
      <trkpt lat="46.64607" lon="6.03537">
        <ele>866</ele>
        <time>2022-10-25T06:49:27Z</time>
      </trkpt>
      <trkpt lat="46.64607" lon="6.03545">
        <ele>865.8</ele>
        <time>2022-10-25T06:49:32Z</time>
      </trkpt>
      <trkpt lat="46.64608" lon="6.03552">
        <ele>865.7</ele>
        <time>2022-10-25T06:49:37Z</time>
      </trkpt>
      <trkpt lat="46.6461" lon="6.03559">
        <ele>865.6</ele>
        <time>2022-10-25T06:49:42Z</time>
      </trkpt>
      <trkpt lat="46.64612" lon="6.03565">
        <ele>865.5</ele>
        <time>2022-10-25T06:49:47Z</time>
      </trkpt>
      <trkpt lat="46.64614" lon="6.03572">
        <ele>865.9</ele>
        <time>2022-10-25T06:49:52Z</time>
      </trkpt>
      <trkpt lat="46.64615" lon="6.03579">
        <ele>866.6</ele>
        <time>2022-10-25T06:49:57Z</time>
      </trkpt>
      <trkpt lat="46.64616" lon="6.03586">
        <ele>866.4</ele>
        <time>2022-10-25T06:50:04Z</time>
      </trkpt>
      <trkpt lat="46.64618" lon="6.03593">
        <ele>866.4</ele>
        <time>2022-10-25T06:50:10Z</time>
      </trkpt>
      <trkpt lat="46.64621" lon="6.03599">
        <ele>866.7</ele>
        <time>2022-10-25T06:50:15Z</time>
      </trkpt>
      <trkpt lat="46.64622" lon="6.03605">
        <ele>867.5</ele>
        <time>2022-10-25T06:50:20Z</time>
      </trkpt>
      <trkpt lat="46.64625" lon="6.03611">
        <ele>869.1</ele>
        <time>2022-10-25T06:50:26Z</time>
      </trkpt>
      <trkpt lat="46.64628" lon="6.03616">
        <ele>870.1</ele>
        <time>2022-10-25T06:50:32Z</time>
      </trkpt>
      <trkpt lat="46.64631" lon="6.03622">
        <ele>870.5</ele>
        <time>2022-10-25T06:50:40Z</time>
      </trkpt>
      <trkpt lat="46.64634" lon="6.03627">
        <ele>869.7</ele>
        <time>2022-10-25T06:50:54Z</time>
      </trkpt>
      <trkpt lat="46.64637" lon="6.03633">
        <ele>869.1</ele>
        <time>2022-10-25T06:50:59Z</time>
      </trkpt>
      <trkpt lat="46.6464" lon="6.03638">
        <ele>869</ele>
        <time>2022-10-25T06:51:04Z</time>
      </trkpt>
      <trkpt lat="46.64644" lon="6.03641">
        <ele>869.5</ele>
        <time>2022-10-25T06:51:10Z</time>
      </trkpt>
      <trkpt lat="46.64649" lon="6.03644">
        <ele>870.3</ele>
        <time>2022-10-25T06:51:15Z</time>
      </trkpt>
      <trkpt lat="46.64653" lon="6.03647">
        <ele>870.7</ele>
        <time>2022-10-25T06:51:19Z</time>
      </trkpt>
      <trkpt lat="46.64657" lon="6.0365">
        <ele>870.6</ele>
        <time>2022-10-25T06:51:24Z</time>
      </trkpt>
      <trkpt lat="46.64662" lon="6.03653">
        <ele>869.6</ele>
        <time>2022-10-25T06:51:30Z</time>
      </trkpt>
      <trkpt lat="46.64665" lon="6.03658">
        <ele>868.7</ele>
        <time>2022-10-25T06:51:35Z</time>
      </trkpt>
      <trkpt lat="46.64669" lon="6.03663">
        <ele>868.2</ele>
        <time>2022-10-25T06:51:40Z</time>
      </trkpt>
      <trkpt lat="46.64672" lon="6.03667">
        <ele>868.1</ele>
        <time>2022-10-25T06:51:45Z</time>
      </trkpt>
      <trkpt lat="46.64676" lon="6.03671">
        <ele>868.4</ele>
        <time>2022-10-25T06:51:51Z</time>
      </trkpt>
      <trkpt lat="46.64681" lon="6.03674">
        <ele>868.9</ele>
        <time>2022-10-25T06:51:57Z</time>
      </trkpt>
      <trkpt lat="46.64685" lon="6.03678">
        <ele>869</ele>
        <time>2022-10-25T06:52:02Z</time>
      </trkpt>
      <trkpt lat="46.64689" lon="6.03681">
        <ele>869.1</ele>
        <time>2022-10-25T06:52:08Z</time>
      </trkpt>
      <trkpt lat="46.64693" lon="6.03684">
        <ele>869.2</ele>
        <time>2022-10-25T06:52:14Z</time>
      </trkpt>
      <trkpt lat="46.64698" lon="6.03687">
        <ele>869.7</ele>
        <time>2022-10-25T06:52:19Z</time>
      </trkpt>
      <trkpt lat="46.64702" lon="6.0369">
        <ele>870</ele>
        <time>2022-10-25T06:52:24Z</time>
      </trkpt>
      <trkpt lat="46.64706" lon="6.03694">
        <ele>870.1</ele>
        <time>2022-10-25T06:52:29Z</time>
      </trkpt>
      <trkpt lat="46.6471" lon="6.03697">
        <ele>870.2</ele>
        <time>2022-10-25T06:52:36Z</time>
      </trkpt>
      <trkpt lat="46.6471" lon="6.03704">
        <ele>871.5</ele>
        <time>2022-10-25T06:53:01Z</time>
      </trkpt>
      <trkpt lat="46.64715" lon="6.03709">
        <ele>871.9</ele>
        <time>2022-10-25T06:53:09Z</time>
      </trkpt>
      <trkpt lat="46.64719" lon="6.03713">
        <ele>872.7</ele>
        <time>2022-10-25T06:53:14Z</time>
      </trkpt>
      <trkpt lat="46.64722" lon="6.03719">
        <ele>874.5</ele>
        <time>2022-10-25T06:53:20Z</time>
      </trkpt>
      <trkpt lat="46.64725" lon="6.03724">
        <ele>876.2</ele>
        <time>2022-10-25T06:53:26Z</time>
      </trkpt>
      <trkpt lat="46.64729" lon="6.03727">
        <ele>877.2</ele>
        <time>2022-10-25T06:53:33Z</time>
      </trkpt>
      <trkpt lat="46.64733" lon="6.0373">
        <ele>878</ele>
        <time>2022-10-25T06:53:40Z</time>
      </trkpt>
      <trkpt lat="46.64737" lon="6.03735">
        <ele>878.4</ele>
        <time>2022-10-25T06:53:47Z</time>
      </trkpt>
      <trkpt lat="46.64742" lon="6.03738">
        <ele>879</ele>
        <time>2022-10-25T06:53:52Z</time>
      </trkpt>
      <trkpt lat="46.64747" lon="6.0374">
        <ele>879.8</ele>
        <time>2022-10-25T06:53:57Z</time>
      </trkpt>
      <trkpt lat="46.64751" lon="6.03744">
        <ele>880.4</ele>
        <time>2022-10-25T06:54:03Z</time>
      </trkpt>
      <trkpt lat="46.64755" lon="6.03748">
        <ele>880.3</ele>
        <time>2022-10-25T06:54:08Z</time>
      </trkpt>
      <trkpt lat="46.64758" lon="6.03753">
        <ele>879.9</ele>
        <time>2022-10-25T06:54:13Z</time>
      </trkpt>
      <trkpt lat="46.64761" lon="6.03758">
        <ele>879.9</ele>
        <time>2022-10-25T06:54:18Z</time>
      </trkpt>
      <trkpt lat="46.64765" lon="6.03761">
        <ele>880.2</ele>
        <time>2022-10-25T06:54:24Z</time>
      </trkpt>
      <trkpt lat="46.6477" lon="6.03763">
        <ele>880.7</ele>
        <time>2022-10-25T06:54:29Z</time>
      </trkpt>
      <trkpt lat="46.64775" lon="6.03765">
        <ele>881.6</ele>
        <time>2022-10-25T06:54:34Z</time>
      </trkpt>
      <trkpt lat="46.6478" lon="6.03766">
        <ele>882.8</ele>
        <time>2022-10-25T06:54:39Z</time>
      </trkpt>
      <trkpt lat="46.64785" lon="6.03765">
        <ele>884.1</ele>
        <time>2022-10-25T06:54:44Z</time>
      </trkpt>
      <trkpt lat="46.64789" lon="6.03763">
        <ele>885.7</ele>
        <time>2022-10-25T06:54:50Z</time>
      </trkpt>
      <trkpt lat="46.64793" lon="6.03758">
        <ele>886.8</ele>
        <time>2022-10-25T06:54:57Z</time>
      </trkpt>
      <trkpt lat="46.64796" lon="6.03752">
        <ele>887.5</ele>
        <time>2022-10-25T06:55:02Z</time>
      </trkpt>
      <trkpt lat="46.64798" lon="6.03746">
        <ele>888.3</ele>
        <time>2022-10-25T06:55:07Z</time>
      </trkpt>
      <trkpt lat="46.64799" lon="6.03739">
        <ele>889.8</ele>
        <time>2022-10-25T06:55:13Z</time>
      </trkpt>
      <trkpt lat="46.64802" lon="6.03733">
        <ele>890.9</ele>
        <time>2022-10-25T06:55:20Z</time>
      </trkpt>
      <trkpt lat="46.64804" lon="6.03727">
        <ele>891.4</ele>
        <time>2022-10-25T06:55:25Z</time>
      </trkpt>
      <trkpt lat="46.64808" lon="6.03721">
        <ele>892.1</ele>
        <time>2022-10-25T06:55:31Z</time>
      </trkpt>
      <trkpt lat="46.64811" lon="6.03717">
        <ele>892.2</ele>
        <time>2022-10-25T06:55:37Z</time>
      </trkpt>
      <trkpt lat="46.64816" lon="6.03715">
        <ele>892.2</ele>
        <time>2022-10-25T06:55:43Z</time>
      </trkpt>
      <trkpt lat="46.64821" lon="6.03715">
        <ele>892.8</ele>
        <time>2022-10-25T06:55:50Z</time>
      </trkpt>
      <trkpt lat="46.64826" lon="6.03715">
        <ele>893.1</ele>
        <time>2022-10-25T06:55:56Z</time>
      </trkpt>
      <trkpt lat="46.64831" lon="6.03715">
        <ele>893.5</ele>
        <time>2022-10-25T06:56:01Z</time>
      </trkpt>
      <trkpt lat="46.64836" lon="6.03714">
        <ele>894.3</ele>
        <time>2022-10-25T06:56:07Z</time>
      </trkpt>
      <trkpt lat="46.64841" lon="6.03713">
        <ele>895.6</ele>
        <time>2022-10-25T06:56:14Z</time>
      </trkpt>
      <trkpt lat="46.64846" lon="6.03715">
        <ele>896.7</ele>
        <time>2022-10-25T06:56:22Z</time>
      </trkpt>
      <trkpt lat="46.6485" lon="6.03716">
        <ele>897.3</ele>
        <time>2022-10-25T06:56:28Z</time>
      </trkpt>
      <trkpt lat="46.64856" lon="6.03718">
        <ele>898.2</ele>
        <time>2022-10-25T06:56:34Z</time>
      </trkpt>
      <trkpt lat="46.6486" lon="6.03719">
        <ele>899</ele>
        <time>2022-10-25T06:56:39Z</time>
      </trkpt>
      <trkpt lat="46.64865" lon="6.03721">
        <ele>900.3</ele>
        <time>2022-10-25T06:56:46Z</time>
      </trkpt>
      <trkpt lat="46.6487" lon="6.03722">
        <ele>901.1</ele>
        <time>2022-10-25T06:56:52Z</time>
      </trkpt>
      <trkpt lat="46.64874" lon="6.03724">
        <ele>901.6</ele>
        <time>2022-10-25T06:56:59Z</time>
      </trkpt>
      <trkpt lat="46.64879" lon="6.03726">
        <ele>901.8</ele>
        <time>2022-10-25T06:57:06Z</time>
      </trkpt>
      <trkpt lat="46.64884" lon="6.03725">
        <ele>902.1</ele>
        <time>2022-10-25T06:57:12Z</time>
      </trkpt>
      <trkpt lat="46.64888" lon="6.03722">
        <ele>902</ele>
        <time>2022-10-25T06:57:18Z</time>
      </trkpt>
      <trkpt lat="46.64893" lon="6.03719">
        <ele>902.4</ele>
        <time>2022-10-25T06:57:23Z</time>
      </trkpt>
      <trkpt lat="46.64896" lon="6.03713">
        <ele>903.2</ele>
        <time>2022-10-25T06:57:29Z</time>
      </trkpt>
      <trkpt lat="46.64899" lon="6.03707">
        <ele>904.1</ele>
        <time>2022-10-25T06:57:36Z</time>
      </trkpt>
      <trkpt lat="46.64902" lon="6.03702">
        <ele>904.5</ele>
        <time>2022-10-25T06:57:41Z</time>
      </trkpt>
      <trkpt lat="46.64905" lon="6.03696">
        <ele>904.7</ele>
        <time>2022-10-25T06:57:47Z</time>
      </trkpt>
      <trkpt lat="46.64909" lon="6.03691">
        <ele>905</ele>
        <time>2022-10-25T06:57:53Z</time>
      </trkpt>
      <trkpt lat="46.64913" lon="6.03687">
        <ele>905</ele>
        <time>2022-10-25T06:57:59Z</time>
      </trkpt>
      <trkpt lat="46.64917" lon="6.03682">
        <ele>904.8</ele>
        <time>2022-10-25T06:58:05Z</time>
      </trkpt>
      <trkpt lat="46.64921" lon="6.03679">
        <ele>905.2</ele>
        <time>2022-10-25T06:58:11Z</time>
      </trkpt>
      <trkpt lat="46.64926" lon="6.03677">
        <ele>905.9</ele>
        <time>2022-10-25T06:58:17Z</time>
      </trkpt>
      <trkpt lat="46.64931" lon="6.03675">
        <ele>907.3</ele>
        <time>2022-10-25T06:58:23Z</time>
      </trkpt>
      <trkpt lat="46.64935" lon="6.03673">
        <ele>908.3</ele>
        <time>2022-10-25T06:58:29Z</time>
      </trkpt>
      <trkpt lat="46.6494" lon="6.03674">
        <ele>909.3</ele>
        <time>2022-10-25T06:58:35Z</time>
      </trkpt>
      <trkpt lat="46.64945" lon="6.03676">
        <ele>909.8</ele>
        <time>2022-10-25T06:58:41Z</time>
      </trkpt>
      <trkpt lat="46.6495" lon="6.03679">
        <ele>909.6</ele>
        <time>2022-10-25T06:58:47Z</time>
      </trkpt>
      <trkpt lat="46.64954" lon="6.03683">
        <ele>909.4</ele>
        <time>2022-10-25T06:58:52Z</time>
      </trkpt>
      <trkpt lat="46.64958" lon="6.03687">
        <ele>909.9</ele>
        <time>2022-10-25T06:58:59Z</time>
      </trkpt>
      <trkpt lat="46.64961" lon="6.03692">
        <ele>910.4</ele>
        <time>2022-10-25T06:59:05Z</time>
      </trkpt>
      <trkpt lat="46.64965" lon="6.03697">
        <ele>910.7</ele>
        <time>2022-10-25T06:59:11Z</time>
      </trkpt>
      <trkpt lat="46.64969" lon="6.03701">
        <ele>911</ele>
        <time>2022-10-25T06:59:15Z</time>
      </trkpt>
      <trkpt lat="46.64973" lon="6.03704">
        <ele>911.5</ele>
        <time>2022-10-25T06:59:20Z</time>
      </trkpt>
      <trkpt lat="46.64977" lon="6.03709">
        <ele>912.2</ele>
        <time>2022-10-25T06:59:26Z</time>
      </trkpt>
      <trkpt lat="46.64982" lon="6.03713">
        <ele>913.2</ele>
        <time>2022-10-25T06:59:32Z</time>
      </trkpt>
      <trkpt lat="46.64986" lon="6.03717">
        <ele>913.6</ele>
        <time>2022-10-25T06:59:38Z</time>
      </trkpt>
      <trkpt lat="46.6499" lon="6.0372">
        <ele>913.9</ele>
        <time>2022-10-25T06:59:44Z</time>
      </trkpt>
      <trkpt lat="46.64994" lon="6.03724">
        <ele>914.8</ele>
        <time>2022-10-25T06:59:51Z</time>
      </trkpt>
      <trkpt lat="46.64999" lon="6.03727">
        <ele>915.7</ele>
        <time>2022-10-25T06:59:56Z</time>
      </trkpt>
      <trkpt lat="46.65003" lon="6.03729">
        <ele>916.1</ele>
        <time>2022-10-25T07:00:01Z</time>
      </trkpt>
      <trkpt lat="46.65007" lon="6.03734">
        <ele>915.6</ele>
        <time>2022-10-25T07:00:07Z</time>
      </trkpt>
      <trkpt lat="46.65012" lon="6.03737">
        <ele>916.2</ele>
        <time>2022-10-25T07:00:13Z</time>
      </trkpt>
      <trkpt lat="46.65016" lon="6.0374">
        <ele>917.3</ele>
        <time>2022-10-25T07:00:19Z</time>
      </trkpt>
      <trkpt lat="46.6502" lon="6.03743">
        <ele>917.9</ele>
        <time>2022-10-25T07:00:24Z</time>
      </trkpt>
      <trkpt lat="46.65025" lon="6.03745">
        <ele>918.8</ele>
        <time>2022-10-25T07:00:29Z</time>
      </trkpt>
      <trkpt lat="46.65029" lon="6.03748">
        <ele>919.6</ele>
        <time>2022-10-25T07:00:34Z</time>
      </trkpt>
      <trkpt lat="46.65033" lon="6.03751">
        <ele>920.3</ele>
        <time>2022-10-25T07:00:39Z</time>
      </trkpt>
      <trkpt lat="46.65038" lon="6.03754">
        <ele>920.6</ele>
        <time>2022-10-25T07:00:44Z</time>
      </trkpt>
      <trkpt lat="46.65043" lon="6.03757">
        <ele>921.4</ele>
        <time>2022-10-25T07:00:50Z</time>
      </trkpt>
      <trkpt lat="46.65047" lon="6.03759">
        <ele>922</ele>
        <time>2022-10-25T07:00:56Z</time>
      </trkpt>
      <trkpt lat="46.65052" lon="6.03759">
        <ele>922.3</ele>
        <time>2022-10-25T07:01:02Z</time>
      </trkpt>
      <trkpt lat="46.65057" lon="6.03759">
        <ele>922.8</ele>
        <time>2022-10-25T07:01:07Z</time>
      </trkpt>
      <trkpt lat="46.65062" lon="6.03758">
        <ele>923.7</ele>
        <time>2022-10-25T07:01:13Z</time>
      </trkpt>
      <trkpt lat="46.65066" lon="6.03755">
        <ele>924.7</ele>
        <time>2022-10-25T07:01:20Z</time>
      </trkpt>
      <trkpt lat="46.65071" lon="6.03752">
        <ele>925.4</ele>
        <time>2022-10-25T07:01:26Z</time>
      </trkpt>
      <trkpt lat="46.65076" lon="6.03751">
        <ele>925.2</ele>
        <time>2022-10-25T07:01:32Z</time>
      </trkpt>
      <trkpt lat="46.6508" lon="6.03748">
        <ele>925.2</ele>
        <time>2022-10-25T07:01:38Z</time>
      </trkpt>
      <trkpt lat="46.65084" lon="6.03744">
        <ele>925.3</ele>
        <time>2022-10-25T07:01:44Z</time>
      </trkpt>
      <trkpt lat="46.65088" lon="6.03742">
        <ele>925.8</ele>
        <time>2022-10-25T07:01:49Z</time>
      </trkpt>
      <trkpt lat="46.65093" lon="6.03739">
        <ele>926.6</ele>
        <time>2022-10-25T07:01:54Z</time>
      </trkpt>
      <trkpt lat="46.65098" lon="6.03738">
        <ele>927.6</ele>
        <time>2022-10-25T07:01:59Z</time>
      </trkpt>
      <trkpt lat="46.65103" lon="6.03736">
        <ele>928.1</ele>
        <time>2022-10-25T07:02:06Z</time>
      </trkpt>
      <trkpt lat="46.65107" lon="6.03732">
        <ele>928.8</ele>
        <time>2022-10-25T07:02:12Z</time>
      </trkpt>
      <trkpt lat="46.65112" lon="6.03729">
        <ele>929.8</ele>
        <time>2022-10-25T07:02:17Z</time>
      </trkpt>
      <trkpt lat="46.65117" lon="6.03728">
        <ele>930.6</ele>
        <time>2022-10-25T07:02:24Z</time>
      </trkpt>
      <trkpt lat="46.65122" lon="6.03727">
        <ele>931.4</ele>
        <time>2022-10-25T07:02:33Z</time>
      </trkpt>
      <trkpt lat="46.65127" lon="6.03725">
        <ele>932</ele>
        <time>2022-10-25T07:02:40Z</time>
      </trkpt>
      <trkpt lat="46.65132" lon="6.03724">
        <ele>932.3</ele>
        <time>2022-10-25T07:02:46Z</time>
      </trkpt>
      <trkpt lat="46.65137" lon="6.03725">
        <ele>932.6</ele>
        <time>2022-10-25T07:02:50Z</time>
      </trkpt>
      <trkpt lat="46.65141" lon="6.03728">
        <ele>933.3</ele>
        <time>2022-10-25T07:02:55Z</time>
      </trkpt>
      <trkpt lat="46.65143" lon="6.03734">
        <ele>934.3</ele>
        <time>2022-10-25T07:03:00Z</time>
      </trkpt>
      <trkpt lat="46.65145" lon="6.03741">
        <ele>935</ele>
        <time>2022-10-25T07:03:05Z</time>
      </trkpt>
      <trkpt lat="46.65148" lon="6.03748">
        <ele>935.1</ele>
        <time>2022-10-25T07:03:10Z</time>
      </trkpt>
      <trkpt lat="46.65151" lon="6.03754">
        <ele>935.1</ele>
        <time>2022-10-25T07:03:15Z</time>
      </trkpt>
      <trkpt lat="46.65153" lon="6.03761">
        <ele>935.4</ele>
        <time>2022-10-25T07:03:20Z</time>
      </trkpt>
      <trkpt lat="46.65154" lon="6.03767">
        <ele>935.8</ele>
        <time>2022-10-25T07:03:24Z</time>
      </trkpt>
      <trkpt lat="46.65156" lon="6.03774">
        <ele>936.2</ele>
        <time>2022-10-25T07:03:29Z</time>
      </trkpt>
      <trkpt lat="46.65158" lon="6.03782">
        <ele>936.3</ele>
        <time>2022-10-25T07:03:35Z</time>
      </trkpt>
      <trkpt lat="46.6516" lon="6.03789">
        <ele>936.1</ele>
        <time>2022-10-25T07:03:41Z</time>
      </trkpt>
      <trkpt lat="46.65161" lon="6.03796">
        <ele>936.2</ele>
        <time>2022-10-25T07:03:47Z</time>
      </trkpt>
      <trkpt lat="46.65163" lon="6.03802">
        <ele>935.5</ele>
        <time>2022-10-25T07:03:53Z</time>
      </trkpt>
      <trkpt lat="46.65166" lon="6.03808">
        <ele>935</ele>
        <time>2022-10-25T07:03:59Z</time>
      </trkpt>
      <trkpt lat="46.65168" lon="6.03815">
        <ele>934.8</ele>
        <time>2022-10-25T07:04:04Z</time>
      </trkpt>
      <trkpt lat="46.65171" lon="6.03822">
        <ele>935.1</ele>
        <time>2022-10-25T07:04:10Z</time>
      </trkpt>
      <trkpt lat="46.65173" lon="6.03829">
        <ele>935.2</ele>
        <time>2022-10-25T07:04:15Z</time>
      </trkpt>
      <trkpt lat="46.65174" lon="6.03836">
        <ele>934.8</ele>
        <time>2022-10-25T07:04:21Z</time>
      </trkpt>
      <trkpt lat="46.65176" lon="6.03842">
        <ele>934.4</ele>
        <time>2022-10-25T07:04:26Z</time>
      </trkpt>
      <trkpt lat="46.65179" lon="6.03849">
        <ele>934.3</ele>
        <time>2022-10-25T07:04:31Z</time>
      </trkpt>
      <trkpt lat="46.65182" lon="6.03854">
        <ele>934.4</ele>
        <time>2022-10-25T07:04:36Z</time>
      </trkpt>
      <trkpt lat="46.65186" lon="6.0386">
        <ele>934.6</ele>
        <time>2022-10-25T07:04:41Z</time>
      </trkpt>
      <trkpt lat="46.65188" lon="6.03867">
        <ele>934.6</ele>
        <time>2022-10-25T07:04:46Z</time>
      </trkpt>
      <trkpt lat="46.6519" lon="6.03872">
        <ele>934.9</ele>
        <time>2022-10-25T07:04:51Z</time>
      </trkpt>
      <trkpt lat="46.65193" lon="6.0388">
        <ele>935.6</ele>
        <time>2022-10-25T07:04:56Z</time>
      </trkpt>
      <trkpt lat="46.65196" lon="6.03886">
        <ele>935.9</ele>
        <time>2022-10-25T07:05:01Z</time>
      </trkpt>
      <trkpt lat="46.65199" lon="6.03892">
        <ele>936.2</ele>
        <time>2022-10-25T07:05:06Z</time>
      </trkpt>
      <trkpt lat="46.65202" lon="6.03898">
        <ele>936.3</ele>
        <time>2022-10-25T07:05:11Z</time>
      </trkpt>
      <trkpt lat="46.65204" lon="6.03904">
        <ele>936.8</ele>
        <time>2022-10-25T07:05:16Z</time>
      </trkpt>
      <trkpt lat="46.65207" lon="6.03911">
        <ele>938.1</ele>
        <time>2022-10-25T07:05:22Z</time>
      </trkpt>
      <trkpt lat="46.65211" lon="6.03913">
        <ele>938.9</ele>
        <time>2022-10-25T07:05:29Z</time>
      </trkpt>
      <trkpt lat="46.6521" lon="6.03906">
        <ele>939</ele>
        <time>2022-10-25T07:05:36Z</time>
      </trkpt>
      <trkpt lat="46.65208" lon="6.039">
        <ele>939.5</ele>
        <time>2022-10-25T07:05:41Z</time>
      </trkpt>
      <trkpt lat="46.65206" lon="6.03893">
        <ele>940.3</ele>
        <time>2022-10-25T07:05:46Z</time>
      </trkpt>
      <trkpt lat="46.65207" lon="6.03887">
        <ele>941.6</ele>
        <time>2022-10-25T07:05:51Z</time>
      </trkpt>
      <trkpt lat="46.65208" lon="6.0388">
        <ele>942.4</ele>
        <time>2022-10-25T07:05:56Z</time>
      </trkpt>
      <trkpt lat="46.65211" lon="6.03874">
        <ele>942.8</ele>
        <time>2022-10-25T07:06:01Z</time>
      </trkpt>
      <trkpt lat="46.65213" lon="6.03869">
        <ele>942.5</ele>
        <time>2022-10-25T07:06:07Z</time>
      </trkpt>
      <trkpt lat="46.65216" lon="6.03862">
        <ele>942.3</ele>
        <time>2022-10-25T07:06:13Z</time>
      </trkpt>
      <trkpt lat="46.65218" lon="6.03855">
        <ele>942.7</ele>
        <time>2022-10-25T07:06:19Z</time>
      </trkpt>
      <trkpt lat="46.6522" lon="6.03849">
        <ele>943</ele>
        <time>2022-10-25T07:06:23Z</time>
      </trkpt>
      <trkpt lat="46.65223" lon="6.03843">
        <ele>943.1</ele>
        <time>2022-10-25T07:06:28Z</time>
      </trkpt>
      <trkpt lat="46.65225" lon="6.03836">
        <ele>943.5</ele>
        <time>2022-10-25T07:06:34Z</time>
      </trkpt>
      <trkpt lat="46.65227" lon="6.0383">
        <ele>944.1</ele>
        <time>2022-10-25T07:06:39Z</time>
      </trkpt>
      <trkpt lat="46.65229" lon="6.03825">
        <ele>944.6</ele>
        <time>2022-10-25T07:06:45Z</time>
      </trkpt>
      <trkpt lat="46.65232" lon="6.03818">
        <ele>945.1</ele>
        <time>2022-10-25T07:06:52Z</time>
      </trkpt>
      <trkpt lat="46.65234" lon="6.03813">
        <ele>945.7</ele>
        <time>2022-10-25T07:06:57Z</time>
      </trkpt>
      <trkpt lat="46.65238" lon="6.03809">
        <ele>946.1</ele>
        <time>2022-10-25T07:07:03Z</time>
      </trkpt>
      <trkpt lat="46.65243" lon="6.03806">
        <ele>947</ele>
        <time>2022-10-25T07:07:10Z</time>
      </trkpt>
      <trkpt lat="46.65247" lon="6.03801">
        <ele>947.9</ele>
        <time>2022-10-25T07:07:16Z</time>
      </trkpt>
      <trkpt lat="46.65251" lon="6.03797">
        <ele>948.5</ele>
        <time>2022-10-25T07:07:21Z</time>
      </trkpt>
      <trkpt lat="46.65255" lon="6.03793">
        <ele>949.5</ele>
        <time>2022-10-25T07:07:27Z</time>
      </trkpt>
      <trkpt lat="46.6526" lon="6.0379">
        <ele>949.8</ele>
        <time>2022-10-25T07:07:33Z</time>
      </trkpt>
      <trkpt lat="46.65264" lon="6.03787">
        <ele>950.1</ele>
        <time>2022-10-25T07:07:38Z</time>
      </trkpt>
      <trkpt lat="46.65269" lon="6.03784">
        <ele>950.5</ele>
        <time>2022-10-25T07:07:44Z</time>
      </trkpt>
      <trkpt lat="46.65273" lon="6.03781">
        <ele>950.9</ele>
        <time>2022-10-25T07:07:49Z</time>
      </trkpt>
      <trkpt lat="46.65277" lon="6.03776">
        <ele>951.6</ele>
        <time>2022-10-25T07:07:56Z</time>
      </trkpt>
      <trkpt lat="46.65281" lon="6.03773">
        <ele>952</ele>
        <time>2022-10-25T07:08:01Z</time>
      </trkpt>
      <trkpt lat="46.65286" lon="6.03769">
        <ele>952.5</ele>
        <time>2022-10-25T07:08:07Z</time>
      </trkpt>
      <trkpt lat="46.65289" lon="6.03765">
        <ele>953.5</ele>
        <time>2022-10-25T07:08:12Z</time>
      </trkpt>
      <trkpt lat="46.65294" lon="6.03761">
        <ele>955</ele>
        <time>2022-10-25T07:08:18Z</time>
      </trkpt>
      <trkpt lat="46.65299" lon="6.03758">
        <ele>956.4</ele>
        <time>2022-10-25T07:08:24Z</time>
      </trkpt>
      <trkpt lat="46.65303" lon="6.03755">
        <ele>957.2</ele>
        <time>2022-10-25T07:08:30Z</time>
      </trkpt>
      <trkpt lat="46.65308" lon="6.03752">
        <ele>957.6</ele>
        <time>2022-10-25T07:08:35Z</time>
      </trkpt>
      <trkpt lat="46.65312" lon="6.03749">
        <ele>958.4</ele>
        <time>2022-10-25T07:08:42Z</time>
      </trkpt>
      <trkpt lat="46.65316" lon="6.03746">
        <ele>958.9</ele>
        <time>2022-10-25T07:08:47Z</time>
      </trkpt>
      <trkpt lat="46.6532" lon="6.03741">
        <ele>959.5</ele>
        <time>2022-10-25T07:08:54Z</time>
      </trkpt>
      <trkpt lat="46.65325" lon="6.03739">
        <ele>959.7</ele>
        <time>2022-10-25T07:08:59Z</time>
      </trkpt>
      <trkpt lat="46.65329" lon="6.03735">
        <ele>960.2</ele>
        <time>2022-10-25T07:09:08Z</time>
      </trkpt>
      <trkpt lat="46.65332" lon="6.0373">
        <ele>960.7</ele>
        <time>2022-10-25T07:09:15Z</time>
      </trkpt>
      <trkpt lat="46.65336" lon="6.03725">
        <ele>960.4</ele>
        <time>2022-10-25T07:09:21Z</time>
      </trkpt>
      <trkpt lat="46.6534" lon="6.03722">
        <ele>960.4</ele>
        <time>2022-10-25T07:09:27Z</time>
      </trkpt>
      <trkpt lat="46.65344" lon="6.03717">
        <ele>960.9</ele>
        <time>2022-10-25T07:09:33Z</time>
      </trkpt>
      <trkpt lat="46.65348" lon="6.03713">
        <ele>961.9</ele>
        <time>2022-10-25T07:09:38Z</time>
      </trkpt>
      <trkpt lat="46.65352" lon="6.03708">
        <ele>963</ele>
        <time>2022-10-25T07:09:43Z</time>
      </trkpt>
      <trkpt lat="46.65356" lon="6.03704">
        <ele>964</ele>
        <time>2022-10-25T07:09:49Z</time>
      </trkpt>
      <trkpt lat="46.6536" lon="6.03699">
        <ele>964.3</ele>
        <time>2022-10-25T07:09:54Z</time>
      </trkpt>
      <trkpt lat="46.65364" lon="6.03694">
        <ele>964.7</ele>
        <time>2022-10-25T07:09:59Z</time>
      </trkpt>
      <trkpt lat="46.65368" lon="6.03691">
        <ele>964.9</ele>
        <time>2022-10-25T07:10:04Z</time>
      </trkpt>
      <trkpt lat="46.65371" lon="6.03686">
        <ele>965.1</ele>
        <time>2022-10-25T07:10:08Z</time>
      </trkpt>
      <trkpt lat="46.65374" lon="6.03681">
        <ele>966.1</ele>
        <time>2022-10-25T07:10:12Z</time>
      </trkpt>
      <trkpt lat="46.65378" lon="6.03676">
        <ele>967.5</ele>
        <time>2022-10-25T07:10:17Z</time>
      </trkpt>
      <trkpt lat="46.65382" lon="6.03672">
        <ele>968.1</ele>
        <time>2022-10-25T07:10:22Z</time>
      </trkpt>
      <trkpt lat="46.65386" lon="6.03667">
        <ele>968.2</ele>
        <time>2022-10-25T07:10:27Z</time>
      </trkpt>
      <trkpt lat="46.65389" lon="6.03662">
        <ele>968.1</ele>
        <time>2022-10-25T07:10:32Z</time>
      </trkpt>
      <trkpt lat="46.65392" lon="6.03658">
        <ele>968.1</ele>
        <time>2022-10-25T07:10:37Z</time>
      </trkpt>
      <trkpt lat="46.65396" lon="6.03653">
        <ele>968.8</ele>
        <time>2022-10-25T07:10:43Z</time>
      </trkpt>
      <trkpt lat="46.65399" lon="6.03648">
        <ele>969.6</ele>
        <time>2022-10-25T07:10:49Z</time>
      </trkpt>
      <trkpt lat="46.65403" lon="6.03642">
        <ele>970.3</ele>
        <time>2022-10-25T07:10:55Z</time>
      </trkpt>
      <trkpt lat="46.65407" lon="6.03641">
        <ele>971.3</ele>
        <time>2022-10-25T07:11:01Z</time>
      </trkpt>
      <trkpt lat="46.65412" lon="6.03639">
        <ele>972</ele>
        <time>2022-10-25T07:11:06Z</time>
      </trkpt>
      <trkpt lat="46.65417" lon="6.03637">
        <ele>972.6</ele>
        <time>2022-10-25T07:11:12Z</time>
      </trkpt>
      <trkpt lat="46.6542" lon="6.03633">
        <ele>973.7</ele>
        <time>2022-10-25T07:11:20Z</time>
      </trkpt>
      <trkpt lat="46.65425" lon="6.03629">
        <ele>974.5</ele>
        <time>2022-10-25T07:11:25Z</time>
      </trkpt>
      <trkpt lat="46.65429" lon="6.03625">
        <ele>974.5</ele>
        <time>2022-10-25T07:11:32Z</time>
      </trkpt>
      <trkpt lat="46.65434" lon="6.03623">
        <ele>974.4</ele>
        <time>2022-10-25T07:11:37Z</time>
      </trkpt>
      <trkpt lat="46.65439" lon="6.03622">
        <ele>974.3</ele>
        <time>2022-10-25T07:11:42Z</time>
      </trkpt>
      <trkpt lat="46.65444" lon="6.03623">
        <ele>974.1</ele>
        <time>2022-10-25T07:11:47Z</time>
      </trkpt>
      <trkpt lat="46.65449" lon="6.03624">
        <ele>974.1</ele>
        <time>2022-10-25T07:11:52Z</time>
      </trkpt>
      <trkpt lat="46.65453" lon="6.03624">
        <ele>974.8</ele>
        <time>2022-10-25T07:11:56Z</time>
      </trkpt>
      <trkpt lat="46.65458" lon="6.03624">
        <ele>976.6</ele>
        <time>2022-10-25T07:12:03Z</time>
      </trkpt>
      <trkpt lat="46.65463" lon="6.03625">
        <ele>976.9</ele>
        <time>2022-10-25T07:12:09Z</time>
      </trkpt>
      <trkpt lat="46.65468" lon="6.03625">
        <ele>976.9</ele>
        <time>2022-10-25T07:12:16Z</time>
      </trkpt>
      <trkpt lat="46.65473" lon="6.03621">
        <ele>977.2</ele>
        <time>2022-10-25T07:12:22Z</time>
      </trkpt>
      <trkpt lat="46.65477" lon="6.03618">
        <ele>977.1</ele>
        <time>2022-10-25T07:12:27Z</time>
      </trkpt>
      <trkpt lat="46.65482" lon="6.03615">
        <ele>976.7</ele>
        <time>2022-10-25T07:12:32Z</time>
      </trkpt>
      <trkpt lat="46.65487" lon="6.03612">
        <ele>976.6</ele>
        <time>2022-10-25T07:12:37Z</time>
      </trkpt>
      <trkpt lat="46.65492" lon="6.03609">
        <ele>977</ele>
        <time>2022-10-25T07:12:42Z</time>
      </trkpt>
      <trkpt lat="46.65497" lon="6.03607">
        <ele>978.1</ele>
        <time>2022-10-25T07:12:46Z</time>
      </trkpt>
      <trkpt lat="46.65501" lon="6.03603">
        <ele>979.4</ele>
        <time>2022-10-25T07:12:50Z</time>
      </trkpt>
      <trkpt lat="46.65505" lon="6.03599">
        <ele>980.5</ele>
        <time>2022-10-25T07:12:55Z</time>
      </trkpt>
      <trkpt lat="46.65509" lon="6.03594">
        <ele>981.6</ele>
        <time>2022-10-25T07:13:02Z</time>
      </trkpt>
      <trkpt lat="46.65512" lon="6.03588">
        <ele>982.1</ele>
        <time>2022-10-25T07:13:07Z</time>
      </trkpt>
      <trkpt lat="46.65515" lon="6.03582">
        <ele>982.9</ele>
        <time>2022-10-25T07:13:13Z</time>
      </trkpt>
      <trkpt lat="46.65518" lon="6.03577">
        <ele>984.2</ele>
        <time>2022-10-25T07:13:21Z</time>
      </trkpt>
      <trkpt lat="46.65522" lon="6.03573">
        <ele>985.4</ele>
        <time>2022-10-25T07:13:27Z</time>
      </trkpt>
      <trkpt lat="46.65525" lon="6.03567">
        <ele>986.4</ele>
        <time>2022-10-25T07:13:33Z</time>
      </trkpt>
      <trkpt lat="46.65527" lon="6.0356">
        <ele>987</ele>
        <time>2022-10-25T07:13:40Z</time>
      </trkpt>
      <trkpt lat="46.65529" lon="6.03554">
        <ele>987.9</ele>
        <time>2022-10-25T07:13:46Z</time>
      </trkpt>
      <trkpt lat="46.65531" lon="6.03547">
        <ele>989.1</ele>
        <time>2022-10-25T07:13:53Z</time>
      </trkpt>
      <trkpt lat="46.6553" lon="6.0354">
        <ele>990.3</ele>
        <time>2022-10-25T07:13:58Z</time>
      </trkpt>
      <trkpt lat="46.65529" lon="6.03533">
        <ele>991.8</ele>
        <time>2022-10-25T07:14:02Z</time>
      </trkpt>
      <trkpt lat="46.65528" lon="6.03526">
        <ele>993.6</ele>
        <time>2022-10-25T07:14:08Z</time>
      </trkpt>
      <trkpt lat="46.65526" lon="6.03519">
        <ele>995.2</ele>
        <time>2022-10-25T07:14:14Z</time>
      </trkpt>
      <trkpt lat="46.65525" lon="6.03511">
        <ele>996.8</ele>
        <time>2022-10-25T07:14:20Z</time>
      </trkpt>
      <trkpt lat="46.65524" lon="6.03505">
        <ele>998.4</ele>
        <time>2022-10-25T07:14:27Z</time>
      </trkpt>
      <trkpt lat="46.65524" lon="6.03498">
        <ele>999.1</ele>
        <time>2022-10-25T07:14:33Z</time>
      </trkpt>
      <trkpt lat="46.65522" lon="6.03491">
        <ele>999.6</ele>
        <time>2022-10-25T07:14:39Z</time>
      </trkpt>
      <trkpt lat="46.6552" lon="6.03484">
        <ele>1000.2</ele>
        <time>2022-10-25T07:14:45Z</time>
      </trkpt>
      <trkpt lat="46.65518" lon="6.03478">
        <ele>1000.4</ele>
        <time>2022-10-25T07:14:51Z</time>
      </trkpt>
      <trkpt lat="46.65516" lon="6.03471">
        <ele>1001</ele>
        <time>2022-10-25T07:14:56Z</time>
      </trkpt>
      <trkpt lat="46.65514" lon="6.03465">
        <ele>1001.3</ele>
        <time>2022-10-25T07:15:02Z</time>
      </trkpt>
      <trkpt lat="46.65511" lon="6.03459">
        <ele>1001.8</ele>
        <time>2022-10-25T07:15:07Z</time>
      </trkpt>
      <trkpt lat="46.65509" lon="6.03451">
        <ele>1001.9</ele>
        <time>2022-10-25T07:15:13Z</time>
      </trkpt>
      <trkpt lat="46.65507" lon="6.03445">
        <ele>1001.3</ele>
        <time>2022-10-25T07:15:17Z</time>
      </trkpt>
      <trkpt lat="46.65506" lon="6.03439">
        <ele>1000</ele>
        <time>2022-10-25T07:15:24Z</time>
      </trkpt>
      <trkpt lat="46.65505" lon="6.03431">
        <ele>999.1</ele>
        <time>2022-10-25T07:15:29Z</time>
      </trkpt>
      <trkpt lat="46.65503" lon="6.03425">
        <ele>998.9</ele>
        <time>2022-10-25T07:15:34Z</time>
      </trkpt>
      <trkpt lat="46.65498" lon="6.03421">
        <ele>999.4</ele>
        <time>2022-10-25T07:15:43Z</time>
      </trkpt>
      <trkpt lat="46.65498" lon="6.03413">
        <ele>999.7</ele>
        <time>2022-10-25T07:15:51Z</time>
      </trkpt>
      <trkpt lat="46.65499" lon="6.03407">
        <ele>1000.1</ele>
        <time>2022-10-25T07:15:55Z</time>
      </trkpt>
      <trkpt lat="46.65498" lon="6.03399">
        <ele>1000.3</ele>
        <time>2022-10-25T07:16:00Z</time>
      </trkpt>
      <trkpt lat="46.65498" lon="6.03392">
        <ele>1000.6</ele>
        <time>2022-10-25T07:16:05Z</time>
      </trkpt>
      <trkpt lat="46.65497" lon="6.03385">
        <ele>1000.6</ele>
        <time>2022-10-25T07:16:10Z</time>
      </trkpt>
      <trkpt lat="46.65494" lon="6.03379">
        <ele>1000.5</ele>
        <time>2022-10-25T07:16:15Z</time>
      </trkpt>
      <trkpt lat="46.65493" lon="6.03372">
        <ele>1000.1</ele>
        <time>2022-10-25T07:16:19Z</time>
      </trkpt>
      <trkpt lat="46.65491" lon="6.03365">
        <ele>999.9</ele>
        <time>2022-10-25T07:16:23Z</time>
      </trkpt>
      <trkpt lat="46.65491" lon="6.03357">
        <ele>1000.4</ele>
        <time>2022-10-25T07:16:28Z</time>
      </trkpt>
      <trkpt lat="46.65489" lon="6.0335">
        <ele>1000.8</ele>
        <time>2022-10-25T07:16:33Z</time>
      </trkpt>
      <trkpt lat="46.65486" lon="6.03344">
        <ele>1001.5</ele>
        <time>2022-10-25T07:16:38Z</time>
      </trkpt>
      <trkpt lat="46.65484" lon="6.03337">
        <ele>1002.4</ele>
        <time>2022-10-25T07:16:43Z</time>
      </trkpt>
      <trkpt lat="46.65482" lon="6.03331">
        <ele>1003.2</ele>
        <time>2022-10-25T07:16:48Z</time>
      </trkpt>
      <trkpt lat="46.65481" lon="6.03324">
        <ele>1003.8</ele>
        <time>2022-10-25T07:16:53Z</time>
      </trkpt>
      <trkpt lat="46.65479" lon="6.03318">
        <ele>1004.3</ele>
        <time>2022-10-25T07:16:58Z</time>
      </trkpt>
      <trkpt lat="46.65477" lon="6.03311">
        <ele>1005.3</ele>
        <time>2022-10-25T07:17:04Z</time>
      </trkpt>
      <trkpt lat="46.65477" lon="6.03304">
        <ele>1006.2</ele>
        <time>2022-10-25T07:17:09Z</time>
      </trkpt>
      <trkpt lat="46.65477" lon="6.03296">
        <ele>1006.7</ele>
        <time>2022-10-25T07:17:14Z</time>
      </trkpt>
      <trkpt lat="46.65477" lon="6.03289">
        <ele>1006.6</ele>
        <time>2022-10-25T07:17:19Z</time>
      </trkpt>
      <trkpt lat="46.65477" lon="6.03281">
        <ele>1006.7</ele>
        <time>2022-10-25T07:17:25Z</time>
      </trkpt>
      <trkpt lat="46.65476" lon="6.03274">
        <ele>1007.3</ele>
        <time>2022-10-25T07:17:30Z</time>
      </trkpt>
      <trkpt lat="46.65477" lon="6.03267">
        <ele>1008</ele>
        <time>2022-10-25T07:17:35Z</time>
      </trkpt>
      <trkpt lat="46.65476" lon="6.03261">
        <ele>1008.7</ele>
        <time>2022-10-25T07:17:41Z</time>
      </trkpt>
      <trkpt lat="46.65475" lon="6.03253">
        <ele>1009.2</ele>
        <time>2022-10-25T07:17:48Z</time>
      </trkpt>
      <trkpt lat="46.65475" lon="6.03246">
        <ele>1009.9</ele>
        <time>2022-10-25T07:17:54Z</time>
      </trkpt>
      <trkpt lat="46.65475" lon="6.03239">
        <ele>1011.1</ele>
        <time>2022-10-25T07:18:00Z</time>
      </trkpt>
      <trkpt lat="46.65475" lon="6.03231">
        <ele>1012.5</ele>
        <time>2022-10-25T07:18:06Z</time>
      </trkpt>
      <trkpt lat="46.65477" lon="6.03224">
        <ele>1013</ele>
        <time>2022-10-25T07:18:11Z</time>
      </trkpt>
      <trkpt lat="46.65479" lon="6.03218">
        <ele>1013</ele>
        <time>2022-10-25T07:18:17Z</time>
      </trkpt>
      <trkpt lat="46.65481" lon="6.03211">
        <ele>1013</ele>
        <time>2022-10-25T07:18:22Z</time>
      </trkpt>
      <trkpt lat="46.65483" lon="6.03205">
        <ele>1013</ele>
        <time>2022-10-25T07:18:27Z</time>
      </trkpt>
      <trkpt lat="46.65485" lon="6.03199">
        <ele>1013.1</ele>
        <time>2022-10-25T07:18:32Z</time>
      </trkpt>
      <trkpt lat="46.65487" lon="6.03193">
        <ele>1013.3</ele>
        <time>2022-10-25T07:18:37Z</time>
      </trkpt>
      <trkpt lat="46.6549" lon="6.03187">
        <ele>1013.7</ele>
        <time>2022-10-25T07:18:42Z</time>
      </trkpt>
      <trkpt lat="46.65494" lon="6.03183">
        <ele>1014.1</ele>
        <time>2022-10-25T07:18:48Z</time>
      </trkpt>
      <trkpt lat="46.65498" lon="6.03179">
        <ele>1014.5</ele>
        <time>2022-10-25T07:18:53Z</time>
      </trkpt>
      <trkpt lat="46.65501" lon="6.03174">
        <ele>1014.7</ele>
        <time>2022-10-25T07:18:58Z</time>
      </trkpt>
      <trkpt lat="46.65505" lon="6.03168">
        <ele>1014.7</ele>
        <time>2022-10-25T07:19:04Z</time>
      </trkpt>
      <trkpt lat="46.65508" lon="6.03163">
        <ele>1015.2</ele>
        <time>2022-10-25T07:19:09Z</time>
      </trkpt>
      <trkpt lat="46.65511" lon="6.03158">
        <ele>1015.9</ele>
        <time>2022-10-25T07:19:14Z</time>
      </trkpt>
      <trkpt lat="46.65514" lon="6.03153">
        <ele>1016.5</ele>
        <time>2022-10-25T07:19:20Z</time>
      </trkpt>
      <trkpt lat="46.65512" lon="6.03146">
        <ele>1016.4</ele>
        <time>2022-10-25T07:19:26Z</time>
      </trkpt>
      <trkpt lat="46.65508" lon="6.03143">
        <ele>1016.9</ele>
        <time>2022-10-25T07:19:31Z</time>
      </trkpt>
      <trkpt lat="46.65502" lon="6.03143">
        <ele>1017.6</ele>
        <time>2022-10-25T07:19:37Z</time>
      </trkpt>
      <trkpt lat="46.65497" lon="6.03145">
        <ele>1018.7</ele>
        <time>2022-10-25T07:19:43Z</time>
      </trkpt>
      <trkpt lat="46.65492" lon="6.03147">
        <ele>1019.1</ele>
        <time>2022-10-25T07:19:49Z</time>
      </trkpt>
      <trkpt lat="46.65487" lon="6.03148">
        <ele>1019.9</ele>
        <time>2022-10-25T07:19:54Z</time>
      </trkpt>
      <trkpt lat="46.65482" lon="6.03144">
        <ele>1021</ele>
        <time>2022-10-25T07:20:00Z</time>
      </trkpt>
      <trkpt lat="46.65479" lon="6.03139">
        <ele>1021.9</ele>
        <time>2022-10-25T07:20:05Z</time>
      </trkpt>
      <trkpt lat="46.65477" lon="6.03133">
        <ele>1022.6</ele>
        <time>2022-10-25T07:20:11Z</time>
      </trkpt>
      <trkpt lat="46.65476" lon="6.03126">
        <ele>1023.3</ele>
        <time>2022-10-25T07:20:17Z</time>
      </trkpt>
      <trkpt lat="46.65475" lon="6.03118">
        <ele>1023.6</ele>
        <time>2022-10-25T07:20:22Z</time>
      </trkpt>
      <trkpt lat="46.65475" lon="6.03111">
        <ele>1023.8</ele>
        <time>2022-10-25T07:20:27Z</time>
      </trkpt>
      <trkpt lat="46.65476" lon="6.03104">
        <ele>1024.1</ele>
        <time>2022-10-25T07:20:32Z</time>
      </trkpt>
      <trkpt lat="46.65476" lon="6.03097">
        <ele>1024.9</ele>
        <time>2022-10-25T07:20:38Z</time>
      </trkpt>
      <trkpt lat="46.65475" lon="6.0309">
        <ele>1025.8</ele>
        <time>2022-10-25T07:20:43Z</time>
      </trkpt>
      <trkpt lat="46.65474" lon="6.03083">
        <ele>1027</ele>
        <time>2022-10-25T07:20:48Z</time>
      </trkpt>
      <trkpt lat="46.65474" lon="6.03075">
        <ele>1028.4</ele>
        <time>2022-10-25T07:20:54Z</time>
      </trkpt>
      <trkpt lat="46.65474" lon="6.03067">
        <ele>1028.7</ele>
        <time>2022-10-25T07:21:00Z</time>
      </trkpt>
      <trkpt lat="46.65472" lon="6.0306">
        <ele>1028.2</ele>
        <time>2022-10-25T07:21:06Z</time>
      </trkpt>
      <trkpt lat="46.65471" lon="6.03052">
        <ele>1027.8</ele>
        <time>2022-10-25T07:21:12Z</time>
      </trkpt>
      <trkpt lat="46.65471" lon="6.03044">
        <ele>1028.3</ele>
        <time>2022-10-25T07:21:16Z</time>
      </trkpt>
      <trkpt lat="46.65472" lon="6.03037">
        <ele>1029.1</ele>
        <time>2022-10-25T07:21:21Z</time>
      </trkpt>
      <trkpt lat="46.65473" lon="6.0303">
        <ele>1029.5</ele>
        <time>2022-10-25T07:21:27Z</time>
      </trkpt>
      <trkpt lat="46.65475" lon="6.03024">
        <ele>1029.7</ele>
        <time>2022-10-25T07:21:32Z</time>
      </trkpt>
      <trkpt lat="46.65477" lon="6.03018">
        <ele>1029.1</ele>
        <time>2022-10-25T07:21:38Z</time>
      </trkpt>
      <trkpt lat="46.65478" lon="6.03011">
        <ele>1028.2</ele>
        <time>2022-10-25T07:21:44Z</time>
      </trkpt>
      <trkpt lat="46.65478" lon="6.03005">
        <ele>1028.1</ele>
        <time>2022-10-25T07:21:51Z</time>
      </trkpt>
      <trkpt lat="46.65479" lon="6.03012">
        <ele>1030.8</ele>
        <time>2022-10-25T07:29:49Z</time>
      </trkpt>
      <trkpt lat="46.65479" lon="6.03019">
        <ele>1030.5</ele>
        <time>2022-10-25T07:29:55Z</time>
      </trkpt>
      <trkpt lat="46.65477" lon="6.03026">
        <ele>1030.5</ele>
        <time>2022-10-25T07:30:02Z</time>
      </trkpt>
      <trkpt lat="46.65475" lon="6.03032">
        <ele>1030.6</ele>
        <time>2022-10-25T07:30:07Z</time>
      </trkpt>
      <trkpt lat="46.65475" lon="6.03039">
        <ele>1030.8</ele>
        <time>2022-10-25T07:30:13Z</time>
      </trkpt>
      <trkpt lat="46.65475" lon="6.03046">
        <ele>1030.8</ele>
        <time>2022-10-25T07:30:19Z</time>
      </trkpt>
      <trkpt lat="46.65476" lon="6.03052">
        <ele>1030.1</ele>
        <time>2022-10-25T07:30:25Z</time>
      </trkpt>
      <trkpt lat="46.65477" lon="6.03059">
        <ele>1029.2</ele>
        <time>2022-10-25T07:30:31Z</time>
      </trkpt>
      <trkpt lat="46.65478" lon="6.03066">
        <ele>1028.4</ele>
        <time>2022-10-25T07:30:36Z</time>
      </trkpt>
      <trkpt lat="46.65478" lon="6.03073">
        <ele>1027.7</ele>
        <time>2022-10-25T07:30:42Z</time>
      </trkpt>
      <trkpt lat="46.65479" lon="6.0308">
        <ele>1026.9</ele>
        <time>2022-10-25T07:30:48Z</time>
      </trkpt>
      <trkpt lat="46.65479" lon="6.03088">
        <ele>1026.3</ele>
        <time>2022-10-25T07:30:54Z</time>
      </trkpt>
      <trkpt lat="46.65478" lon="6.03094">
        <ele>1026.1</ele>
        <time>2022-10-25T07:30:59Z</time>
      </trkpt>
      <trkpt lat="46.65477" lon="6.03101">
        <ele>1026.2</ele>
        <time>2022-10-25T07:31:06Z</time>
      </trkpt>
      <trkpt lat="46.65477" lon="6.03108">
        <ele>1026.1</ele>
        <time>2022-10-25T07:31:11Z</time>
      </trkpt>
      <trkpt lat="46.65477" lon="6.03115">
        <ele>1026</ele>
        <time>2022-10-25T07:31:15Z</time>
      </trkpt>
      <trkpt lat="46.65476" lon="6.03122">
        <ele>1025.8</ele>
        <time>2022-10-25T07:31:20Z</time>
      </trkpt>
      <trkpt lat="46.65476" lon="6.03129">
        <ele>1025.1</ele>
        <time>2022-10-25T07:31:25Z</time>
      </trkpt>
      <trkpt lat="46.65477" lon="6.03136">
        <ele>1023.5</ele>
        <time>2022-10-25T07:31:32Z</time>
      </trkpt>
      <trkpt lat="46.6548" lon="6.03141">
        <ele>1022.4</ele>
        <time>2022-10-25T07:31:37Z</time>
      </trkpt>
      <trkpt lat="46.65484" lon="6.03145">
        <ele>1021.2</ele>
        <time>2022-10-25T07:31:43Z</time>
      </trkpt>
      <trkpt lat="46.65489" lon="6.03148">
        <ele>1020.5</ele>
        <time>2022-10-25T07:31:48Z</time>
      </trkpt>
      <trkpt lat="46.65493" lon="6.03148">
        <ele>1020.6</ele>
        <time>2022-10-25T07:31:53Z</time>
      </trkpt>
      <trkpt lat="46.65498" lon="6.03148">
        <ele>1021.3</ele>
        <time>2022-10-25T07:32:00Z</time>
      </trkpt>
      <trkpt lat="46.65503" lon="6.03149">
        <ele>1021.5</ele>
        <time>2022-10-25T07:32:06Z</time>
      </trkpt>
      <trkpt lat="46.65508" lon="6.03151">
        <ele>1021.4</ele>
        <time>2022-10-25T07:32:12Z</time>
      </trkpt>
      <trkpt lat="46.65513" lon="6.03152">
        <ele>1020.9</ele>
        <time>2022-10-25T07:32:17Z</time>
      </trkpt>
      <trkpt lat="46.65518" lon="6.0315">
        <ele>1019.4</ele>
        <time>2022-10-25T07:32:21Z</time>
      </trkpt>
      <trkpt lat="46.65523" lon="6.03148">
        <ele>1016.7</ele>
        <time>2022-10-25T07:32:28Z</time>
      </trkpt>
      <trkpt lat="46.65526" lon="6.03143">
        <ele>1014.7</ele>
        <time>2022-10-25T07:32:34Z</time>
      </trkpt>
      <trkpt lat="46.65529" lon="6.03137">
        <ele>1013.7</ele>
        <time>2022-10-25T07:32:39Z</time>
      </trkpt>
      <trkpt lat="46.65532" lon="6.03131">
        <ele>1013.4</ele>
        <time>2022-10-25T07:32:45Z</time>
      </trkpt>
      <trkpt lat="46.65536" lon="6.03125">
        <ele>1013.5</ele>
        <time>2022-10-25T07:32:51Z</time>
      </trkpt>
      <trkpt lat="46.6554" lon="6.03121">
        <ele>1013.6</ele>
        <time>2022-10-25T07:32:55Z</time>
      </trkpt>
      <trkpt lat="46.65545" lon="6.03117">
        <ele>1013.7</ele>
        <time>2022-10-25T07:33:00Z</time>
      </trkpt>
      <trkpt lat="46.65549" lon="6.03113">
        <ele>1014</ele>
        <time>2022-10-25T07:33:04Z</time>
      </trkpt>
      <trkpt lat="46.65554" lon="6.03111">
        <ele>1015</ele>
        <time>2022-10-25T07:33:09Z</time>
      </trkpt>
      <trkpt lat="46.65558" lon="6.03109">
        <ele>1015.5</ele>
        <time>2022-10-25T07:33:13Z</time>
      </trkpt>
      <trkpt lat="46.65563" lon="6.03107">
        <ele>1015.5</ele>
        <time>2022-10-25T07:33:17Z</time>
      </trkpt>
      <trkpt lat="46.65568" lon="6.03107">
        <ele>1016</ele>
        <time>2022-10-25T07:33:22Z</time>
      </trkpt>
      <trkpt lat="46.65573" lon="6.03109">
        <ele>1017</ele>
        <time>2022-10-25T07:33:27Z</time>
      </trkpt>
      <trkpt lat="46.65578" lon="6.03109">
        <ele>1017.6</ele>
        <time>2022-10-25T07:33:34Z</time>
      </trkpt>
      <trkpt lat="46.65583" lon="6.0311">
        <ele>1017.2</ele>
        <time>2022-10-25T07:33:41Z</time>
      </trkpt>
      <trkpt lat="46.65588" lon="6.03112">
        <ele>1016.1</ele>
        <time>2022-10-25T07:33:46Z</time>
      </trkpt>
      <trkpt lat="46.65592" lon="6.03116">
        <ele>1014.9</ele>
        <time>2022-10-25T07:33:52Z</time>
      </trkpt>
      <trkpt lat="46.65596" lon="6.03119">
        <ele>1013.7</ele>
        <time>2022-10-25T07:33:59Z</time>
      </trkpt>
      <trkpt lat="46.656" lon="6.03123">
        <ele>1012.7</ele>
        <time>2022-10-25T07:34:03Z</time>
      </trkpt>
      <trkpt lat="46.65605" lon="6.03128">
        <ele>1011</ele>
        <time>2022-10-25T07:34:08Z</time>
      </trkpt>
      <trkpt lat="46.65609" lon="6.03132">
        <ele>1008.4</ele>
        <time>2022-10-25T07:34:15Z</time>
      </trkpt>
      <trkpt lat="46.65613" lon="6.03135">
        <ele>1006.4</ele>
        <time>2022-10-25T07:34:21Z</time>
      </trkpt>
      <trkpt lat="46.65618" lon="6.0314">
        <ele>1005.3</ele>
        <time>2022-10-25T07:34:26Z</time>
      </trkpt>
      <trkpt lat="46.65622" lon="6.03144">
        <ele>1004.8</ele>
        <time>2022-10-25T07:34:31Z</time>
      </trkpt>
      <trkpt lat="46.65627" lon="6.03148">
        <ele>1004.5</ele>
        <time>2022-10-25T07:34:36Z</time>
      </trkpt>
      <trkpt lat="46.65631" lon="6.03151">
        <ele>1004.2</ele>
        <time>2022-10-25T07:34:40Z</time>
      </trkpt>
      <trkpt lat="46.65636" lon="6.03155">
        <ele>1004.2</ele>
        <time>2022-10-25T07:34:46Z</time>
      </trkpt>
      <trkpt lat="46.6564" lon="6.0316">
        <ele>1004.3</ele>
        <time>2022-10-25T07:34:53Z</time>
      </trkpt>
      <trkpt lat="46.65644" lon="6.03164">
        <ele>1004.6</ele>
        <time>2022-10-25T07:34:57Z</time>
      </trkpt>
      <trkpt lat="46.65647" lon="6.03169">
        <ele>1004.6</ele>
        <time>2022-10-25T07:35:01Z</time>
      </trkpt>
      <trkpt lat="46.65649" lon="6.03176">
        <ele>1004.3</ele>
        <time>2022-10-25T07:35:06Z</time>
      </trkpt>
      <trkpt lat="46.65653" lon="6.03182">
        <ele>1003.7</ele>
        <time>2022-10-25T07:35:11Z</time>
      </trkpt>
      <trkpt lat="46.65657" lon="6.03186">
        <ele>1003.1</ele>
        <time>2022-10-25T07:35:16Z</time>
      </trkpt>
      <trkpt lat="46.65661" lon="6.0319">
        <ele>1002.6</ele>
        <time>2022-10-25T07:35:20Z</time>
      </trkpt>
      <trkpt lat="46.65665" lon="6.03195">
        <ele>1001.9</ele>
        <time>2022-10-25T07:35:25Z</time>
      </trkpt>
      <trkpt lat="46.65668" lon="6.032">
        <ele>1000.7</ele>
        <time>2022-10-25T07:35:31Z</time>
      </trkpt>
      <trkpt lat="46.65671" lon="6.03205">
        <ele>999.6</ele>
        <time>2022-10-25T07:35:37Z</time>
      </trkpt>
      <trkpt lat="46.65673" lon="6.03212">
        <ele>998.6</ele>
        <time>2022-10-25T07:35:44Z</time>
      </trkpt>
      <trkpt lat="46.65676" lon="6.03218">
        <ele>998.2</ele>
        <time>2022-10-25T07:35:50Z</time>
      </trkpt>
      <trkpt lat="46.65681" lon="6.03221">
        <ele>997.7</ele>
        <time>2022-10-25T07:35:55Z</time>
      </trkpt>
      <trkpt lat="46.65685" lon="6.03226">
        <ele>997.7</ele>
        <time>2022-10-25T07:36:00Z</time>
      </trkpt>
      <trkpt lat="46.65688" lon="6.03231">
        <ele>998.2</ele>
        <time>2022-10-25T07:36:05Z</time>
      </trkpt>
      <trkpt lat="46.65693" lon="6.03235">
        <ele>998.6</ele>
        <time>2022-10-25T07:36:10Z</time>
      </trkpt>
      <trkpt lat="46.65697" lon="6.03238">
        <ele>999</ele>
        <time>2022-10-25T07:36:15Z</time>
      </trkpt>
      <trkpt lat="46.65702" lon="6.03243">
        <ele>999.3</ele>
        <time>2022-10-25T07:36:19Z</time>
      </trkpt>
      <trkpt lat="46.65706" lon="6.03246">
        <ele>999.2</ele>
        <time>2022-10-25T07:36:23Z</time>
      </trkpt>
      <trkpt lat="46.6571" lon="6.03252">
        <ele>999.3</ele>
        <time>2022-10-25T07:36:28Z</time>
      </trkpt>
      <trkpt lat="46.65713" lon="6.03258">
        <ele>999.3</ele>
        <time>2022-10-25T07:36:34Z</time>
      </trkpt>
      <trkpt lat="46.65717" lon="6.03263">
        <ele>999.2</ele>
        <time>2022-10-25T07:36:40Z</time>
      </trkpt>
      <trkpt lat="46.65719" lon="6.03269">
        <ele>999</ele>
        <time>2022-10-25T07:36:45Z</time>
      </trkpt>
      <trkpt lat="46.65722" lon="6.03274">
        <ele>998.6</ele>
        <time>2022-10-25T07:36:50Z</time>
      </trkpt>
      <trkpt lat="46.65726" lon="6.0328">
        <ele>997.4</ele>
        <time>2022-10-25T07:36:56Z</time>
      </trkpt>
      <trkpt lat="46.65728" lon="6.03287">
        <ele>996.6</ele>
        <time>2022-10-25T07:37:02Z</time>
      </trkpt>
      <trkpt lat="46.65731" lon="6.03293">
        <ele>996</ele>
        <time>2022-10-25T07:37:08Z</time>
      </trkpt>
      <trkpt lat="46.65735" lon="6.03298">
        <ele>995.9</ele>
        <time>2022-10-25T07:37:12Z</time>
      </trkpt>
      <trkpt lat="46.65739" lon="6.03303">
        <ele>995.7</ele>
        <time>2022-10-25T07:37:17Z</time>
      </trkpt>
      <trkpt lat="46.65742" lon="6.03308">
        <ele>995.6</ele>
        <time>2022-10-25T07:37:23Z</time>
      </trkpt>
      <trkpt lat="46.65746" lon="6.03313">
        <ele>995.8</ele>
        <time>2022-10-25T07:37:29Z</time>
      </trkpt>
      <trkpt lat="46.65749" lon="6.03317">
        <ele>996.2</ele>
        <time>2022-10-25T07:37:35Z</time>
      </trkpt>
      <trkpt lat="46.65753" lon="6.03322">
        <ele>996.6</ele>
        <time>2022-10-25T07:37:40Z</time>
      </trkpt>
      <trkpt lat="46.65756" lon="6.03326">
        <ele>996.5</ele>
        <time>2022-10-25T07:37:44Z</time>
      </trkpt>
      <trkpt lat="46.6576" lon="6.03331">
        <ele>995.9</ele>
        <time>2022-10-25T07:37:49Z</time>
      </trkpt>
      <trkpt lat="46.65763" lon="6.03335">
        <ele>995.2</ele>
        <time>2022-10-25T07:37:54Z</time>
      </trkpt>
      <trkpt lat="46.65766" lon="6.03341">
        <ele>995</ele>
        <time>2022-10-25T07:38:00Z</time>
      </trkpt>
      <trkpt lat="46.6577" lon="6.03345">
        <ele>994</ele>
        <time>2022-10-25T07:38:05Z</time>
      </trkpt>
      <trkpt lat="46.65773" lon="6.03351">
        <ele>992.9</ele>
        <time>2022-10-25T07:38:12Z</time>
      </trkpt>
      <trkpt lat="46.65777" lon="6.03356">
        <ele>992.9</ele>
        <time>2022-10-25T07:38:18Z</time>
      </trkpt>
      <trkpt lat="46.65779" lon="6.03362">
        <ele>992.2</ele>
        <time>2022-10-25T07:38:23Z</time>
      </trkpt>
      <trkpt lat="46.65783" lon="6.03365">
        <ele>991.7</ele>
        <time>2022-10-25T07:38:28Z</time>
      </trkpt>
      <trkpt lat="46.65786" lon="6.03372">
        <ele>991.6</ele>
        <time>2022-10-25T07:38:34Z</time>
      </trkpt>
      <trkpt lat="46.65789" lon="6.03377">
        <ele>991.5</ele>
        <time>2022-10-25T07:38:39Z</time>
      </trkpt>
      <trkpt lat="46.65792" lon="6.03382">
        <ele>991.7</ele>
        <time>2022-10-25T07:38:43Z</time>
      </trkpt>
      <trkpt lat="46.65795" lon="6.03387">
        <ele>991.8</ele>
        <time>2022-10-25T07:38:47Z</time>
      </trkpt>
      <trkpt lat="46.65799" lon="6.03392">
        <ele>991.7</ele>
        <time>2022-10-25T07:38:51Z</time>
      </trkpt>
      <trkpt lat="46.65802" lon="6.03397">
        <ele>991.8</ele>
        <time>2022-10-25T07:38:55Z</time>
      </trkpt>
      <trkpt lat="46.65805" lon="6.03402">
        <ele>991.8</ele>
        <time>2022-10-25T07:38:59Z</time>
      </trkpt>
      <trkpt lat="46.65809" lon="6.03406">
        <ele>991.6</ele>
        <time>2022-10-25T07:39:04Z</time>
      </trkpt>
      <trkpt lat="46.65813" lon="6.0341">
        <ele>991.4</ele>
        <time>2022-10-25T07:39:09Z</time>
      </trkpt>
      <trkpt lat="46.65816" lon="6.03414">
        <ele>990.7</ele>
        <time>2022-10-25T07:39:14Z</time>
      </trkpt>
      <trkpt lat="46.65818" lon="6.03421">
        <ele>989</ele>
        <time>2022-10-25T07:39:20Z</time>
      </trkpt>
      <trkpt lat="46.65821" lon="6.03427">
        <ele>987.6</ele>
        <time>2022-10-25T07:39:26Z</time>
      </trkpt>
      <trkpt lat="46.65824" lon="6.03432">
        <ele>986.6</ele>
        <time>2022-10-25T07:39:31Z</time>
      </trkpt>
      <trkpt lat="46.65828" lon="6.03437">
        <ele>985.9</ele>
        <time>2022-10-25T07:39:36Z</time>
      </trkpt>
      <trkpt lat="46.65833" lon="6.0344">
        <ele>985.3</ele>
        <time>2022-10-25T07:39:41Z</time>
      </trkpt>
      <trkpt lat="46.65837" lon="6.03443">
        <ele>984.9</ele>
        <time>2022-10-25T07:39:46Z</time>
      </trkpt>
      <trkpt lat="46.65841" lon="6.03449">
        <ele>985</ele>
        <time>2022-10-25T07:39:52Z</time>
      </trkpt>
      <trkpt lat="46.65843" lon="6.03454">
        <ele>985.5</ele>
        <time>2022-10-25T07:39:57Z</time>
      </trkpt>
      <trkpt lat="46.65847" lon="6.03458">
        <ele>985.8</ele>
        <time>2022-10-25T07:40:02Z</time>
      </trkpt>
      <trkpt lat="46.65852" lon="6.03463">
        <ele>985.8</ele>
        <time>2022-10-25T07:40:06Z</time>
      </trkpt>
      <trkpt lat="46.65855" lon="6.03467">
        <ele>985.8</ele>
        <time>2022-10-25T07:40:10Z</time>
      </trkpt>
      <trkpt lat="46.65858" lon="6.03473">
        <ele>985.7</ele>
        <time>2022-10-25T07:40:15Z</time>
      </trkpt>
      <trkpt lat="46.6586" lon="6.03478">
        <ele>985.6</ele>
        <time>2022-10-25T07:40:20Z</time>
      </trkpt>
      <trkpt lat="46.65862" lon="6.03485">
        <ele>985</ele>
        <time>2022-10-25T07:40:26Z</time>
      </trkpt>
      <trkpt lat="46.65865" lon="6.03492">
        <ele>984.1</ele>
        <time>2022-10-25T07:40:32Z</time>
      </trkpt>
      <trkpt lat="46.65867" lon="6.03497">
        <ele>983.3</ele>
        <time>2022-10-25T07:40:37Z</time>
      </trkpt>
      <trkpt lat="46.65871" lon="6.03503">
        <ele>982.9</ele>
        <time>2022-10-25T07:40:44Z</time>
      </trkpt>
      <trkpt lat="46.65875" lon="6.03507">
        <ele>983.4</ele>
        <time>2022-10-25T07:40:50Z</time>
      </trkpt>
      <trkpt lat="46.65876" lon="6.03513">
        <ele>984.3</ele>
        <time>2022-10-25T07:40:56Z</time>
      </trkpt>
      <trkpt lat="46.65879" lon="6.03519">
        <ele>984.6</ele>
        <time>2022-10-25T07:41:02Z</time>
      </trkpt>
      <trkpt lat="46.65882" lon="6.03524">
        <ele>984.2</ele>
        <time>2022-10-25T07:41:07Z</time>
      </trkpt>
      <trkpt lat="46.65883" lon="6.03532">
        <ele>983.2</ele>
        <time>2022-10-25T07:41:13Z</time>
      </trkpt>
      <trkpt lat="46.65887" lon="6.03537">
        <ele>982.9</ele>
        <time>2022-10-25T07:41:18Z</time>
      </trkpt>
      <trkpt lat="46.6589" lon="6.03542">
        <ele>982.8</ele>
        <time>2022-10-25T07:41:24Z</time>
      </trkpt>
      <trkpt lat="46.65894" lon="6.03547">
        <ele>982.4</ele>
        <time>2022-10-25T07:41:29Z</time>
      </trkpt>
      <trkpt lat="46.65896" lon="6.03553">
        <ele>982</ele>
        <time>2022-10-25T07:41:33Z</time>
      </trkpt>
      <trkpt lat="46.65898" lon="6.0356">
        <ele>981.7</ele>
        <time>2022-10-25T07:41:39Z</time>
      </trkpt>
      <trkpt lat="46.65902" lon="6.03565">
        <ele>981.6</ele>
        <time>2022-10-25T07:41:45Z</time>
      </trkpt>
      <trkpt lat="46.65905" lon="6.0357">
        <ele>980.9</ele>
        <time>2022-10-25T07:41:50Z</time>
      </trkpt>
      <trkpt lat="46.65907" lon="6.03575">
        <ele>980</ele>
        <time>2022-10-25T07:41:55Z</time>
      </trkpt>
      <trkpt lat="46.6591" lon="6.03583">
        <ele>978.9</ele>
        <time>2022-10-25T07:42:00Z</time>
      </trkpt>
      <trkpt lat="46.65913" lon="6.03589">
        <ele>977.8</ele>
        <time>2022-10-25T07:42:05Z</time>
      </trkpt>
      <trkpt lat="46.65915" lon="6.03595">
        <ele>977</ele>
        <time>2022-10-25T07:42:09Z</time>
      </trkpt>
      <trkpt lat="46.65918" lon="6.036">
        <ele>976.1</ele>
        <time>2022-10-25T07:42:14Z</time>
      </trkpt>
      <trkpt lat="46.65922" lon="6.03605">
        <ele>975.4</ele>
        <time>2022-10-25T07:42:19Z</time>
      </trkpt>
      <trkpt lat="46.65924" lon="6.03611">
        <ele>974.5</ele>
        <time>2022-10-25T07:42:25Z</time>
      </trkpt>
      <trkpt lat="46.65925" lon="6.03618">
        <ele>974.1</ele>
        <time>2022-10-25T07:42:30Z</time>
      </trkpt>
      <trkpt lat="46.65927" lon="6.03624">
        <ele>973.5</ele>
        <time>2022-10-25T07:42:35Z</time>
      </trkpt>
      <trkpt lat="46.6593" lon="6.03629">
        <ele>972.5</ele>
        <time>2022-10-25T07:42:40Z</time>
      </trkpt>
      <trkpt lat="46.65934" lon="6.03634">
        <ele>971.4</ele>
        <time>2022-10-25T07:42:47Z</time>
      </trkpt>
      <trkpt lat="46.65937" lon="6.0364">
        <ele>970.7</ele>
        <time>2022-10-25T07:42:52Z</time>
      </trkpt>
      <trkpt lat="46.65941" lon="6.03644">
        <ele>970.1</ele>
        <time>2022-10-25T07:42:56Z</time>
      </trkpt>
      <trkpt lat="46.65945" lon="6.03648">
        <ele>969.8</ele>
        <time>2022-10-25T07:43:00Z</time>
      </trkpt>
      <trkpt lat="46.65949" lon="6.03654">
        <ele>970</ele>
        <time>2022-10-25T07:43:05Z</time>
      </trkpt>
      <trkpt lat="46.65953" lon="6.03658">
        <ele>970.5</ele>
        <time>2022-10-25T07:43:09Z</time>
      </trkpt>
      <trkpt lat="46.65957" lon="6.03662">
        <ele>970.7</ele>
        <time>2022-10-25T07:43:13Z</time>
      </trkpt>
      <trkpt lat="46.65961" lon="6.03665">
        <ele>970.7</ele>
        <time>2022-10-25T07:43:17Z</time>
      </trkpt>
      <trkpt lat="46.65964" lon="6.0367">
        <ele>970.5</ele>
        <time>2022-10-25T07:43:23Z</time>
      </trkpt>
      <trkpt lat="46.65967" lon="6.03676">
        <ele>970.4</ele>
        <time>2022-10-25T07:43:29Z</time>
      </trkpt>
      <trkpt lat="46.6597" lon="6.03681">
        <ele>970</ele>
        <time>2022-10-25T07:43:35Z</time>
      </trkpt>
      <trkpt lat="46.65974" lon="6.03685">
        <ele>968.8</ele>
        <time>2022-10-25T07:43:40Z</time>
      </trkpt>
      <trkpt lat="46.65979" lon="6.03689">
        <ele>967.3</ele>
        <time>2022-10-25T07:43:45Z</time>
      </trkpt>
      <trkpt lat="46.65982" lon="6.03695">
        <ele>965.8</ele>
        <time>2022-10-25T07:43:51Z</time>
      </trkpt>
      <trkpt lat="46.65986" lon="6.03701">
        <ele>965.5</ele>
        <time>2022-10-25T07:43:56Z</time>
      </trkpt>
      <trkpt lat="46.65989" lon="6.03705">
        <ele>965.9</ele>
        <time>2022-10-25T07:44:00Z</time>
      </trkpt>
      <trkpt lat="46.65994" lon="6.03708">
        <ele>966.9</ele>
        <time>2022-10-25T07:44:05Z</time>
      </trkpt>
      <trkpt lat="46.65997" lon="6.03714">
        <ele>968.2</ele>
        <time>2022-10-25T07:44:12Z</time>
      </trkpt>
      <trkpt lat="46.66001" lon="6.03719">
        <ele>968.8</ele>
        <time>2022-10-25T07:44:18Z</time>
      </trkpt>
      <trkpt lat="46.66006" lon="6.0372">
        <ele>969.1</ele>
        <time>2022-10-25T07:44:23Z</time>
      </trkpt>
      <trkpt lat="46.66008" lon="6.03714">
        <ele>969.3</ele>
        <time>2022-10-25T07:44:29Z</time>
      </trkpt>
      <trkpt lat="46.66006" lon="6.03707">
        <ele>969</ele>
        <time>2022-10-25T07:44:33Z</time>
      </trkpt>
      <trkpt lat="46.66004" lon="6.03702">
        <ele>968.6</ele>
        <time>2022-10-25T07:44:37Z</time>
      </trkpt>
      <trkpt lat="46.66" lon="6.03698">
        <ele>968.2</ele>
        <time>2022-10-25T07:44:42Z</time>
      </trkpt>
      <trkpt lat="46.65996" lon="6.03693">
        <ele>968</ele>
        <time>2022-10-25T07:44:47Z</time>
      </trkpt>
      <trkpt lat="46.65992" lon="6.03689">
        <ele>967.7</ele>
        <time>2022-10-25T07:44:52Z</time>
      </trkpt>
      <trkpt lat="46.65988" lon="6.03686">
        <ele>967.3</ele>
        <time>2022-10-25T07:44:56Z</time>
      </trkpt>
      <trkpt lat="46.65985" lon="6.0368">
        <ele>967.1</ele>
        <time>2022-10-25T07:45:02Z</time>
      </trkpt>
      <trkpt lat="46.65982" lon="6.03674">
        <ele>967</ele>
        <time>2022-10-25T07:45:06Z</time>
      </trkpt>
      <trkpt lat="46.65977" lon="6.0367">
        <ele>966.4</ele>
        <time>2022-10-25T07:45:11Z</time>
      </trkpt>
      <trkpt lat="46.65973" lon="6.03663">
        <ele>965.9</ele>
        <time>2022-10-25T07:45:15Z</time>
      </trkpt>
      <trkpt lat="46.65969" lon="6.0366">
        <ele>965.6</ele>
        <time>2022-10-25T07:45:19Z</time>
      </trkpt>
      <trkpt lat="46.65965" lon="6.03655">
        <ele>964.9</ele>
        <time>2022-10-25T07:45:25Z</time>
      </trkpt>
      <trkpt lat="46.65962" lon="6.0365">
        <ele>964.3</ele>
        <time>2022-10-25T07:45:30Z</time>
      </trkpt>
      <trkpt lat="46.65959" lon="6.03643">
        <ele>963.6</ele>
        <time>2022-10-25T07:45:35Z</time>
      </trkpt>
      <trkpt lat="46.65958" lon="6.03636">
        <ele>963.1</ele>
        <time>2022-10-25T07:45:40Z</time>
      </trkpt>
      <trkpt lat="46.65958" lon="6.03628">
        <ele>962.6</ele>
        <time>2022-10-25T07:45:44Z</time>
      </trkpt>
      <trkpt lat="46.65961" lon="6.03622">
        <ele>962.2</ele>
        <time>2022-10-25T07:45:48Z</time>
      </trkpt>
      <trkpt lat="46.65965" lon="6.03619">
        <ele>961.7</ele>
        <time>2022-10-25T07:45:52Z</time>
      </trkpt>
      <trkpt lat="46.6597" lon="6.03623">
        <ele>961.1</ele>
        <time>2022-10-25T07:45:58Z</time>
      </trkpt>
      <trkpt lat="46.65974" lon="6.03628">
        <ele>960.4</ele>
        <time>2022-10-25T07:46:02Z</time>
      </trkpt>
      <trkpt lat="46.65978" lon="6.03633">
        <ele>959.7</ele>
        <time>2022-10-25T07:46:06Z</time>
      </trkpt>
      <trkpt lat="46.65981" lon="6.03639">
        <ele>958.7</ele>
        <time>2022-10-25T07:46:11Z</time>
      </trkpt>
      <trkpt lat="46.65985" lon="6.03643">
        <ele>957.8</ele>
        <time>2022-10-25T07:46:16Z</time>
      </trkpt>
      <trkpt lat="46.65989" lon="6.03649">
        <ele>956.9</ele>
        <time>2022-10-25T07:46:21Z</time>
      </trkpt>
      <trkpt lat="46.65991" lon="6.03655">
        <ele>956.2</ele>
        <time>2022-10-25T07:46:27Z</time>
      </trkpt>
      <trkpt lat="46.65993" lon="6.03662">
        <ele>955.5</ele>
        <time>2022-10-25T07:46:33Z</time>
      </trkpt>
      <trkpt lat="46.65996" lon="6.03667">
        <ele>955.1</ele>
        <time>2022-10-25T07:46:38Z</time>
      </trkpt>
      <trkpt lat="46.65999" lon="6.03672">
        <ele>954.4</ele>
        <time>2022-10-25T07:46:46Z</time>
      </trkpt>
      <trkpt lat="46.66003" lon="6.03676">
        <ele>954.8</ele>
        <time>2022-10-25T07:46:51Z</time>
      </trkpt>
      <trkpt lat="46.66007" lon="6.03679">
        <ele>955.2</ele>
        <time>2022-10-25T07:46:56Z</time>
      </trkpt>
      <trkpt lat="46.66012" lon="6.03683">
        <ele>955.1</ele>
        <time>2022-10-25T07:47:01Z</time>
      </trkpt>
      <trkpt lat="46.66015" lon="6.03687">
        <ele>954.7</ele>
        <time>2022-10-25T07:47:05Z</time>
      </trkpt>
      <trkpt lat="46.66019" lon="6.03692">
        <ele>954.3</ele>
        <time>2022-10-25T07:47:09Z</time>
      </trkpt>
      <trkpt lat="46.66023" lon="6.03696">
        <ele>953.6</ele>
        <time>2022-10-25T07:47:14Z</time>
      </trkpt>
      <trkpt lat="46.66027" lon="6.037">
        <ele>952.8</ele>
        <time>2022-10-25T07:47:20Z</time>
      </trkpt>
      <trkpt lat="46.66031" lon="6.03704">
        <ele>951.8</ele>
        <time>2022-10-25T07:47:26Z</time>
      </trkpt>
      <trkpt lat="46.66033" lon="6.03711">
        <ele>950.6</ele>
        <time>2022-10-25T07:47:32Z</time>
      </trkpt>
      <trkpt lat="46.66035" lon="6.03716">
        <ele>949.7</ele>
        <time>2022-10-25T07:47:38Z</time>
      </trkpt>
      <trkpt lat="46.6604" lon="6.0372">
        <ele>949.7</ele>
        <time>2022-10-25T07:47:42Z</time>
      </trkpt>
      <trkpt lat="46.66043" lon="6.03724">
        <ele>949.9</ele>
        <time>2022-10-25T07:47:46Z</time>
      </trkpt>
      <trkpt lat="46.66047" lon="6.0373">
        <ele>950.4</ele>
        <time>2022-10-25T07:47:52Z</time>
      </trkpt>
      <trkpt lat="46.66051" lon="6.03733">
        <ele>950.8</ele>
        <time>2022-10-25T07:47:56Z</time>
      </trkpt>
      <trkpt lat="46.66056" lon="6.03736">
        <ele>951.3</ele>
        <time>2022-10-25T07:48:01Z</time>
      </trkpt>
      <trkpt lat="46.6606" lon="6.03739">
        <ele>951.6</ele>
        <time>2022-10-25T07:48:07Z</time>
      </trkpt>
      <trkpt lat="46.66065" lon="6.03739">
        <ele>952.9</ele>
        <time>2022-10-25T07:48:22Z</time>
      </trkpt>
      <trkpt lat="46.66061" lon="6.03744">
        <ele>953.2</ele>
        <time>2022-10-25T07:48:36Z</time>
      </trkpt>
      <trkpt lat="46.66063" lon="6.03751">
        <ele>950.9</ele>
        <time>2022-10-25T07:48:54Z</time>
      </trkpt>
      <trkpt lat="46.66068" lon="6.03755">
        <ele>951</ele>
        <time>2022-10-25T07:48:59Z</time>
      </trkpt>
      <trkpt lat="46.66071" lon="6.0376">
        <ele>951.2</ele>
        <time>2022-10-25T07:49:06Z</time>
      </trkpt>
      <trkpt lat="46.66073" lon="6.03766">
        <ele>950.9</ele>
        <time>2022-10-25T07:49:13Z</time>
      </trkpt>
      <trkpt lat="46.66077" lon="6.03771">
        <ele>950.5</ele>
        <time>2022-10-25T07:49:19Z</time>
      </trkpt>
      <trkpt lat="46.66081" lon="6.03775">
        <ele>950</ele>
        <time>2022-10-25T07:49:26Z</time>
      </trkpt>
      <trkpt lat="46.66084" lon="6.0378">
        <ele>949.1</ele>
        <time>2022-10-25T07:49:32Z</time>
      </trkpt>
      <trkpt lat="46.66086" lon="6.03786">
        <ele>948.3</ele>
        <time>2022-10-25T07:49:37Z</time>
      </trkpt>
      <trkpt lat="46.66088" lon="6.03793">
        <ele>947.3</ele>
        <time>2022-10-25T07:49:43Z</time>
      </trkpt>
      <trkpt lat="46.66091" lon="6.03798">
        <ele>945.5</ele>
        <time>2022-10-25T07:49:49Z</time>
      </trkpt>
      <trkpt lat="46.66096" lon="6.03801">
        <ele>944.9</ele>
        <time>2022-10-25T07:49:54Z</time>
      </trkpt>
      <trkpt lat="46.66098" lon="6.03808">
        <ele>944.8</ele>
        <time>2022-10-25T07:50:00Z</time>
      </trkpt>
      <trkpt lat="46.66099" lon="6.03815">
        <ele>945</ele>
        <time>2022-10-25T07:50:06Z</time>
      </trkpt>
      <trkpt lat="46.66102" lon="6.03821">
        <ele>945.3</ele>
        <time>2022-10-25T07:50:12Z</time>
      </trkpt>
      <trkpt lat="46.66106" lon="6.03826">
        <ele>945.1</ele>
        <time>2022-10-25T07:50:18Z</time>
      </trkpt>
      <trkpt lat="46.6611" lon="6.0383">
        <ele>944.1</ele>
        <time>2022-10-25T07:50:23Z</time>
      </trkpt>
      <trkpt lat="46.66113" lon="6.03836">
        <ele>943</ele>
        <time>2022-10-25T07:50:28Z</time>
      </trkpt>
      <trkpt lat="46.66116" lon="6.03843">
        <ele>941.6</ele>
        <time>2022-10-25T07:50:34Z</time>
      </trkpt>
      <trkpt lat="46.66119" lon="6.03849">
        <ele>940.4</ele>
        <time>2022-10-25T07:50:39Z</time>
      </trkpt>
      <trkpt lat="46.66122" lon="6.03854">
        <ele>939.1</ele>
        <time>2022-10-25T07:50:44Z</time>
      </trkpt>
      <trkpt lat="46.66126" lon="6.03859">
        <ele>938.3</ele>
        <time>2022-10-25T07:50:49Z</time>
      </trkpt>
      <trkpt lat="46.6613" lon="6.03863">
        <ele>938.1</ele>
        <time>2022-10-25T07:50:54Z</time>
      </trkpt>
      <trkpt lat="46.66132" lon="6.0387">
        <ele>938.2</ele>
        <time>2022-10-25T07:51:00Z</time>
      </trkpt>
      <trkpt lat="46.66133" lon="6.03877">
        <ele>937.7</ele>
        <time>2022-10-25T07:51:05Z</time>
      </trkpt>
      <trkpt lat="46.66137" lon="6.03881">
        <ele>936.6</ele>
        <time>2022-10-25T07:51:10Z</time>
      </trkpt>
      <trkpt lat="46.66141" lon="6.03883">
        <ele>935.9</ele>
        <time>2022-10-25T07:51:14Z</time>
      </trkpt>
      <trkpt lat="46.66145" lon="6.03887">
        <ele>935.5</ele>
        <time>2022-10-25T07:51:19Z</time>
      </trkpt>
      <trkpt lat="46.66147" lon="6.03893">
        <ele>936.1</ele>
        <time>2022-10-25T07:51:24Z</time>
      </trkpt>
      <trkpt lat="46.66151" lon="6.03898">
        <ele>936.7</ele>
        <time>2022-10-25T07:51:30Z</time>
      </trkpt>
      <trkpt lat="46.66155" lon="6.03903">
        <ele>937</ele>
        <time>2022-10-25T07:51:35Z</time>
      </trkpt>
      <trkpt lat="46.66159" lon="6.03908">
        <ele>937.4</ele>
        <time>2022-10-25T07:51:39Z</time>
      </trkpt>
      <trkpt lat="46.66163" lon="6.03912">
        <ele>937.3</ele>
        <time>2022-10-25T07:51:44Z</time>
      </trkpt>
      <trkpt lat="46.66166" lon="6.03918">
        <ele>936.6</ele>
        <time>2022-10-25T07:51:51Z</time>
      </trkpt>
      <trkpt lat="46.6617" lon="6.03921">
        <ele>934.7</ele>
        <time>2022-10-25T07:51:59Z</time>
      </trkpt>
      <trkpt lat="46.66172" lon="6.03928">
        <ele>932.7</ele>
        <time>2022-10-25T07:52:04Z</time>
      </trkpt>
      <trkpt lat="46.66176" lon="6.03932">
        <ele>930.6</ele>
        <time>2022-10-25T07:52:09Z</time>
      </trkpt>
      <trkpt lat="46.66177" lon="6.03939">
        <ele>928.7</ele>
        <time>2022-10-25T07:52:14Z</time>
      </trkpt>
      <trkpt lat="46.6618" lon="6.03945">
        <ele>927</ele>
        <time>2022-10-25T07:52:20Z</time>
      </trkpt>
      <trkpt lat="46.66182" lon="6.03951">
        <ele>925.1</ele>
        <time>2022-10-25T07:52:26Z</time>
      </trkpt>
      <trkpt lat="46.66186" lon="6.03956">
        <ele>923.5</ele>
        <time>2022-10-25T07:52:31Z</time>
      </trkpt>
      <trkpt lat="46.66189" lon="6.03962">
        <ele>921.9</ele>
        <time>2022-10-25T07:52:36Z</time>
      </trkpt>
      <trkpt lat="46.66193" lon="6.03967">
        <ele>920.1</ele>
        <time>2022-10-25T07:52:42Z</time>
      </trkpt>
      <trkpt lat="46.66196" lon="6.03972">
        <ele>919.2</ele>
        <time>2022-10-25T07:52:47Z</time>
      </trkpt>
      <trkpt lat="46.66199" lon="6.03979">
        <ele>918.7</ele>
        <time>2022-10-25T07:52:52Z</time>
      </trkpt>
      <trkpt lat="46.662" lon="6.03986">
        <ele>918.5</ele>
        <time>2022-10-25T07:52:57Z</time>
      </trkpt>
      <trkpt lat="46.66204" lon="6.03989">
        <ele>919.1</ele>
        <time>2022-10-25T07:53:03Z</time>
      </trkpt>
      <trkpt lat="46.66209" lon="6.03992">
        <ele>919.5</ele>
        <time>2022-10-25T07:53:07Z</time>
      </trkpt>
      <trkpt lat="46.66214" lon="6.03993">
        <ele>919.8</ele>
        <time>2022-10-25T07:53:12Z</time>
      </trkpt>
      <trkpt lat="46.66218" lon="6.03988">
        <ele>920.9</ele>
        <time>2022-10-25T07:53:16Z</time>
      </trkpt>
      <trkpt lat="46.66218" lon="6.03981">
        <ele>921.7</ele>
        <time>2022-10-25T07:53:21Z</time>
      </trkpt>
      <trkpt lat="46.66215" lon="6.03976">
        <ele>921.8</ele>
        <time>2022-10-25T07:53:27Z</time>
      </trkpt>
      <trkpt lat="46.66212" lon="6.03969">
        <ele>921.8</ele>
        <time>2022-10-25T07:53:31Z</time>
      </trkpt>
      <trkpt lat="46.66209" lon="6.03965">
        <ele>921.9</ele>
        <time>2022-10-25T07:53:34Z</time>
      </trkpt>
      <trkpt lat="46.66206" lon="6.03959">
        <ele>922.4</ele>
        <time>2022-10-25T07:53:39Z</time>
      </trkpt>
      <trkpt lat="46.66203" lon="6.03954">
        <ele>923</ele>
        <time>2022-10-25T07:53:44Z</time>
      </trkpt>
      <trkpt lat="46.66201" lon="6.03948">
        <ele>923.5</ele>
        <time>2022-10-25T07:53:49Z</time>
      </trkpt>
      <trkpt lat="46.66197" lon="6.03943">
        <ele>923.5</ele>
        <time>2022-10-25T07:53:54Z</time>
      </trkpt>
      <trkpt lat="46.66193" lon="6.03939">
        <ele>923.2</ele>
        <time>2022-10-25T07:53:59Z</time>
      </trkpt>
      <trkpt lat="46.6619" lon="6.03933">
        <ele>922.8</ele>
        <time>2022-10-25T07:54:05Z</time>
      </trkpt>
      <trkpt lat="46.66187" lon="6.03929">
        <ele>922.9</ele>
        <time>2022-10-25T07:54:09Z</time>
      </trkpt>
      <trkpt lat="46.66184" lon="6.03922">
        <ele>923.3</ele>
        <time>2022-10-25T07:54:14Z</time>
      </trkpt>
      <trkpt lat="46.6618" lon="6.03918">
        <ele>923.7</ele>
        <time>2022-10-25T07:54:19Z</time>
      </trkpt>
      <trkpt lat="46.66176" lon="6.03914">
        <ele>923.8</ele>
        <time>2022-10-25T07:54:25Z</time>
      </trkpt>
      <trkpt lat="46.66173" lon="6.03907">
        <ele>923.5</ele>
        <time>2022-10-25T07:54:30Z</time>
      </trkpt>
      <trkpt lat="46.66171" lon="6.03901">
        <ele>923.5</ele>
        <time>2022-10-25T07:54:34Z</time>
      </trkpt>
      <trkpt lat="46.66169" lon="6.03895">
        <ele>923.4</ele>
        <time>2022-10-25T07:54:38Z</time>
      </trkpt>
      <trkpt lat="46.66167" lon="6.03888">
        <ele>923.3</ele>
        <time>2022-10-25T07:54:43Z</time>
      </trkpt>
      <trkpt lat="46.66165" lon="6.03882">
        <ele>923.4</ele>
        <time>2022-10-25T07:54:47Z</time>
      </trkpt>
      <trkpt lat="46.66163" lon="6.03876">
        <ele>923.3</ele>
        <time>2022-10-25T07:54:51Z</time>
      </trkpt>
      <trkpt lat="46.66162" lon="6.03869">
        <ele>923.4</ele>
        <time>2022-10-25T07:54:57Z</time>
      </trkpt>
      <trkpt lat="46.6616" lon="6.03863">
        <ele>923.3</ele>
        <time>2022-10-25T07:55:02Z</time>
      </trkpt>
      <trkpt lat="46.66158" lon="6.03857">
        <ele>922.7</ele>
        <time>2022-10-25T07:55:08Z</time>
      </trkpt>
      <trkpt lat="46.66156" lon="6.03851">
        <ele>922.7</ele>
        <time>2022-10-25T07:55:14Z</time>
      </trkpt>
      <trkpt lat="46.66152" lon="6.03847">
        <ele>922.9</ele>
        <time>2022-10-25T07:55:18Z</time>
      </trkpt>
      <trkpt lat="46.66148" lon="6.03842">
        <ele>923.6</ele>
        <time>2022-10-25T07:55:23Z</time>
      </trkpt>
      <trkpt lat="46.66144" lon="6.03838">
        <ele>924</ele>
        <time>2022-10-25T07:55:28Z</time>
      </trkpt>
      <trkpt lat="46.6614" lon="6.03832">
        <ele>923.4</ele>
        <time>2022-10-25T07:55:35Z</time>
      </trkpt>
      <trkpt lat="46.66137" lon="6.03826">
        <ele>922.6</ele>
        <time>2022-10-25T07:55:41Z</time>
      </trkpt>
      <trkpt lat="46.66134" lon="6.03822">
        <ele>921.5</ele>
        <time>2022-10-25T07:55:46Z</time>
      </trkpt>
      <trkpt lat="46.66132" lon="6.03815">
        <ele>920.1</ele>
        <time>2022-10-25T07:55:53Z</time>
      </trkpt>
      <trkpt lat="46.6613" lon="6.03809">
        <ele>918.7</ele>
        <time>2022-10-25T07:56:00Z</time>
      </trkpt>
      <trkpt lat="46.66129" lon="6.038">
        <ele>918.3</ele>
        <time>2022-10-25T07:56:04Z</time>
      </trkpt>
      <trkpt lat="46.66128" lon="6.03792">
        <ele>918.2</ele>
        <time>2022-10-25T07:56:07Z</time>
      </trkpt>
      <trkpt lat="46.66128" lon="6.03785">
        <ele>918.3</ele>
        <time>2022-10-25T07:56:11Z</time>
      </trkpt>
      <trkpt lat="46.66126" lon="6.03779">
        <ele>918.5</ele>
        <time>2022-10-25T07:56:19Z</time>
      </trkpt>
      <trkpt lat="46.66125" lon="6.03773">
        <ele>918.3</ele>
        <time>2022-10-25T07:56:24Z</time>
      </trkpt>
      <trkpt lat="46.66122" lon="6.03767">
        <ele>917.8</ele>
        <time>2022-10-25T07:56:29Z</time>
      </trkpt>
      <trkpt lat="46.66121" lon="6.0376">
        <ele>917.4</ele>
        <time>2022-10-25T07:56:34Z</time>
      </trkpt>
      <trkpt lat="46.66119" lon="6.03754">
        <ele>917.2</ele>
        <time>2022-10-25T07:56:40Z</time>
      </trkpt>
      <trkpt lat="46.66119" lon="6.03746">
        <ele>917.8</ele>
        <time>2022-10-25T07:56:48Z</time>
      </trkpt>
      <trkpt lat="46.66119" lon="6.03739">
        <ele>917.5</ele>
        <time>2022-10-25T07:56:53Z</time>
      </trkpt>
      <trkpt lat="46.66118" lon="6.03731">
        <ele>916.7</ele>
        <time>2022-10-25T07:56:58Z</time>
      </trkpt>
      <trkpt lat="46.66118" lon="6.03724">
        <ele>916.1</ele>
        <time>2022-10-25T07:57:03Z</time>
      </trkpt>
      <trkpt lat="46.66116" lon="6.03718">
        <ele>915.1</ele>
        <time>2022-10-25T07:57:08Z</time>
      </trkpt>
      <trkpt lat="46.66115" lon="6.03711">
        <ele>913.7</ele>
        <time>2022-10-25T07:57:13Z</time>
      </trkpt>
      <trkpt lat="46.66112" lon="6.03706">
        <ele>912.2</ele>
        <time>2022-10-25T07:57:19Z</time>
      </trkpt>
      <trkpt lat="46.66109" lon="6.037">
        <ele>909.9</ele>
        <time>2022-10-25T07:57:26Z</time>
      </trkpt>
      <trkpt lat="46.66108" lon="6.03692">
        <ele>908.4</ele>
        <time>2022-10-25T07:57:32Z</time>
      </trkpt>
      <trkpt lat="46.66107" lon="6.03685">
        <ele>907.4</ele>
        <time>2022-10-25T07:57:36Z</time>
      </trkpt>
      <trkpt lat="46.66107" lon="6.03677">
        <ele>907</ele>
        <time>2022-10-25T07:57:39Z</time>
      </trkpt>
      <trkpt lat="46.66107" lon="6.03671">
        <ele>907</ele>
        <time>2022-10-25T07:57:42Z</time>
      </trkpt>
      <trkpt lat="46.66108" lon="6.03664">
        <ele>907.2</ele>
        <time>2022-10-25T07:57:46Z</time>
      </trkpt>
      <trkpt lat="46.66107" lon="6.03657">
        <ele>906.5</ele>
        <time>2022-10-25T07:57:51Z</time>
      </trkpt>
      <trkpt lat="46.66102" lon="6.03652">
        <ele>906.2</ele>
        <time>2022-10-25T07:57:55Z</time>
      </trkpt>
      <trkpt lat="46.66098" lon="6.03648">
        <ele>906.3</ele>
        <time>2022-10-25T07:57:59Z</time>
      </trkpt>
      <trkpt lat="46.66094" lon="6.03642">
        <ele>907</ele>
        <time>2022-10-25T07:58:04Z</time>
      </trkpt>
      <trkpt lat="46.66093" lon="6.03636">
        <ele>907.6</ele>
        <time>2022-10-25T07:58:08Z</time>
      </trkpt>
      <trkpt lat="46.66091" lon="6.03629">
        <ele>908.6</ele>
        <time>2022-10-25T07:58:13Z</time>
      </trkpt>
      <trkpt lat="46.66091" lon="6.03622">
        <ele>909.2</ele>
        <time>2022-10-25T07:58:18Z</time>
      </trkpt>
      <trkpt lat="46.66088" lon="6.03617">
        <ele>909.7</ele>
        <time>2022-10-25T07:58:24Z</time>
      </trkpt>
      <trkpt lat="46.66086" lon="6.03611">
        <ele>910.1</ele>
        <time>2022-10-25T07:58:29Z</time>
      </trkpt>
      <trkpt lat="46.66083" lon="6.03601">
        <ele>909.9</ele>
        <time>2022-10-25T07:58:39Z</time>
      </trkpt>
      <trkpt lat="46.66082" lon="6.03595">
        <ele>909.4</ele>
        <time>2022-10-25T07:58:43Z</time>
      </trkpt>
      <trkpt lat="46.66082" lon="6.03587">
        <ele>908.6</ele>
        <time>2022-10-25T07:58:49Z</time>
      </trkpt>
      <trkpt lat="46.66083" lon="6.03579">
        <ele>908.3</ele>
        <time>2022-10-25T07:58:54Z</time>
      </trkpt>
      <trkpt lat="46.66082" lon="6.03572">
        <ele>908.7</ele>
        <time>2022-10-25T07:58:59Z</time>
      </trkpt>
      <trkpt lat="46.66081" lon="6.03565">
        <ele>908.8</ele>
        <time>2022-10-25T07:59:04Z</time>
      </trkpt>
      <trkpt lat="46.6608" lon="6.03558">
        <ele>908.7</ele>
        <time>2022-10-25T07:59:10Z</time>
      </trkpt>
      <trkpt lat="46.66079" lon="6.03551">
        <ele>909.1</ele>
        <time>2022-10-25T07:59:16Z</time>
      </trkpt>
      <trkpt lat="46.66079" lon="6.03544">
        <ele>909.2</ele>
        <time>2022-10-25T07:59:20Z</time>
      </trkpt>
      <trkpt lat="46.6608" lon="6.03536">
        <ele>909.3</ele>
        <time>2022-10-25T07:59:25Z</time>
      </trkpt>
      <trkpt lat="46.66082" lon="6.03529">
        <ele>910</ele>
        <time>2022-10-25T07:59:30Z</time>
      </trkpt>
      <trkpt lat="46.66081" lon="6.03522">
        <ele>911.2</ele>
        <time>2022-10-25T07:59:35Z</time>
      </trkpt>
      <trkpt lat="46.66081" lon="6.03515">
        <ele>912.9</ele>
        <time>2022-10-25T07:59:40Z</time>
      </trkpt>
      <trkpt lat="46.66082" lon="6.03508">
        <ele>913.9</ele>
        <time>2022-10-25T07:59:45Z</time>
      </trkpt>
      <trkpt lat="46.66083" lon="6.03501">
        <ele>914.6</ele>
        <time>2022-10-25T07:59:51Z</time>
      </trkpt>
      <trkpt lat="46.66081" lon="6.03495">
        <ele>915.9</ele>
        <time>2022-10-25T08:00:00Z</time>
      </trkpt>
      <trkpt lat="46.6608" lon="6.03487">
        <ele>917.2</ele>
        <time>2022-10-25T08:00:12Z</time>
      </trkpt>
      <trkpt lat="46.6608" lon="6.0348">
        <ele>917.7</ele>
        <time>2022-10-25T08:00:15Z</time>
      </trkpt>
      <trkpt lat="46.6608" lon="6.03472">
        <ele>918.6</ele>
        <time>2022-10-25T08:00:20Z</time>
      </trkpt>
      <trkpt lat="46.6608" lon="6.03464">
        <ele>919.5</ele>
        <time>2022-10-25T08:00:25Z</time>
      </trkpt>
      <trkpt lat="46.66079" lon="6.03457">
        <ele>920.9</ele>
        <time>2022-10-25T08:00:30Z</time>
      </trkpt>
      <trkpt lat="46.66079" lon="6.0345">
        <ele>923</ele>
        <time>2022-10-25T08:00:35Z</time>
      </trkpt>
      <trkpt lat="46.66079" lon="6.03443">
        <ele>925</ele>
        <time>2022-10-25T08:00:42Z</time>
      </trkpt>
      <trkpt lat="46.66081" lon="6.03436">
        <ele>926.4</ele>
        <time>2022-10-25T08:00:49Z</time>
      </trkpt>
      <trkpt lat="46.6608" lon="6.03429">
        <ele>926.2</ele>
        <time>2022-10-25T08:00:59Z</time>
      </trkpt>
      <trkpt lat="46.66079" lon="6.03423">
        <ele>926</ele>
        <time>2022-10-25T08:01:05Z</time>
      </trkpt>
      <trkpt lat="46.66079" lon="6.03414">
        <ele>926.3</ele>
        <time>2022-10-25T08:01:10Z</time>
      </trkpt>
      <trkpt lat="46.66079" lon="6.03408">
        <ele>926.8</ele>
        <time>2022-10-25T08:01:14Z</time>
      </trkpt>
      <trkpt lat="46.6608" lon="6.03401">
        <ele>927.9</ele>
        <time>2022-10-25T08:01:20Z</time>
      </trkpt>
      <trkpt lat="46.66081" lon="6.03394">
        <ele>929.8</ele>
        <time>2022-10-25T08:01:26Z</time>
      </trkpt>
      <trkpt lat="46.66083" lon="6.03388">
        <ele>930.8</ele>
        <time>2022-10-25T08:01:32Z</time>
      </trkpt>
      <trkpt lat="46.66087" lon="6.03382">
        <ele>931.7</ele>
        <time>2022-10-25T08:01:38Z</time>
      </trkpt>
      <trkpt lat="46.66091" lon="6.03379">
        <ele>932.5</ele>
        <time>2022-10-25T08:01:44Z</time>
      </trkpt>
      <trkpt lat="46.66095" lon="6.03376">
        <ele>932.9</ele>
        <time>2022-10-25T08:01:50Z</time>
      </trkpt>
      <trkpt lat="46.66099" lon="6.03373">
        <ele>933.2</ele>
        <time>2022-10-25T08:01:55Z</time>
      </trkpt>
      <trkpt lat="46.66103" lon="6.03368">
        <ele>933</ele>
        <time>2022-10-25T08:02:00Z</time>
      </trkpt>
      <trkpt lat="46.66107" lon="6.03364">
        <ele>933</ele>
        <time>2022-10-25T08:02:06Z</time>
      </trkpt>
      <trkpt lat="46.66111" lon="6.03361">
        <ele>932.3</ele>
        <time>2022-10-25T08:02:12Z</time>
      </trkpt>
      <trkpt lat="46.66114" lon="6.03357">
        <ele>931</ele>
        <time>2022-10-25T08:02:18Z</time>
      </trkpt>
      <trkpt lat="46.66118" lon="6.03352">
        <ele>929</ele>
        <time>2022-10-25T08:02:23Z</time>
      </trkpt>
      <trkpt lat="46.66122" lon="6.03347">
        <ele>926.7</ele>
        <time>2022-10-25T08:02:27Z</time>
      </trkpt>
      <trkpt lat="46.66126" lon="6.03342">
        <ele>923.4</ele>
        <time>2022-10-25T08:02:32Z</time>
      </trkpt>
      <trkpt lat="46.66129" lon="6.03336">
        <ele>919.9</ele>
        <time>2022-10-25T08:02:38Z</time>
      </trkpt>
      <trkpt lat="46.66133" lon="6.03333">
        <ele>918.1</ele>
        <time>2022-10-25T08:02:43Z</time>
      </trkpt>
      <trkpt lat="46.66138" lon="6.0333">
        <ele>917.4</ele>
        <time>2022-10-25T08:02:48Z</time>
      </trkpt>
      <trkpt lat="46.66143" lon="6.03328">
        <ele>916.4</ele>
        <time>2022-10-25T08:02:53Z</time>
      </trkpt>
      <trkpt lat="46.66147" lon="6.03325">
        <ele>915.5</ele>
        <time>2022-10-25T08:02:58Z</time>
      </trkpt>
      <trkpt lat="46.66151" lon="6.03321">
        <ele>914.9</ele>
        <time>2022-10-25T08:03:03Z</time>
      </trkpt>
      <trkpt lat="46.66155" lon="6.03317">
        <ele>914.7</ele>
        <time>2022-10-25T08:03:08Z</time>
      </trkpt>
      <trkpt lat="46.6616" lon="6.03313">
        <ele>914.8</ele>
        <time>2022-10-25T08:03:13Z</time>
      </trkpt>
      <trkpt lat="46.66165" lon="6.03311">
        <ele>914.5</ele>
        <time>2022-10-25T08:03:18Z</time>
      </trkpt>
      <trkpt lat="46.66169" lon="6.03307">
        <ele>913.7</ele>
        <time>2022-10-25T08:03:23Z</time>
      </trkpt>
      <trkpt lat="46.66173" lon="6.03303">
        <ele>913.3</ele>
        <time>2022-10-25T08:03:29Z</time>
      </trkpt>
      <trkpt lat="46.66177" lon="6.03299">
        <ele>912.8</ele>
        <time>2022-10-25T08:03:34Z</time>
      </trkpt>
      <trkpt lat="46.66181" lon="6.03296">
        <ele>912</ele>
        <time>2022-10-25T08:03:39Z</time>
      </trkpt>
      <trkpt lat="46.66185" lon="6.03292">
        <ele>911.4</ele>
        <time>2022-10-25T08:03:44Z</time>
      </trkpt>
      <trkpt lat="46.6619" lon="6.03288">
        <ele>911</ele>
        <time>2022-10-25T08:03:49Z</time>
      </trkpt>
      <trkpt lat="46.66194" lon="6.03286">
        <ele>911</ele>
        <time>2022-10-25T08:03:54Z</time>
      </trkpt>
      <trkpt lat="46.66198" lon="6.03284">
        <ele>911.8</ele>
        <time>2022-10-25T08:03:59Z</time>
      </trkpt>
      <trkpt lat="46.66203" lon="6.0328">
        <ele>912.2</ele>
        <time>2022-10-25T08:04:04Z</time>
      </trkpt>
      <trkpt lat="46.66208" lon="6.03278">
        <ele>912.2</ele>
        <time>2022-10-25T08:04:09Z</time>
      </trkpt>
      <trkpt lat="46.66213" lon="6.03275">
        <ele>912.7</ele>
        <time>2022-10-25T08:04:15Z</time>
      </trkpt>
      <trkpt lat="46.66217" lon="6.03271">
        <ele>912.7</ele>
        <time>2022-10-25T08:04:21Z</time>
      </trkpt>
      <trkpt lat="46.66222" lon="6.03269">
        <ele>912.4</ele>
        <time>2022-10-25T08:04:26Z</time>
      </trkpt>
      <trkpt lat="46.66227" lon="6.03268">
        <ele>912.7</ele>
        <time>2022-10-25T08:04:31Z</time>
      </trkpt>
      <trkpt lat="46.66232" lon="6.03267">
        <ele>913.1</ele>
        <time>2022-10-25T08:04:35Z</time>
      </trkpt>
      <trkpt lat="46.66237" lon="6.03264">
        <ele>913.6</ele>
        <time>2022-10-25T08:04:39Z</time>
      </trkpt>
      <trkpt lat="46.66241" lon="6.03261">
        <ele>914.1</ele>
        <time>2022-10-25T08:04:43Z</time>
      </trkpt>
      <trkpt lat="46.66246" lon="6.0326">
        <ele>914.7</ele>
        <time>2022-10-25T08:04:48Z</time>
      </trkpt>
      <trkpt lat="46.66251" lon="6.03258">
        <ele>915</ele>
        <time>2022-10-25T08:04:52Z</time>
      </trkpt>
      <trkpt lat="46.66256" lon="6.03255">
        <ele>915.3</ele>
        <time>2022-10-25T08:04:57Z</time>
      </trkpt>
      <trkpt lat="46.66261" lon="6.03255">
        <ele>915.6</ele>
        <time>2022-10-25T08:05:03Z</time>
      </trkpt>
      <trkpt lat="46.66266" lon="6.03256">
        <ele>915.2</ele>
        <time>2022-10-25T08:05:07Z</time>
      </trkpt>
      <trkpt lat="46.66272" lon="6.03255">
        <ele>914.3</ele>
        <time>2022-10-25T08:05:12Z</time>
      </trkpt>
      <trkpt lat="46.66277" lon="6.03254">
        <ele>913.5</ele>
        <time>2022-10-25T08:05:17Z</time>
      </trkpt>
      <trkpt lat="46.66282" lon="6.03253">
        <ele>912.6</ele>
        <time>2022-10-25T08:05:23Z</time>
      </trkpt>
      <trkpt lat="46.66288" lon="6.03252">
        <ele>911.7</ele>
        <time>2022-10-25T08:05:29Z</time>
      </trkpt>
      <trkpt lat="46.66292" lon="6.03255">
        <ele>910.6</ele>
        <time>2022-10-25T08:05:34Z</time>
      </trkpt>
      <trkpt lat="46.66298" lon="6.03258">
        <ele>909.5</ele>
        <time>2022-10-25T08:05:39Z</time>
      </trkpt>
      <trkpt lat="46.66302" lon="6.0326">
        <ele>908.8</ele>
        <time>2022-10-25T08:05:44Z</time>
      </trkpt>
      <trkpt lat="46.66307" lon="6.03262">
        <ele>907.1</ele>
        <time>2022-10-25T08:05:51Z</time>
      </trkpt>
      <trkpt lat="46.6631" lon="6.03265">
        <ele>905.9</ele>
        <time>2022-10-25T08:05:57Z</time>
      </trkpt>
      <trkpt lat="46.66314" lon="6.0327">
        <ele>905.3</ele>
        <time>2022-10-25T08:06:04Z</time>
      </trkpt>
      <trkpt lat="46.66319" lon="6.03274">
        <ele>906</ele>
        <time>2022-10-25T08:06:09Z</time>
      </trkpt>
      <trkpt lat="46.66322" lon="6.0328">
        <ele>908.5</ele>
        <time>2022-10-25T08:06:17Z</time>
      </trkpt>
      <trkpt lat="46.66327" lon="6.03276">
        <ele>911.4</ele>
        <time>2022-10-25T08:06:32Z</time>
      </trkpt>
      <trkpt lat="46.6633" lon="6.0327">
        <ele>911.8</ele>
        <time>2022-10-25T08:06:36Z</time>
      </trkpt>
      <trkpt lat="46.66333" lon="6.03265">
        <ele>912.3</ele>
        <time>2022-10-25T08:06:40Z</time>
      </trkpt>
      <trkpt lat="46.66337" lon="6.03264">
        <ele>912.5</ele>
        <time>2022-10-25T08:06:45Z</time>
      </trkpt>
      <trkpt lat="46.66339" lon="6.03257">
        <ele>912.8</ele>
        <time>2022-10-25T08:06:52Z</time>
      </trkpt>
      <trkpt lat="46.66338" lon="6.0325">
        <ele>913</ele>
        <time>2022-10-25T08:06:56Z</time>
      </trkpt>
      <trkpt lat="46.6634" lon="6.03244">
        <ele>912.9</ele>
        <time>2022-10-25T08:07:04Z</time>
      </trkpt>
      <trkpt lat="46.66343" lon="6.03239">
        <ele>911.4</ele>
        <time>2022-10-25T08:07:10Z</time>
      </trkpt>
      <trkpt lat="46.66346" lon="6.03232">
        <ele>910.4</ele>
        <time>2022-10-25T08:07:15Z</time>
      </trkpt>
      <trkpt lat="46.66349" lon="6.03227">
        <ele>909.9</ele>
        <time>2022-10-25T08:07:21Z</time>
      </trkpt>
      <trkpt lat="46.66354" lon="6.03227">
        <ele>910.1</ele>
        <time>2022-10-25T08:07:26Z</time>
      </trkpt>
      <trkpt lat="46.66359" lon="6.03225">
        <ele>910.4</ele>
        <time>2022-10-25T08:07:30Z</time>
      </trkpt>
      <trkpt lat="46.66363" lon="6.03223">
        <ele>910.8</ele>
        <time>2022-10-25T08:07:33Z</time>
      </trkpt>
      <trkpt lat="46.66367" lon="6.03218">
        <ele>911.9</ele>
        <time>2022-10-25T08:07:37Z</time>
      </trkpt>
      <trkpt lat="46.66371" lon="6.03212">
        <ele>912.8</ele>
        <time>2022-10-25T08:07:41Z</time>
      </trkpt>
      <trkpt lat="46.66373" lon="6.03206">
        <ele>913.7</ele>
        <time>2022-10-25T08:07:45Z</time>
      </trkpt>
      <trkpt lat="46.6637" lon="6.032">
        <ele>913.8</ele>
        <time>2022-10-25T08:07:50Z</time>
      </trkpt>
      <trkpt lat="46.66365" lon="6.03196">
        <ele>913.3</ele>
        <time>2022-10-25T08:07:54Z</time>
      </trkpt>
      <trkpt lat="46.6636" lon="6.03191">
        <ele>913.4</ele>
        <time>2022-10-25T08:07:58Z</time>
      </trkpt>
      <trkpt lat="46.66355" lon="6.03188">
        <ele>913.8</ele>
        <time>2022-10-25T08:08:02Z</time>
      </trkpt>
      <trkpt lat="46.6635" lon="6.03185">
        <ele>913.9</ele>
        <time>2022-10-25T08:08:06Z</time>
      </trkpt>
      <trkpt lat="46.66345" lon="6.03182">
        <ele>914.2</ele>
        <time>2022-10-25T08:08:11Z</time>
      </trkpt>
      <trkpt lat="46.66341" lon="6.03179">
        <ele>914.6</ele>
        <time>2022-10-25T08:08:16Z</time>
      </trkpt>
      <trkpt lat="46.66336" lon="6.03177">
        <ele>914.9</ele>
        <time>2022-10-25T08:08:21Z</time>
      </trkpt>
      <trkpt lat="46.66331" lon="6.03175">
        <ele>915.5</ele>
        <time>2022-10-25T08:08:25Z</time>
      </trkpt>
      <trkpt lat="46.66326" lon="6.03173">
        <ele>916.2</ele>
        <time>2022-10-25T08:08:29Z</time>
      </trkpt>
      <trkpt lat="46.66321" lon="6.03172">
        <ele>917.4</ele>
        <time>2022-10-25T08:08:35Z</time>
      </trkpt>
      <trkpt lat="46.66317" lon="6.0317">
        <ele>918.2</ele>
        <time>2022-10-25T08:08:40Z</time>
      </trkpt>
      <trkpt lat="46.66312" lon="6.03167">
        <ele>918.6</ele>
        <time>2022-10-25T08:08:45Z</time>
      </trkpt>
      <trkpt lat="46.66307" lon="6.03165">
        <ele>919.1</ele>
        <time>2022-10-25T08:08:50Z</time>
      </trkpt>
      <trkpt lat="46.66301" lon="6.03163">
        <ele>919.2</ele>
        <time>2022-10-25T08:08:55Z</time>
      </trkpt>
      <trkpt lat="46.66296" lon="6.03161">
        <ele>918.8</ele>
        <time>2022-10-25T08:09:00Z</time>
      </trkpt>
      <trkpt lat="46.66292" lon="6.03157">
        <ele>918.3</ele>
        <time>2022-10-25T08:09:05Z</time>
      </trkpt>
      <trkpt lat="46.66289" lon="6.03152">
        <ele>918.3</ele>
        <time>2022-10-25T08:09:10Z</time>
      </trkpt>
      <trkpt lat="46.66289" lon="6.03144">
        <ele>917.7</ele>
        <time>2022-10-25T08:09:15Z</time>
      </trkpt>
      <trkpt lat="46.66291" lon="6.03138">
        <ele>915.9</ele>
        <time>2022-10-25T08:09:20Z</time>
      </trkpt>
      <trkpt lat="46.66294" lon="6.03132">
        <ele>910.7</ele>
        <time>2022-10-25T08:09:34Z</time>
      </trkpt>
      <trkpt lat="46.66296" lon="6.03126">
        <ele>909.9</ele>
        <time>2022-10-25T08:09:39Z</time>
      </trkpt>
      <trkpt lat="46.66297" lon="6.0312">
        <ele>909</ele>
        <time>2022-10-25T08:09:45Z</time>
      </trkpt>
      <trkpt lat="46.663" lon="6.03113">
        <ele>908.2</ele>
        <time>2022-10-25T08:09:52Z</time>
      </trkpt>
      <trkpt lat="46.66304" lon="6.03109">
        <ele>907.7</ele>
        <time>2022-10-25T08:09:58Z</time>
      </trkpt>
      <trkpt lat="46.66308" lon="6.03103">
        <ele>906.9</ele>
        <time>2022-10-25T08:10:04Z</time>
      </trkpt>
      <trkpt lat="46.66311" lon="6.03097">
        <ele>906.1</ele>
        <time>2022-10-25T08:10:09Z</time>
      </trkpt>
      <trkpt lat="46.66315" lon="6.03093">
        <ele>905.3</ele>
        <time>2022-10-25T08:10:14Z</time>
      </trkpt>
      <trkpt lat="46.66319" lon="6.03089">
        <ele>904.4</ele>
        <time>2022-10-25T08:10:20Z</time>
      </trkpt>
      <trkpt lat="46.66324" lon="6.03087">
        <ele>903.5</ele>
        <time>2022-10-25T08:10:25Z</time>
      </trkpt>
      <trkpt lat="46.66328" lon="6.03086">
        <ele>902.8</ele>
        <time>2022-10-25T08:10:30Z</time>
      </trkpt>
      <trkpt lat="46.66333" lon="6.03087">
        <ele>902.5</ele>
        <time>2022-10-25T08:10:36Z</time>
      </trkpt>
      <trkpt lat="46.66338" lon="6.03088">
        <ele>902.4</ele>
        <time>2022-10-25T08:10:43Z</time>
      </trkpt>
      <trkpt lat="46.66342" lon="6.03089">
        <ele>902.5</ele>
        <time>2022-10-25T08:10:49Z</time>
      </trkpt>
      <trkpt lat="46.66347" lon="6.0309">
        <ele>903.7</ele>
        <time>2022-10-25T08:10:54Z</time>
      </trkpt>
      <trkpt lat="46.66352" lon="6.03093">
        <ele>905.9</ele>
        <time>2022-10-25T08:11:00Z</time>
      </trkpt>
      <trkpt lat="46.66357" lon="6.03094">
        <ele>908</ele>
        <time>2022-10-25T08:11:07Z</time>
      </trkpt>
      <trkpt lat="46.66361" lon="6.03097">
        <ele>908.4</ele>
        <time>2022-10-25T08:11:12Z</time>
      </trkpt>
      <trkpt lat="46.66365" lon="6.031">
        <ele>909</ele>
        <time>2022-10-25T08:11:17Z</time>
      </trkpt>
      <trkpt lat="46.6637" lon="6.03102">
        <ele>910.2</ele>
        <time>2022-10-25T08:11:26Z</time>
      </trkpt>
      <trkpt lat="46.66375" lon="6.03103">
        <ele>911.8</ele>
        <time>2022-10-25T08:11:34Z</time>
      </trkpt>
      <trkpt lat="46.66379" lon="6.03105">
        <ele>912.8</ele>
        <time>2022-10-25T08:11:40Z</time>
      </trkpt>
      <trkpt lat="46.66384" lon="6.03105">
        <ele>913.8</ele>
        <time>2022-10-25T08:11:46Z</time>
      </trkpt>
      <trkpt lat="46.66389" lon="6.03107">
        <ele>914.6</ele>
        <time>2022-10-25T08:11:51Z</time>
      </trkpt>
      <trkpt lat="46.66393" lon="6.0311">
        <ele>915.4</ele>
        <time>2022-10-25T08:11:56Z</time>
      </trkpt>
      <trkpt lat="46.66398" lon="6.03111">
        <ele>917</ele>
        <time>2022-10-25T08:12:02Z</time>
      </trkpt>
      <trkpt lat="46.66403" lon="6.0311">
        <ele>918.5</ele>
        <time>2022-10-25T08:12:08Z</time>
      </trkpt>
      <trkpt lat="46.66408" lon="6.03106">
        <ele>919.2</ele>
        <time>2022-10-25T08:12:13Z</time>
      </trkpt>
      <trkpt lat="46.66412" lon="6.03102">
        <ele>920.3</ele>
        <time>2022-10-25T08:12:18Z</time>
      </trkpt>
      <trkpt lat="46.66417" lon="6.03099">
        <ele>921.6</ele>
        <time>2022-10-25T08:12:25Z</time>
      </trkpt>
      <trkpt lat="46.66421" lon="6.03095">
        <ele>922.3</ele>
        <time>2022-10-25T08:12:31Z</time>
      </trkpt>
      <trkpt lat="46.66426" lon="6.03095">
        <ele>922.9</ele>
        <time>2022-10-25T08:12:38Z</time>
      </trkpt>
      <trkpt lat="46.66431" lon="6.03093">
        <ele>922.5</ele>
        <time>2022-10-25T08:12:44Z</time>
      </trkpt>
      <trkpt lat="46.66436" lon="6.03091">
        <ele>920.8</ele>
        <time>2022-10-25T08:12:52Z</time>
      </trkpt>
      <trkpt lat="46.6644" lon="6.03092">
        <ele>920.3</ele>
        <time>2022-10-25T08:12:58Z</time>
      </trkpt>
      <trkpt lat="46.66446" lon="6.03091">
        <ele>920</ele>
        <time>2022-10-25T08:13:04Z</time>
      </trkpt>
      <trkpt lat="46.6645" lon="6.0309">
        <ele>920</ele>
        <time>2022-10-25T08:13:11Z</time>
      </trkpt>
      <trkpt lat="46.66455" lon="6.03089">
        <ele>920.1</ele>
        <time>2022-10-25T08:13:16Z</time>
      </trkpt>
      <trkpt lat="46.6646" lon="6.03087">
        <ele>920.4</ele>
        <time>2022-10-25T08:13:21Z</time>
      </trkpt>
      <trkpt lat="46.66465" lon="6.03086">
        <ele>921</ele>
        <time>2022-10-25T08:13:25Z</time>
      </trkpt>
      <trkpt lat="46.6647" lon="6.03083">
        <ele>922.1</ele>
        <time>2022-10-25T08:13:30Z</time>
      </trkpt>
      <trkpt lat="46.66474" lon="6.03081">
        <ele>923.3</ele>
        <time>2022-10-25T08:13:37Z</time>
      </trkpt>
      <trkpt lat="46.66479" lon="6.03079">
        <ele>924</ele>
        <time>2022-10-25T08:13:43Z</time>
      </trkpt>
      <trkpt lat="46.66484" lon="6.03078">
        <ele>924.3</ele>
        <time>2022-10-25T08:13:51Z</time>
      </trkpt>
      <trkpt lat="46.66488" lon="6.0308">
        <ele>924.1</ele>
        <time>2022-10-25T08:13:58Z</time>
      </trkpt>
      <trkpt lat="46.66494" lon="6.0308">
        <ele>924.4</ele>
        <time>2022-10-25T08:14:04Z</time>
      </trkpt>
      <trkpt lat="46.66498" lon="6.03079">
        <ele>924.6</ele>
        <time>2022-10-25T08:14:08Z</time>
      </trkpt>
      <trkpt lat="46.66503" lon="6.03079">
        <ele>925.2</ele>
        <time>2022-10-25T08:14:13Z</time>
      </trkpt>
      <trkpt lat="46.66508" lon="6.03082">
        <ele>926.1</ele>
        <time>2022-10-25T08:14:18Z</time>
      </trkpt>
      <trkpt lat="46.66513" lon="6.03085">
        <ele>927</ele>
        <time>2022-10-25T08:14:23Z</time>
      </trkpt>
      <trkpt lat="46.66518" lon="6.03087">
        <ele>927.7</ele>
        <time>2022-10-25T08:14:28Z</time>
      </trkpt>
      <trkpt lat="46.66522" lon="6.0309">
        <ele>928.8</ele>
        <time>2022-10-25T08:14:35Z</time>
      </trkpt>
      <trkpt lat="46.66525" lon="6.03096">
        <ele>928.4</ele>
        <time>2022-10-25T08:14:41Z</time>
      </trkpt>
      <trkpt lat="46.66529" lon="6.03102">
        <ele>927.5</ele>
        <time>2022-10-25T08:14:47Z</time>
      </trkpt>
      <trkpt lat="46.66531" lon="6.03108">
        <ele>927.4</ele>
        <time>2022-10-25T08:14:54Z</time>
      </trkpt>
      <trkpt lat="46.66532" lon="6.03115">
        <ele>928.6</ele>
        <time>2022-10-25T08:15:00Z</time>
      </trkpt>
      <trkpt lat="46.66535" lon="6.03123">
        <ele>929.8</ele>
        <time>2022-10-25T08:15:05Z</time>
      </trkpt>
      <trkpt lat="46.66537" lon="6.03128">
        <ele>931.2</ele>
        <time>2022-10-25T08:15:10Z</time>
      </trkpt>
      <trkpt lat="46.66541" lon="6.03133">
        <ele>933.9</ele>
        <time>2022-10-25T08:15:17Z</time>
      </trkpt>
      <trkpt lat="46.66545" lon="6.03137">
        <ele>935.9</ele>
        <time>2022-10-25T08:15:23Z</time>
      </trkpt>
      <trkpt lat="46.6655" lon="6.0314">
        <ele>937.4</ele>
        <time>2022-10-25T08:15:29Z</time>
      </trkpt>
      <trkpt lat="46.66555" lon="6.0314">
        <ele>938</ele>
        <time>2022-10-25T08:15:35Z</time>
      </trkpt>
      <trkpt lat="46.6656" lon="6.0314">
        <ele>938</ele>
        <time>2022-10-25T08:15:41Z</time>
      </trkpt>
      <trkpt lat="46.66564" lon="6.03141">
        <ele>937.9</ele>
        <time>2022-10-25T08:15:45Z</time>
      </trkpt>
      <trkpt lat="46.66569" lon="6.0314">
        <ele>937.8</ele>
        <time>2022-10-25T08:15:49Z</time>
      </trkpt>
      <trkpt lat="46.66574" lon="6.03139">
        <ele>938.2</ele>
        <time>2022-10-25T08:15:54Z</time>
      </trkpt>
      <trkpt lat="46.66578" lon="6.03137">
        <ele>938.7</ele>
        <time>2022-10-25T08:16:01Z</time>
      </trkpt>
      <trkpt lat="46.66583" lon="6.03134">
        <ele>938.8</ele>
        <time>2022-10-25T08:16:11Z</time>
      </trkpt>
      <trkpt lat="46.66588" lon="6.03134">
        <ele>938.9</ele>
        <time>2022-10-25T08:16:18Z</time>
      </trkpt>
      <trkpt lat="46.66593" lon="6.03131">
        <ele>938.7</ele>
        <time>2022-10-25T08:16:26Z</time>
      </trkpt>
      <trkpt lat="46.66596" lon="6.03126">
        <ele>939.1</ele>
        <time>2022-10-25T08:16:33Z</time>
      </trkpt>
      <trkpt lat="46.666" lon="6.03123">
        <ele>939.6</ele>
        <time>2022-10-25T08:16:40Z</time>
      </trkpt>
      <trkpt lat="46.66605" lon="6.03121">
        <ele>939.9</ele>
        <time>2022-10-25T08:16:46Z</time>
      </trkpt>
      <trkpt lat="46.6661" lon="6.0312">
        <ele>940.1</ele>
        <time>2022-10-25T08:16:51Z</time>
      </trkpt>
      <trkpt lat="46.66614" lon="6.03116">
        <ele>940.9</ele>
        <time>2022-10-25T08:16:57Z</time>
      </trkpt>
      <trkpt lat="46.66618" lon="6.03113">
        <ele>942.1</ele>
        <time>2022-10-25T08:17:03Z</time>
      </trkpt>
      <trkpt lat="46.66623" lon="6.03114">
        <ele>943.5</ele>
        <time>2022-10-25T08:17:10Z</time>
      </trkpt>
      <trkpt lat="46.66628" lon="6.03118">
        <ele>944.4</ele>
        <time>2022-10-25T08:17:15Z</time>
      </trkpt>
      <trkpt lat="46.66632" lon="6.0312">
        <ele>944.7</ele>
        <time>2022-10-25T08:17:20Z</time>
      </trkpt>
      <trkpt lat="46.66637" lon="6.03124">
        <ele>944.6</ele>
        <time>2022-10-25T08:17:25Z</time>
      </trkpt>
      <trkpt lat="46.66641" lon="6.03127">
        <ele>945.6</ele>
        <time>2022-10-25T08:17:32Z</time>
      </trkpt>
      <trkpt lat="46.66646" lon="6.03129">
        <ele>947.4</ele>
        <time>2022-10-25T08:17:39Z</time>
      </trkpt>
      <trkpt lat="46.6665" lon="6.03134">
        <ele>949.2</ele>
        <time>2022-10-25T08:17:47Z</time>
      </trkpt>
      <trkpt lat="46.66654" lon="6.03138">
        <ele>950.3</ele>
        <time>2022-10-25T08:17:54Z</time>
      </trkpt>
      <trkpt lat="46.66659" lon="6.03141">
        <ele>950.8</ele>
        <time>2022-10-25T08:18:01Z</time>
      </trkpt>
      <trkpt lat="46.66663" lon="6.03144">
        <ele>950.8</ele>
        <time>2022-10-25T08:18:06Z</time>
      </trkpt>
      <trkpt lat="46.66668" lon="6.03146">
        <ele>950.2</ele>
        <time>2022-10-25T08:18:12Z</time>
      </trkpt>
      <trkpt lat="46.66673" lon="6.03147">
        <ele>950</ele>
        <time>2022-10-25T08:18:18Z</time>
      </trkpt>
      <trkpt lat="46.66678" lon="6.0315">
        <ele>950.8</ele>
        <time>2022-10-25T08:18:23Z</time>
      </trkpt>
      <trkpt lat="46.66682" lon="6.03153">
        <ele>952</ele>
        <time>2022-10-25T08:18:28Z</time>
      </trkpt>
      <trkpt lat="46.66686" lon="6.03157">
        <ele>953.4</ele>
        <time>2022-10-25T08:18:33Z</time>
      </trkpt>
      <trkpt lat="46.6669" lon="6.03161">
        <ele>954.4</ele>
        <time>2022-10-25T08:18:38Z</time>
      </trkpt>
      <trkpt lat="46.66692" lon="6.03168">
        <ele>955.2</ele>
        <time>2022-10-25T08:18:44Z</time>
      </trkpt>
      <trkpt lat="46.66692" lon="6.03175">
        <ele>955.8</ele>
        <time>2022-10-25T08:18:50Z</time>
      </trkpt>
      <trkpt lat="46.66694" lon="6.03181">
        <ele>956</ele>
        <time>2022-10-25T08:18:56Z</time>
      </trkpt>
      <trkpt lat="46.66695" lon="6.03188">
        <ele>956.9</ele>
        <time>2022-10-25T08:19:01Z</time>
      </trkpt>
      <trkpt lat="46.66697" lon="6.03195">
        <ele>957.8</ele>
        <time>2022-10-25T08:19:06Z</time>
      </trkpt>
      <trkpt lat="46.66699" lon="6.032">
        <ele>959.2</ele>
        <time>2022-10-25T08:19:12Z</time>
      </trkpt>
      <trkpt lat="46.66703" lon="6.03205">
        <ele>960.7</ele>
        <time>2022-10-25T08:19:18Z</time>
      </trkpt>
      <trkpt lat="46.66707" lon="6.0321">
        <ele>962</ele>
        <time>2022-10-25T08:19:24Z</time>
      </trkpt>
      <trkpt lat="46.66711" lon="6.03214">
        <ele>963</ele>
        <time>2022-10-25T08:19:30Z</time>
      </trkpt>
      <trkpt lat="46.66716" lon="6.03217">
        <ele>963.6</ele>
        <time>2022-10-25T08:19:35Z</time>
      </trkpt>
      <trkpt lat="46.6672" lon="6.03219">
        <ele>963.3</ele>
        <time>2022-10-25T08:19:40Z</time>
      </trkpt>
      <trkpt lat="46.66725" lon="6.03219">
        <ele>962.5</ele>
        <time>2022-10-25T08:19:45Z</time>
      </trkpt>
      <trkpt lat="46.6673" lon="6.03222">
        <ele>961.7</ele>
        <time>2022-10-25T08:19:50Z</time>
      </trkpt>
      <trkpt lat="46.66734" lon="6.03226">
        <ele>961.4</ele>
        <time>2022-10-25T08:19:55Z</time>
      </trkpt>
      <trkpt lat="46.66738" lon="6.03229">
        <ele>961.6</ele>
        <time>2022-10-25T08:20:00Z</time>
      </trkpt>
      <trkpt lat="46.66743" lon="6.03232">
        <ele>962</ele>
        <time>2022-10-25T08:20:08Z</time>
      </trkpt>
      <trkpt lat="46.66746" lon="6.03237">
        <ele>962.5</ele>
        <time>2022-10-25T08:20:16Z</time>
      </trkpt>
      <trkpt lat="46.66747" lon="6.03245">
        <ele>962.4</ele>
        <time>2022-10-25T08:20:21Z</time>
      </trkpt>
      <trkpt lat="46.66746" lon="6.03252">
        <ele>962.3</ele>
        <time>2022-10-25T08:20:25Z</time>
      </trkpt>
      <trkpt lat="46.66743" lon="6.03258">
        <ele>962.3</ele>
        <time>2022-10-25T08:20:30Z</time>
      </trkpt>
      <trkpt lat="46.66739" lon="6.03263">
        <ele>961.9</ele>
        <time>2022-10-25T08:20:35Z</time>
      </trkpt>
      <trkpt lat="46.66738" lon="6.0327">
        <ele>961.5</ele>
        <time>2022-10-25T08:20:42Z</time>
      </trkpt>
      <trkpt lat="46.66738" lon="6.03276">
        <ele>962.9</ele>
        <time>2022-10-25T08:20:49Z</time>
      </trkpt>
      <trkpt lat="46.6674" lon="6.03283">
        <ele>964.5</ele>
        <time>2022-10-25T08:20:54Z</time>
      </trkpt>
      <trkpt lat="46.66741" lon="6.0329">
        <ele>965.3</ele>
        <time>2022-10-25T08:20:57Z</time>
      </trkpt>
      <trkpt lat="46.66742" lon="6.03297">
        <ele>966</ele>
        <time>2022-10-25T08:21:01Z</time>
      </trkpt>
      <trkpt lat="46.66745" lon="6.03303">
        <ele>967</ele>
        <time>2022-10-25T08:21:08Z</time>
      </trkpt>
      <trkpt lat="46.66748" lon="6.03309">
        <ele>968.1</ele>
        <time>2022-10-25T08:21:14Z</time>
      </trkpt>
      <trkpt lat="46.66752" lon="6.03305">
        <ele>970.3</ele>
        <time>2022-10-25T08:21:21Z</time>
      </trkpt>
      <trkpt lat="46.66757" lon="6.03304">
        <ele>971.1</ele>
        <time>2022-10-25T08:21:26Z</time>
      </trkpt>
      <trkpt lat="46.6676" lon="6.03299">
        <ele>970.7</ele>
        <time>2022-10-25T08:21:30Z</time>
      </trkpt>
      <trkpt lat="46.66763" lon="6.03293">
        <ele>970.1</ele>
        <time>2022-10-25T08:21:35Z</time>
      </trkpt>
      <trkpt lat="46.66767" lon="6.03287">
        <ele>969.7</ele>
        <time>2022-10-25T08:21:41Z</time>
      </trkpt>
      <trkpt lat="46.66769" lon="6.0328">
        <ele>970.1</ele>
        <time>2022-10-25T08:21:46Z</time>
      </trkpt>
      <trkpt lat="46.66774" lon="6.03275">
        <ele>970.9</ele>
        <time>2022-10-25T08:21:51Z</time>
      </trkpt>
      <trkpt lat="46.66778" lon="6.03271">
        <ele>971.7</ele>
        <time>2022-10-25T08:21:57Z</time>
      </trkpt>
      <trkpt lat="46.66782" lon="6.03267">
        <ele>973.1</ele>
        <time>2022-10-25T08:22:01Z</time>
      </trkpt>
      <trkpt lat="46.66787" lon="6.03265">
        <ele>974.2</ele>
        <time>2022-10-25T08:22:06Z</time>
      </trkpt>
      <trkpt lat="46.6679" lon="6.03259">
        <ele>974.3</ele>
        <time>2022-10-25T08:22:13Z</time>
      </trkpt>
      <trkpt lat="46.66793" lon="6.03253">
        <ele>972.9</ele>
        <time>2022-10-25T08:22:20Z</time>
      </trkpt>
      <trkpt lat="46.66797" lon="6.03252">
        <ele>971.3</ele>
        <time>2022-10-25T08:22:25Z</time>
      </trkpt>
      <trkpt lat="46.66802" lon="6.03247">
        <ele>969.5</ele>
        <time>2022-10-25T08:22:31Z</time>
      </trkpt>
      <trkpt lat="46.66807" lon="6.03244">
        <ele>969</ele>
        <time>2022-10-25T08:22:34Z</time>
      </trkpt>
      <trkpt lat="46.66812" lon="6.03239">
        <ele>968.5</ele>
        <time>2022-10-25T08:22:38Z</time>
      </trkpt>
      <trkpt lat="46.66816" lon="6.03235">
        <ele>968.4</ele>
        <time>2022-10-25T08:22:43Z</time>
      </trkpt>
      <trkpt lat="46.66821" lon="6.03236">
        <ele>970</ele>
        <time>2022-10-25T08:22:52Z</time>
      </trkpt>
      <trkpt lat="46.66825" lon="6.03236">
        <ele>970.6</ele>
        <time>2022-10-25T08:22:59Z</time>
      </trkpt>
      <trkpt lat="46.6683" lon="6.03238">
        <ele>969.9</ele>
        <time>2022-10-25T08:23:05Z</time>
      </trkpt>
      <trkpt lat="46.66835" lon="6.03242">
        <ele>968.8</ele>
        <time>2022-10-25T08:23:12Z</time>
      </trkpt>
      <trkpt lat="46.66839" lon="6.03245">
        <ele>968.3</ele>
        <time>2022-10-25T08:23:19Z</time>
      </trkpt>
      <trkpt lat="46.66844" lon="6.0325">
        <ele>968.8</ele>
        <time>2022-10-25T08:23:25Z</time>
      </trkpt>
      <trkpt lat="46.66848" lon="6.03253">
        <ele>969.6</ele>
        <time>2022-10-25T08:23:29Z</time>
      </trkpt>
      <trkpt lat="46.66852" lon="6.03256">
        <ele>970.2</ele>
        <time>2022-10-25T08:23:32Z</time>
      </trkpt>
      <trkpt lat="46.66857" lon="6.0326">
        <ele>970.6</ele>
        <time>2022-10-25T08:23:36Z</time>
      </trkpt>
      <trkpt lat="46.66861" lon="6.03257">
        <ele>970.7</ele>
        <time>2022-10-25T08:23:57Z</time>
      </trkpt>
      <trkpt lat="46.66865" lon="6.03255">
        <ele>972</ele>
        <time>2022-10-25T08:24:06Z</time>
      </trkpt>
      <trkpt lat="46.6687" lon="6.03257">
        <ele>972.6</ele>
        <time>2022-10-25T08:24:10Z</time>
      </trkpt>
      <trkpt lat="46.66874" lon="6.03261">
        <ele>972.7</ele>
        <time>2022-10-25T08:24:13Z</time>
      </trkpt>
      <trkpt lat="46.6688" lon="6.03264">
        <ele>973</ele>
        <time>2022-10-25T08:24:17Z</time>
      </trkpt>
      <trkpt lat="46.66885" lon="6.03267">
        <ele>973.5</ele>
        <time>2022-10-25T08:24:21Z</time>
      </trkpt>
      <trkpt lat="46.66889" lon="6.0327">
        <ele>973.8</ele>
        <time>2022-10-25T08:24:27Z</time>
      </trkpt>
      <trkpt lat="46.66889" lon="6.03277">
        <ele>972.9</ele>
        <time>2022-10-25T08:24:34Z</time>
      </trkpt>
      <trkpt lat="46.66893" lon="6.03281">
        <ele>971.5</ele>
        <time>2022-10-25T08:24:43Z</time>
      </trkpt>
      <trkpt lat="46.66898" lon="6.0328">
        <ele>971</ele>
        <time>2022-10-25T08:24:47Z</time>
      </trkpt>
      <trkpt lat="46.66902" lon="6.03277">
        <ele>969.4</ele>
        <time>2022-10-25T08:24:59Z</time>
      </trkpt>
      <trkpt lat="46.66907" lon="6.03279">
        <ele>968.7</ele>
        <time>2022-10-25T08:25:04Z</time>
      </trkpt>
      <trkpt lat="46.66912" lon="6.0328">
        <ele>968.1</ele>
        <time>2022-10-25T08:25:08Z</time>
      </trkpt>
      <trkpt lat="46.66917" lon="6.03283">
        <ele>967.6</ele>
        <time>2022-10-25T08:25:13Z</time>
      </trkpt>
      <trkpt lat="46.66921" lon="6.03286">
        <ele>967.7</ele>
        <time>2022-10-25T08:25:17Z</time>
      </trkpt>
      <trkpt lat="46.66925" lon="6.0329">
        <ele>969</ele>
        <time>2022-10-25T08:25:24Z</time>
      </trkpt>
      <trkpt lat="46.66927" lon="6.03297">
        <ele>970</ele>
        <time>2022-10-25T08:25:30Z</time>
      </trkpt>
      <trkpt lat="46.66929" lon="6.03303">
        <ele>970.6</ele>
        <time>2022-10-25T08:25:36Z</time>
      </trkpt>
      <trkpt lat="46.66933" lon="6.03308">
        <ele>971.3</ele>
        <time>2022-10-25T08:25:41Z</time>
      </trkpt>
      <trkpt lat="46.66936" lon="6.03313">
        <ele>972.4</ele>
        <time>2022-10-25T08:25:47Z</time>
      </trkpt>
      <trkpt lat="46.66938" lon="6.0332">
        <ele>974</ele>
        <time>2022-10-25T08:25:52Z</time>
      </trkpt>
      <trkpt lat="46.66943" lon="6.03324">
        <ele>975.4</ele>
        <time>2022-10-25T08:25:57Z</time>
      </trkpt>
      <trkpt lat="46.66947" lon="6.03327">
        <ele>977</ele>
        <time>2022-10-25T08:26:02Z</time>
      </trkpt>
      <trkpt lat="46.66951" lon="6.03332">
        <ele>981</ele>
        <time>2022-10-25T08:26:10Z</time>
      </trkpt>
      <trkpt lat="46.66955" lon="6.03336">
        <ele>983</ele>
        <time>2022-10-25T08:26:16Z</time>
      </trkpt>
      <trkpt lat="46.66959" lon="6.03341">
        <ele>983.5</ele>
        <time>2022-10-25T08:26:22Z</time>
      </trkpt>
      <trkpt lat="46.66963" lon="6.03344">
        <ele>983.4</ele>
        <time>2022-10-25T08:26:27Z</time>
      </trkpt>
      <trkpt lat="46.66967" lon="6.03349">
        <ele>982.7</ele>
        <time>2022-10-25T08:26:32Z</time>
      </trkpt>
      <trkpt lat="46.6697" lon="6.03355">
        <ele>982</ele>
        <time>2022-10-25T08:26:36Z</time>
      </trkpt>
      <trkpt lat="46.66974" lon="6.03361">
        <ele>981.6</ele>
        <time>2022-10-25T08:26:41Z</time>
      </trkpt>
      <trkpt lat="46.66977" lon="6.03366">
        <ele>981</ele>
        <time>2022-10-25T08:26:44Z</time>
      </trkpt>
      <trkpt lat="46.66981" lon="6.03371">
        <ele>980.1</ele>
        <time>2022-10-25T08:26:47Z</time>
      </trkpt>
      <trkpt lat="46.66981" lon="6.03378">
        <ele>979.1</ele>
        <time>2022-10-25T08:26:52Z</time>
      </trkpt>
      <trkpt lat="46.66984" lon="6.03384">
        <ele>978.2</ele>
        <time>2022-10-25T08:26:59Z</time>
      </trkpt>
      <trkpt lat="46.66988" lon="6.03388">
        <ele>978.7</ele>
        <time>2022-10-25T08:27:06Z</time>
      </trkpt>
      <trkpt lat="46.66992" lon="6.03393">
        <ele>979.8</ele>
        <time>2022-10-25T08:27:12Z</time>
      </trkpt>
      <trkpt lat="46.66995" lon="6.03398">
        <ele>981.2</ele>
        <time>2022-10-25T08:27:18Z</time>
      </trkpt>
      <trkpt lat="46.66997" lon="6.03404">
        <ele>983.1</ele>
        <time>2022-10-25T08:27:24Z</time>
      </trkpt>
      <trkpt lat="46.67002" lon="6.03407">
        <ele>985.8</ele>
        <time>2022-10-25T08:27:30Z</time>
      </trkpt>
      <trkpt lat="46.67008" lon="6.03408">
        <ele>987.7</ele>
        <time>2022-10-25T08:27:35Z</time>
      </trkpt>
      <trkpt lat="46.67012" lon="6.03411">
        <ele>989.6</ele>
        <time>2022-10-25T08:27:41Z</time>
      </trkpt>
      <trkpt lat="46.67011" lon="6.03419">
        <ele>991.5</ele>
        <time>2022-10-25T08:27:48Z</time>
      </trkpt>
      <trkpt lat="46.67012" lon="6.03426">
        <ele>992.7</ele>
        <time>2022-10-25T08:27:55Z</time>
      </trkpt>
      <trkpt lat="46.67013" lon="6.03433">
        <ele>993.8</ele>
        <time>2022-10-25T08:28:00Z</time>
      </trkpt>
      <trkpt lat="46.67015" lon="6.03438">
        <ele>994.7</ele>
        <time>2022-10-25T08:28:10Z</time>
      </trkpt>
      <trkpt lat="46.67013" lon="6.03446">
        <ele>993.6</ele>
        <time>2022-10-25T08:28:16Z</time>
      </trkpt>
      <trkpt lat="46.6701" lon="6.0345">
        <ele>993.2</ele>
        <time>2022-10-25T08:28:19Z</time>
      </trkpt>
      <trkpt lat="46.67007" lon="6.03456">
        <ele>993.3</ele>
        <time>2022-10-25T08:28:26Z</time>
      </trkpt>
      <trkpt lat="46.67005" lon="6.03462">
        <ele>992.8</ele>
        <time>2022-10-25T08:28:32Z</time>
      </trkpt>
      <trkpt lat="46.67002" lon="6.0347">
        <ele>992.6</ele>
        <time>2022-10-25T08:28:41Z</time>
      </trkpt>
      <trkpt lat="46.67003" lon="6.03478">
        <ele>992.7</ele>
        <time>2022-10-25T08:28:45Z</time>
      </trkpt>
      <trkpt lat="46.67006" lon="6.03484">
        <ele>993.1</ele>
        <time>2022-10-25T08:28:50Z</time>
      </trkpt>
      <trkpt lat="46.67011" lon="6.0348">
        <ele>993.4</ele>
        <time>2022-10-25T08:28:55Z</time>
      </trkpt>
      <trkpt lat="46.67013" lon="6.03475">
        <ele>993.7</ele>
        <time>2022-10-25T08:29:01Z</time>
      </trkpt>
      <trkpt lat="46.67012" lon="6.03467">
        <ele>993.7</ele>
        <time>2022-10-25T08:29:07Z</time>
      </trkpt>
      <trkpt lat="46.67013" lon="6.0346">
        <ele>993.5</ele>
        <time>2022-10-25T08:29:10Z</time>
      </trkpt>
      <trkpt lat="46.67013" lon="6.03453">
        <ele>993.2</ele>
        <time>2022-10-25T08:29:14Z</time>
      </trkpt>
      <trkpt lat="46.67015" lon="6.03447">
        <ele>992.9</ele>
        <time>2022-10-25T08:29:20Z</time>
      </trkpt>
      <trkpt lat="46.67019" lon="6.03443">
        <ele>992.5</ele>
        <time>2022-10-25T08:29:25Z</time>
      </trkpt>
      <trkpt lat="46.67023" lon="6.0344">
        <ele>992.8</ele>
        <time>2022-10-25T08:29:30Z</time>
      </trkpt>
      <trkpt lat="46.67026" lon="6.03435">
        <ele>994.5</ele>
        <time>2022-10-25T08:29:37Z</time>
      </trkpt>
      <trkpt lat="46.67028" lon="6.03428">
        <ele>996</ele>
        <time>2022-10-25T08:29:52Z</time>
      </trkpt>
      <trkpt lat="46.67025" lon="6.03422">
        <ele>994.5</ele>
        <time>2022-10-25T08:29:59Z</time>
      </trkpt>
      <trkpt lat="46.67025" lon="6.03416">
        <ele>993.5</ele>
        <time>2022-10-25T08:30:05Z</time>
      </trkpt>
      <trkpt lat="46.67026" lon="6.0341">
        <ele>991.9</ele>
        <time>2022-10-25T08:30:11Z</time>
      </trkpt>
      <trkpt lat="46.67027" lon="6.03403">
        <ele>990.1</ele>
        <time>2022-10-25T08:30:18Z</time>
      </trkpt>
      <trkpt lat="46.67027" lon="6.03396">
        <ele>988.5</ele>
        <time>2022-10-25T08:30:25Z</time>
      </trkpt>
      <trkpt lat="46.67031" lon="6.03392">
        <ele>988</ele>
        <time>2022-10-25T08:30:33Z</time>
      </trkpt>
      <trkpt lat="46.67036" lon="6.03393">
        <ele>988.1</ele>
        <time>2022-10-25T08:30:37Z</time>
      </trkpt>
      <trkpt lat="46.67042" lon="6.03394">
        <ele>989.2</ele>
        <time>2022-10-25T08:30:43Z</time>
      </trkpt>
      <trkpt lat="46.67046" lon="6.03396">
        <ele>994.5</ele>
        <time>2022-10-25T08:30:51Z</time>
      </trkpt>
      <trkpt lat="46.67051" lon="6.03398">
        <ele>997.7</ele>
        <time>2022-10-25T08:30:57Z</time>
      </trkpt>
      <trkpt lat="46.67055" lon="6.03401">
        <ele>999.2</ele>
        <time>2022-10-25T08:31:03Z</time>
      </trkpt>
      <trkpt lat="46.6706" lon="6.03403">
        <ele>999.4</ele>
        <time>2022-10-25T08:31:09Z</time>
      </trkpt>
      <trkpt lat="46.67065" lon="6.03406">
        <ele>1000.8</ele>
        <time>2022-10-25T08:31:17Z</time>
      </trkpt>
      <trkpt lat="46.67068" lon="6.0341">
        <ele>1000.8</ele>
        <time>2022-10-25T08:31:23Z</time>
      </trkpt>
      <trkpt lat="46.67072" lon="6.03415">
        <ele>999.7</ele>
        <time>2022-10-25T08:31:28Z</time>
      </trkpt>
      <trkpt lat="46.67076" lon="6.03419">
        <ele>998.5</ele>
        <time>2022-10-25T08:31:33Z</time>
      </trkpt>
      <trkpt lat="46.6708" lon="6.03423">
        <ele>996.9</ele>
        <time>2022-10-25T08:31:39Z</time>
      </trkpt>
      <trkpt lat="46.67085" lon="6.03428">
        <ele>995.5</ele>
        <time>2022-10-25T08:31:44Z</time>
      </trkpt>
      <trkpt lat="46.67089" lon="6.0343">
        <ele>994.8</ele>
        <time>2022-10-25T08:31:49Z</time>
      </trkpt>
      <trkpt lat="46.67094" lon="6.03434">
        <ele>994</ele>
        <time>2022-10-25T08:31:55Z</time>
      </trkpt>
      <trkpt lat="46.67098" lon="6.03439">
        <ele>993.4</ele>
        <time>2022-10-25T08:32:00Z</time>
      </trkpt>
      <trkpt lat="46.67103" lon="6.03441">
        <ele>993.6</ele>
        <time>2022-10-25T08:32:04Z</time>
      </trkpt>
      <trkpt lat="46.67108" lon="6.03445">
        <ele>994.1</ele>
        <time>2022-10-25T08:32:08Z</time>
      </trkpt>
      <trkpt lat="46.6711" lon="6.03452">
        <ele>994.4</ele>
        <time>2022-10-25T08:32:13Z</time>
      </trkpt>
      <trkpt lat="46.67111" lon="6.03459">
        <ele>995.2</ele>
        <time>2022-10-25T08:32:17Z</time>
      </trkpt>
      <trkpt lat="46.67111" lon="6.03465">
        <ele>997</ele>
        <time>2022-10-25T08:32:22Z</time>
      </trkpt>
      <trkpt lat="46.67113" lon="6.03471">
        <ele>998.3</ele>
        <time>2022-10-25T08:32:27Z</time>
      </trkpt>
      <trkpt lat="46.67115" lon="6.03477">
        <ele>999.3</ele>
        <time>2022-10-25T08:32:32Z</time>
      </trkpt>
      <trkpt lat="46.67116" lon="6.03484">
        <ele>1000</ele>
        <time>2022-10-25T08:32:37Z</time>
      </trkpt>
      <trkpt lat="46.67115" lon="6.0349">
        <ele>1000.8</ele>
        <time>2022-10-25T08:32:44Z</time>
      </trkpt>
      <trkpt lat="46.67112" lon="6.03497">
        <ele>1001.1</ele>
        <time>2022-10-25T08:32:52Z</time>
      </trkpt>
      <trkpt lat="46.67108" lon="6.03499">
        <ele>1000.9</ele>
        <time>2022-10-25T08:32:59Z</time>
      </trkpt>
      <trkpt lat="46.67101" lon="6.03496">
        <ele>999.4</ele>
        <time>2022-10-25T08:33:39Z</time>
      </trkpt>
      <trkpt lat="46.67103" lon="6.03503">
        <ele>998.1</ele>
        <time>2022-10-25T08:33:54Z</time>
      </trkpt>
      <trkpt lat="46.67101" lon="6.0351">
        <ele>997.6</ele>
        <time>2022-10-25T08:34:01Z</time>
      </trkpt>
      <trkpt lat="46.67099" lon="6.03517">
        <ele>997.9</ele>
        <time>2022-10-25T08:34:06Z</time>
      </trkpt>
      <trkpt lat="46.67096" lon="6.03522">
        <ele>998.5</ele>
        <time>2022-10-25T08:34:12Z</time>
      </trkpt>
      <trkpt lat="46.67093" lon="6.03527">
        <ele>999.3</ele>
        <time>2022-10-25T08:34:18Z</time>
      </trkpt>
      <trkpt lat="46.67091" lon="6.03533">
        <ele>999.6</ele>
        <time>2022-10-25T08:34:23Z</time>
      </trkpt>
      <trkpt lat="46.67089" lon="6.0354">
        <ele>1000.9</ele>
        <time>2022-10-25T08:34:28Z</time>
      </trkpt>
      <trkpt lat="46.67089" lon="6.03548">
        <ele>1003.5</ele>
        <time>2022-10-25T08:34:34Z</time>
      </trkpt>
      <trkpt lat="46.6709" lon="6.03555">
        <ele>1004.8</ele>
        <time>2022-10-25T08:34:38Z</time>
      </trkpt>
      <trkpt lat="46.67091" lon="6.03562">
        <ele>1005.6</ele>
        <time>2022-10-25T08:34:42Z</time>
      </trkpt>
      <trkpt lat="46.67095" lon="6.03566">
        <ele>1005.4</ele>
        <time>2022-10-25T08:34:49Z</time>
      </trkpt>
      <trkpt lat="46.67098" lon="6.03572">
        <ele>1005.5</ele>
        <time>2022-10-25T08:34:54Z</time>
      </trkpt>
      <trkpt lat="46.67102" lon="6.03578">
        <ele>1005.9</ele>
        <time>2022-10-25T08:34:59Z</time>
      </trkpt>
      <trkpt lat="46.67105" lon="6.03583">
        <ele>1006.2</ele>
        <time>2022-10-25T08:35:04Z</time>
      </trkpt>
      <trkpt lat="46.67109" lon="6.03589">
        <ele>1007</ele>
        <time>2022-10-25T08:35:10Z</time>
      </trkpt>
      <trkpt lat="46.67111" lon="6.03595">
        <ele>1007.6</ele>
        <time>2022-10-25T08:35:17Z</time>
      </trkpt>
      <trkpt lat="46.67115" lon="6.036">
        <ele>1005.4</ele>
        <time>2022-10-25T08:35:47Z</time>
      </trkpt>
      <trkpt lat="46.67119" lon="6.03605">
        <ele>1005.4</ele>
        <time>2022-10-25T08:35:52Z</time>
      </trkpt>
      <trkpt lat="46.67121" lon="6.0361">
        <ele>1006</ele>
        <time>2022-10-25T08:35:57Z</time>
      </trkpt>
      <trkpt lat="46.67125" lon="6.03617">
        <ele>1007.4</ele>
        <time>2022-10-25T08:36:03Z</time>
      </trkpt>
      <trkpt lat="46.67127" lon="6.03623">
        <ele>1009.5</ele>
        <time>2022-10-25T08:36:09Z</time>
      </trkpt>
      <trkpt lat="46.67131" lon="6.03628">
        <ele>1011.1</ele>
        <time>2022-10-25T08:36:14Z</time>
      </trkpt>
      <trkpt lat="46.67134" lon="6.03633">
        <ele>1012.5</ele>
        <time>2022-10-25T08:36:19Z</time>
      </trkpt>
      <trkpt lat="46.67138" lon="6.03638">
        <ele>1013.8</ele>
        <time>2022-10-25T08:36:24Z</time>
      </trkpt>
      <trkpt lat="46.67142" lon="6.03643">
        <ele>1014.9</ele>
        <time>2022-10-25T08:36:30Z</time>
      </trkpt>
      <trkpt lat="46.67145" lon="6.03649">
        <ele>1015.6</ele>
        <time>2022-10-25T08:36:35Z</time>
      </trkpt>
      <trkpt lat="46.67149" lon="6.03654">
        <ele>1016.5</ele>
        <time>2022-10-25T08:36:40Z</time>
      </trkpt>
      <trkpt lat="46.67153" lon="6.03659">
        <ele>1017.4</ele>
        <time>2022-10-25T08:36:47Z</time>
      </trkpt>
      <trkpt lat="46.67157" lon="6.03664">
        <ele>1016.8</ele>
        <time>2022-10-25T08:36:52Z</time>
      </trkpt>
      <trkpt lat="46.67161" lon="6.03669">
        <ele>1015.8</ele>
        <time>2022-10-25T08:36:57Z</time>
      </trkpt>
      <trkpt lat="46.67164" lon="6.03674">
        <ele>1014.7</ele>
        <time>2022-10-25T08:37:02Z</time>
      </trkpt>
      <trkpt lat="46.67168" lon="6.03678">
        <ele>1014.1</ele>
        <time>2022-10-25T08:37:06Z</time>
      </trkpt>
      <trkpt lat="46.67171" lon="6.03682">
        <ele>1014.3</ele>
        <time>2022-10-25T08:37:10Z</time>
      </trkpt>
      <trkpt lat="46.67175" lon="6.03687">
        <ele>1014.5</ele>
        <time>2022-10-25T08:37:16Z</time>
      </trkpt>
      <trkpt lat="46.67179" lon="6.03692">
        <ele>1014.4</ele>
        <time>2022-10-25T08:37:21Z</time>
      </trkpt>
      <trkpt lat="46.67182" lon="6.03698">
        <ele>1014.1</ele>
        <time>2022-10-25T08:37:29Z</time>
      </trkpt>
      <trkpt lat="46.6718" lon="6.03692">
        <ele>1015.3</ele>
        <time>2022-10-25T08:38:46Z</time>
      </trkpt>
      <trkpt lat="46.6718" lon="6.03699">
        <ele>1009.7</ele>
        <time>2022-10-25T08:40:01Z</time>
      </trkpt>
      <trkpt lat="46.67185" lon="6.037">
        <ele>1009</ele>
        <time>2022-10-25T08:40:13Z</time>
      </trkpt>
      <trkpt lat="46.6719" lon="6.03704">
        <ele>1011.7</ele>
        <time>2022-10-25T08:40:21Z</time>
      </trkpt>
      <trkpt lat="46.67195" lon="6.03708">
        <ele>1013.6</ele>
        <time>2022-10-25T08:40:26Z</time>
      </trkpt>
      <trkpt lat="46.67199" lon="6.03711">
        <ele>1015.1</ele>
        <time>2022-10-25T08:40:31Z</time>
      </trkpt>
      <trkpt lat="46.67203" lon="6.03715">
        <ele>1017.2</ele>
        <time>2022-10-25T08:40:38Z</time>
      </trkpt>
      <trkpt lat="46.67207" lon="6.03718">
        <ele>1019.4</ele>
        <time>2022-10-25T08:40:46Z</time>
      </trkpt>
      <trkpt lat="46.67211" lon="6.03714">
        <ele>1020.2</ele>
        <time>2022-10-25T08:40:51Z</time>
      </trkpt>
      <trkpt lat="46.67208" lon="6.03709">
        <ele>1019.7</ele>
        <time>2022-10-25T08:41:02Z</time>
      </trkpt>
      <trkpt lat="46.67209" lon="6.03716">
        <ele>1017.9</ele>
        <time>2022-10-25T08:41:29Z</time>
      </trkpt>
      <trkpt lat="46.67214" lon="6.03717">
        <ele>1018.9</ele>
        <time>2022-10-25T08:41:38Z</time>
      </trkpt>
      <trkpt lat="46.67218" lon="6.03722">
        <ele>1019.6</ele>
        <time>2022-10-25T08:41:41Z</time>
      </trkpt>
      <trkpt lat="46.67222" lon="6.03729">
        <ele>1020.8</ele>
        <time>2022-10-25T08:41:45Z</time>
      </trkpt>
      <trkpt lat="46.67226" lon="6.03733">
        <ele>1022</ele>
        <time>2022-10-25T08:41:50Z</time>
      </trkpt>
      <trkpt lat="46.6723" lon="6.03738">
        <ele>1022.9</ele>
        <time>2022-10-25T08:41:55Z</time>
      </trkpt>
      <trkpt lat="46.67233" lon="6.03744">
        <ele>1023.1</ele>
        <time>2022-10-25T08:42:00Z</time>
      </trkpt>
      <trkpt lat="46.67237" lon="6.03747">
        <ele>1023</ele>
        <time>2022-10-25T08:42:04Z</time>
      </trkpt>
      <trkpt lat="46.67242" lon="6.03751">
        <ele>1022.8</ele>
        <time>2022-10-25T08:42:08Z</time>
      </trkpt>
      <trkpt lat="46.67247" lon="6.03756">
        <ele>1022.4</ele>
        <time>2022-10-25T08:42:12Z</time>
      </trkpt>
      <trkpt lat="46.6725" lon="6.0376">
        <ele>1022.5</ele>
        <time>2022-10-25T08:42:16Z</time>
      </trkpt>
      <trkpt lat="46.67254" lon="6.03766">
        <ele>1022.5</ele>
        <time>2022-10-25T08:42:21Z</time>
      </trkpt>
      <trkpt lat="46.67259" lon="6.03768">
        <ele>1022.4</ele>
        <time>2022-10-25T08:42:26Z</time>
      </trkpt>
      <trkpt lat="46.67263" lon="6.03772">
        <ele>1022.9</ele>
        <time>2022-10-25T08:42:31Z</time>
      </trkpt>
      <trkpt lat="46.67267" lon="6.03778">
        <ele>1023.4</ele>
        <time>2022-10-25T08:42:35Z</time>
      </trkpt>
      <trkpt lat="46.67271" lon="6.03782">
        <ele>1023.9</ele>
        <time>2022-10-25T08:42:38Z</time>
      </trkpt>
      <trkpt lat="46.67274" lon="6.03787">
        <ele>1024.4</ele>
        <time>2022-10-25T08:42:41Z</time>
      </trkpt>
      <trkpt lat="46.67277" lon="6.03791">
        <ele>1024.5</ele>
        <time>2022-10-25T08:42:44Z</time>
      </trkpt>
      <trkpt lat="46.67282" lon="6.03796">
        <ele>1024.6</ele>
        <time>2022-10-25T08:42:48Z</time>
      </trkpt>
      <trkpt lat="46.67285" lon="6.03801">
        <ele>1024.5</ele>
        <time>2022-10-25T08:42:52Z</time>
      </trkpt>
      <trkpt lat="46.67287" lon="6.03807">
        <ele>1024.7</ele>
        <time>2022-10-25T08:42:57Z</time>
      </trkpt>
      <trkpt lat="46.6729" lon="6.03813">
        <ele>1024.7</ele>
        <time>2022-10-25T08:43:01Z</time>
      </trkpt>
      <trkpt lat="46.67293" lon="6.03818">
        <ele>1024.3</ele>
        <time>2022-10-25T08:43:05Z</time>
      </trkpt>
      <trkpt lat="46.67296" lon="6.03824">
        <ele>1023.7</ele>
        <time>2022-10-25T08:43:10Z</time>
      </trkpt>
      <trkpt lat="46.673" lon="6.03829">
        <ele>1023.3</ele>
        <time>2022-10-25T08:43:14Z</time>
      </trkpt>
      <trkpt lat="46.67303" lon="6.03834">
        <ele>1023.4</ele>
        <time>2022-10-25T08:43:18Z</time>
      </trkpt>
      <trkpt lat="46.67306" lon="6.0384">
        <ele>1024.4</ele>
        <time>2022-10-25T08:43:23Z</time>
      </trkpt>
      <trkpt lat="46.67309" lon="6.03848">
        <ele>1025.5</ele>
        <time>2022-10-25T08:43:28Z</time>
      </trkpt>
      <trkpt lat="46.67312" lon="6.03852">
        <ele>1026.5</ele>
        <time>2022-10-25T08:43:33Z</time>
      </trkpt>
      <trkpt lat="46.67317" lon="6.03856">
        <ele>1027.4</ele>
        <time>2022-10-25T08:43:38Z</time>
      </trkpt>
      <trkpt lat="46.6732" lon="6.0386">
        <ele>1027.6</ele>
        <time>2022-10-25T08:43:42Z</time>
      </trkpt>
      <trkpt lat="46.67323" lon="6.03865">
        <ele>1027.5</ele>
        <time>2022-10-25T08:43:48Z</time>
      </trkpt>
      <trkpt lat="46.67326" lon="6.03871">
        <ele>1027.8</ele>
        <time>2022-10-25T08:43:55Z</time>
      </trkpt>
      <trkpt lat="46.6733" lon="6.03876">
        <ele>1027.8</ele>
        <time>2022-10-25T08:43:59Z</time>
      </trkpt>
      <trkpt lat="46.67333" lon="6.03882">
        <ele>1027.6</ele>
        <time>2022-10-25T08:44:04Z</time>
      </trkpt>
      <trkpt lat="46.67334" lon="6.03889">
        <ele>1026.9</ele>
        <time>2022-10-25T08:44:09Z</time>
      </trkpt>
      <trkpt lat="46.6733" lon="6.03894">
        <ele>1026</ele>
        <time>2022-10-25T08:44:14Z</time>
      </trkpt>
      <trkpt lat="46.67324" lon="6.03894">
        <ele>1025.2</ele>
        <time>2022-10-25T08:44:18Z</time>
      </trkpt>
      <trkpt lat="46.67319" lon="6.03895">
        <ele>1024.5</ele>
        <time>2022-10-25T08:44:21Z</time>
      </trkpt>
      <trkpt lat="46.67314" lon="6.03894">
        <ele>1024.1</ele>
        <time>2022-10-25T08:44:24Z</time>
      </trkpt>
      <trkpt lat="46.6731" lon="6.03893">
        <ele>1023.9</ele>
        <time>2022-10-25T08:44:28Z</time>
      </trkpt>
      <trkpt lat="46.67305" lon="6.03892">
        <ele>1023.8</ele>
        <time>2022-10-25T08:44:33Z</time>
      </trkpt>
      <trkpt lat="46.67301" lon="6.0389">
        <ele>1023.4</ele>
        <time>2022-10-25T08:44:37Z</time>
      </trkpt>
      <trkpt lat="46.67295" lon="6.0389">
        <ele>1023.1</ele>
        <time>2022-10-25T08:44:41Z</time>
      </trkpt>
      <trkpt lat="46.67291" lon="6.03892">
        <ele>1023.3</ele>
        <time>2022-10-25T08:44:46Z</time>
      </trkpt>
      <trkpt lat="46.67289" lon="6.03898">
        <ele>1023.7</ele>
        <time>2022-10-25T08:44:51Z</time>
      </trkpt>
      <trkpt lat="46.67287" lon="6.03904">
        <ele>1024.3</ele>
        <time>2022-10-25T08:45:02Z</time>
      </trkpt>
      <trkpt lat="46.67283" lon="6.03908">
        <ele>1023.6</ele>
        <time>2022-10-25T08:45:10Z</time>
      </trkpt>
      <trkpt lat="46.67288" lon="6.03909">
        <ele>1021.9</ele>
        <time>2022-10-25T08:45:21Z</time>
      </trkpt>
      <trkpt lat="46.6729" lon="6.03902">
        <ele>1020.3</ele>
        <time>2022-10-25T08:45:29Z</time>
      </trkpt>
      <trkpt lat="46.67292" lon="6.03896">
        <ele>1019.8</ele>
        <time>2022-10-25T08:46:04Z</time>
      </trkpt>
      <trkpt lat="46.67297" lon="6.03894">
        <ele>1020.3</ele>
        <time>2022-10-25T08:46:08Z</time>
      </trkpt>
      <trkpt lat="46.67293" lon="6.03898">
        <ele>1020.7</ele>
        <time>2022-10-25T08:46:43Z</time>
      </trkpt>
      <trkpt lat="46.6729" lon="6.03893">
        <ele>1021.6</ele>
        <time>2022-10-25T08:47:16Z</time>
      </trkpt>
      <trkpt lat="46.67287" lon="6.03887">
        <ele>1024.8</ele>
        <time>2022-10-25T08:47:37Z</time>
      </trkpt>
      <trkpt lat="46.67289" lon="6.0388">
        <ele>1025.1</ele>
        <time>2022-10-25T08:47:44Z</time>
      </trkpt>
      <trkpt lat="46.67294" lon="6.03878">
        <ele>1025.5</ele>
        <time>2022-10-25T08:47:50Z</time>
      </trkpt>
      <trkpt lat="46.67298" lon="6.0388">
        <ele>1025.2</ele>
        <time>2022-10-25T08:47:54Z</time>
      </trkpt>
      <trkpt lat="46.67303" lon="6.03882">
        <ele>1024.5</ele>
        <time>2022-10-25T08:47:59Z</time>
      </trkpt>
      <trkpt lat="46.67306" lon="6.03886">
        <ele>1023.4</ele>
        <time>2022-10-25T08:48:08Z</time>
      </trkpt>
      <trkpt lat="46.67313" lon="6.03887">
        <ele>1019.2</ele>
        <time>2022-10-25T08:48:38Z</time>
      </trkpt>
      <trkpt lat="46.67317" lon="6.03892">
        <ele>1017.6</ele>
        <time>2022-10-25T08:48:46Z</time>
      </trkpt>
      <trkpt lat="46.67322" lon="6.03892">
        <ele>1016.9</ele>
        <time>2022-10-25T08:48:55Z</time>
      </trkpt>
      <trkpt lat="46.67327" lon="6.03892">
        <ele>1017</ele>
        <time>2022-10-25T08:48:59Z</time>
      </trkpt>
      <trkpt lat="46.67332" lon="6.03893">
        <ele>1017</ele>
        <time>2022-10-25T08:49:03Z</time>
      </trkpt>
      <trkpt lat="46.67336" lon="6.03899">
        <ele>1016.8</ele>
        <time>2022-10-25T08:49:08Z</time>
      </trkpt>
      <trkpt lat="46.6734" lon="6.03903">
        <ele>1016.6</ele>
        <time>2022-10-25T08:49:12Z</time>
      </trkpt>
      <trkpt lat="46.67344" lon="6.03908">
        <ele>1016.4</ele>
        <time>2022-10-25T08:49:16Z</time>
      </trkpt>
      <trkpt lat="46.67348" lon="6.03914">
        <ele>1016</ele>
        <time>2022-10-25T08:49:21Z</time>
      </trkpt>
      <trkpt lat="46.67352" lon="6.03918">
        <ele>1015.9</ele>
        <time>2022-10-25T08:49:25Z</time>
      </trkpt>
      <trkpt lat="46.67356" lon="6.03923">
        <ele>1016.2</ele>
        <time>2022-10-25T08:49:30Z</time>
      </trkpt>
      <trkpt lat="46.67361" lon="6.03927">
        <ele>1017.1</ele>
        <time>2022-10-25T08:49:35Z</time>
      </trkpt>
      <trkpt lat="46.67365" lon="6.0393">
        <ele>1017.1</ele>
        <time>2022-10-25T08:49:39Z</time>
      </trkpt>
      <trkpt lat="46.67368" lon="6.03935">
        <ele>1016.8</ele>
        <time>2022-10-25T08:49:44Z</time>
      </trkpt>
      <trkpt lat="46.67372" lon="6.03941">
        <ele>1017.1</ele>
        <time>2022-10-25T08:49:49Z</time>
      </trkpt>
      <trkpt lat="46.67377" lon="6.03945">
        <ele>1018.1</ele>
        <time>2022-10-25T08:49:54Z</time>
      </trkpt>
      <trkpt lat="46.67381" lon="6.0395">
        <ele>1019.5</ele>
        <time>2022-10-25T08:49:58Z</time>
      </trkpt>
      <trkpt lat="46.67384" lon="6.03955">
        <ele>1020.5</ele>
        <time>2022-10-25T08:50:02Z</time>
      </trkpt>
      <trkpt lat="46.67387" lon="6.03961">
        <ele>1020.9</ele>
        <time>2022-10-25T08:50:07Z</time>
      </trkpt>
      <trkpt lat="46.6739" lon="6.03966">
        <ele>1020.2</ele>
        <time>2022-10-25T08:50:12Z</time>
      </trkpt>
      <trkpt lat="46.67395" lon="6.0397">
        <ele>1019.4</ele>
        <time>2022-10-25T08:50:17Z</time>
      </trkpt>
      <trkpt lat="46.67399" lon="6.03974">
        <ele>1018.9</ele>
        <time>2022-10-25T08:50:21Z</time>
      </trkpt>
      <trkpt lat="46.67403" lon="6.03979">
        <ele>1018.1</ele>
        <time>2022-10-25T08:50:25Z</time>
      </trkpt>
      <trkpt lat="46.67407" lon="6.03985">
        <ele>1017.7</ele>
        <time>2022-10-25T08:50:30Z</time>
      </trkpt>
      <trkpt lat="46.6741" lon="6.03989">
        <ele>1017.4</ele>
        <time>2022-10-25T08:50:35Z</time>
      </trkpt>
      <trkpt lat="46.67414" lon="6.03994">
        <ele>1017.2</ele>
        <time>2022-10-25T08:50:40Z</time>
      </trkpt>
      <trkpt lat="46.67418" lon="6.04">
        <ele>1016.8</ele>
        <time>2022-10-25T08:50:45Z</time>
      </trkpt>
      <trkpt lat="46.67422" lon="6.04004">
        <ele>1016.6</ele>
        <time>2022-10-25T08:50:50Z</time>
      </trkpt>
      <trkpt lat="46.67426" lon="6.04007">
        <ele>1016.6</ele>
        <time>2022-10-25T08:50:54Z</time>
      </trkpt>
      <trkpt lat="46.6743" lon="6.04011">
        <ele>1016.6</ele>
        <time>2022-10-25T08:50:59Z</time>
      </trkpt>
      <trkpt lat="46.67434" lon="6.04014">
        <ele>1016</ele>
        <time>2022-10-25T08:51:04Z</time>
      </trkpt>
      <trkpt lat="46.67438" lon="6.04019">
        <ele>1014.8</ele>
        <time>2022-10-25T08:51:09Z</time>
      </trkpt>
      <trkpt lat="46.67441" lon="6.04023">
        <ele>1014.4</ele>
        <time>2022-10-25T08:51:13Z</time>
      </trkpt>
      <trkpt lat="46.67446" lon="6.04027">
        <ele>1015</ele>
        <time>2022-10-25T08:51:17Z</time>
      </trkpt>
      <trkpt lat="46.6745" lon="6.0403">
        <ele>1015.9</ele>
        <time>2022-10-25T08:51:21Z</time>
      </trkpt>
      <trkpt lat="46.67455" lon="6.04033">
        <ele>1016.6</ele>
        <time>2022-10-25T08:51:25Z</time>
      </trkpt>
      <trkpt lat="46.67459" lon="6.04038">
        <ele>1017.1</ele>
        <time>2022-10-25T08:51:30Z</time>
      </trkpt>
      <trkpt lat="46.67464" lon="6.0404">
        <ele>1017.7</ele>
        <time>2022-10-25T08:51:34Z</time>
      </trkpt>
      <trkpt lat="46.67468" lon="6.04044">
        <ele>1018.6</ele>
        <time>2022-10-25T08:51:38Z</time>
      </trkpt>
      <trkpt lat="46.67472" lon="6.04048">
        <ele>1019.4</ele>
        <time>2022-10-25T08:51:43Z</time>
      </trkpt>
      <trkpt lat="46.67476" lon="6.04054">
        <ele>1019.9</ele>
        <time>2022-10-25T08:51:48Z</time>
      </trkpt>
      <trkpt lat="46.67479" lon="6.04058">
        <ele>1020.6</ele>
        <time>2022-10-25T08:51:52Z</time>
      </trkpt>
      <trkpt lat="46.67483" lon="6.04061">
        <ele>1021.7</ele>
        <time>2022-10-25T08:51:56Z</time>
      </trkpt>
      <trkpt lat="46.67488" lon="6.04065">
        <ele>1023.3</ele>
        <time>2022-10-25T08:52:01Z</time>
      </trkpt>
      <trkpt lat="46.67492" lon="6.04069">
        <ele>1024.5</ele>
        <time>2022-10-25T08:52:05Z</time>
      </trkpt>
      <trkpt lat="46.67496" lon="6.04073">
        <ele>1026.1</ele>
        <time>2022-10-25T08:52:09Z</time>
      </trkpt>
      <trkpt lat="46.67499" lon="6.04078">
        <ele>1027.9</ele>
        <time>2022-10-25T08:52:13Z</time>
      </trkpt>
      <trkpt lat="46.67503" lon="6.04083">
        <ele>1029.7</ele>
        <time>2022-10-25T08:52:18Z</time>
      </trkpt>
      <trkpt lat="46.67507" lon="6.04088">
        <ele>1031.5</ele>
        <time>2022-10-25T08:52:23Z</time>
      </trkpt>
      <trkpt lat="46.67509" lon="6.04096">
        <ele>1033.4</ele>
        <time>2022-10-25T08:52:28Z</time>
      </trkpt>
      <trkpt lat="46.67512" lon="6.04102">
        <ele>1033.6</ele>
        <time>2022-10-25T08:52:32Z</time>
      </trkpt>
      <trkpt lat="46.67515" lon="6.04109">
        <ele>1033.4</ele>
        <time>2022-10-25T08:52:36Z</time>
      </trkpt>
      <trkpt lat="46.67515" lon="6.04116">
        <ele>1033.1</ele>
        <time>2022-10-25T08:52:41Z</time>
      </trkpt>
      <trkpt lat="46.67514" lon="6.04123">
        <ele>1033.7</ele>
        <time>2022-10-25T08:52:47Z</time>
      </trkpt>
      <trkpt lat="46.67513" lon="6.04131">
        <ele>1034.4</ele>
        <time>2022-10-25T08:52:52Z</time>
      </trkpt>
      <trkpt lat="46.67514" lon="6.04138">
        <ele>1034.7</ele>
        <time>2022-10-25T08:52:56Z</time>
      </trkpt>
      <trkpt lat="46.67515" lon="6.04145">
        <ele>1034.8</ele>
        <time>2022-10-25T08:53:00Z</time>
      </trkpt>
      <trkpt lat="46.67516" lon="6.04152">
        <ele>1034.7</ele>
        <time>2022-10-25T08:53:05Z</time>
      </trkpt>
      <trkpt lat="46.67516" lon="6.04159">
        <ele>1035</ele>
        <time>2022-10-25T08:53:09Z</time>
      </trkpt>
      <trkpt lat="46.67516" lon="6.04166">
        <ele>1035.2</ele>
        <time>2022-10-25T08:53:13Z</time>
      </trkpt>
      <trkpt lat="46.67518" lon="6.04172">
        <ele>1035.1</ele>
        <time>2022-10-25T08:53:18Z</time>
      </trkpt>
      <trkpt lat="46.67521" lon="6.04178">
        <ele>1035.1</ele>
        <time>2022-10-25T08:53:23Z</time>
      </trkpt>
      <trkpt lat="46.67526" lon="6.04182">
        <ele>1035.1</ele>
        <time>2022-10-25T08:53:28Z</time>
      </trkpt>
      <trkpt lat="46.6753" lon="6.04184">
        <ele>1035.8</ele>
        <time>2022-10-25T08:53:32Z</time>
      </trkpt>
      <trkpt lat="46.67534" lon="6.04186">
        <ele>1036.6</ele>
        <time>2022-10-25T08:53:35Z</time>
      </trkpt>
      <trkpt lat="46.67539" lon="6.04188">
        <ele>1038</ele>
        <time>2022-10-25T08:53:40Z</time>
      </trkpt>
      <trkpt lat="46.67543" lon="6.04191">
        <ele>1039.3</ele>
        <time>2022-10-25T08:53:45Z</time>
      </trkpt>
      <trkpt lat="46.67548" lon="6.04194">
        <ele>1040.1</ele>
        <time>2022-10-25T08:53:50Z</time>
      </trkpt>
      <trkpt lat="46.67552" lon="6.042">
        <ele>1040.9</ele>
        <time>2022-10-25T08:53:54Z</time>
      </trkpt>
      <trkpt lat="46.67553" lon="6.04207">
        <ele>1042</ele>
        <time>2022-10-25T08:53:58Z</time>
      </trkpt>
      <trkpt lat="46.67557" lon="6.04213">
        <ele>1042.7</ele>
        <time>2022-10-25T08:54:02Z</time>
      </trkpt>
      <trkpt lat="46.67561" lon="6.04218">
        <ele>1043.5</ele>
        <time>2022-10-25T08:54:06Z</time>
      </trkpt>
      <trkpt lat="46.67564" lon="6.04224">
        <ele>1044.6</ele>
        <time>2022-10-25T08:54:10Z</time>
      </trkpt>
      <trkpt lat="46.67566" lon="6.0423">
        <ele>1045.7</ele>
        <time>2022-10-25T08:54:14Z</time>
      </trkpt>
      <trkpt lat="46.67567" lon="6.04237">
        <ele>1046.4</ele>
        <time>2022-10-25T08:54:19Z</time>
      </trkpt>
      <trkpt lat="46.67567" lon="6.04244">
        <ele>1047.1</ele>
        <time>2022-10-25T08:54:24Z</time>
      </trkpt>
      <trkpt lat="46.67565" lon="6.04251">
        <ele>1047</ele>
        <time>2022-10-25T08:54:28Z</time>
      </trkpt>
      <trkpt lat="46.67565" lon="6.04258">
        <ele>1046.6</ele>
        <time>2022-10-25T08:54:33Z</time>
      </trkpt>
      <trkpt lat="46.67566" lon="6.04265">
        <ele>1046.5</ele>
        <time>2022-10-25T08:54:39Z</time>
      </trkpt>
      <trkpt lat="46.67567" lon="6.04272">
        <ele>1046.4</ele>
        <time>2022-10-25T08:54:43Z</time>
      </trkpt>
      <trkpt lat="46.67568" lon="6.0428">
        <ele>1046.2</ele>
        <time>2022-10-25T08:54:47Z</time>
      </trkpt>
      <trkpt lat="46.67568" lon="6.04288">
        <ele>1046.3</ele>
        <time>2022-10-25T08:54:51Z</time>
      </trkpt>
      <trkpt lat="46.67569" lon="6.04296">
        <ele>1046.5</ele>
        <time>2022-10-25T08:54:55Z</time>
      </trkpt>
      <trkpt lat="46.67571" lon="6.04302">
        <ele>1046.5</ele>
        <time>2022-10-25T08:55:00Z</time>
      </trkpt>
      <trkpt lat="46.67571" lon="6.04309">
        <ele>1045.5</ele>
        <time>2022-10-25T08:55:04Z</time>
      </trkpt>
      <trkpt lat="46.67574" lon="6.04315">
        <ele>1044.7</ele>
        <time>2022-10-25T08:55:08Z</time>
      </trkpt>
      <trkpt lat="46.67577" lon="6.04321">
        <ele>1043.7</ele>
        <time>2022-10-25T08:55:12Z</time>
      </trkpt>
      <trkpt lat="46.67578" lon="6.04328">
        <ele>1043</ele>
        <time>2022-10-25T08:55:17Z</time>
      </trkpt>
      <trkpt lat="46.67581" lon="6.04334">
        <ele>1042.4</ele>
        <time>2022-10-25T08:55:22Z</time>
      </trkpt>
      <trkpt lat="46.67584" lon="6.04339">
        <ele>1042</ele>
        <time>2022-10-25T08:55:27Z</time>
      </trkpt>
      <trkpt lat="46.67586" lon="6.04346">
        <ele>1041.5</ele>
        <time>2022-10-25T08:55:31Z</time>
      </trkpt>
      <trkpt lat="46.67588" lon="6.04353">
        <ele>1041.2</ele>
        <time>2022-10-25T08:55:36Z</time>
      </trkpt>
      <trkpt lat="46.67588" lon="6.04361">
        <ele>1041</ele>
        <time>2022-10-25T08:55:40Z</time>
      </trkpt>
      <trkpt lat="46.67587" lon="6.04368">
        <ele>1040.6</ele>
        <time>2022-10-25T08:55:44Z</time>
      </trkpt>
      <trkpt lat="46.67585" lon="6.04376">
        <ele>1039.3</ele>
        <time>2022-10-25T08:55:47Z</time>
      </trkpt>
      <trkpt lat="46.67582" lon="6.04383">
        <ele>1037.5</ele>
        <time>2022-10-25T08:55:51Z</time>
      </trkpt>
      <trkpt lat="46.67581" lon="6.0439">
        <ele>1036.3</ele>
        <time>2022-10-25T08:55:56Z</time>
      </trkpt>
      <trkpt lat="46.67582" lon="6.04398">
        <ele>1036.1</ele>
        <time>2022-10-25T08:56:00Z</time>
      </trkpt>
      <trkpt lat="46.67585" lon="6.04404">
        <ele>1035.4</ele>
        <time>2022-10-25T08:56:05Z</time>
      </trkpt>
      <trkpt lat="46.67589" lon="6.0441">
        <ele>1035.2</ele>
        <time>2022-10-25T08:56:10Z</time>
      </trkpt>
      <trkpt lat="46.67593" lon="6.04416">
        <ele>1035.7</ele>
        <time>2022-10-25T08:56:15Z</time>
      </trkpt>
      <trkpt lat="46.67596" lon="6.04421">
        <ele>1035.9</ele>
        <time>2022-10-25T08:56:19Z</time>
      </trkpt>
      <trkpt lat="46.676" lon="6.04426">
        <ele>1035.8</ele>
        <time>2022-10-25T08:56:24Z</time>
      </trkpt>
      <trkpt lat="46.67603" lon="6.04432">
        <ele>1035.3</ele>
        <time>2022-10-25T08:56:30Z</time>
      </trkpt>
      <trkpt lat="46.67606" lon="6.04438">
        <ele>1035.1</ele>
        <time>2022-10-25T08:56:35Z</time>
      </trkpt>
      <trkpt lat="46.67611" lon="6.04442">
        <ele>1035.2</ele>
        <time>2022-10-25T08:56:40Z</time>
      </trkpt>
      <trkpt lat="46.67615" lon="6.04447">
        <ele>1035.4</ele>
        <time>2022-10-25T08:56:44Z</time>
      </trkpt>
      <trkpt lat="46.67618" lon="6.04453">
        <ele>1035.4</ele>
        <time>2022-10-25T08:56:48Z</time>
      </trkpt>
      <trkpt lat="46.6762" lon="6.04459">
        <ele>1035.6</ele>
        <time>2022-10-25T08:56:53Z</time>
      </trkpt>
      <trkpt lat="46.67625" lon="6.04463">
        <ele>1035.6</ele>
        <time>2022-10-25T08:56:59Z</time>
      </trkpt>
      <trkpt lat="46.67627" lon="6.04468">
        <ele>1034.8</ele>
        <time>2022-10-25T08:57:05Z</time>
      </trkpt>
      <trkpt lat="46.6763" lon="6.04475">
        <ele>1033.4</ele>
        <time>2022-10-25T08:57:11Z</time>
      </trkpt>
      <trkpt lat="46.67635" lon="6.04479">
        <ele>1032.3</ele>
        <time>2022-10-25T08:57:16Z</time>
      </trkpt>
      <trkpt lat="46.67639" lon="6.04484">
        <ele>1031.3</ele>
        <time>2022-10-25T08:57:21Z</time>
      </trkpt>
      <trkpt lat="46.67641" lon="6.0449">
        <ele>1030.7</ele>
        <time>2022-10-25T08:57:25Z</time>
      </trkpt>
      <trkpt lat="46.67642" lon="6.04498">
        <ele>1030.9</ele>
        <time>2022-10-25T08:57:30Z</time>
      </trkpt>
      <trkpt lat="46.67643" lon="6.04506">
        <ele>1031.8</ele>
        <time>2022-10-25T08:57:35Z</time>
      </trkpt>
      <trkpt lat="46.67646" lon="6.04511">
        <ele>1031.9</ele>
        <time>2022-10-25T08:57:40Z</time>
      </trkpt>
      <trkpt lat="46.67649" lon="6.04517">
        <ele>1031.7</ele>
        <time>2022-10-25T08:57:46Z</time>
      </trkpt>
      <trkpt lat="46.67653" lon="6.04522">
        <ele>1032</ele>
        <time>2022-10-25T08:57:50Z</time>
      </trkpt>
      <trkpt lat="46.67657" lon="6.04527">
        <ele>1032.1</ele>
        <time>2022-10-25T08:57:53Z</time>
      </trkpt>
      <trkpt lat="46.6766" lon="6.04532">
        <ele>1031.8</ele>
        <time>2022-10-25T08:57:56Z</time>
      </trkpt>
      <trkpt lat="46.67662" lon="6.04539">
        <ele>1031.7</ele>
        <time>2022-10-25T08:58:01Z</time>
      </trkpt>
      <trkpt lat="46.67665" lon="6.04544">
        <ele>1032.5</ele>
        <time>2022-10-25T08:58:06Z</time>
      </trkpt>
      <trkpt lat="46.67668" lon="6.04551">
        <ele>1033.9</ele>
        <time>2022-10-25T08:58:11Z</time>
      </trkpt>
      <trkpt lat="46.67671" lon="6.04556">
        <ele>1034.8</ele>
        <time>2022-10-25T08:58:15Z</time>
      </trkpt>
      <trkpt lat="46.67673" lon="6.04562">
        <ele>1035.8</ele>
        <time>2022-10-25T08:58:19Z</time>
      </trkpt>
      <trkpt lat="46.67675" lon="6.04569">
        <ele>1037.1</ele>
        <time>2022-10-25T08:58:24Z</time>
      </trkpt>
      <trkpt lat="46.67677" lon="6.04577">
        <ele>1038.5</ele>
        <time>2022-10-25T08:58:29Z</time>
      </trkpt>
      <trkpt lat="46.67681" lon="6.04582">
        <ele>1039.1</ele>
        <time>2022-10-25T08:58:34Z</time>
      </trkpt>
      <trkpt lat="46.67685" lon="6.04587">
        <ele>1038.7</ele>
        <time>2022-10-25T08:58:39Z</time>
      </trkpt>
      <trkpt lat="46.67688" lon="6.04593">
        <ele>1038.5</ele>
        <time>2022-10-25T08:58:44Z</time>
      </trkpt>
      <trkpt lat="46.67691" lon="6.04598">
        <ele>1038.3</ele>
        <time>2022-10-25T08:58:49Z</time>
      </trkpt>
      <trkpt lat="46.67696" lon="6.04602">
        <ele>1038.3</ele>
        <time>2022-10-25T08:58:54Z</time>
      </trkpt>
      <trkpt lat="46.677" lon="6.04608">
        <ele>1038.5</ele>
        <time>2022-10-25T08:58:59Z</time>
      </trkpt>
      <trkpt lat="46.67703" lon="6.04613">
        <ele>1038.3</ele>
        <time>2022-10-25T08:59:04Z</time>
      </trkpt>
      <trkpt lat="46.67707" lon="6.04617">
        <ele>1037.3</ele>
        <time>2022-10-25T08:59:08Z</time>
      </trkpt>
      <trkpt lat="46.67712" lon="6.0462">
        <ele>1036.3</ele>
        <time>2022-10-25T08:59:12Z</time>
      </trkpt>
      <trkpt lat="46.67715" lon="6.04624">
        <ele>1035.3</ele>
        <time>2022-10-25T08:59:16Z</time>
      </trkpt>
      <trkpt lat="46.6772" lon="6.04629">
        <ele>1034.2</ele>
        <time>2022-10-25T08:59:20Z</time>
      </trkpt>
      <trkpt lat="46.67724" lon="6.04632">
        <ele>1032.6</ele>
        <time>2022-10-25T08:59:24Z</time>
      </trkpt>
      <trkpt lat="46.67729" lon="6.04634">
        <ele>1031.5</ele>
        <time>2022-10-25T08:59:28Z</time>
      </trkpt>
      <trkpt lat="46.67734" lon="6.04634">
        <ele>1030.1</ele>
        <time>2022-10-25T08:59:33Z</time>
      </trkpt>
      <trkpt lat="46.67738" lon="6.04636">
        <ele>1029.4</ele>
        <time>2022-10-25T08:59:41Z</time>
      </trkpt>
      <trkpt lat="46.67744" lon="6.04636">
        <ele>1029.6</ele>
        <time>2022-10-25T08:59:47Z</time>
      </trkpt>
      <trkpt lat="46.67749" lon="6.04637">
        <ele>1030.3</ele>
        <time>2022-10-25T08:59:53Z</time>
      </trkpt>
      <trkpt lat="46.67754" lon="6.04638">
        <ele>1030.9</ele>
        <time>2022-10-25T08:59:59Z</time>
      </trkpt>
      <trkpt lat="46.67758" lon="6.04638">
        <ele>1030.8</ele>
        <time>2022-10-25T09:00:03Z</time>
      </trkpt>
      <trkpt lat="46.67761" lon="6.04644">
        <ele>1030.8</ele>
        <time>2022-10-25T09:00:09Z</time>
      </trkpt>
      <trkpt lat="46.67759" lon="6.0465">
        <ele>1030.9</ele>
        <time>2022-10-25T09:00:13Z</time>
      </trkpt>
      <trkpt lat="46.67754" lon="6.04653">
        <ele>1030.5</ele>
        <time>2022-10-25T09:00:18Z</time>
      </trkpt>
      <trkpt lat="46.67749" lon="6.04655">
        <ele>1030.1</ele>
        <time>2022-10-25T09:00:23Z</time>
      </trkpt>
      <trkpt lat="46.67744" lon="6.04658">
        <ele>1029.5</ele>
        <time>2022-10-25T09:00:28Z</time>
      </trkpt>
      <trkpt lat="46.67742" lon="6.04665">
        <ele>1029.3</ele>
        <time>2022-10-25T09:00:41Z</time>
      </trkpt>
      <trkpt lat="46.6774" lon="6.04671">
        <ele>1029.5</ele>
        <time>2022-10-25T09:00:48Z</time>
      </trkpt>
      <trkpt lat="46.67743" lon="6.04664">
        <ele>1034.5</ele>
        <time>2022-10-25T09:01:24Z</time>
      </trkpt>
      <trkpt lat="46.67741" lon="6.04657">
        <ele>1031</ele>
        <time>2022-10-25T09:01:40Z</time>
      </trkpt>
      <trkpt lat="46.67736" lon="6.04662">
        <ele>1028.6</ele>
        <time>2022-10-25T09:01:58Z</time>
      </trkpt>
      <trkpt lat="46.67731" lon="6.04668">
        <ele>1028.1</ele>
        <time>2022-10-25T09:02:01Z</time>
      </trkpt>
      <trkpt lat="46.67727" lon="6.04671">
        <ele>1027.5</ele>
        <time>2022-10-25T09:02:04Z</time>
      </trkpt>
      <trkpt lat="46.67723" lon="6.04675">
        <ele>1027.1</ele>
        <time>2022-10-25T09:02:07Z</time>
      </trkpt>
      <trkpt lat="46.67719" lon="6.04671">
        <ele>1028.6</ele>
        <time>2022-10-25T09:02:31Z</time>
      </trkpt>
      <trkpt lat="46.67714" lon="6.04671">
        <ele>1029.6</ele>
        <time>2022-10-25T09:02:38Z</time>
      </trkpt>
      <trkpt lat="46.67709" lon="6.04671">
        <ele>1030.8</ele>
        <time>2022-10-25T09:02:44Z</time>
      </trkpt>
      <trkpt lat="46.67706" lon="6.04665">
        <ele>1032.6</ele>
        <time>2022-10-25T09:02:51Z</time>
      </trkpt>
      <trkpt lat="46.67706" lon="6.04658">
        <ele>1034.8</ele>
        <time>2022-10-25T09:02:57Z</time>
      </trkpt>
      <trkpt lat="46.67704" lon="6.04651">
        <ele>1037.7</ele>
        <time>2022-10-25T09:03:05Z</time>
      </trkpt>
      <trkpt lat="46.677" lon="6.04647">
        <ele>1039.1</ele>
        <time>2022-10-25T09:03:11Z</time>
      </trkpt>
      <trkpt lat="46.67696" lon="6.04642">
        <ele>1039.7</ele>
        <time>2022-10-25T09:03:16Z</time>
      </trkpt>
      <trkpt lat="46.67693" lon="6.04635">
        <ele>1039.6</ele>
        <time>2022-10-25T09:03:20Z</time>
      </trkpt>
      <trkpt lat="46.67691" lon="6.04629">
        <ele>1039.4</ele>
        <time>2022-10-25T09:03:26Z</time>
      </trkpt>
      <trkpt lat="46.67687" lon="6.04625">
        <ele>1040.1</ele>
        <time>2022-10-25T09:03:33Z</time>
      </trkpt>
      <trkpt lat="46.67682" lon="6.04622">
        <ele>1041.2</ele>
        <time>2022-10-25T09:03:39Z</time>
      </trkpt>
      <trkpt lat="46.6768" lon="6.04616">
        <ele>1042.7</ele>
        <time>2022-10-25T09:03:45Z</time>
      </trkpt>
      <trkpt lat="46.67676" lon="6.04612">
        <ele>1044.9</ele>
        <time>2022-10-25T09:03:51Z</time>
      </trkpt>
      <trkpt lat="46.67672" lon="6.04608">
        <ele>1047.6</ele>
        <time>2022-10-25T09:03:57Z</time>
      </trkpt>
      <trkpt lat="46.67669" lon="6.04602">
        <ele>1049.6</ele>
        <time>2022-10-25T09:04:04Z</time>
      </trkpt>
      <trkpt lat="46.67666" lon="6.04597">
        <ele>1050.8</ele>
        <time>2022-10-25T09:04:09Z</time>
      </trkpt>
      <trkpt lat="46.67664" lon="6.04591">
        <ele>1051.7</ele>
        <time>2022-10-25T09:04:13Z</time>
      </trkpt>
      <trkpt lat="46.67659" lon="6.04589">
        <ele>1054.4</ele>
        <time>2022-10-25T09:04:22Z</time>
      </trkpt>
      <trkpt lat="46.67654" lon="6.04586">
        <ele>1055.3</ele>
        <time>2022-10-25T09:04:27Z</time>
      </trkpt>
      <trkpt lat="46.67651" lon="6.0458">
        <ele>1056</ele>
        <time>2022-10-25T09:04:31Z</time>
      </trkpt>
      <trkpt lat="46.67647" lon="6.04576">
        <ele>1056.8</ele>
        <time>2022-10-25T09:04:34Z</time>
      </trkpt>
      <trkpt lat="46.67642" lon="6.04574">
        <ele>1056.5</ele>
        <time>2022-10-25T09:04:42Z</time>
      </trkpt>
      <trkpt lat="46.67637" lon="6.04572">
        <ele>1053.6</ele>
        <time>2022-10-25T09:04:49Z</time>
      </trkpt>
      <trkpt lat="46.67634" lon="6.04567">
        <ele>1051.5</ele>
        <time>2022-10-25T09:04:55Z</time>
      </trkpt>
      <trkpt lat="46.67631" lon="6.04562">
        <ele>1049.3</ele>
        <time>2022-10-25T09:05:02Z</time>
      </trkpt>
      <trkpt lat="46.67626" lon="6.04559">
        <ele>1047.9</ele>
        <time>2022-10-25T09:05:08Z</time>
      </trkpt>
      <trkpt lat="46.67622" lon="6.04558">
        <ele>1046.7</ele>
        <time>2022-10-25T09:05:14Z</time>
      </trkpt>
      <trkpt lat="46.67618" lon="6.04553">
        <ele>1045.5</ele>
        <time>2022-10-25T09:05:24Z</time>
      </trkpt>
      <trkpt lat="46.67613" lon="6.04551">
        <ele>1045</ele>
        <time>2022-10-25T09:05:30Z</time>
      </trkpt>
      <trkpt lat="46.67609" lon="6.04547">
        <ele>1044.5</ele>
        <time>2022-10-25T09:05:36Z</time>
      </trkpt>
      <trkpt lat="46.67604" lon="6.04545">
        <ele>1044.1</ele>
        <time>2022-10-25T09:05:41Z</time>
      </trkpt>
      <trkpt lat="46.67599" lon="6.04543">
        <ele>1043.6</ele>
        <time>2022-10-25T09:05:46Z</time>
      </trkpt>
      <trkpt lat="46.67594" lon="6.04542">
        <ele>1043</ele>
        <time>2022-10-25T09:05:52Z</time>
      </trkpt>
      <trkpt lat="46.67591" lon="6.04537">
        <ele>1042.1</ele>
        <time>2022-10-25T09:06:01Z</time>
      </trkpt>
      <trkpt lat="46.67588" lon="6.04532">
        <ele>1042</ele>
        <time>2022-10-25T09:06:06Z</time>
      </trkpt>
      <trkpt lat="46.67586" lon="6.04524">
        <ele>1042.2</ele>
        <time>2022-10-25T09:06:11Z</time>
      </trkpt>
      <trkpt lat="46.67583" lon="6.04518">
        <ele>1042.7</ele>
        <time>2022-10-25T09:06:16Z</time>
      </trkpt>
      <trkpt lat="46.67579" lon="6.04514">
        <ele>1043.5</ele>
        <time>2022-10-25T09:06:19Z</time>
      </trkpt>
      <trkpt lat="46.67575" lon="6.04509">
        <ele>1044.6</ele>
        <time>2022-10-25T09:06:22Z</time>
      </trkpt>
      <trkpt lat="46.67571" lon="6.04505">
        <ele>1045.6</ele>
        <time>2022-10-25T09:06:25Z</time>
      </trkpt>
      <trkpt lat="46.67567" lon="6.045">
        <ele>1047.1</ele>
        <time>2022-10-25T09:06:29Z</time>
      </trkpt>
      <trkpt lat="46.67564" lon="6.04495">
        <ele>1049</ele>
        <time>2022-10-25T09:06:35Z</time>
      </trkpt>
      <trkpt lat="46.6756" lon="6.04489">
        <ele>1050.4</ele>
        <time>2022-10-25T09:06:39Z</time>
      </trkpt>
      <trkpt lat="46.67557" lon="6.04482">
        <ele>1052.2</ele>
        <time>2022-10-25T09:06:43Z</time>
      </trkpt>
      <trkpt lat="46.67554" lon="6.04478">
        <ele>1053.9</ele>
        <time>2022-10-25T09:06:47Z</time>
      </trkpt>
      <trkpt lat="46.67549" lon="6.04477">
        <ele>1056.2</ele>
        <time>2022-10-25T09:06:52Z</time>
      </trkpt>
      <trkpt lat="46.67545" lon="6.04474">
        <ele>1059</ele>
        <time>2022-10-25T09:07:00Z</time>
      </trkpt>
      <trkpt lat="46.6754" lon="6.04472">
        <ele>1060.1</ele>
        <time>2022-10-25T09:07:08Z</time>
      </trkpt>
      <trkpt lat="46.67536" lon="6.04469">
        <ele>1060.6</ele>
        <time>2022-10-25T09:07:12Z</time>
      </trkpt>
      <trkpt lat="46.67531" lon="6.04466">
        <ele>1061.1</ele>
        <time>2022-10-25T09:07:16Z</time>
      </trkpt>
      <trkpt lat="46.67526" lon="6.04463">
        <ele>1061.7</ele>
        <time>2022-10-25T09:07:20Z</time>
      </trkpt>
      <trkpt lat="46.67522" lon="6.0446">
        <ele>1062.7</ele>
        <time>2022-10-25T09:07:26Z</time>
      </trkpt>
      <trkpt lat="46.67518" lon="6.04456">
        <ele>1063.5</ele>
        <time>2022-10-25T09:07:32Z</time>
      </trkpt>
      <trkpt lat="46.67513" lon="6.04458">
        <ele>1064.3</ele>
        <time>2022-10-25T09:07:38Z</time>
      </trkpt>
      <trkpt lat="46.67508" lon="6.04457">
        <ele>1064.5</ele>
        <time>2022-10-25T09:07:45Z</time>
      </trkpt>
      <trkpt lat="46.67504" lon="6.04452">
        <ele>1064.7</ele>
        <time>2022-10-25T09:07:50Z</time>
      </trkpt>
      <trkpt lat="46.67499" lon="6.04446">
        <ele>1065.1</ele>
        <time>2022-10-25T09:07:53Z</time>
      </trkpt>
      <trkpt lat="46.67496" lon="6.0444">
        <ele>1065.8</ele>
        <time>2022-10-25T09:07:57Z</time>
      </trkpt>
      <trkpt lat="46.67494" lon="6.04432">
        <ele>1066.7</ele>
        <time>2022-10-25T09:08:01Z</time>
      </trkpt>
      <trkpt lat="46.67491" lon="6.04427">
        <ele>1069.2</ele>
        <time>2022-10-25T09:08:08Z</time>
      </trkpt>
      <trkpt lat="46.67486" lon="6.04423">
        <ele>1071.4</ele>
        <time>2022-10-25T09:08:13Z</time>
      </trkpt>
      <trkpt lat="46.67483" lon="6.04419">
        <ele>1072.9</ele>
        <time>2022-10-25T09:08:17Z</time>
      </trkpt>
      <trkpt lat="46.67478" lon="6.04414">
        <ele>1075</ele>
        <time>2022-10-25T09:08:23Z</time>
      </trkpt>
      <trkpt lat="46.67474" lon="6.0441">
        <ele>1077.3</ele>
        <time>2022-10-25T09:08:30Z</time>
      </trkpt>
      <trkpt lat="46.6747" lon="6.04409">
        <ele>1078.4</ele>
        <time>2022-10-25T09:08:36Z</time>
      </trkpt>
      <trkpt lat="46.67465" lon="6.04407">
        <ele>1079.1</ele>
        <time>2022-10-25T09:08:44Z</time>
      </trkpt>
      <trkpt lat="46.6746" lon="6.04403">
        <ele>1078.8</ele>
        <time>2022-10-25T09:08:49Z</time>
      </trkpt>
      <trkpt lat="46.67456" lon="6.044">
        <ele>1078.4</ele>
        <time>2022-10-25T09:08:53Z</time>
      </trkpt>
      <trkpt lat="46.67452" lon="6.04396">
        <ele>1078.3</ele>
        <time>2022-10-25T09:08:57Z</time>
      </trkpt>
      <trkpt lat="46.67448" lon="6.04393">
        <ele>1078.5</ele>
        <time>2022-10-25T09:09:02Z</time>
      </trkpt>
      <trkpt lat="46.67444" lon="6.04389">
        <ele>1079.5</ele>
        <time>2022-10-25T09:09:08Z</time>
      </trkpt>
      <trkpt lat="46.6744" lon="6.04388">
        <ele>1080.1</ele>
        <time>2022-10-25T09:09:13Z</time>
      </trkpt>
      <trkpt lat="46.67434" lon="6.04386">
        <ele>1080.6</ele>
        <time>2022-10-25T09:09:19Z</time>
      </trkpt>
      <trkpt lat="46.6743" lon="6.04384">
        <ele>1081</ele>
        <time>2022-10-25T09:09:22Z</time>
      </trkpt>
      <trkpt lat="46.67425" lon="6.04381">
        <ele>1081.9</ele>
        <time>2022-10-25T09:09:26Z</time>
      </trkpt>
      <trkpt lat="46.67421" lon="6.04377">
        <ele>1083</ele>
        <time>2022-10-25T09:09:30Z</time>
      </trkpt>
      <trkpt lat="46.67418" lon="6.04372">
        <ele>1084</ele>
        <time>2022-10-25T09:09:34Z</time>
      </trkpt>
      <trkpt lat="46.67413" lon="6.04371">
        <ele>1084.1</ele>
        <time>2022-10-25T09:09:44Z</time>
      </trkpt>
      <trkpt lat="46.67408" lon="6.04368">
        <ele>1083.8</ele>
        <time>2022-10-25T09:09:50Z</time>
      </trkpt>
      <trkpt lat="46.67403" lon="6.04367">
        <ele>1084.2</ele>
        <time>2022-10-25T09:09:53Z</time>
      </trkpt>
      <trkpt lat="46.67399" lon="6.04366">
        <ele>1084.6</ele>
        <time>2022-10-25T09:09:56Z</time>
      </trkpt>
      <trkpt lat="46.67394" lon="6.04365">
        <ele>1085.1</ele>
        <time>2022-10-25T09:10:00Z</time>
      </trkpt>
      <trkpt lat="46.67389" lon="6.04364">
        <ele>1085.4</ele>
        <time>2022-10-25T09:10:06Z</time>
      </trkpt>
      <trkpt lat="46.67383" lon="6.04362">
        <ele>1085</ele>
        <time>2022-10-25T09:10:10Z</time>
      </trkpt>
      <trkpt lat="46.67381" lon="6.04356">
        <ele>1084.8</ele>
        <time>2022-10-25T09:10:14Z</time>
      </trkpt>
      <trkpt lat="46.67378" lon="6.0435">
        <ele>1084.2</ele>
        <time>2022-10-25T09:10:22Z</time>
      </trkpt>
      <trkpt lat="46.67374" lon="6.04348">
        <ele>1084</ele>
        <time>2022-10-25T09:10:26Z</time>
      </trkpt>
      <trkpt lat="46.67369" lon="6.04347">
        <ele>1084.3</ele>
        <time>2022-10-25T09:10:30Z</time>
      </trkpt>
      <trkpt lat="46.67365" lon="6.04342">
        <ele>1085.3</ele>
        <time>2022-10-25T09:10:35Z</time>
      </trkpt>
      <trkpt lat="46.67362" lon="6.04338">
        <ele>1086.5</ele>
        <time>2022-10-25T09:10:40Z</time>
      </trkpt>
      <trkpt lat="46.67357" lon="6.04334">
        <ele>1087.6</ele>
        <time>2022-10-25T09:10:48Z</time>
      </trkpt>
      <trkpt lat="46.67353" lon="6.0433">
        <ele>1088</ele>
        <time>2022-10-25T09:10:53Z</time>
      </trkpt>
      <trkpt lat="46.67349" lon="6.04328">
        <ele>1088.2</ele>
        <time>2022-10-25T09:10:58Z</time>
      </trkpt>
      <trkpt lat="46.67345" lon="6.04322">
        <ele>1088.6</ele>
        <time>2022-10-25T09:11:03Z</time>
      </trkpt>
      <trkpt lat="46.67341" lon="6.04319">
        <ele>1089.1</ele>
        <time>2022-10-25T09:11:08Z</time>
      </trkpt>
      <trkpt lat="46.67335" lon="6.0432">
        <ele>1089.3</ele>
        <time>2022-10-25T09:11:13Z</time>
      </trkpt>
      <trkpt lat="46.6733" lon="6.04319">
        <ele>1089.5</ele>
        <time>2022-10-25T09:11:16Z</time>
      </trkpt>
      <trkpt lat="46.67325" lon="6.0432">
        <ele>1089.7</ele>
        <time>2022-10-25T09:11:20Z</time>
      </trkpt>
      <trkpt lat="46.67321" lon="6.04316">
        <ele>1089.9</ele>
        <time>2022-10-25T09:11:26Z</time>
      </trkpt>
      <trkpt lat="46.6732" lon="6.0431">
        <ele>1089.2</ele>
        <time>2022-10-25T09:11:33Z</time>
      </trkpt>
      <trkpt lat="46.67319" lon="6.04303">
        <ele>1089.2</ele>
        <time>2022-10-25T09:11:39Z</time>
      </trkpt>
      <trkpt lat="46.67319" lon="6.04296">
        <ele>1090.4</ele>
        <time>2022-10-25T09:11:44Z</time>
      </trkpt>
      <trkpt lat="46.67317" lon="6.0429">
        <ele>1091.3</ele>
        <time>2022-10-25T09:11:48Z</time>
      </trkpt>
      <trkpt lat="46.67314" lon="6.04284">
        <ele>1092.3</ele>
        <time>2022-10-25T09:11:52Z</time>
      </trkpt>
      <trkpt lat="46.6731" lon="6.04278">
        <ele>1093.1</ele>
        <time>2022-10-25T09:11:56Z</time>
      </trkpt>
      <trkpt lat="46.67308" lon="6.04272">
        <ele>1094.2</ele>
        <time>2022-10-25T09:12:02Z</time>
      </trkpt>
      <trkpt lat="46.67304" lon="6.04267">
        <ele>1094.9</ele>
        <time>2022-10-25T09:12:08Z</time>
      </trkpt>
      <trkpt lat="46.67299" lon="6.04264">
        <ele>1095.5</ele>
        <time>2022-10-25T09:12:13Z</time>
      </trkpt>
      <trkpt lat="46.67294" lon="6.04262">
        <ele>1096.5</ele>
        <time>2022-10-25T09:12:17Z</time>
      </trkpt>
      <trkpt lat="46.67289" lon="6.0426">
        <ele>1097</ele>
        <time>2022-10-25T09:12:24Z</time>
      </trkpt>
      <trkpt lat="46.67286" lon="6.04256">
        <ele>1097.4</ele>
        <time>2022-10-25T09:12:28Z</time>
      </trkpt>
      <trkpt lat="46.67282" lon="6.04251">
        <ele>1097.4</ele>
        <time>2022-10-25T09:12:32Z</time>
      </trkpt>
      <trkpt lat="46.67277" lon="6.04252">
        <ele>1096.7</ele>
        <time>2022-10-25T09:12:36Z</time>
      </trkpt>
      <trkpt lat="46.67272" lon="6.04253">
        <ele>1095.6</ele>
        <time>2022-10-25T09:12:41Z</time>
      </trkpt>
      <trkpt lat="46.67268" lon="6.04248">
        <ele>1094.3</ele>
        <time>2022-10-25T09:12:47Z</time>
      </trkpt>
      <trkpt lat="46.67264" lon="6.04246">
        <ele>1093.2</ele>
        <time>2022-10-25T09:12:52Z</time>
      </trkpt>
      <trkpt lat="46.67259" lon="6.04246">
        <ele>1092.5</ele>
        <time>2022-10-25T09:12:56Z</time>
      </trkpt>
      <trkpt lat="46.67254" lon="6.04244">
        <ele>1092.4</ele>
        <time>2022-10-25T09:13:01Z</time>
      </trkpt>
      <trkpt lat="46.67249" lon="6.0424">
        <ele>1092.4</ele>
        <time>2022-10-25T09:13:06Z</time>
      </trkpt>
      <trkpt lat="46.67244" lon="6.04236">
        <ele>1092.2</ele>
        <time>2022-10-25T09:13:11Z</time>
      </trkpt>
      <trkpt lat="46.6724" lon="6.04232">
        <ele>1092</ele>
        <time>2022-10-25T09:13:15Z</time>
      </trkpt>
      <trkpt lat="46.67238" lon="6.04227">
        <ele>1091.9</ele>
        <time>2022-10-25T09:13:22Z</time>
      </trkpt>
      <trkpt lat="46.67232" lon="6.04226">
        <ele>1091.9</ele>
        <time>2022-10-25T09:13:29Z</time>
      </trkpt>
      <trkpt lat="46.67227" lon="6.04225">
        <ele>1091.9</ele>
        <time>2022-10-25T09:13:33Z</time>
      </trkpt>
      <trkpt lat="46.67222" lon="6.04226">
        <ele>1092</ele>
        <time>2022-10-25T09:13:38Z</time>
      </trkpt>
      <trkpt lat="46.67218" lon="6.04226">
        <ele>1092.6</ele>
        <time>2022-10-25T09:13:42Z</time>
      </trkpt>
      <trkpt lat="46.67213" lon="6.04225">
        <ele>1093.3</ele>
        <time>2022-10-25T09:13:46Z</time>
      </trkpt>
      <trkpt lat="46.67209" lon="6.04219">
        <ele>1095.1</ele>
        <time>2022-10-25T09:13:51Z</time>
      </trkpt>
      <trkpt lat="46.67205" lon="6.04218">
        <ele>1096.5</ele>
        <time>2022-10-25T09:13:55Z</time>
      </trkpt>
      <trkpt lat="46.67199" lon="6.04216">
        <ele>1097.1</ele>
        <time>2022-10-25T09:13:59Z</time>
      </trkpt>
      <trkpt lat="46.67194" lon="6.04218">
        <ele>1097.5</ele>
        <time>2022-10-25T09:14:03Z</time>
      </trkpt>
      <trkpt lat="46.6719" lon="6.04213">
        <ele>1097.7</ele>
        <time>2022-10-25T09:14:11Z</time>
      </trkpt>
      <trkpt lat="46.67186" lon="6.04211">
        <ele>1097.8</ele>
        <time>2022-10-25T09:14:16Z</time>
      </trkpt>
      <trkpt lat="46.6718" lon="6.04212">
        <ele>1097.4</ele>
        <time>2022-10-25T09:14:21Z</time>
      </trkpt>
      <trkpt lat="46.67176" lon="6.04214">
        <ele>1096.7</ele>
        <time>2022-10-25T09:14:25Z</time>
      </trkpt>
      <trkpt lat="46.67171" lon="6.0421">
        <ele>1095.8</ele>
        <time>2022-10-25T09:14:38Z</time>
      </trkpt>
      <trkpt lat="46.67169" lon="6.04203">
        <ele>1096.2</ele>
        <time>2022-10-25T09:14:42Z</time>
      </trkpt>
      <trkpt lat="46.67166" lon="6.04197">
        <ele>1096.9</ele>
        <time>2022-10-25T09:14:45Z</time>
      </trkpt>
      <trkpt lat="46.67162" lon="6.04194">
        <ele>1098.1</ele>
        <time>2022-10-25T09:14:49Z</time>
      </trkpt>
      <trkpt lat="46.67158" lon="6.04189">
        <ele>1099.4</ele>
        <time>2022-10-25T09:14:55Z</time>
      </trkpt>
      <trkpt lat="46.67154" lon="6.04184">
        <ele>1100.3</ele>
        <time>2022-10-25T09:14:59Z</time>
      </trkpt>
      <trkpt lat="46.6715" lon="6.0418">
        <ele>1101.3</ele>
        <time>2022-10-25T09:15:03Z</time>
      </trkpt>
      <trkpt lat="46.67145" lon="6.04179">
        <ele>1102.3</ele>
        <time>2022-10-25T09:15:07Z</time>
      </trkpt>
      <trkpt lat="46.6714" lon="6.04176">
        <ele>1103.2</ele>
        <time>2022-10-25T09:15:11Z</time>
      </trkpt>
      <trkpt lat="46.67134" lon="6.04176">
        <ele>1104.3</ele>
        <time>2022-10-25T09:15:18Z</time>
      </trkpt>
      <trkpt lat="46.67129" lon="6.04176">
        <ele>1105</ele>
        <time>2022-10-25T09:15:25Z</time>
      </trkpt>
      <trkpt lat="46.67124" lon="6.04174">
        <ele>1106.1</ele>
        <time>2022-10-25T09:15:30Z</time>
      </trkpt>
      <trkpt lat="46.67119" lon="6.04172">
        <ele>1106.9</ele>
        <time>2022-10-25T09:15:34Z</time>
      </trkpt>
      <trkpt lat="46.67115" lon="6.04174">
        <ele>1108.1</ele>
        <time>2022-10-25T09:15:40Z</time>
      </trkpt>
      <trkpt lat="46.6711" lon="6.04173">
        <ele>1109.3</ele>
        <time>2022-10-25T09:15:46Z</time>
      </trkpt>
      <trkpt lat="46.67105" lon="6.0417">
        <ele>1110.6</ele>
        <time>2022-10-25T09:15:52Z</time>
      </trkpt>
      <trkpt lat="46.671" lon="6.04173">
        <ele>1111.7</ele>
        <time>2022-10-25T09:15:59Z</time>
      </trkpt>
      <trkpt lat="46.67095" lon="6.04175">
        <ele>1111.7</ele>
        <time>2022-10-25T09:16:03Z</time>
      </trkpt>
      <trkpt lat="46.6709" lon="6.04175">
        <ele>1111.1</ele>
        <time>2022-10-25T09:16:08Z</time>
      </trkpt>
      <trkpt lat="46.67084" lon="6.04175">
        <ele>1110.1</ele>
        <time>2022-10-25T09:16:13Z</time>
      </trkpt>
      <trkpt lat="46.6708" lon="6.04172">
        <ele>1109.7</ele>
        <time>2022-10-25T09:16:17Z</time>
      </trkpt>
      <trkpt lat="46.67075" lon="6.04173">
        <ele>1109.5</ele>
        <time>2022-10-25T09:16:22Z</time>
      </trkpt>
      <trkpt lat="46.67072" lon="6.04178">
        <ele>1109.8</ele>
        <time>2022-10-25T09:16:28Z</time>
      </trkpt>
      <trkpt lat="46.67068" lon="6.04184">
        <ele>1110.5</ele>
        <time>2022-10-25T09:16:33Z</time>
      </trkpt>
      <trkpt lat="46.67065" lon="6.04188">
        <ele>1111.2</ele>
        <time>2022-10-25T09:16:37Z</time>
      </trkpt>
      <trkpt lat="46.67061" lon="6.04193">
        <ele>1111.5</ele>
        <time>2022-10-25T09:16:42Z</time>
      </trkpt>
      <trkpt lat="46.67057" lon="6.04197">
        <ele>1111.6</ele>
        <time>2022-10-25T09:16:46Z</time>
      </trkpt>
      <trkpt lat="46.67053" lon="6.04201">
        <ele>1111.7</ele>
        <time>2022-10-25T09:16:50Z</time>
      </trkpt>
      <trkpt lat="46.6705" lon="6.04205">
        <ele>1111.7</ele>
        <time>2022-10-25T09:16:55Z</time>
      </trkpt>
      <trkpt lat="46.67047" lon="6.04212">
        <ele>1112.2</ele>
        <time>2022-10-25T09:17:00Z</time>
      </trkpt>
      <trkpt lat="46.67044" lon="6.04217">
        <ele>1113.1</ele>
        <time>2022-10-25T09:17:04Z</time>
      </trkpt>
      <trkpt lat="46.67048" lon="6.04222">
        <ele>1111.8</ele>
        <time>2022-10-25T09:17:36Z</time>
      </trkpt>
      <trkpt lat="46.67053" lon="6.04223">
        <ele>1108.8</ele>
        <time>2022-10-25T09:18:15Z</time>
      </trkpt>
      <trkpt lat="46.67058" lon="6.04227">
        <ele>1109.2</ele>
        <time>2022-10-25T09:18:30Z</time>
      </trkpt>
      <trkpt lat="46.67062" lon="6.0423">
        <ele>1109.4</ele>
        <time>2022-10-25T09:18:34Z</time>
      </trkpt>
      <trkpt lat="46.67066" lon="6.04234">
        <ele>1110</ele>
        <time>2022-10-25T09:18:45Z</time>
      </trkpt>
      <trkpt lat="46.67066" lon="6.0424">
        <ele>1111.8</ele>
        <time>2022-10-25T09:18:59Z</time>
      </trkpt>
      <trkpt lat="46.67066" lon="6.04247">
        <ele>1113.9</ele>
        <time>2022-10-25T09:19:21Z</time>
      </trkpt>
      <trkpt lat="46.67067" lon="6.04254">
        <ele>1114.8</ele>
        <time>2022-10-25T09:19:29Z</time>
      </trkpt>
      <trkpt lat="46.67066" lon="6.04261">
        <ele>1115.5</ele>
        <time>2022-10-25T09:19:39Z</time>
      </trkpt>
      <trkpt lat="46.67067" lon="6.04268">
        <ele>1116.5</ele>
        <time>2022-10-25T09:19:48Z</time>
      </trkpt>
      <trkpt lat="46.67069" lon="6.04275">
        <ele>1117.5</ele>
        <time>2022-10-25T09:19:58Z</time>
      </trkpt>
      <trkpt lat="46.6707" lon="6.04281">
        <ele>1118.4</ele>
        <time>2022-10-25T09:20:07Z</time>
      </trkpt>
      <trkpt lat="46.67075" lon="6.04282">
        <ele>1119.2</ele>
        <time>2022-10-25T09:20:13Z</time>
      </trkpt>
      <trkpt lat="46.67079" lon="6.04278">
        <ele>1120.7</ele>
        <time>2022-10-25T09:20:21Z</time>
      </trkpt>
      <trkpt lat="46.67081" lon="6.04272">
        <ele>1124.2</ele>
        <time>2022-10-25T09:20:41Z</time>
      </trkpt>
      <trkpt lat="46.67084" lon="6.04266">
        <ele>1128.8</ele>
        <time>2022-10-25T09:21:16Z</time>
      </trkpt>
      <trkpt lat="46.67088" lon="6.04262">
        <ele>1129.8</ele>
        <time>2022-10-25T09:21:24Z</time>
      </trkpt>
      <trkpt lat="46.67092" lon="6.04258">
        <ele>1130</ele>
        <time>2022-10-25T09:21:30Z</time>
      </trkpt>
      <trkpt lat="46.67095" lon="6.04254">
        <ele>1129.7</ele>
        <time>2022-10-25T09:21:37Z</time>
      </trkpt>
      <trkpt lat="46.67097" lon="6.04247">
        <ele>1132.1</ele>
        <time>2022-10-25T09:22:34Z</time>
      </trkpt>
      <trkpt lat="46.67102" lon="6.04245">
        <ele>1132.8</ele>
        <time>2022-10-25T09:22:38Z</time>
      </trkpt>
      <trkpt lat="46.67106" lon="6.04241">
        <ele>1133.8</ele>
        <time>2022-10-25T09:22:44Z</time>
      </trkpt>
      <trkpt lat="46.67105" lon="6.04234">
        <ele>1137.2</ele>
        <time>2022-10-25T09:23:28Z</time>
      </trkpt>
      <trkpt lat="46.6711" lon="6.04234">
        <ele>1136.4</ele>
        <time>2022-10-25T09:23:41Z</time>
      </trkpt>
      <trkpt lat="46.67114" lon="6.0423">
        <ele>1136.6</ele>
        <time>2022-10-25T09:23:51Z</time>
      </trkpt>
      <trkpt lat="46.67119" lon="6.04228">
        <ele>1138.2</ele>
        <time>2022-10-25T09:24:01Z</time>
      </trkpt>
      <trkpt lat="46.67123" lon="6.04225">
        <ele>1140</ele>
        <time>2022-10-25T09:24:14Z</time>
      </trkpt>
      <trkpt lat="46.67128" lon="6.04222">
        <ele>1141.1</ele>
        <time>2022-10-25T09:24:21Z</time>
      </trkpt>
      <trkpt lat="46.67132" lon="6.0422">
        <ele>1141.3</ele>
        <time>2022-10-25T09:24:26Z</time>
      </trkpt>
      <trkpt lat="46.67136" lon="6.04217">
        <ele>1141.4</ele>
        <time>2022-10-25T09:24:36Z</time>
      </trkpt>
      <trkpt lat="46.67141" lon="6.04216">
        <ele>1140</ele>
        <time>2022-10-25T09:24:48Z</time>
      </trkpt>
      <trkpt lat="46.67145" lon="6.04213">
        <ele>1139.1</ele>
        <time>2022-10-25T09:25:00Z</time>
      </trkpt>
      <trkpt lat="46.67149" lon="6.04214">
        <ele>1138.7</ele>
        <time>2022-10-25T09:25:09Z</time>
      </trkpt>
      <trkpt lat="46.67149" lon="6.04222">
        <ele>1139.9</ele>
        <time>2022-10-25T09:29:56Z</time>
      </trkpt>
      <trkpt lat="46.67146" lon="6.04226">
        <ele>1139.4</ele>
        <time>2022-10-25T09:30:02Z</time>
      </trkpt>
      <trkpt lat="46.67143" lon="6.04231">
        <ele>1139.5</ele>
        <time>2022-10-25T09:30:11Z</time>
      </trkpt>
      <trkpt lat="46.67139" lon="6.04237">
        <ele>1139</ele>
        <time>2022-10-25T09:30:20Z</time>
      </trkpt>
      <trkpt lat="46.6714" lon="6.04244">
        <ele>1135.2</ele>
        <time>2022-10-25T09:30:43Z</time>
      </trkpt>
      <trkpt lat="46.67136" lon="6.04248">
        <ele>1134.6</ele>
        <time>2022-10-25T09:30:48Z</time>
      </trkpt>
      <trkpt lat="46.67132" lon="6.04251">
        <ele>1134.5</ele>
        <time>2022-10-25T09:30:53Z</time>
      </trkpt>
      <trkpt lat="46.67127" lon="6.04256">
        <ele>1133.9</ele>
        <time>2022-10-25T09:30:59Z</time>
      </trkpt>
      <trkpt lat="46.67125" lon="6.04261">
        <ele>1133.6</ele>
        <time>2022-10-25T09:31:04Z</time>
      </trkpt>
      <trkpt lat="46.67121" lon="6.04267">
        <ele>1133.3</ele>
        <time>2022-10-25T09:31:10Z</time>
      </trkpt>
      <trkpt lat="46.67118" lon="6.04273">
        <ele>1132.9</ele>
        <time>2022-10-25T09:31:16Z</time>
      </trkpt>
      <trkpt lat="46.67116" lon="6.0428">
        <ele>1132.2</ele>
        <time>2022-10-25T09:31:22Z</time>
      </trkpt>
      <trkpt lat="46.67116" lon="6.04288">
        <ele>1131.4</ele>
        <time>2022-10-25T09:31:28Z</time>
      </trkpt>
      <trkpt lat="46.67118" lon="6.04295">
        <ele>1130.5</ele>
        <time>2022-10-25T09:31:34Z</time>
      </trkpt>
      <trkpt lat="46.67119" lon="6.04302">
        <ele>1129.8</ele>
        <time>2022-10-25T09:31:40Z</time>
      </trkpt>
      <trkpt lat="46.6712" lon="6.04309">
        <ele>1129.4</ele>
        <time>2022-10-25T09:31:45Z</time>
      </trkpt>
      <trkpt lat="46.67121" lon="6.04317">
        <ele>1129.1</ele>
        <time>2022-10-25T09:31:50Z</time>
      </trkpt>
      <trkpt lat="46.67122" lon="6.04324">
        <ele>1128.7</ele>
        <time>2022-10-25T09:31:56Z</time>
      </trkpt>
      <trkpt lat="46.67123" lon="6.0433">
        <ele>1128.3</ele>
        <time>2022-10-25T09:32:02Z</time>
      </trkpt>
      <trkpt lat="46.67124" lon="6.04337">
        <ele>1128.2</ele>
        <time>2022-10-25T09:32:08Z</time>
      </trkpt>
      <trkpt lat="46.67124" lon="6.04344">
        <ele>1129.2</ele>
        <time>2022-10-25T09:32:16Z</time>
      </trkpt>
      <trkpt lat="46.67126" lon="6.04351">
        <ele>1134.2</ele>
        <time>2022-10-25T09:32:41Z</time>
      </trkpt>
      <trkpt lat="46.67125" lon="6.04358">
        <ele>1134.3</ele>
        <time>2022-10-25T09:32:48Z</time>
      </trkpt>
      <trkpt lat="46.67126" lon="6.04365">
        <ele>1133.7</ele>
        <time>2022-10-25T09:32:54Z</time>
      </trkpt>
      <trkpt lat="46.67126" lon="6.04372">
        <ele>1133.3</ele>
        <time>2022-10-25T09:33:00Z</time>
      </trkpt>
      <trkpt lat="46.67125" lon="6.04378">
        <ele>1132.7</ele>
        <time>2022-10-25T09:33:08Z</time>
      </trkpt>
      <trkpt lat="46.67125" lon="6.04385">
        <ele>1131.7</ele>
        <time>2022-10-25T09:33:15Z</time>
      </trkpt>
      <trkpt lat="46.67122" lon="6.04392">
        <ele>1130.6</ele>
        <time>2022-10-25T09:33:21Z</time>
      </trkpt>
      <trkpt lat="46.67119" lon="6.04397">
        <ele>1129.2</ele>
        <time>2022-10-25T09:33:27Z</time>
      </trkpt>
      <trkpt lat="46.67115" lon="6.04402">
        <ele>1128.6</ele>
        <time>2022-10-25T09:33:32Z</time>
      </trkpt>
      <trkpt lat="46.67113" lon="6.04409">
        <ele>1128.9</ele>
        <time>2022-10-25T09:33:38Z</time>
      </trkpt>
      <trkpt lat="46.6711" lon="6.04415">
        <ele>1129.1</ele>
        <time>2022-10-25T09:33:43Z</time>
      </trkpt>
      <trkpt lat="46.67106" lon="6.04418">
        <ele>1128.8</ele>
        <time>2022-10-25T09:33:49Z</time>
      </trkpt>
      <trkpt lat="46.67101" lon="6.04417">
        <ele>1126.2</ele>
        <time>2022-10-25T09:34:13Z</time>
      </trkpt>
      <trkpt lat="46.67097" lon="6.04414">
        <ele>1124.8</ele>
        <time>2022-10-25T09:34:19Z</time>
      </trkpt>
      <trkpt lat="46.67092" lon="6.04413">
        <ele>1123.3</ele>
        <time>2022-10-25T09:34:24Z</time>
      </trkpt>
      <trkpt lat="46.67087" lon="6.04412">
        <ele>1122.2</ele>
        <time>2022-10-25T09:34:29Z</time>
      </trkpt>
      <trkpt lat="46.67083" lon="6.0441">
        <ele>1121.4</ele>
        <time>2022-10-25T09:34:33Z</time>
      </trkpt>
      <trkpt lat="46.67078" lon="6.0441">
        <ele>1120.9</ele>
        <time>2022-10-25T09:34:37Z</time>
      </trkpt>
      <trkpt lat="46.67072" lon="6.04412">
        <ele>1120.9</ele>
        <time>2022-10-25T09:34:41Z</time>
      </trkpt>
      <trkpt lat="46.67068" lon="6.04414">
        <ele>1121.2</ele>
        <time>2022-10-25T09:34:44Z</time>
      </trkpt>
      <trkpt lat="46.67063" lon="6.04418">
        <ele>1121.4</ele>
        <time>2022-10-25T09:34:48Z</time>
      </trkpt>
      <trkpt lat="46.67059" lon="6.04421">
        <ele>1121</ele>
        <time>2022-10-25T09:34:52Z</time>
      </trkpt>
      <trkpt lat="46.67055" lon="6.04423">
        <ele>1120.2</ele>
        <time>2022-10-25T09:34:56Z</time>
      </trkpt>
      <trkpt lat="46.67049" lon="6.04425">
        <ele>1119.1</ele>
        <time>2022-10-25T09:35:02Z</time>
      </trkpt>
      <trkpt lat="46.67045" lon="6.04424">
        <ele>1118.3</ele>
        <time>2022-10-25T09:35:06Z</time>
      </trkpt>
      <trkpt lat="46.6704" lon="6.04425">
        <ele>1117.6</ele>
        <time>2022-10-25T09:35:11Z</time>
      </trkpt>
      <trkpt lat="46.67035" lon="6.04426">
        <ele>1117</ele>
        <time>2022-10-25T09:35:16Z</time>
      </trkpt>
      <trkpt lat="46.6703" lon="6.04425">
        <ele>1115.7</ele>
        <time>2022-10-25T09:35:22Z</time>
      </trkpt>
      <trkpt lat="46.67024" lon="6.04428">
        <ele>1112.6</ele>
        <time>2022-10-25T09:35:42Z</time>
      </trkpt>
      <trkpt lat="46.67021" lon="6.04433">
        <ele>1112.5</ele>
        <time>2022-10-25T09:35:48Z</time>
      </trkpt>
      <trkpt lat="46.67019" lon="6.04439">
        <ele>1113</ele>
        <time>2022-10-25T09:35:57Z</time>
      </trkpt>
      <trkpt lat="46.67015" lon="6.04434">
        <ele>1111.9</ele>
        <time>2022-10-25T09:36:08Z</time>
      </trkpt>
      <trkpt lat="46.6701" lon="6.04431">
        <ele>1110.9</ele>
        <time>2022-10-25T09:36:14Z</time>
      </trkpt>
      <trkpt lat="46.67006" lon="6.04429">
        <ele>1109.9</ele>
        <time>2022-10-25T09:36:20Z</time>
      </trkpt>
      <trkpt lat="46.67001" lon="6.04427">
        <ele>1109</ele>
        <time>2022-10-25T09:36:25Z</time>
      </trkpt>
      <trkpt lat="46.66997" lon="6.04425">
        <ele>1107.2</ele>
        <time>2022-10-25T09:36:31Z</time>
      </trkpt>
      <trkpt lat="46.66992" lon="6.04423">
        <ele>1106.1</ele>
        <time>2022-10-25T09:36:35Z</time>
      </trkpt>
      <trkpt lat="46.66986" lon="6.0442">
        <ele>1105.3</ele>
        <time>2022-10-25T09:36:41Z</time>
      </trkpt>
      <trkpt lat="46.66982" lon="6.04419">
        <ele>1104.7</ele>
        <time>2022-10-25T09:36:46Z</time>
      </trkpt>
      <trkpt lat="46.66977" lon="6.04418">
        <ele>1104.3</ele>
        <time>2022-10-25T09:36:51Z</time>
      </trkpt>
      <trkpt lat="46.66972" lon="6.04419">
        <ele>1103.6</ele>
        <time>2022-10-25T09:36:56Z</time>
      </trkpt>
      <trkpt lat="46.66967" lon="6.04417">
        <ele>1102.4</ele>
        <time>2022-10-25T09:37:02Z</time>
      </trkpt>
      <trkpt lat="46.66963" lon="6.04412">
        <ele>1100.5</ele>
        <time>2022-10-25T09:37:09Z</time>
      </trkpt>
      <trkpt lat="46.66958" lon="6.04411">
        <ele>1099.8</ele>
        <time>2022-10-25T09:37:14Z</time>
      </trkpt>
      <trkpt lat="46.66953" lon="6.0441">
        <ele>1099.2</ele>
        <time>2022-10-25T09:37:19Z</time>
      </trkpt>
      <trkpt lat="46.66948" lon="6.0441">
        <ele>1098.5</ele>
        <time>2022-10-25T09:37:24Z</time>
      </trkpt>
      <trkpt lat="46.66943" lon="6.0441">
        <ele>1098.2</ele>
        <time>2022-10-25T09:37:30Z</time>
      </trkpt>
      <trkpt lat="46.66938" lon="6.04409">
        <ele>1098.2</ele>
        <time>2022-10-25T09:37:35Z</time>
      </trkpt>
      <trkpt lat="46.66933" lon="6.04409">
        <ele>1098.5</ele>
        <time>2022-10-25T09:37:39Z</time>
      </trkpt>
      <trkpt lat="46.66929" lon="6.04408">
        <ele>1098.6</ele>
        <time>2022-10-25T09:37:43Z</time>
      </trkpt>
      <trkpt lat="46.66924" lon="6.04406">
        <ele>1098.9</ele>
        <time>2022-10-25T09:37:47Z</time>
      </trkpt>
      <trkpt lat="46.66919" lon="6.04404">
        <ele>1099</ele>
        <time>2022-10-25T09:37:52Z</time>
      </trkpt>
      <trkpt lat="46.66915" lon="6.04402">
        <ele>1098.6</ele>
        <time>2022-10-25T09:37:58Z</time>
      </trkpt>
      <trkpt lat="46.6691" lon="6.04401">
        <ele>1097.9</ele>
        <time>2022-10-25T09:38:06Z</time>
      </trkpt>
      <trkpt lat="46.66905" lon="6.04402">
        <ele>1097.1</ele>
        <time>2022-10-25T09:38:12Z</time>
      </trkpt>
      <trkpt lat="46.669" lon="6.04404">
        <ele>1096.5</ele>
        <time>2022-10-25T09:38:18Z</time>
      </trkpt>
      <trkpt lat="46.66896" lon="6.04407">
        <ele>1096.2</ele>
        <time>2022-10-25T09:38:23Z</time>
      </trkpt>
      <trkpt lat="46.66891" lon="6.04409">
        <ele>1096.3</ele>
        <time>2022-10-25T09:38:28Z</time>
      </trkpt>
      <trkpt lat="46.66887" lon="6.04413">
        <ele>1096.3</ele>
        <time>2022-10-25T09:38:34Z</time>
      </trkpt>
      <trkpt lat="46.66882" lon="6.04417">
        <ele>1096.2</ele>
        <time>2022-10-25T09:38:40Z</time>
      </trkpt>
      <trkpt lat="46.66878" lon="6.04422">
        <ele>1096.1</ele>
        <time>2022-10-25T09:38:46Z</time>
      </trkpt>
      <trkpt lat="46.66875" lon="6.04427">
        <ele>1096.2</ele>
        <time>2022-10-25T09:38:51Z</time>
      </trkpt>
      <trkpt lat="46.66871" lon="6.04431">
        <ele>1096.3</ele>
        <time>2022-10-25T09:38:56Z</time>
      </trkpt>
      <trkpt lat="46.66868" lon="6.04437">
        <ele>1095.8</ele>
        <time>2022-10-25T09:39:01Z</time>
      </trkpt>
      <trkpt lat="46.66866" lon="6.04443">
        <ele>1095.2</ele>
        <time>2022-10-25T09:39:06Z</time>
      </trkpt>
      <trkpt lat="46.66862" lon="6.04449">
        <ele>1094.8</ele>
        <time>2022-10-25T09:39:12Z</time>
      </trkpt>
      <trkpt lat="46.66858" lon="6.04454">
        <ele>1094.5</ele>
        <time>2022-10-25T09:39:18Z</time>
      </trkpt>
      <trkpt lat="46.66854" lon="6.04459">
        <ele>1094.6</ele>
        <time>2022-10-25T09:39:23Z</time>
      </trkpt>
      <trkpt lat="46.6685" lon="6.04462">
        <ele>1094.4</ele>
        <time>2022-10-25T09:39:27Z</time>
      </trkpt>
      <trkpt lat="46.66846" lon="6.04465">
        <ele>1094.4</ele>
        <time>2022-10-25T09:39:31Z</time>
      </trkpt>
      <trkpt lat="46.66842" lon="6.0447">
        <ele>1094.6</ele>
        <time>2022-10-25T09:39:36Z</time>
      </trkpt>
      <trkpt lat="46.66839" lon="6.04476">
        <ele>1094.7</ele>
        <time>2022-10-25T09:39:41Z</time>
      </trkpt>
      <trkpt lat="46.66836" lon="6.04482">
        <ele>1094.8</ele>
        <time>2022-10-25T09:39:46Z</time>
      </trkpt>
      <trkpt lat="46.66836" lon="6.04489">
        <ele>1095.2</ele>
        <time>2022-10-25T09:39:53Z</time>
      </trkpt>
      <trkpt lat="46.66835" lon="6.04496">
        <ele>1093.2</ele>
        <time>2022-10-25T09:40:07Z</time>
      </trkpt>
      <trkpt lat="46.66832" lon="6.04501">
        <ele>1091.9</ele>
        <time>2022-10-25T09:40:12Z</time>
      </trkpt>
      <trkpt lat="46.66828" lon="6.04506">
        <ele>1090.6</ele>
        <time>2022-10-25T09:40:17Z</time>
      </trkpt>
      <trkpt lat="46.66825" lon="6.04512">
        <ele>1088.9</ele>
        <time>2022-10-25T09:40:23Z</time>
      </trkpt>
      <trkpt lat="46.66824" lon="6.04519">
        <ele>1087.3</ele>
        <time>2022-10-25T09:40:29Z</time>
      </trkpt>
      <trkpt lat="46.66823" lon="6.04527">
        <ele>1085.8</ele>
        <time>2022-10-25T09:40:36Z</time>
      </trkpt>
      <trkpt lat="46.6682" lon="6.04533">
        <ele>1085.2</ele>
        <time>2022-10-25T09:40:41Z</time>
      </trkpt>
      <trkpt lat="46.66817" lon="6.04538">
        <ele>1085.1</ele>
        <time>2022-10-25T09:40:45Z</time>
      </trkpt>
      <trkpt lat="46.66814" lon="6.04542">
        <ele>1085.6</ele>
        <time>2022-10-25T09:40:51Z</time>
      </trkpt>
      <trkpt lat="46.66809" lon="6.04546">
        <ele>1085.8</ele>
        <time>2022-10-25T09:40:57Z</time>
      </trkpt>
      <trkpt lat="46.66806" lon="6.0455">
        <ele>1086</ele>
        <time>2022-10-25T09:41:02Z</time>
      </trkpt>
      <trkpt lat="46.66801" lon="6.04555">
        <ele>1086</ele>
        <time>2022-10-25T09:41:07Z</time>
      </trkpt>
      <trkpt lat="46.66798" lon="6.0456">
        <ele>1085.8</ele>
        <time>2022-10-25T09:41:12Z</time>
      </trkpt>
      <trkpt lat="46.66795" lon="6.04565">
        <ele>1086.6</ele>
        <time>2022-10-25T09:41:18Z</time>
      </trkpt>
      <trkpt lat="46.66793" lon="6.04572">
        <ele>1087.5</ele>
        <time>2022-10-25T09:41:23Z</time>
      </trkpt>
      <trkpt lat="46.66792" lon="6.04579">
        <ele>1087.8</ele>
        <time>2022-10-25T09:41:27Z</time>
      </trkpt>
      <trkpt lat="46.66791" lon="6.04585">
        <ele>1087.4</ele>
        <time>2022-10-25T09:41:32Z</time>
      </trkpt>
      <trkpt lat="46.66789" lon="6.04592">
        <ele>1086.3</ele>
        <time>2022-10-25T09:41:38Z</time>
      </trkpt>
      <trkpt lat="46.66786" lon="6.04596">
        <ele>1085.2</ele>
        <time>2022-10-25T09:41:43Z</time>
      </trkpt>
      <trkpt lat="46.66782" lon="6.046">
        <ele>1083.9</ele>
        <time>2022-10-25T09:41:48Z</time>
      </trkpt>
      <trkpt lat="46.66778" lon="6.04605">
        <ele>1082.6</ele>
        <time>2022-10-25T09:41:54Z</time>
      </trkpt>
      <trkpt lat="46.66775" lon="6.04611">
        <ele>1082</ele>
        <time>2022-10-25T09:42:01Z</time>
      </trkpt>
      <trkpt lat="46.66773" lon="6.04617">
        <ele>1081.7</ele>
        <time>2022-10-25T09:42:07Z</time>
      </trkpt>
      <trkpt lat="46.6677" lon="6.04623">
        <ele>1080.5</ele>
        <time>2022-10-25T09:42:14Z</time>
      </trkpt>
      <trkpt lat="46.66767" lon="6.04628">
        <ele>1079.1</ele>
        <time>2022-10-25T09:42:21Z</time>
      </trkpt>
      <trkpt lat="46.66763" lon="6.04633">
        <ele>1077.6</ele>
        <time>2022-10-25T09:42:26Z</time>
      </trkpt>
      <trkpt lat="46.66759" lon="6.04637">
        <ele>1076.3</ele>
        <time>2022-10-25T09:42:31Z</time>
      </trkpt>
      <trkpt lat="46.66755" lon="6.04639">
        <ele>1074.1</ele>
        <time>2022-10-25T09:42:38Z</time>
      </trkpt>
      <trkpt lat="46.66751" lon="6.04645">
        <ele>1072.1</ele>
        <time>2022-10-25T09:42:46Z</time>
      </trkpt>
      <trkpt lat="46.66749" lon="6.04651">
        <ele>1071.2</ele>
        <time>2022-10-25T09:42:51Z</time>
      </trkpt>
      <trkpt lat="46.66745" lon="6.04657">
        <ele>1070.7</ele>
        <time>2022-10-25T09:42:56Z</time>
      </trkpt>
      <trkpt lat="46.66742" lon="6.04662">
        <ele>1070.8</ele>
        <time>2022-10-25T09:43:00Z</time>
      </trkpt>
      <trkpt lat="46.66739" lon="6.04667">
        <ele>1071.3</ele>
        <time>2022-10-25T09:43:04Z</time>
      </trkpt>
      <trkpt lat="46.66735" lon="6.04672">
        <ele>1072.3</ele>
        <time>2022-10-25T09:43:10Z</time>
      </trkpt>
      <trkpt lat="46.66731" lon="6.04677">
        <ele>1072.4</ele>
        <time>2022-10-25T09:43:16Z</time>
      </trkpt>
      <trkpt lat="46.66728" lon="6.04683">
        <ele>1072</ele>
        <time>2022-10-25T09:43:22Z</time>
      </trkpt>
      <trkpt lat="46.66725" lon="6.04689">
        <ele>1071.7</ele>
        <time>2022-10-25T09:43:28Z</time>
      </trkpt>
      <trkpt lat="46.66726" lon="6.04696">
        <ele>1071.7</ele>
        <time>2022-10-25T09:43:33Z</time>
      </trkpt>
      <trkpt lat="46.66729" lon="6.0469">
        <ele>1071.3</ele>
        <time>2022-10-25T09:43:52Z</time>
      </trkpt>
      <trkpt lat="46.66725" lon="6.04691">
        <ele>1067.8</ele>
        <time>2022-10-25T09:44:15Z</time>
      </trkpt>
      <trkpt lat="46.66719" lon="6.04693">
        <ele>1066.5</ele>
        <time>2022-10-25T09:44:19Z</time>
      </trkpt>
      <trkpt lat="46.66715" lon="6.04696">
        <ele>1065.4</ele>
        <time>2022-10-25T09:44:23Z</time>
      </trkpt>
      <trkpt lat="46.6671" lon="6.04701">
        <ele>1064.1</ele>
        <time>2022-10-25T09:44:27Z</time>
      </trkpt>
      <trkpt lat="46.66706" lon="6.04706">
        <ele>1062.9</ele>
        <time>2022-10-25T09:44:31Z</time>
      </trkpt>
      <trkpt lat="46.66702" lon="6.0471">
        <ele>1061.5</ele>
        <time>2022-10-25T09:44:35Z</time>
      </trkpt>
      <trkpt lat="46.66698" lon="6.04715">
        <ele>1060.2</ele>
        <time>2022-10-25T09:44:40Z</time>
      </trkpt>
      <trkpt lat="46.66694" lon="6.04721">
        <ele>1059.5</ele>
        <time>2022-10-25T09:44:45Z</time>
      </trkpt>
      <trkpt lat="46.66692" lon="6.04727">
        <ele>1059</ele>
        <time>2022-10-25T09:44:50Z</time>
      </trkpt>
      <trkpt lat="46.6669" lon="6.04734">
        <ele>1058.6</ele>
        <time>2022-10-25T09:44:54Z</time>
      </trkpt>
      <trkpt lat="46.66689" lon="6.04741">
        <ele>1057.9</ele>
        <time>2022-10-25T09:44:58Z</time>
      </trkpt>
      <trkpt lat="46.66688" lon="6.04747">
        <ele>1057.1</ele>
        <time>2022-10-25T09:45:02Z</time>
      </trkpt>
      <trkpt lat="46.66686" lon="6.04754">
        <ele>1056.1</ele>
        <time>2022-10-25T09:45:06Z</time>
      </trkpt>
      <trkpt lat="46.66685" lon="6.04761">
        <ele>1055.1</ele>
        <time>2022-10-25T09:45:10Z</time>
      </trkpt>
      <trkpt lat="46.66686" lon="6.04769">
        <ele>1054.7</ele>
        <time>2022-10-25T09:45:14Z</time>
      </trkpt>
      <trkpt lat="46.66685" lon="6.04776">
        <ele>1055.3</ele>
        <time>2022-10-25T09:45:19Z</time>
      </trkpt>
      <trkpt lat="46.66684" lon="6.04783">
        <ele>1055.8</ele>
        <time>2022-10-25T09:45:24Z</time>
      </trkpt>
      <trkpt lat="46.66686" lon="6.04789">
        <ele>1056.4</ele>
        <time>2022-10-25T09:45:29Z</time>
      </trkpt>
      <trkpt lat="46.66685" lon="6.04795">
        <ele>1058</ele>
        <time>2022-10-25T09:45:39Z</time>
      </trkpt>
      <trkpt lat="46.6668" lon="6.048">
        <ele>1059.2</ele>
        <time>2022-10-25T09:45:45Z</time>
      </trkpt>
      <trkpt lat="46.66676" lon="6.04804">
        <ele>1059.6</ele>
        <time>2022-10-25T09:45:52Z</time>
      </trkpt>
      <trkpt lat="46.66672" lon="6.04809">
        <ele>1059.5</ele>
        <time>2022-10-25T09:45:57Z</time>
      </trkpt>
      <trkpt lat="46.6667" lon="6.04815">
        <ele>1059.7</ele>
        <time>2022-10-25T09:46:03Z</time>
      </trkpt>
      <trkpt lat="46.66669" lon="6.04823">
        <ele>1060.2</ele>
        <time>2022-10-25T09:46:09Z</time>
      </trkpt>
      <trkpt lat="46.66668" lon="6.0483">
        <ele>1061</ele>
        <time>2022-10-25T09:46:17Z</time>
      </trkpt>
      <trkpt lat="46.66665" lon="6.04836">
        <ele>1061.5</ele>
        <time>2022-10-25T09:46:23Z</time>
      </trkpt>
      <trkpt lat="46.66659" lon="6.04836">
        <ele>1063.7</ele>
        <time>2022-10-25T09:48:53Z</time>
      </trkpt>
      <trkpt lat="46.66656" lon="6.04831">
        <ele>1065.3</ele>
        <time>2022-10-25T09:48:58Z</time>
      </trkpt>
      <trkpt lat="46.66657" lon="6.04838">
        <ele>1065.8</ele>
        <time>2022-10-25T09:49:45Z</time>
      </trkpt>
      <trkpt lat="46.6666" lon="6.04832">
        <ele>1064.6</ele>
        <time>2022-10-25T09:50:52Z</time>
      </trkpt>
      <trkpt lat="46.66664" lon="6.04829">
        <ele>1064.6</ele>
        <time>2022-10-25T09:50:58Z</time>
      </trkpt>
      <trkpt lat="46.66659" lon="6.04831">
        <ele>1061.1</ele>
        <time>2022-10-25T10:02:11Z</time>
      </trkpt>
      <trkpt lat="46.66664" lon="6.0483">
        <ele>1064.4</ele>
        <time>2022-10-25T10:08:43Z</time>
      </trkpt>
      <trkpt lat="46.66662" lon="6.04838">
        <ele>1061.7</ele>
        <time>2022-10-25T10:29:54Z</time>
      </trkpt>
      <trkpt lat="46.66667" lon="6.04839">
        <ele>1059.7</ele>
        <time>2022-10-25T10:30:17Z</time>
      </trkpt>
      <trkpt lat="46.66672" lon="6.04838">
        <ele>1059.7</ele>
        <time>2022-10-25T10:30:21Z</time>
      </trkpt>
      <trkpt lat="46.66665" lon="6.04839">
        <ele>1060.8</ele>
        <time>2022-10-25T10:31:29Z</time>
      </trkpt>
      <trkpt lat="46.66661" lon="6.04841">
        <ele>1061.4</ele>
        <time>2022-10-25T10:31:32Z</time>
      </trkpt>
      <trkpt lat="46.66666" lon="6.04839">
        <ele>1064.6</ele>
        <time>2022-10-25T10:36:39Z</time>
      </trkpt>
      <trkpt lat="46.66671" lon="6.04838">
        <ele>1065</ele>
        <time>2022-10-25T10:36:49Z</time>
      </trkpt>
      <trkpt lat="46.66675" lon="6.04835">
        <ele>1063.5</ele>
        <time>2022-10-25T10:36:56Z</time>
      </trkpt>
      <trkpt lat="46.66679" lon="6.04839">
        <ele>1062</ele>
        <time>2022-10-25T10:37:03Z</time>
      </trkpt>
      <trkpt lat="46.66684" lon="6.04837">
        <ele>1061.4</ele>
        <time>2022-10-25T10:37:09Z</time>
      </trkpt>
      <trkpt lat="46.66687" lon="6.04832">
        <ele>1061.3</ele>
        <time>2022-10-25T10:37:14Z</time>
      </trkpt>
      <trkpt lat="46.6669" lon="6.04826">
        <ele>1062</ele>
        <time>2022-10-25T10:37:19Z</time>
      </trkpt>
      <trkpt lat="46.66691" lon="6.0482">
        <ele>1062.7</ele>
        <time>2022-10-25T10:37:26Z</time>
      </trkpt>
      <trkpt lat="46.66689" lon="6.04813">
        <ele>1063.1</ele>
        <time>2022-10-25T10:37:32Z</time>
      </trkpt>
      <trkpt lat="46.66688" lon="6.04807">
        <ele>1063.3</ele>
        <time>2022-10-25T10:37:38Z</time>
      </trkpt>
      <trkpt lat="46.66688" lon="6.04799">
        <ele>1063.4</ele>
        <time>2022-10-25T10:37:43Z</time>
      </trkpt>
      <trkpt lat="46.66687" lon="6.04792">
        <ele>1063.7</ele>
        <time>2022-10-25T10:37:48Z</time>
      </trkpt>
      <trkpt lat="46.66686" lon="6.04785">
        <ele>1063.9</ele>
        <time>2022-10-25T10:37:54Z</time>
      </trkpt>
      <trkpt lat="46.66684" lon="6.04777">
        <ele>1064.2</ele>
        <time>2022-10-25T10:37:59Z</time>
      </trkpt>
      <trkpt lat="46.66681" lon="6.04771">
        <ele>1064.1</ele>
        <time>2022-10-25T10:38:03Z</time>
      </trkpt>
      <trkpt lat="46.66677" lon="6.04767">
        <ele>1064.1</ele>
        <time>2022-10-25T10:38:10Z</time>
      </trkpt>
      <trkpt lat="46.66672" lon="6.04765">
        <ele>1063.9</ele>
        <time>2022-10-25T10:38:16Z</time>
      </trkpt>
      <trkpt lat="46.66668" lon="6.0476">
        <ele>1063.5</ele>
        <time>2022-10-25T10:38:22Z</time>
      </trkpt>
      <trkpt lat="46.66663" lon="6.04759">
        <ele>1062.6</ele>
        <time>2022-10-25T10:38:29Z</time>
      </trkpt>
      <trkpt lat="46.6666" lon="6.04764">
        <ele>1061.7</ele>
        <time>2022-10-25T10:38:33Z</time>
      </trkpt>
      <trkpt lat="46.66658" lon="6.0477">
        <ele>1061.1</ele>
        <time>2022-10-25T10:38:37Z</time>
      </trkpt>
      <trkpt lat="46.66655" lon="6.04776">
        <ele>1060.1</ele>
        <time>2022-10-25T10:38:43Z</time>
      </trkpt>
      <trkpt lat="46.66653" lon="6.04783">
        <ele>1059.5</ele>
        <time>2022-10-25T10:38:48Z</time>
      </trkpt>
      <trkpt lat="46.66652" lon="6.04789">
        <ele>1058.9</ele>
        <time>2022-10-25T10:38:54Z</time>
      </trkpt>
      <trkpt lat="46.6665" lon="6.04796">
        <ele>1057.9</ele>
        <time>2022-10-25T10:38:59Z</time>
      </trkpt>
      <trkpt lat="46.66649" lon="6.04804">
        <ele>1057.4</ele>
        <time>2022-10-25T10:39:04Z</time>
      </trkpt>
      <trkpt lat="46.66648" lon="6.04811">
        <ele>1057.1</ele>
        <time>2022-10-25T10:39:09Z</time>
      </trkpt>
      <trkpt lat="46.66646" lon="6.04818">
        <ele>1057</ele>
        <time>2022-10-25T10:39:14Z</time>
      </trkpt>
      <trkpt lat="46.66646" lon="6.04824">
        <ele>1056.6</ele>
        <time>2022-10-25T10:39:19Z</time>
      </trkpt>
      <trkpt lat="46.66646" lon="6.04832">
        <ele>1056.1</ele>
        <time>2022-10-25T10:39:24Z</time>
      </trkpt>
      <trkpt lat="46.66645" lon="6.04839">
        <ele>1055.5</ele>
        <time>2022-10-25T10:39:30Z</time>
      </trkpt>
      <trkpt lat="46.66645" lon="6.04846">
        <ele>1054.9</ele>
        <time>2022-10-25T10:39:35Z</time>
      </trkpt>
      <trkpt lat="46.66645" lon="6.04853">
        <ele>1054</ele>
        <time>2022-10-25T10:39:39Z</time>
      </trkpt>
      <trkpt lat="46.66645" lon="6.0486">
        <ele>1053.3</ele>
        <time>2022-10-25T10:39:43Z</time>
      </trkpt>
      <trkpt lat="46.66643" lon="6.04866">
        <ele>1052.9</ele>
        <time>2022-10-25T10:39:48Z</time>
      </trkpt>
      <trkpt lat="46.66641" lon="6.04873">
        <ele>1053.8</ele>
        <time>2022-10-25T10:39:53Z</time>
      </trkpt>
      <trkpt lat="46.66639" lon="6.04879">
        <ele>1055.1</ele>
        <time>2022-10-25T10:39:58Z</time>
      </trkpt>
      <trkpt lat="46.66638" lon="6.04886">
        <ele>1055.7</ele>
        <time>2022-10-25T10:40:02Z</time>
      </trkpt>
      <trkpt lat="46.66637" lon="6.04893">
        <ele>1055.7</ele>
        <time>2022-10-25T10:40:08Z</time>
      </trkpt>
      <trkpt lat="46.66636" lon="6.049">
        <ele>1054.7</ele>
        <time>2022-10-25T10:40:14Z</time>
      </trkpt>
      <trkpt lat="46.66636" lon="6.04908">
        <ele>1053.6</ele>
        <time>2022-10-25T10:40:19Z</time>
      </trkpt>
      <trkpt lat="46.66635" lon="6.04915">
        <ele>1052.7</ele>
        <time>2022-10-25T10:40:24Z</time>
      </trkpt>
      <trkpt lat="46.66634" lon="6.04923">
        <ele>1052.3</ele>
        <time>2022-10-25T10:40:29Z</time>
      </trkpt>
      <trkpt lat="46.66632" lon="6.0493">
        <ele>1052.3</ele>
        <time>2022-10-25T10:40:34Z</time>
      </trkpt>
      <trkpt lat="46.6663" lon="6.04936">
        <ele>1052.7</ele>
        <time>2022-10-25T10:40:38Z</time>
      </trkpt>
      <trkpt lat="46.66629" lon="6.04942">
        <ele>1053</ele>
        <time>2022-10-25T10:40:42Z</time>
      </trkpt>
      <trkpt lat="46.66627" lon="6.04949">
        <ele>1053.2</ele>
        <time>2022-10-25T10:40:46Z</time>
      </trkpt>
      <trkpt lat="46.66626" lon="6.04955">
        <ele>1053.2</ele>
        <time>2022-10-25T10:40:51Z</time>
      </trkpt>
      <trkpt lat="46.66623" lon="6.04962">
        <ele>1053.8</ele>
        <time>2022-10-25T10:40:57Z</time>
      </trkpt>
      <trkpt lat="46.66621" lon="6.04969">
        <ele>1054.5</ele>
        <time>2022-10-25T10:41:01Z</time>
      </trkpt>
      <trkpt lat="46.66617" lon="6.04974">
        <ele>1055.2</ele>
        <time>2022-10-25T10:41:05Z</time>
      </trkpt>
      <trkpt lat="46.66615" lon="6.04979">
        <ele>1055.6</ele>
        <time>2022-10-25T10:41:09Z</time>
      </trkpt>
      <trkpt lat="46.66612" lon="6.04986">
        <ele>1056</ele>
        <time>2022-10-25T10:41:14Z</time>
      </trkpt>
      <trkpt lat="46.66609" lon="6.04992">
        <ele>1055.8</ele>
        <time>2022-10-25T10:41:19Z</time>
      </trkpt>
      <trkpt lat="46.66606" lon="6.04997">
        <ele>1055.1</ele>
        <time>2022-10-25T10:41:24Z</time>
      </trkpt>
      <trkpt lat="46.66601" lon="6.05003">
        <ele>1054.5</ele>
        <time>2022-10-25T10:41:29Z</time>
      </trkpt>
      <trkpt lat="46.66598" lon="6.0501">
        <ele>1053.9</ele>
        <time>2022-10-25T10:41:33Z</time>
      </trkpt>
      <trkpt lat="46.66595" lon="6.05016">
        <ele>1053.1</ele>
        <time>2022-10-25T10:41:37Z</time>
      </trkpt>
      <trkpt lat="46.66591" lon="6.05021">
        <ele>1052.2</ele>
        <time>2022-10-25T10:41:41Z</time>
      </trkpt>
      <trkpt lat="46.66588" lon="6.05027">
        <ele>1051.1</ele>
        <time>2022-10-25T10:41:45Z</time>
      </trkpt>
      <trkpt lat="46.66584" lon="6.05032">
        <ele>1050.3</ele>
        <time>2022-10-25T10:41:50Z</time>
      </trkpt>
      <trkpt lat="46.6658" lon="6.05037">
        <ele>1050</ele>
        <time>2022-10-25T10:41:56Z</time>
      </trkpt>
      <trkpt lat="46.66576" lon="6.05041">
        <ele>1049.6</ele>
        <time>2022-10-25T10:42:01Z</time>
      </trkpt>
      <trkpt lat="46.66571" lon="6.05045">
        <ele>1049.3</ele>
        <time>2022-10-25T10:42:06Z</time>
      </trkpt>
      <trkpt lat="46.66568" lon="6.05051">
        <ele>1049</ele>
        <time>2022-10-25T10:42:12Z</time>
      </trkpt>
      <trkpt lat="46.66565" lon="6.05056">
        <ele>1048.9</ele>
        <time>2022-10-25T10:42:17Z</time>
      </trkpt>
      <trkpt lat="46.66561" lon="6.05062">
        <ele>1049.1</ele>
        <time>2022-10-25T10:42:22Z</time>
      </trkpt>
      <trkpt lat="46.66557" lon="6.05067">
        <ele>1049</ele>
        <time>2022-10-25T10:42:26Z</time>
      </trkpt>
      <trkpt lat="46.66554" lon="6.05072">
        <ele>1048.9</ele>
        <time>2022-10-25T10:42:29Z</time>
      </trkpt>
      <trkpt lat="46.66551" lon="6.05077">
        <ele>1048.9</ele>
        <time>2022-10-25T10:42:32Z</time>
      </trkpt>
      <trkpt lat="46.66549" lon="6.05083">
        <ele>1049</ele>
        <time>2022-10-25T10:42:35Z</time>
      </trkpt>
      <trkpt lat="46.66546" lon="6.0509">
        <ele>1049.6</ele>
        <time>2022-10-25T10:42:39Z</time>
      </trkpt>
      <trkpt lat="46.66543" lon="6.05096">
        <ele>1050.5</ele>
        <time>2022-10-25T10:42:44Z</time>
      </trkpt>
      <trkpt lat="46.6654" lon="6.05103">
        <ele>1051.5</ele>
        <time>2022-10-25T10:42:49Z</time>
      </trkpt>
      <trkpt lat="46.66536" lon="6.05107">
        <ele>1051.7</ele>
        <time>2022-10-25T10:42:53Z</time>
      </trkpt>
      <trkpt lat="46.66531" lon="6.0511">
        <ele>1052.1</ele>
        <time>2022-10-25T10:42:58Z</time>
      </trkpt>
      <trkpt lat="46.66527" lon="6.05113">
        <ele>1052.8</ele>
        <time>2022-10-25T10:43:02Z</time>
      </trkpt>
      <trkpt lat="46.66522" lon="6.05114">
        <ele>1053.9</ele>
        <time>2022-10-25T10:43:07Z</time>
      </trkpt>
      <trkpt lat="46.66518" lon="6.05114">
        <ele>1055.1</ele>
        <time>2022-10-25T10:43:12Z</time>
      </trkpt>
      <trkpt lat="46.66512" lon="6.05114">
        <ele>1055.7</ele>
        <time>2022-10-25T10:43:17Z</time>
      </trkpt>
      <trkpt lat="46.66507" lon="6.05113">
        <ele>1055.8</ele>
        <time>2022-10-25T10:43:22Z</time>
      </trkpt>
      <trkpt lat="46.66502" lon="6.05113">
        <ele>1056</ele>
        <time>2022-10-25T10:43:26Z</time>
      </trkpt>
      <trkpt lat="46.66497" lon="6.05115">
        <ele>1056.2</ele>
        <time>2022-10-25T10:43:31Z</time>
      </trkpt>
      <trkpt lat="46.66492" lon="6.05115">
        <ele>1056.6</ele>
        <time>2022-10-25T10:43:35Z</time>
      </trkpt>
      <trkpt lat="46.66488" lon="6.05117">
        <ele>1057.5</ele>
        <time>2022-10-25T10:43:39Z</time>
      </trkpt>
      <trkpt lat="46.66483" lon="6.05119">
        <ele>1058.1</ele>
        <time>2022-10-25T10:43:43Z</time>
      </trkpt>
      <trkpt lat="46.66478" lon="6.05121">
        <ele>1058.3</ele>
        <time>2022-10-25T10:43:47Z</time>
      </trkpt>
      <trkpt lat="46.66472" lon="6.05121">
        <ele>1059</ele>
        <time>2022-10-25T10:43:52Z</time>
      </trkpt>
      <trkpt lat="46.66467" lon="6.0512">
        <ele>1059.6</ele>
        <time>2022-10-25T10:43:56Z</time>
      </trkpt>
      <trkpt lat="46.66462" lon="6.05118">
        <ele>1060.2</ele>
        <time>2022-10-25T10:44:01Z</time>
      </trkpt>
      <trkpt lat="46.66457" lon="6.05117">
        <ele>1060</ele>
        <time>2022-10-25T10:44:06Z</time>
      </trkpt>
      <trkpt lat="46.66452" lon="6.05119">
        <ele>1059.4</ele>
        <time>2022-10-25T10:44:10Z</time>
      </trkpt>
      <trkpt lat="46.66447" lon="6.05121">
        <ele>1058.8</ele>
        <time>2022-10-25T10:44:14Z</time>
      </trkpt>
      <trkpt lat="46.66443" lon="6.05124">
        <ele>1058.3</ele>
        <time>2022-10-25T10:44:18Z</time>
      </trkpt>
      <trkpt lat="46.66438" lon="6.05126">
        <ele>1057.3</ele>
        <time>2022-10-25T10:44:23Z</time>
      </trkpt>
      <trkpt lat="46.66433" lon="6.05127">
        <ele>1056.7</ele>
        <time>2022-10-25T10:44:28Z</time>
      </trkpt>
      <trkpt lat="46.66428" lon="6.05128">
        <ele>1056.3</ele>
        <time>2022-10-25T10:44:32Z</time>
      </trkpt>
      <trkpt lat="46.66423" lon="6.05129">
        <ele>1056</ele>
        <time>2022-10-25T10:44:37Z</time>
      </trkpt>
      <trkpt lat="46.66418" lon="6.0513">
        <ele>1056.5</ele>
        <time>2022-10-25T10:44:41Z</time>
      </trkpt>
      <trkpt lat="46.66414" lon="6.05132">
        <ele>1056.7</ele>
        <time>2022-10-25T10:44:46Z</time>
      </trkpt>
      <trkpt lat="46.66409" lon="6.05135">
        <ele>1056.2</ele>
        <time>2022-10-25T10:44:51Z</time>
      </trkpt>
      <trkpt lat="46.66404" lon="6.05138">
        <ele>1055.7</ele>
        <time>2022-10-25T10:44:55Z</time>
      </trkpt>
      <trkpt lat="46.66399" lon="6.05139">
        <ele>1055.5</ele>
        <time>2022-10-25T10:45:01Z</time>
      </trkpt>
      <trkpt lat="46.66393" lon="6.0514">
        <ele>1055.3</ele>
        <time>2022-10-25T10:45:07Z</time>
      </trkpt>
      <trkpt lat="46.66388" lon="6.05142">
        <ele>1055.2</ele>
        <time>2022-10-25T10:45:11Z</time>
      </trkpt>
      <trkpt lat="46.66383" lon="6.05145">
        <ele>1055.2</ele>
        <time>2022-10-25T10:45:15Z</time>
      </trkpt>
      <trkpt lat="46.66378" lon="6.05147">
        <ele>1055.4</ele>
        <time>2022-10-25T10:45:19Z</time>
      </trkpt>
      <trkpt lat="46.66373" lon="6.05149">
        <ele>1055.5</ele>
        <time>2022-10-25T10:45:24Z</time>
      </trkpt>
      <trkpt lat="46.66368" lon="6.05151">
        <ele>1054.9</ele>
        <time>2022-10-25T10:45:30Z</time>
      </trkpt>
      <trkpt lat="46.66364" lon="6.05153">
        <ele>1054.1</ele>
        <time>2022-10-25T10:45:35Z</time>
      </trkpt>
      <trkpt lat="46.6636" lon="6.05157">
        <ele>1053.5</ele>
        <time>2022-10-25T10:45:41Z</time>
      </trkpt>
      <trkpt lat="46.66356" lon="6.0516">
        <ele>1052.2</ele>
        <time>2022-10-25T10:45:48Z</time>
      </trkpt>
      <trkpt lat="46.66357" lon="6.05167">
        <ele>1050.1</ele>
        <time>2022-10-25T10:45:55Z</time>
      </trkpt>
      <trkpt lat="46.66361" lon="6.05173">
        <ele>1048.7</ele>
        <time>2022-10-25T10:46:00Z</time>
      </trkpt>
      <trkpt lat="46.66365" lon="6.05178">
        <ele>1048</ele>
        <time>2022-10-25T10:46:05Z</time>
      </trkpt>
      <trkpt lat="46.66367" lon="6.05184">
        <ele>1047.6</ele>
        <time>2022-10-25T10:46:11Z</time>
      </trkpt>
      <trkpt lat="46.6637" lon="6.0519">
        <ele>1047.2</ele>
        <time>2022-10-25T10:46:16Z</time>
      </trkpt>
      <trkpt lat="46.6637" lon="6.05198">
        <ele>1047.6</ele>
        <time>2022-10-25T10:46:22Z</time>
      </trkpt>
      <trkpt lat="46.6637" lon="6.05205">
        <ele>1047.9</ele>
        <time>2022-10-25T10:46:28Z</time>
      </trkpt>
      <trkpt lat="46.66369" lon="6.05212">
        <ele>1048</ele>
        <time>2022-10-25T10:46:33Z</time>
      </trkpt>
      <trkpt lat="46.66368" lon="6.05218">
        <ele>1047.8</ele>
        <time>2022-10-25T10:46:38Z</time>
      </trkpt>
      <trkpt lat="46.66369" lon="6.05226">
        <ele>1047.9</ele>
        <time>2022-10-25T10:46:44Z</time>
      </trkpt>
      <trkpt lat="46.6637" lon="6.05233">
        <ele>1047.8</ele>
        <time>2022-10-25T10:46:49Z</time>
      </trkpt>
      <trkpt lat="46.66372" lon="6.0524">
        <ele>1047.6</ele>
        <time>2022-10-25T10:46:54Z</time>
      </trkpt>
      <trkpt lat="46.66373" lon="6.05248">
        <ele>1048.1</ele>
        <time>2022-10-25T10:46:59Z</time>
      </trkpt>
      <trkpt lat="46.66374" lon="6.05255">
        <ele>1048.2</ele>
        <time>2022-10-25T10:47:03Z</time>
      </trkpt>
      <trkpt lat="46.66373" lon="6.05262">
        <ele>1047.7</ele>
        <time>2022-10-25T10:47:09Z</time>
      </trkpt>
      <trkpt lat="46.6637" lon="6.05267">
        <ele>1047.3</ele>
        <time>2022-10-25T10:47:13Z</time>
      </trkpt>
      <trkpt lat="46.66366" lon="6.05271">
        <ele>1047.1</ele>
        <time>2022-10-25T10:47:17Z</time>
      </trkpt>
      <trkpt lat="46.66363" lon="6.05276">
        <ele>1046.6</ele>
        <time>2022-10-25T10:47:21Z</time>
      </trkpt>
      <trkpt lat="46.6636" lon="6.05281">
        <ele>1045.8</ele>
        <time>2022-10-25T10:47:26Z</time>
      </trkpt>
      <trkpt lat="46.66359" lon="6.05288">
        <ele>1045.1</ele>
        <time>2022-10-25T10:47:31Z</time>
      </trkpt>
      <trkpt lat="46.6636" lon="6.05296">
        <ele>1044.2</ele>
        <time>2022-10-25T10:47:36Z</time>
      </trkpt>
      <trkpt lat="46.66362" lon="6.05302">
        <ele>1043.5</ele>
        <time>2022-10-25T10:47:41Z</time>
      </trkpt>
      <trkpt lat="46.66365" lon="6.05309">
        <ele>1042.5</ele>
        <time>2022-10-25T10:47:46Z</time>
      </trkpt>
      <trkpt lat="46.66367" lon="6.05315">
        <ele>1041.4</ele>
        <time>2022-10-25T10:47:51Z</time>
      </trkpt>
      <trkpt lat="46.6637" lon="6.05321">
        <ele>1040.6</ele>
        <time>2022-10-25T10:47:56Z</time>
      </trkpt>
      <trkpt lat="46.66371" lon="6.05327">
        <ele>1040.8</ele>
        <time>2022-10-25T10:48:02Z</time>
      </trkpt>
      <trkpt lat="46.66373" lon="6.05334">
        <ele>1040.7</ele>
        <time>2022-10-25T10:48:08Z</time>
      </trkpt>
      <trkpt lat="46.66375" lon="6.05341">
        <ele>1040.4</ele>
        <time>2022-10-25T10:48:13Z</time>
      </trkpt>
      <trkpt lat="46.66377" lon="6.05348">
        <ele>1039.8</ele>
        <time>2022-10-25T10:48:18Z</time>
      </trkpt>
      <trkpt lat="46.66378" lon="6.05355">
        <ele>1039.7</ele>
        <time>2022-10-25T10:48:22Z</time>
      </trkpt>
      <trkpt lat="46.6638" lon="6.05362">
        <ele>1040.1</ele>
        <time>2022-10-25T10:48:27Z</time>
      </trkpt>
      <trkpt lat="46.66379" lon="6.05369">
        <ele>1041.1</ele>
        <time>2022-10-25T10:48:32Z</time>
      </trkpt>
      <trkpt lat="46.66378" lon="6.05377">
        <ele>1042.5</ele>
        <time>2022-10-25T10:48:37Z</time>
      </trkpt>
      <trkpt lat="46.66376" lon="6.05383">
        <ele>1043.4</ele>
        <time>2022-10-25T10:48:41Z</time>
      </trkpt>
      <trkpt lat="46.66374" lon="6.05389">
        <ele>1044.1</ele>
        <time>2022-10-25T10:48:46Z</time>
      </trkpt>
      <trkpt lat="46.66371" lon="6.05396">
        <ele>1044.1</ele>
        <time>2022-10-25T10:48:51Z</time>
      </trkpt>
      <trkpt lat="46.66369" lon="6.05403">
        <ele>1043.6</ele>
        <time>2022-10-25T10:48:56Z</time>
      </trkpt>
      <trkpt lat="46.66368" lon="6.0541">
        <ele>1043.3</ele>
        <time>2022-10-25T10:49:01Z</time>
      </trkpt>
      <trkpt lat="46.66369" lon="6.05418">
        <ele>1043</ele>
        <time>2022-10-25T10:49:06Z</time>
      </trkpt>
      <trkpt lat="46.6637" lon="6.05425">
        <ele>1042.7</ele>
        <time>2022-10-25T10:49:12Z</time>
      </trkpt>
      <trkpt lat="46.66372" lon="6.05432">
        <ele>1042.4</ele>
        <time>2022-10-25T10:49:17Z</time>
      </trkpt>
      <trkpt lat="46.66374" lon="6.05438">
        <ele>1041.8</ele>
        <time>2022-10-25T10:49:22Z</time>
      </trkpt>
      <trkpt lat="46.66376" lon="6.05444">
        <ele>1041.4</ele>
        <time>2022-10-25T10:49:27Z</time>
      </trkpt>
      <trkpt lat="46.66379" lon="6.05451">
        <ele>1041.4</ele>
        <time>2022-10-25T10:49:32Z</time>
      </trkpt>
      <trkpt lat="46.66382" lon="6.05456">
        <ele>1041.6</ele>
        <time>2022-10-25T10:49:36Z</time>
      </trkpt>
      <trkpt lat="46.66385" lon="6.05461">
        <ele>1041.7</ele>
        <time>2022-10-25T10:49:41Z</time>
      </trkpt>
      <trkpt lat="46.66388" lon="6.05468">
        <ele>1041.5</ele>
        <time>2022-10-25T10:49:47Z</time>
      </trkpt>
      <trkpt lat="46.66391" lon="6.05473">
        <ele>1041.2</ele>
        <time>2022-10-25T10:49:53Z</time>
      </trkpt>
      <trkpt lat="46.66394" lon="6.05478">
        <ele>1041</ele>
        <time>2022-10-25T10:49:59Z</time>
      </trkpt>
      <trkpt lat="46.66398" lon="6.05484">
        <ele>1041.4</ele>
        <time>2022-10-25T10:50:04Z</time>
      </trkpt>
      <trkpt lat="46.664" lon="6.05489">
        <ele>1041.9</ele>
        <time>2022-10-25T10:50:09Z</time>
      </trkpt>
      <trkpt lat="46.66401" lon="6.05497">
        <ele>1042.3</ele>
        <time>2022-10-25T10:50:15Z</time>
      </trkpt>
      <trkpt lat="46.66403" lon="6.05504">
        <ele>1042.6</ele>
        <time>2022-10-25T10:50:21Z</time>
      </trkpt>
      <trkpt lat="46.66404" lon="6.05511">
        <ele>1042.8</ele>
        <time>2022-10-25T10:50:25Z</time>
      </trkpt>
      <trkpt lat="46.66401" lon="6.05518">
        <ele>1043.2</ele>
        <time>2022-10-25T10:50:30Z</time>
      </trkpt>
      <trkpt lat="46.66399" lon="6.05523">
        <ele>1043.7</ele>
        <time>2022-10-25T10:50:35Z</time>
      </trkpt>
      <trkpt lat="46.66396" lon="6.05529">
        <ele>1044.3</ele>
        <time>2022-10-25T10:50:40Z</time>
      </trkpt>
      <trkpt lat="46.66394" lon="6.05535">
        <ele>1044.9</ele>
        <time>2022-10-25T10:50:45Z</time>
      </trkpt>
      <trkpt lat="46.66393" lon="6.05543">
        <ele>1044.9</ele>
        <time>2022-10-25T10:50:51Z</time>
      </trkpt>
      <trkpt lat="46.66393" lon="6.0555">
        <ele>1044.6</ele>
        <time>2022-10-25T10:50:56Z</time>
      </trkpt>
      <trkpt lat="46.66392" lon="6.05557">
        <ele>1044.2</ele>
        <time>2022-10-25T10:51:01Z</time>
      </trkpt>
      <trkpt lat="46.66391" lon="6.05563">
        <ele>1044.3</ele>
        <time>2022-10-25T10:51:05Z</time>
      </trkpt>
      <trkpt lat="46.66391" lon="6.05571">
        <ele>1044.4</ele>
        <time>2022-10-25T10:51:10Z</time>
      </trkpt>
      <trkpt lat="46.66391" lon="6.05578">
        <ele>1044.3</ele>
        <time>2022-10-25T10:51:15Z</time>
      </trkpt>
      <trkpt lat="46.66392" lon="6.05585">
        <ele>1043.7</ele>
        <time>2022-10-25T10:51:20Z</time>
      </trkpt>
      <trkpt lat="46.66393" lon="6.05592">
        <ele>1043.2</ele>
        <time>2022-10-25T10:51:24Z</time>
      </trkpt>
      <trkpt lat="46.66393" lon="6.05599">
        <ele>1042.7</ele>
        <time>2022-10-25T10:51:29Z</time>
      </trkpt>
      <trkpt lat="46.66394" lon="6.05606">
        <ele>1042.2</ele>
        <time>2022-10-25T10:51:34Z</time>
      </trkpt>
      <trkpt lat="46.66397" lon="6.05611">
        <ele>1041.8</ele>
        <time>2022-10-25T10:51:39Z</time>
      </trkpt>
      <trkpt lat="46.66401" lon="6.05617">
        <ele>1041.7</ele>
        <time>2022-10-25T10:51:44Z</time>
      </trkpt>
      <trkpt lat="46.66403" lon="6.05623">
        <ele>1041.2</ele>
        <time>2022-10-25T10:51:49Z</time>
      </trkpt>
      <trkpt lat="46.66404" lon="6.0563">
        <ele>1040.3</ele>
        <time>2022-10-25T10:51:55Z</time>
      </trkpt>
      <trkpt lat="46.66406" lon="6.05637">
        <ele>1039.9</ele>
        <time>2022-10-25T10:52:00Z</time>
      </trkpt>
      <trkpt lat="46.66408" lon="6.05644">
        <ele>1039.8</ele>
        <time>2022-10-25T10:52:04Z</time>
      </trkpt>
      <trkpt lat="46.66409" lon="6.0565">
        <ele>1039.7</ele>
        <time>2022-10-25T10:52:08Z</time>
      </trkpt>
      <trkpt lat="46.66412" lon="6.05656">
        <ele>1039.8</ele>
        <time>2022-10-25T10:52:13Z</time>
      </trkpt>
      <trkpt lat="46.66416" lon="6.05662">
        <ele>1039.1</ele>
        <time>2022-10-25T10:52:19Z</time>
      </trkpt>
      <trkpt lat="46.66419" lon="6.05668">
        <ele>1038.9</ele>
        <time>2022-10-25T10:52:25Z</time>
      </trkpt>
      <trkpt lat="46.66421" lon="6.05674">
        <ele>1039.1</ele>
        <time>2022-10-25T10:52:30Z</time>
      </trkpt>
      <trkpt lat="46.66423" lon="6.05681">
        <ele>1040.3</ele>
        <time>2022-10-25T10:52:38Z</time>
      </trkpt>
      <trkpt lat="46.66425" lon="6.05689">
        <ele>1040.3</ele>
        <time>2022-10-25T10:52:43Z</time>
      </trkpt>
      <trkpt lat="46.66426" lon="6.05696">
        <ele>1040.2</ele>
        <time>2022-10-25T10:52:47Z</time>
      </trkpt>
      <trkpt lat="46.66428" lon="6.05702">
        <ele>1040.2</ele>
        <time>2022-10-25T10:52:51Z</time>
      </trkpt>
      <trkpt lat="46.66431" lon="6.05708">
        <ele>1040.2</ele>
        <time>2022-10-25T10:52:56Z</time>
      </trkpt>
      <trkpt lat="46.66434" lon="6.05714">
        <ele>1040.2</ele>
        <time>2022-10-25T10:53:01Z</time>
      </trkpt>
      <trkpt lat="46.66437" lon="6.0572">
        <ele>1040.2</ele>
        <time>2022-10-25T10:53:06Z</time>
      </trkpt>
      <trkpt lat="46.6644" lon="6.05726">
        <ele>1039.9</ele>
        <time>2022-10-25T10:53:11Z</time>
      </trkpt>
      <trkpt lat="46.66443" lon="6.05731">
        <ele>1039.1</ele>
        <time>2022-10-25T10:53:16Z</time>
      </trkpt>
      <trkpt lat="46.66446" lon="6.05737">
        <ele>1038.1</ele>
        <time>2022-10-25T10:53:22Z</time>
      </trkpt>
      <trkpt lat="46.66448" lon="6.05743">
        <ele>1036.6</ele>
        <time>2022-10-25T10:53:30Z</time>
      </trkpt>
      <trkpt lat="46.6645" lon="6.0575">
        <ele>1035.4</ele>
        <time>2022-10-25T10:53:36Z</time>
      </trkpt>
      <trkpt lat="46.66453" lon="6.05758">
        <ele>1035</ele>
        <time>2022-10-25T10:53:40Z</time>
      </trkpt>
      <trkpt lat="46.66455" lon="6.05764">
        <ele>1034.7</ele>
        <time>2022-10-25T10:53:44Z</time>
      </trkpt>
      <trkpt lat="46.66457" lon="6.05771">
        <ele>1034.1</ele>
        <time>2022-10-25T10:53:50Z</time>
      </trkpt>
      <trkpt lat="46.66459" lon="6.05778">
        <ele>1034.5</ele>
        <time>2022-10-25T10:53:56Z</time>
      </trkpt>
      <trkpt lat="46.6646" lon="6.05785">
        <ele>1035</ele>
        <time>2022-10-25T10:54:01Z</time>
      </trkpt>
      <trkpt lat="46.6646" lon="6.05793">
        <ele>1035.8</ele>
        <time>2022-10-25T10:54:06Z</time>
      </trkpt>
      <trkpt lat="46.66458" lon="6.05799">
        <ele>1036.9</ele>
        <time>2022-10-25T10:54:14Z</time>
      </trkpt>
      <trkpt lat="46.66454" lon="6.05804">
        <ele>1038</ele>
        <time>2022-10-25T10:54:19Z</time>
      </trkpt>
      <trkpt lat="46.66453" lon="6.0581">
        <ele>1040.2</ele>
        <time>2022-10-25T10:54:26Z</time>
      </trkpt>
      <trkpt lat="46.66455" lon="6.05817">
        <ele>1040.9</ele>
        <time>2022-10-25T10:54:41Z</time>
      </trkpt>
      <trkpt lat="46.66455" lon="6.05824">
        <ele>1037.5</ele>
        <time>2022-10-25T10:55:32Z</time>
      </trkpt>
      <trkpt lat="46.66454" lon="6.05831">
        <ele>1036.1</ele>
        <time>2022-10-25T10:55:37Z</time>
      </trkpt>
      <trkpt lat="46.66454" lon="6.05838">
        <ele>1035.2</ele>
        <time>2022-10-25T10:55:44Z</time>
      </trkpt>
      <trkpt lat="46.66455" lon="6.05845">
        <ele>1033.6</ele>
        <time>2022-10-25T10:55:52Z</time>
      </trkpt>
      <trkpt lat="46.66455" lon="6.05852">
        <ele>1031.9</ele>
        <time>2022-10-25T10:55:59Z</time>
      </trkpt>
      <trkpt lat="46.66455" lon="6.05859">
        <ele>1030.4</ele>
        <time>2022-10-25T10:56:06Z</time>
      </trkpt>
      <trkpt lat="46.66455" lon="6.05867">
        <ele>1029.5</ele>
        <time>2022-10-25T10:56:13Z</time>
      </trkpt>
      <trkpt lat="46.66454" lon="6.05873">
        <ele>1029.4</ele>
        <time>2022-10-25T10:56:19Z</time>
      </trkpt>
      <trkpt lat="46.66454" lon="6.0588">
        <ele>1028.4</ele>
        <time>2022-10-25T10:56:26Z</time>
      </trkpt>
      <trkpt lat="46.66453" lon="6.05888">
        <ele>1027.8</ele>
        <time>2022-10-25T10:56:33Z</time>
      </trkpt>
      <trkpt lat="46.66452" lon="6.05895">
        <ele>1027.8</ele>
        <time>2022-10-25T10:56:40Z</time>
      </trkpt>
      <trkpt lat="46.66452" lon="6.05902">
        <ele>1028.8</ele>
        <time>2022-10-25T10:56:52Z</time>
      </trkpt>
      <trkpt lat="46.66452" lon="6.05909">
        <ele>1028.9</ele>
        <time>2022-10-25T10:56:57Z</time>
      </trkpt>
      <trkpt lat="46.66453" lon="6.05916">
        <ele>1028.3</ele>
        <time>2022-10-25T10:57:05Z</time>
      </trkpt>
      <trkpt lat="46.66452" lon="6.05924">
        <ele>1026.2</ele>
        <time>2022-10-25T10:57:20Z</time>
      </trkpt>
      <trkpt lat="46.66452" lon="6.0593">
        <ele>1023.1</ele>
        <time>2022-10-25T10:57:28Z</time>
      </trkpt>
      <trkpt lat="46.66453" lon="6.05937">
        <ele>1019.8</ele>
        <time>2022-10-25T10:57:42Z</time>
      </trkpt>
      <trkpt lat="46.66455" lon="6.05944">
        <ele>1017.8</ele>
        <time>2022-10-25T10:57:50Z</time>
      </trkpt>
      <trkpt lat="46.66456" lon="6.05951">
        <ele>1016.8</ele>
        <time>2022-10-25T10:57:59Z</time>
      </trkpt>
      <trkpt lat="46.66458" lon="6.05958">
        <ele>1016.9</ele>
        <time>2022-10-25T10:58:08Z</time>
      </trkpt>
      <trkpt lat="46.66458" lon="6.05965">
        <ele>1017</ele>
        <time>2022-10-25T10:58:19Z</time>
      </trkpt>
      <trkpt lat="46.66458" lon="6.05972">
        <ele>1016.3</ele>
        <time>2022-10-25T10:58:28Z</time>
      </trkpt>
      <trkpt lat="46.66459" lon="6.05979">
        <ele>1014.1</ele>
        <time>2022-10-25T10:58:35Z</time>
      </trkpt>
      <trkpt lat="46.66463" lon="6.05984">
        <ele>1010.4</ele>
        <time>2022-10-25T10:58:44Z</time>
      </trkpt>
      <trkpt lat="46.66464" lon="6.05991">
        <ele>1007.5</ele>
        <time>2022-10-25T10:58:51Z</time>
      </trkpt>
      <trkpt lat="46.66465" lon="6.05998">
        <ele>1005.8</ele>
        <time>2022-10-25T10:58:59Z</time>
      </trkpt>
      <trkpt lat="46.66466" lon="6.06005">
        <ele>1004.9</ele>
        <time>2022-10-25T10:59:05Z</time>
      </trkpt>
      <trkpt lat="46.66467" lon="6.06012">
        <ele>1003.7</ele>
        <time>2022-10-25T10:59:11Z</time>
      </trkpt>
      <trkpt lat="46.66469" lon="6.06018">
        <ele>1003</ele>
        <time>2022-10-25T10:59:16Z</time>
      </trkpt>
      <trkpt lat="46.6647" lon="6.06025">
        <ele>1002.2</ele>
        <time>2022-10-25T10:59:22Z</time>
      </trkpt>
      <trkpt lat="46.66472" lon="6.06031">
        <ele>1001.6</ele>
        <time>2022-10-25T10:59:29Z</time>
      </trkpt>
      <trkpt lat="46.66473" lon="6.06038">
        <ele>999.8</ele>
        <time>2022-10-25T10:59:36Z</time>
      </trkpt>
      <trkpt lat="46.66474" lon="6.06045">
        <ele>997.9</ele>
        <time>2022-10-25T10:59:42Z</time>
      </trkpt>
      <trkpt lat="46.66476" lon="6.06051">
        <ele>996.2</ele>
        <time>2022-10-25T10:59:48Z</time>
      </trkpt>
      <trkpt lat="46.66478" lon="6.06058">
        <ele>994.3</ele>
        <time>2022-10-25T10:59:55Z</time>
      </trkpt>
      <trkpt lat="46.66481" lon="6.06064">
        <ele>992.2</ele>
        <time>2022-10-25T11:00:02Z</time>
      </trkpt>
      <trkpt lat="46.66483" lon="6.0607">
        <ele>990.7</ele>
        <time>2022-10-25T11:00:08Z</time>
      </trkpt>
      <trkpt lat="46.66484" lon="6.06076">
        <ele>989.4</ele>
        <time>2022-10-25T11:00:14Z</time>
      </trkpt>
      <trkpt lat="46.66487" lon="6.06082">
        <ele>988.3</ele>
        <time>2022-10-25T11:00:19Z</time>
      </trkpt>
      <trkpt lat="46.66488" lon="6.06089">
        <ele>987.5</ele>
        <time>2022-10-25T11:00:24Z</time>
      </trkpt>
      <trkpt lat="46.6649" lon="6.06095">
        <ele>987.2</ele>
        <time>2022-10-25T11:00:29Z</time>
      </trkpt>
      <trkpt lat="46.66489" lon="6.06102">
        <ele>987.2</ele>
        <time>2022-10-25T11:00:34Z</time>
      </trkpt>
      <trkpt lat="46.66488" lon="6.06108">
        <ele>987.1</ele>
        <time>2022-10-25T11:00:39Z</time>
      </trkpt>
      <trkpt lat="46.66483" lon="6.06112">
        <ele>986.9</ele>
        <time>2022-10-25T11:00:47Z</time>
      </trkpt>
      <trkpt lat="46.66479" lon="6.06115">
        <ele>984.2</ele>
        <time>2022-10-25T11:00:59Z</time>
      </trkpt>
      <trkpt lat="46.66479" lon="6.06121">
        <ele>982.3</ele>
        <time>2022-10-25T11:01:10Z</time>
      </trkpt>
      <trkpt lat="46.6648" lon="6.06128">
        <ele>981.5</ele>
        <time>2022-10-25T11:01:19Z</time>
      </trkpt>
      <trkpt lat="46.66484" lon="6.06133">
        <ele>981</ele>
        <time>2022-10-25T11:01:27Z</time>
      </trkpt>
      <trkpt lat="46.66486" lon="6.06139">
        <ele>980.2</ele>
        <time>2022-10-25T11:01:34Z</time>
      </trkpt>
      <trkpt lat="46.66489" lon="6.06145">
        <ele>978.6</ele>
        <time>2022-10-25T11:01:41Z</time>
      </trkpt>
      <trkpt lat="46.6649" lon="6.06152">
        <ele>976.9</ele>
        <time>2022-10-25T11:01:49Z</time>
      </trkpt>
      <trkpt lat="46.66492" lon="6.06158">
        <ele>975.3</ele>
        <time>2022-10-25T11:01:58Z</time>
      </trkpt>
      <trkpt lat="46.66494" lon="6.06164">
        <ele>974.7</ele>
        <time>2022-10-25T11:02:06Z</time>
      </trkpt>
      <trkpt lat="46.66497" lon="6.0617">
        <ele>975</ele>
        <time>2022-10-25T11:02:13Z</time>
      </trkpt>
      <trkpt lat="46.66498" lon="6.06177">
        <ele>975.5</ele>
        <time>2022-10-25T11:02:20Z</time>
      </trkpt>
      <trkpt lat="46.66499" lon="6.06183">
        <ele>974.8</ele>
        <time>2022-10-25T11:02:29Z</time>
      </trkpt>
      <trkpt lat="46.66502" lon="6.0619">
        <ele>973.3</ele>
        <time>2022-10-25T11:02:37Z</time>
      </trkpt>
      <trkpt lat="46.66504" lon="6.06196">
        <ele>972.3</ele>
        <time>2022-10-25T11:02:45Z</time>
      </trkpt>
      <trkpt lat="46.66505" lon="6.06203">
        <ele>971.7</ele>
        <time>2022-10-25T11:02:53Z</time>
      </trkpt>
      <trkpt lat="46.66507" lon="6.06209">
        <ele>970.8</ele>
        <time>2022-10-25T11:03:00Z</time>
      </trkpt>
      <trkpt lat="46.66509" lon="6.06215">
        <ele>969.4</ele>
        <time>2022-10-25T11:03:07Z</time>
      </trkpt>
      <trkpt lat="46.66511" lon="6.06221">
        <ele>968.6</ele>
        <time>2022-10-25T11:03:16Z</time>
      </trkpt>
      <trkpt lat="46.66514" lon="6.06227">
        <ele>966.8</ele>
        <time>2022-10-25T11:03:27Z</time>
      </trkpt>
      <trkpt lat="46.66515" lon="6.06234">
        <ele>965.3</ele>
        <time>2022-10-25T11:03:34Z</time>
      </trkpt>
      <trkpt lat="46.66518" lon="6.0624">
        <ele>963.8</ele>
        <time>2022-10-25T11:03:41Z</time>
      </trkpt>
      <trkpt lat="46.6652" lon="6.06246">
        <ele>963.7</ele>
        <time>2022-10-25T11:03:47Z</time>
      </trkpt>
      <trkpt lat="46.66522" lon="6.06252">
        <ele>963.1</ele>
        <time>2022-10-25T11:03:54Z</time>
      </trkpt>
      <trkpt lat="46.66522" lon="6.0626">
        <ele>962.7</ele>
        <time>2022-10-25T11:05:33Z</time>
      </trkpt>
      <trkpt lat="46.66521" lon="6.06266">
        <ele>961.9</ele>
        <time>2022-10-25T11:05:38Z</time>
      </trkpt>
      <trkpt lat="46.66521" lon="6.06273">
        <ele>960.7</ele>
        <time>2022-10-25T11:05:44Z</time>
      </trkpt>
      <trkpt lat="46.66522" lon="6.0628">
        <ele>957.8</ele>
        <time>2022-10-25T11:06:12Z</time>
      </trkpt>
      <trkpt lat="46.66517" lon="6.06283">
        <ele>955.7</ele>
        <time>2022-10-25T11:06:28Z</time>
      </trkpt>
      <trkpt lat="46.66513" lon="6.06284">
        <ele>956.5</ele>
        <time>2022-10-25T11:06:36Z</time>
      </trkpt>
      <trkpt lat="46.66508" lon="6.06283">
        <ele>956.2</ele>
        <time>2022-10-25T11:06:43Z</time>
      </trkpt>
      <trkpt lat="46.66503" lon="6.06282">
        <ele>955.8</ele>
        <time>2022-10-25T11:06:50Z</time>
      </trkpt>
      <trkpt lat="46.66498" lon="6.06282">
        <ele>955.4</ele>
        <time>2022-10-25T11:06:54Z</time>
      </trkpt>
      <trkpt lat="46.66493" lon="6.06282">
        <ele>955.3</ele>
        <time>2022-10-25T11:06:58Z</time>
      </trkpt>
      <trkpt lat="46.66488" lon="6.06282">
        <ele>954.8</ele>
        <time>2022-10-25T11:07:06Z</time>
      </trkpt>
      <trkpt lat="46.66484" lon="6.06284">
        <ele>952.9</ele>
        <time>2022-10-25T11:07:16Z</time>
      </trkpt>
      <trkpt lat="46.6648" lon="6.06289">
        <ele>951.4</ele>
        <time>2022-10-25T11:07:23Z</time>
      </trkpt>
      <trkpt lat="46.66477" lon="6.06296">
        <ele>950.2</ele>
        <time>2022-10-25T11:07:29Z</time>
      </trkpt>
      <trkpt lat="46.66474" lon="6.06302">
        <ele>949.1</ele>
        <time>2022-10-25T11:07:34Z</time>
      </trkpt>
      <trkpt lat="46.66471" lon="6.06307">
        <ele>947.5</ele>
        <time>2022-10-25T11:07:50Z</time>
      </trkpt>
      <trkpt lat="46.66469" lon="6.06314">
        <ele>946.7</ele>
        <time>2022-10-25T11:07:55Z</time>
      </trkpt>
      <trkpt lat="46.66469" lon="6.06321">
        <ele>945.2</ele>
        <time>2022-10-25T11:08:01Z</time>
      </trkpt>
      <trkpt lat="46.66472" lon="6.06326">
        <ele>944.4</ele>
        <time>2022-10-25T11:08:07Z</time>
      </trkpt>
      <trkpt lat="46.66475" lon="6.06332">
        <ele>943.4</ele>
        <time>2022-10-25T11:08:12Z</time>
      </trkpt>
      <trkpt lat="46.66478" lon="6.06338">
        <ele>942.4</ele>
        <time>2022-10-25T11:08:18Z</time>
      </trkpt>
      <trkpt lat="46.66479" lon="6.06344">
        <ele>941.4</ele>
        <time>2022-10-25T11:08:23Z</time>
      </trkpt>
      <trkpt lat="46.66482" lon="6.0635">
        <ele>941.3</ele>
        <time>2022-10-25T11:08:28Z</time>
      </trkpt>
      <trkpt lat="46.66484" lon="6.06357">
        <ele>941.4</ele>
        <time>2022-10-25T11:08:34Z</time>
      </trkpt>
      <trkpt lat="46.66486" lon="6.06364">
        <ele>941.1</ele>
        <time>2022-10-25T11:08:39Z</time>
      </trkpt>
      <trkpt lat="46.66487" lon="6.06371">
        <ele>941</ele>
        <time>2022-10-25T11:08:44Z</time>
      </trkpt>
      <trkpt lat="46.6649" lon="6.06378">
        <ele>941.2</ele>
        <time>2022-10-25T11:08:50Z</time>
      </trkpt>
      <trkpt lat="46.66491" lon="6.06384">
        <ele>941.8</ele>
        <time>2022-10-25T11:09:00Z</time>
      </trkpt>
      <trkpt lat="46.66492" lon="6.06392">
        <ele>942.6</ele>
        <time>2022-10-25T11:09:11Z</time>
      </trkpt>
      <trkpt lat="46.66493" lon="6.064">
        <ele>942.5</ele>
        <time>2022-10-25T11:09:15Z</time>
      </trkpt>
      <trkpt lat="46.66494" lon="6.06407">
        <ele>942.5</ele>
        <time>2022-10-25T11:09:19Z</time>
      </trkpt>
      <trkpt lat="46.66496" lon="6.06413">
        <ele>942.5</ele>
        <time>2022-10-25T11:09:23Z</time>
      </trkpt>
      <trkpt lat="46.66498" lon="6.0642">
        <ele>943.1</ele>
        <time>2022-10-25T11:09:29Z</time>
      </trkpt>
      <trkpt lat="46.66499" lon="6.06426">
        <ele>943.8</ele>
        <time>2022-10-25T11:09:34Z</time>
      </trkpt>
      <trkpt lat="46.66501" lon="6.06434">
        <ele>944.1</ele>
        <time>2022-10-25T11:09:40Z</time>
      </trkpt>
      <trkpt lat="46.66503" lon="6.06441">
        <ele>944.2</ele>
        <time>2022-10-25T11:09:45Z</time>
      </trkpt>
      <trkpt lat="46.66505" lon="6.06447">
        <ele>944.2</ele>
        <time>2022-10-25T11:09:50Z</time>
      </trkpt>
      <trkpt lat="46.66507" lon="6.06453">
        <ele>944.2</ele>
        <time>2022-10-25T11:09:56Z</time>
      </trkpt>
      <trkpt lat="46.66509" lon="6.0646">
        <ele>944.6</ele>
        <time>2022-10-25T11:10:04Z</time>
      </trkpt>
      <trkpt lat="46.66511" lon="6.06466">
        <ele>945.2</ele>
        <time>2022-10-25T11:10:13Z</time>
      </trkpt>
      <trkpt lat="46.66514" lon="6.06471">
        <ele>944.6</ele>
        <time>2022-10-25T11:10:35Z</time>
      </trkpt>
      <trkpt lat="46.66515" lon="6.06477">
        <ele>944.3</ele>
        <time>2022-10-25T11:10:40Z</time>
      </trkpt>
      <trkpt lat="46.66515" lon="6.06485">
        <ele>943.9</ele>
        <time>2022-10-25T11:10:46Z</time>
      </trkpt>
      <trkpt lat="46.66517" lon="6.06492">
        <ele>943.2</ele>
        <time>2022-10-25T11:10:52Z</time>
      </trkpt>
      <trkpt lat="46.66518" lon="6.06499">
        <ele>942.4</ele>
        <time>2022-10-25T11:10:57Z</time>
      </trkpt>
      <trkpt lat="46.6652" lon="6.06506">
        <ele>941.9</ele>
        <time>2022-10-25T11:11:03Z</time>
      </trkpt>
      <trkpt lat="46.66521" lon="6.06513">
        <ele>941.7</ele>
        <time>2022-10-25T11:11:08Z</time>
      </trkpt>
      <trkpt lat="46.66523" lon="6.06519">
        <ele>941.6</ele>
        <time>2022-10-25T11:11:13Z</time>
      </trkpt>
      <trkpt lat="46.66523" lon="6.06526">
        <ele>941.4</ele>
        <time>2022-10-25T11:11:18Z</time>
      </trkpt>
      <trkpt lat="46.66524" lon="6.06533">
        <ele>941.2</ele>
        <time>2022-10-25T11:11:23Z</time>
      </trkpt>
      <trkpt lat="46.66525" lon="6.0654">
        <ele>941</ele>
        <time>2022-10-25T11:11:28Z</time>
      </trkpt>
      <trkpt lat="46.66525" lon="6.06546">
        <ele>940.7</ele>
        <time>2022-10-25T11:11:33Z</time>
      </trkpt>
      <trkpt lat="46.66526" lon="6.06553">
        <ele>940.1</ele>
        <time>2022-10-25T11:11:38Z</time>
      </trkpt>
      <trkpt lat="46.66526" lon="6.0656">
        <ele>939.8</ele>
        <time>2022-10-25T11:11:43Z</time>
      </trkpt>
      <trkpt lat="46.66526" lon="6.06567">
        <ele>939.5</ele>
        <time>2022-10-25T11:11:48Z</time>
      </trkpt>
      <trkpt lat="46.66527" lon="6.06574">
        <ele>939</ele>
        <time>2022-10-25T11:11:53Z</time>
      </trkpt>
      <trkpt lat="46.66529" lon="6.06582">
        <ele>938.3</ele>
        <time>2022-10-25T11:11:58Z</time>
      </trkpt>
      <trkpt lat="46.6653" lon="6.06588">
        <ele>937.7</ele>
        <time>2022-10-25T11:12:02Z</time>
      </trkpt>
      <trkpt lat="46.66531" lon="6.06595">
        <ele>937.2</ele>
        <time>2022-10-25T11:12:07Z</time>
      </trkpt>
      <trkpt lat="46.66532" lon="6.06603">
        <ele>936.8</ele>
        <time>2022-10-25T11:12:13Z</time>
      </trkpt>
      <trkpt lat="46.66532" lon="6.0661">
        <ele>936.3</ele>
        <time>2022-10-25T11:12:17Z</time>
      </trkpt>
      <trkpt lat="46.66533" lon="6.06617">
        <ele>936.2</ele>
        <time>2022-10-25T11:12:22Z</time>
      </trkpt>
      <trkpt lat="46.66534" lon="6.06625">
        <ele>936.2</ele>
        <time>2022-10-25T11:12:27Z</time>
      </trkpt>
      <trkpt lat="46.66535" lon="6.06633">
        <ele>936.2</ele>
        <time>2022-10-25T11:12:32Z</time>
      </trkpt>
      <trkpt lat="46.66535" lon="6.0664">
        <ele>936.7</ele>
        <time>2022-10-25T11:12:37Z</time>
      </trkpt>
      <trkpt lat="46.66536" lon="6.06647">
        <ele>937.5</ele>
        <time>2022-10-25T11:12:43Z</time>
      </trkpt>
      <trkpt lat="46.66537" lon="6.06655">
        <ele>937.4</ele>
        <time>2022-10-25T11:12:48Z</time>
      </trkpt>
      <trkpt lat="46.6654" lon="6.06661">
        <ele>937.1</ele>
        <time>2022-10-25T11:12:53Z</time>
      </trkpt>
      <trkpt lat="46.66542" lon="6.06668">
        <ele>937.5</ele>
        <time>2022-10-25T11:12:59Z</time>
      </trkpt>
      <trkpt lat="46.66542" lon="6.06676">
        <ele>938.1</ele>
        <time>2022-10-25T11:13:04Z</time>
      </trkpt>
      <trkpt lat="46.66542" lon="6.06683">
        <ele>939.2</ele>
        <time>2022-10-25T11:13:09Z</time>
      </trkpt>
      <trkpt lat="46.66544" lon="6.0669">
        <ele>940.5</ele>
        <time>2022-10-25T11:13:15Z</time>
      </trkpt>
      <trkpt lat="46.66546" lon="6.06696">
        <ele>941.8</ele>
        <time>2022-10-25T11:13:21Z</time>
      </trkpt>
      <trkpt lat="46.66548" lon="6.06703">
        <ele>942.3</ele>
        <time>2022-10-25T11:13:26Z</time>
      </trkpt>
      <trkpt lat="46.6655" lon="6.06709">
        <ele>942.8</ele>
        <time>2022-10-25T11:13:31Z</time>
      </trkpt>
      <trkpt lat="46.66551" lon="6.06716">
        <ele>943.4</ele>
        <time>2022-10-25T11:13:36Z</time>
      </trkpt>
      <trkpt lat="46.66552" lon="6.06724">
        <ele>943.5</ele>
        <time>2022-10-25T11:13:41Z</time>
      </trkpt>
      <trkpt lat="46.66553" lon="6.06731">
        <ele>943.5</ele>
        <time>2022-10-25T11:13:46Z</time>
      </trkpt>
      <trkpt lat="46.66555" lon="6.06738">
        <ele>943.6</ele>
        <time>2022-10-25T11:13:51Z</time>
      </trkpt>
      <trkpt lat="46.66556" lon="6.06745">
        <ele>944.3</ele>
        <time>2022-10-25T11:13:57Z</time>
      </trkpt>
      <trkpt lat="46.66558" lon="6.06752">
        <ele>944.1</ele>
        <time>2022-10-25T11:14:02Z</time>
      </trkpt>
      <trkpt lat="46.6656" lon="6.06759">
        <ele>944.1</ele>
        <time>2022-10-25T11:14:07Z</time>
      </trkpt>
      <trkpt lat="46.66561" lon="6.06766">
        <ele>944</ele>
        <time>2022-10-25T11:14:13Z</time>
      </trkpt>
      <trkpt lat="46.66563" lon="6.06772">
        <ele>944</ele>
        <time>2022-10-25T11:14:18Z</time>
      </trkpt>
      <trkpt lat="46.66564" lon="6.06779">
        <ele>943.1</ele>
        <time>2022-10-25T11:14:23Z</time>
      </trkpt>
      <trkpt lat="46.66566" lon="6.06786">
        <ele>942.2</ele>
        <time>2022-10-25T11:14:28Z</time>
      </trkpt>
      <trkpt lat="46.66568" lon="6.06793">
        <ele>941.5</ele>
        <time>2022-10-25T11:14:33Z</time>
      </trkpt>
      <trkpt lat="46.66571" lon="6.06799">
        <ele>940.6</ele>
        <time>2022-10-25T11:14:38Z</time>
      </trkpt>
      <trkpt lat="46.66573" lon="6.06804">
        <ele>940.2</ele>
        <time>2022-10-25T11:14:42Z</time>
      </trkpt>
      <trkpt lat="46.66575" lon="6.06812">
        <ele>940.1</ele>
        <time>2022-10-25T11:14:47Z</time>
      </trkpt>
      <trkpt lat="46.66577" lon="6.06819">
        <ele>940.5</ele>
        <time>2022-10-25T11:14:52Z</time>
      </trkpt>
      <trkpt lat="46.66579" lon="6.06826">
        <ele>941.2</ele>
        <time>2022-10-25T11:14:57Z</time>
      </trkpt>
      <trkpt lat="46.66582" lon="6.06832">
        <ele>941.8</ele>
        <time>2022-10-25T11:15:02Z</time>
      </trkpt>
      <trkpt lat="46.66582" lon="6.0684">
        <ele>941.8</ele>
        <time>2022-10-25T11:15:07Z</time>
      </trkpt>
      <trkpt lat="46.66583" lon="6.06848">
        <ele>941.3</ele>
        <time>2022-10-25T11:15:12Z</time>
      </trkpt>
      <trkpt lat="46.66585" lon="6.06855">
        <ele>941</ele>
        <time>2022-10-25T11:15:18Z</time>
      </trkpt>
      <trkpt lat="46.66587" lon="6.06862">
        <ele>940.6</ele>
        <time>2022-10-25T11:15:24Z</time>
      </trkpt>
      <trkpt lat="46.66591" lon="6.06867">
        <ele>940.5</ele>
        <time>2022-10-25T11:15:33Z</time>
      </trkpt>
      <trkpt lat="46.66594" lon="6.06873">
        <ele>940.9</ele>
        <time>2022-10-25T11:15:41Z</time>
      </trkpt>
      <trkpt lat="46.66597" lon="6.06879">
        <ele>941.1</ele>
        <time>2022-10-25T11:15:46Z</time>
      </trkpt>
      <trkpt lat="46.666" lon="6.06886">
        <ele>941.4</ele>
        <time>2022-10-25T11:15:51Z</time>
      </trkpt>
      <trkpt lat="46.66603" lon="6.06892">
        <ele>941.4</ele>
        <time>2022-10-25T11:15:55Z</time>
      </trkpt>
      <trkpt lat="46.66604" lon="6.06898">
        <ele>941.8</ele>
        <time>2022-10-25T11:15:59Z</time>
      </trkpt>
      <trkpt lat="46.66606" lon="6.06906">
        <ele>941.8</ele>
        <time>2022-10-25T11:16:04Z</time>
      </trkpt>
      <trkpt lat="46.66608" lon="6.06912">
        <ele>941.8</ele>
        <time>2022-10-25T11:16:08Z</time>
      </trkpt>
      <trkpt lat="46.6661" lon="6.06918">
        <ele>942.3</ele>
        <time>2022-10-25T11:16:12Z</time>
      </trkpt>
      <trkpt lat="46.66612" lon="6.06924">
        <ele>943.1</ele>
        <time>2022-10-25T11:16:16Z</time>
      </trkpt>
      <trkpt lat="46.66615" lon="6.06931">
        <ele>943.9</ele>
        <time>2022-10-25T11:16:21Z</time>
      </trkpt>
      <trkpt lat="46.66616" lon="6.06939">
        <ele>944.4</ele>
        <time>2022-10-25T11:16:26Z</time>
      </trkpt>
      <trkpt lat="46.66618" lon="6.06946">
        <ele>944.5</ele>
        <time>2022-10-25T11:16:31Z</time>
      </trkpt>
      <trkpt lat="46.6662" lon="6.06952">
        <ele>945</ele>
        <time>2022-10-25T11:16:36Z</time>
      </trkpt>
      <trkpt lat="46.66623" lon="6.06958">
        <ele>945.3</ele>
        <time>2022-10-25T11:16:41Z</time>
      </trkpt>
      <trkpt lat="46.66625" lon="6.06964">
        <ele>945.1</ele>
        <time>2022-10-25T11:16:46Z</time>
      </trkpt>
      <trkpt lat="46.66627" lon="6.06971">
        <ele>945.1</ele>
        <time>2022-10-25T11:16:51Z</time>
      </trkpt>
      <trkpt lat="46.66629" lon="6.06977">
        <ele>945</ele>
        <time>2022-10-25T11:16:55Z</time>
      </trkpt>
      <trkpt lat="46.66632" lon="6.06983">
        <ele>945.3</ele>
        <time>2022-10-25T11:17:00Z</time>
      </trkpt>
      <trkpt lat="46.66635" lon="6.0699">
        <ele>946</ele>
        <time>2022-10-25T11:17:05Z</time>
      </trkpt>
      <trkpt lat="46.66637" lon="6.06996">
        <ele>946.7</ele>
        <time>2022-10-25T11:17:10Z</time>
      </trkpt>
      <trkpt lat="46.66641" lon="6.07001">
        <ele>947</ele>
        <time>2022-10-25T11:17:15Z</time>
      </trkpt>
      <trkpt lat="46.66645" lon="6.07006">
        <ele>947.1</ele>
        <time>2022-10-25T11:17:20Z</time>
      </trkpt>
      <trkpt lat="46.66649" lon="6.07011">
        <ele>946.8</ele>
        <time>2022-10-25T11:17:25Z</time>
      </trkpt>
      <trkpt lat="46.66653" lon="6.07014">
        <ele>946.1</ele>
        <time>2022-10-25T11:17:30Z</time>
      </trkpt>
      <trkpt lat="46.66655" lon="6.0702">
        <ele>945.1</ele>
        <time>2022-10-25T11:17:35Z</time>
      </trkpt>
      <trkpt lat="46.66657" lon="6.07026">
        <ele>944.7</ele>
        <time>2022-10-25T11:17:40Z</time>
      </trkpt>
      <trkpt lat="46.66659" lon="6.07034">
        <ele>945</ele>
        <time>2022-10-25T11:17:45Z</time>
      </trkpt>
      <trkpt lat="46.66661" lon="6.07041">
        <ele>945.4</ele>
        <time>2022-10-25T11:17:51Z</time>
      </trkpt>
      <trkpt lat="46.66664" lon="6.07047">
        <ele>944.8</ele>
        <time>2022-10-25T11:17:56Z</time>
      </trkpt>
      <trkpt lat="46.66667" lon="6.07052">
        <ele>943.8</ele>
        <time>2022-10-25T11:18:01Z</time>
      </trkpt>
      <trkpt lat="46.66669" lon="6.07059">
        <ele>943.2</ele>
        <time>2022-10-25T11:18:06Z</time>
      </trkpt>
      <trkpt lat="46.66671" lon="6.07067">
        <ele>942.8</ele>
        <time>2022-10-25T11:18:11Z</time>
      </trkpt>
      <trkpt lat="46.66673" lon="6.07074">
        <ele>942.7</ele>
        <time>2022-10-25T11:18:16Z</time>
      </trkpt>
      <trkpt lat="46.66675" lon="6.07082">
        <ele>943</ele>
        <time>2022-10-25T11:18:21Z</time>
      </trkpt>
      <trkpt lat="46.66677" lon="6.07089">
        <ele>943.5</ele>
        <time>2022-10-25T11:18:27Z</time>
      </trkpt>
      <trkpt lat="46.66678" lon="6.07096">
        <ele>943.8</ele>
        <time>2022-10-25T11:18:32Z</time>
      </trkpt>
      <trkpt lat="46.66681" lon="6.07102">
        <ele>944</ele>
        <time>2022-10-25T11:18:38Z</time>
      </trkpt>
      <trkpt lat="46.66681" lon="6.0711">
        <ele>944.9</ele>
        <time>2022-10-25T11:18:58Z</time>
      </trkpt>
      <trkpt lat="46.66684" lon="6.07116">
        <ele>944.5</ele>
        <time>2022-10-25T11:19:01Z</time>
      </trkpt>
      <trkpt lat="46.66685" lon="6.07122">
        <ele>944.1</ele>
        <time>2022-10-25T11:19:04Z</time>
      </trkpt>
      <trkpt lat="46.66688" lon="6.07129">
        <ele>944.2</ele>
        <time>2022-10-25T11:19:08Z</time>
      </trkpt>
      <trkpt lat="46.6669" lon="6.07137">
        <ele>944.4</ele>
        <time>2022-10-25T11:19:12Z</time>
      </trkpt>
      <trkpt lat="46.66692" lon="6.07144">
        <ele>944.4</ele>
        <time>2022-10-25T11:19:16Z</time>
      </trkpt>
      <trkpt lat="46.66695" lon="6.07151">
        <ele>944.6</ele>
        <time>2022-10-25T11:19:20Z</time>
      </trkpt>
      <trkpt lat="46.66698" lon="6.07159">
        <ele>944.5</ele>
        <time>2022-10-25T11:19:24Z</time>
      </trkpt>
      <trkpt lat="46.667" lon="6.07165">
        <ele>944.2</ele>
        <time>2022-10-25T11:19:28Z</time>
      </trkpt>
      <trkpt lat="46.66701" lon="6.07171">
        <ele>943.5</ele>
        <time>2022-10-25T11:19:32Z</time>
      </trkpt>
      <trkpt lat="46.66703" lon="6.07178">
        <ele>942.8</ele>
        <time>2022-10-25T11:19:36Z</time>
      </trkpt>
      <trkpt lat="46.66706" lon="6.07184">
        <ele>942.1</ele>
        <time>2022-10-25T11:19:40Z</time>
      </trkpt>
      <trkpt lat="46.66708" lon="6.0719">
        <ele>941.3</ele>
        <time>2022-10-25T11:19:44Z</time>
      </trkpt>
      <trkpt lat="46.6671" lon="6.07196">
        <ele>941</ele>
        <time>2022-10-25T11:19:48Z</time>
      </trkpt>
      <trkpt lat="46.66712" lon="6.07202">
        <ele>940.8</ele>
        <time>2022-10-25T11:19:52Z</time>
      </trkpt>
      <trkpt lat="46.66714" lon="6.07209">
        <ele>941.3</ele>
        <time>2022-10-25T11:19:56Z</time>
      </trkpt>
      <trkpt lat="46.66717" lon="6.07214">
        <ele>941.7</ele>
        <time>2022-10-25T11:20:00Z</time>
      </trkpt>
      <trkpt lat="46.66719" lon="6.0722">
        <ele>942.2</ele>
        <time>2022-10-25T11:20:04Z</time>
      </trkpt>
      <trkpt lat="46.66722" lon="6.07227">
        <ele>942.7</ele>
        <time>2022-10-25T11:20:09Z</time>
      </trkpt>
      <trkpt lat="46.66725" lon="6.07234">
        <ele>943.3</ele>
        <time>2022-10-25T11:20:14Z</time>
      </trkpt>
      <trkpt lat="46.66728" lon="6.0724">
        <ele>943.8</ele>
        <time>2022-10-25T11:20:19Z</time>
      </trkpt>
      <trkpt lat="46.66731" lon="6.07245">
        <ele>944.2</ele>
        <time>2022-10-25T11:20:24Z</time>
      </trkpt>
      <trkpt lat="46.66733" lon="6.07252">
        <ele>944.6</ele>
        <time>2022-10-25T11:20:30Z</time>
      </trkpt>
      <trkpt lat="46.66736" lon="6.07258">
        <ele>944.7</ele>
        <time>2022-10-25T11:20:36Z</time>
      </trkpt>
      <trkpt lat="46.66738" lon="6.07265">
        <ele>944.8</ele>
        <time>2022-10-25T11:20:42Z</time>
      </trkpt>
      <trkpt lat="46.6674" lon="6.07271">
        <ele>945</ele>
        <time>2022-10-25T11:20:47Z</time>
      </trkpt>
      <trkpt lat="46.66743" lon="6.07277">
        <ele>944.8</ele>
        <time>2022-10-25T11:20:52Z</time>
      </trkpt>
      <trkpt lat="46.66745" lon="6.07283">
        <ele>944.6</ele>
        <time>2022-10-25T11:20:56Z</time>
      </trkpt>
      <trkpt lat="46.66747" lon="6.07289">
        <ele>944.3</ele>
        <time>2022-10-25T11:21:01Z</time>
      </trkpt>
      <trkpt lat="46.6675" lon="6.07295">
        <ele>943.8</ele>
        <time>2022-10-25T11:21:06Z</time>
      </trkpt>
      <trkpt lat="46.66752" lon="6.07301">
        <ele>943.1</ele>
        <time>2022-10-25T11:21:11Z</time>
      </trkpt>
      <trkpt lat="46.66753" lon="6.07307">
        <ele>942.5</ele>
        <time>2022-10-25T11:21:16Z</time>
      </trkpt>
      <trkpt lat="46.66755" lon="6.07314">
        <ele>942.2</ele>
        <time>2022-10-25T11:21:22Z</time>
      </trkpt>
      <trkpt lat="46.66757" lon="6.0732">
        <ele>942.2</ele>
        <time>2022-10-25T11:21:27Z</time>
      </trkpt>
      <trkpt lat="46.66759" lon="6.07326">
        <ele>941.8</ele>
        <time>2022-10-25T11:21:33Z</time>
      </trkpt>
      <trkpt lat="46.66761" lon="6.07332">
        <ele>941</ele>
        <time>2022-10-25T11:21:38Z</time>
      </trkpt>
      <trkpt lat="46.66764" lon="6.07338">
        <ele>939.3</ele>
        <time>2022-10-25T11:21:44Z</time>
      </trkpt>
      <trkpt lat="46.66765" lon="6.07344">
        <ele>938.1</ele>
        <time>2022-10-25T11:21:50Z</time>
      </trkpt>
      <trkpt lat="46.66767" lon="6.07351">
        <ele>937.5</ele>
        <time>2022-10-25T11:21:56Z</time>
      </trkpt>
      <trkpt lat="46.6677" lon="6.07356">
        <ele>937.3</ele>
        <time>2022-10-25T11:22:02Z</time>
      </trkpt>
      <trkpt lat="46.66774" lon="6.07359">
        <ele>936.4</ele>
        <time>2022-10-25T11:22:11Z</time>
      </trkpt>
      <trkpt lat="46.66778" lon="6.07365">
        <ele>936.9</ele>
        <time>2022-10-25T11:22:35Z</time>
      </trkpt>
      <trkpt lat="46.66778" lon="6.07372">
        <ele>939.9</ele>
        <time>2022-10-25T11:22:58Z</time>
      </trkpt>
      <trkpt lat="46.6678" lon="6.07378">
        <ele>939</ele>
        <time>2022-10-25T11:23:03Z</time>
      </trkpt>
      <trkpt lat="46.66783" lon="6.07383">
        <ele>937.5</ele>
        <time>2022-10-25T11:23:09Z</time>
      </trkpt>
      <trkpt lat="46.66787" lon="6.07387">
        <ele>936.1</ele>
        <time>2022-10-25T11:23:20Z</time>
      </trkpt>
      <trkpt lat="46.6679" lon="6.07393">
        <ele>936.1</ele>
        <time>2022-10-25T11:23:25Z</time>
      </trkpt>
      <trkpt lat="46.66792" lon="6.07399">
        <ele>935.8</ele>
        <time>2022-10-25T11:23:30Z</time>
      </trkpt>
      <trkpt lat="46.66794" lon="6.07405">
        <ele>934.9</ele>
        <time>2022-10-25T11:23:36Z</time>
      </trkpt>
      <trkpt lat="46.66798" lon="6.0741">
        <ele>933.3</ele>
        <time>2022-10-25T11:23:44Z</time>
      </trkpt>
      <trkpt lat="46.668" lon="6.07416">
        <ele>931.5</ele>
        <time>2022-10-25T11:23:52Z</time>
      </trkpt>
      <trkpt lat="46.66802" lon="6.07424">
        <ele>929.9</ele>
        <time>2022-10-25T11:23:59Z</time>
      </trkpt>
      <trkpt lat="46.66802" lon="6.07431">
        <ele>928.8</ele>
        <time>2022-10-25T11:24:05Z</time>
      </trkpt>
      <trkpt lat="46.66804" lon="6.07438">
        <ele>927</ele>
        <time>2022-10-25T11:24:14Z</time>
      </trkpt>
      <trkpt lat="46.66804" lon="6.07445">
        <ele>925.6</ele>
        <time>2022-10-25T11:24:22Z</time>
      </trkpt>
      <trkpt lat="46.66805" lon="6.07452">
        <ele>924.6</ele>
        <time>2022-10-25T11:24:31Z</time>
      </trkpt>
      <trkpt lat="46.66803" lon="6.07459">
        <ele>924.4</ele>
        <time>2022-10-25T11:24:44Z</time>
      </trkpt>
      <trkpt lat="46.66799" lon="6.07464">
        <ele>923.3</ele>
        <time>2022-10-25T11:24:51Z</time>
      </trkpt>
      <trkpt lat="46.66799" lon="6.07471">
        <ele>920.9</ele>
        <time>2022-10-25T11:24:57Z</time>
      </trkpt>
      <trkpt lat="46.66801" lon="6.07477">
        <ele>919.1</ele>
        <time>2022-10-25T11:25:02Z</time>
      </trkpt>
      <trkpt lat="46.66805" lon="6.07481">
        <ele>916.7</ele>
        <time>2022-10-25T11:25:09Z</time>
      </trkpt>
      <trkpt lat="46.66808" lon="6.07486">
        <ele>914.7</ele>
        <time>2022-10-25T11:25:15Z</time>
      </trkpt>
      <trkpt lat="46.6681" lon="6.07493">
        <ele>912.7</ele>
        <time>2022-10-25T11:25:21Z</time>
      </trkpt>
      <trkpt lat="46.66814" lon="6.07497">
        <ele>910.9</ele>
        <time>2022-10-25T11:25:27Z</time>
      </trkpt>
      <trkpt lat="46.66816" lon="6.07503">
        <ele>909.9</ele>
        <time>2022-10-25T11:25:32Z</time>
      </trkpt>
      <trkpt lat="46.66817" lon="6.0751">
        <ele>909.1</ele>
        <time>2022-10-25T11:25:37Z</time>
      </trkpt>
      <trkpt lat="46.6682" lon="6.07517">
        <ele>908.1</ele>
        <time>2022-10-25T11:25:44Z</time>
      </trkpt>
      <trkpt lat="46.66823" lon="6.07522">
        <ele>906.9</ele>
        <time>2022-10-25T11:25:50Z</time>
      </trkpt>
      <trkpt lat="46.66826" lon="6.07528">
        <ele>905.8</ele>
        <time>2022-10-25T11:25:57Z</time>
      </trkpt>
      <trkpt lat="46.66825" lon="6.07534">
        <ele>905</ele>
        <time>2022-10-25T11:26:02Z</time>
      </trkpt>
      <trkpt lat="46.66824" lon="6.07542">
        <ele>904.9</ele>
        <time>2022-10-25T11:26:07Z</time>
      </trkpt>
      <trkpt lat="46.66823" lon="6.0755">
        <ele>904.5</ele>
        <time>2022-10-25T11:26:12Z</time>
      </trkpt>
      <trkpt lat="46.66822" lon="6.07556">
        <ele>904.2</ele>
        <time>2022-10-25T11:26:16Z</time>
      </trkpt>
      <trkpt lat="46.6682" lon="6.07563">
        <ele>903.7</ele>
        <time>2022-10-25T11:26:21Z</time>
      </trkpt>
      <trkpt lat="46.66817" lon="6.07568">
        <ele>903.1</ele>
        <time>2022-10-25T11:26:28Z</time>
      </trkpt>
      <trkpt lat="46.6682" lon="6.07575">
        <ele>901.3</ele>
        <time>2022-10-25T11:26:50Z</time>
      </trkpt>
      <trkpt lat="46.66823" lon="6.07581">
        <ele>900.7</ele>
        <time>2022-10-25T11:26:55Z</time>
      </trkpt>
      <trkpt lat="46.66828" lon="6.07585">
        <ele>900.4</ele>
        <time>2022-10-25T11:26:59Z</time>
      </trkpt>
      <trkpt lat="46.66833" lon="6.07588">
        <ele>900.2</ele>
        <time>2022-10-25T11:27:03Z</time>
      </trkpt>
      <trkpt lat="46.66836" lon="6.07593">
        <ele>900.2</ele>
        <time>2022-10-25T11:27:08Z</time>
      </trkpt>
      <trkpt lat="46.6684" lon="6.07597">
        <ele>900.1</ele>
        <time>2022-10-25T11:27:13Z</time>
      </trkpt>
      <trkpt lat="46.66844" lon="6.07602">
        <ele>899.9</ele>
        <time>2022-10-25T11:27:18Z</time>
      </trkpt>
      <trkpt lat="46.66847" lon="6.07607">
        <ele>899.7</ele>
        <time>2022-10-25T11:27:24Z</time>
      </trkpt>
      <trkpt lat="46.66852" lon="6.0761">
        <ele>900</ele>
        <time>2022-10-25T11:27:29Z</time>
      </trkpt>
      <trkpt lat="46.66856" lon="6.07615">
        <ele>900.7</ele>
        <time>2022-10-25T11:27:34Z</time>
      </trkpt>
      <trkpt lat="46.66859" lon="6.0762">
        <ele>901.4</ele>
        <time>2022-10-25T11:27:39Z</time>
      </trkpt>
      <trkpt lat="46.66862" lon="6.07624">
        <ele>902.3</ele>
        <time>2022-10-25T11:27:44Z</time>
      </trkpt>
      <trkpt lat="46.66865" lon="6.0763">
        <ele>903.5</ele>
        <time>2022-10-25T11:27:50Z</time>
      </trkpt>
      <trkpt lat="46.66868" lon="6.07635">
        <ele>904.3</ele>
        <time>2022-10-25T11:27:57Z</time>
      </trkpt>
      <trkpt lat="46.66873" lon="6.07638">
        <ele>903.9</ele>
        <time>2022-10-25T11:28:04Z</time>
      </trkpt>
      <trkpt lat="46.66878" lon="6.0764">
        <ele>903.3</ele>
        <time>2022-10-25T11:28:11Z</time>
      </trkpt>
      <trkpt lat="46.66882" lon="6.07643">
        <ele>903</ele>
        <time>2022-10-25T11:28:17Z</time>
      </trkpt>
      <trkpt lat="46.66885" lon="6.07648">
        <ele>902.7</ele>
        <time>2022-10-25T11:28:23Z</time>
      </trkpt>
      <trkpt lat="46.66888" lon="6.07654">
        <ele>902.9</ele>
        <time>2022-10-25T11:28:29Z</time>
      </trkpt>
      <trkpt lat="46.6689" lon="6.07661">
        <ele>902.9</ele>
        <time>2022-10-25T11:28:36Z</time>
      </trkpt>
      <trkpt lat="46.66894" lon="6.07665">
        <ele>903.2</ele>
        <time>2022-10-25T11:28:42Z</time>
      </trkpt>
      <trkpt lat="46.66898" lon="6.07668">
        <ele>903.2</ele>
        <time>2022-10-25T11:28:46Z</time>
      </trkpt>
      <trkpt lat="46.66902" lon="6.07673">
        <ele>902.6</ele>
        <time>2022-10-25T11:28:51Z</time>
      </trkpt>
      <trkpt lat="46.66907" lon="6.07677">
        <ele>901.9</ele>
        <time>2022-10-25T11:28:57Z</time>
      </trkpt>
      <trkpt lat="46.66912" lon="6.07679">
        <ele>903.2</ele>
        <time>2022-10-25T11:29:09Z</time>
      </trkpt>
      <trkpt lat="46.66908" lon="6.07682">
        <ele>901.5</ele>
        <time>2022-10-25T11:31:14Z</time>
      </trkpt>
      <trkpt lat="46.66912" lon="6.07683">
        <ele>900.8</ele>
        <time>2022-10-25T11:31:33Z</time>
      </trkpt>
      <trkpt lat="46.6692" lon="6.07684">
        <ele>900.9</ele>
        <time>2022-10-25T11:31:36Z</time>
      </trkpt>
      <trkpt lat="46.66926" lon="6.07684">
        <ele>901.7</ele>
        <time>2022-10-25T11:31:47Z</time>
      </trkpt>
      <trkpt lat="46.66931" lon="6.07685">
        <ele>902.2</ele>
        <time>2022-10-25T11:31:50Z</time>
      </trkpt>
      <trkpt lat="46.66925" lon="6.07684">
        <ele>901.7</ele>
        <time>2022-10-25T11:32:17Z</time>
      </trkpt>
      <trkpt lat="46.6692" lon="6.07683">
        <ele>901</ele>
        <time>2022-10-25T11:32:20Z</time>
      </trkpt>
      <trkpt lat="46.66916" lon="6.07687">
        <ele>904.5</ele>
        <time>2022-10-25T11:33:24Z</time>
      </trkpt>
      <trkpt lat="46.66921" lon="6.07685">
        <ele>906.4</ele>
        <time>2022-10-25T11:33:51Z</time>
      </trkpt>
      <trkpt lat="46.66921" lon="6.07678">
        <ele>902.5</ele>
        <time>2022-10-25T11:34:42Z</time>
      </trkpt>
      <trkpt lat="46.66918" lon="6.07683">
        <ele>897.5</ele>
        <time>2022-10-25T11:34:57Z</time>
      </trkpt>
      <trkpt lat="46.66922" lon="6.07679">
        <ele>902.7</ele>
        <time>2022-10-25T11:37:47Z</time>
      </trkpt>
      <trkpt lat="46.66918" lon="6.07683">
        <ele>902.5</ele>
        <time>2022-10-25T11:38:14Z</time>
      </trkpt>
      <trkpt lat="46.66913" lon="6.07686">
        <ele>905.9</ele>
        <time>2022-10-25T11:41:39Z</time>
      </trkpt>
      <trkpt lat="46.66912" lon="6.0768">
        <ele>903.8</ele>
        <time>2022-10-25T11:42:30Z</time>
      </trkpt>
      <trkpt lat="46.66908" lon="6.07676">
        <ele>904.9</ele>
        <time>2022-10-25T11:42:38Z</time>
      </trkpt>
      <trkpt lat="46.66904" lon="6.07673">
        <ele>904.7</ele>
        <time>2022-10-25T11:42:44Z</time>
      </trkpt>
      <trkpt lat="46.66901" lon="6.07667">
        <ele>903.4</ele>
        <time>2022-10-25T11:42:50Z</time>
      </trkpt>
      <trkpt lat="46.66897" lon="6.07663">
        <ele>901.1</ele>
        <time>2022-10-25T11:42:57Z</time>
      </trkpt>
      <trkpt lat="46.66892" lon="6.0766">
        <ele>900.2</ele>
        <time>2022-10-25T11:43:02Z</time>
      </trkpt>
      <trkpt lat="46.6689" lon="6.07654">
        <ele>900.1</ele>
        <time>2022-10-25T11:43:07Z</time>
      </trkpt>
      <trkpt lat="46.66886" lon="6.0765">
        <ele>900.2</ele>
        <time>2022-10-25T11:43:12Z</time>
      </trkpt>
      <trkpt lat="46.66882" lon="6.07646">
        <ele>900.8</ele>
        <time>2022-10-25T11:43:17Z</time>
      </trkpt>
      <trkpt lat="46.66878" lon="6.07642">
        <ele>901</ele>
        <time>2022-10-25T11:43:22Z</time>
      </trkpt>
      <trkpt lat="46.66873" lon="6.07639">
        <ele>901.1</ele>
        <time>2022-10-25T11:43:28Z</time>
      </trkpt>
      <trkpt lat="46.66868" lon="6.07636">
        <ele>901.2</ele>
        <time>2022-10-25T11:43:34Z</time>
      </trkpt>
      <trkpt lat="46.66864" lon="6.07632">
        <ele>901.3</ele>
        <time>2022-10-25T11:43:39Z</time>
      </trkpt>
      <trkpt lat="46.66861" lon="6.07627">
        <ele>901.6</ele>
        <time>2022-10-25T11:43:44Z</time>
      </trkpt>
      <trkpt lat="46.66857" lon="6.07621">
        <ele>900.8</ele>
        <time>2022-10-25T11:43:50Z</time>
      </trkpt>
      <trkpt lat="46.66854" lon="6.07615">
        <ele>900.1</ele>
        <time>2022-10-25T11:43:56Z</time>
      </trkpt>
      <trkpt lat="46.66851" lon="6.0761">
        <ele>899.8</ele>
        <time>2022-10-25T11:44:02Z</time>
      </trkpt>
      <trkpt lat="46.66848" lon="6.07603">
        <ele>899.9</ele>
        <time>2022-10-25T11:44:08Z</time>
      </trkpt>
      <trkpt lat="46.66844" lon="6.07598">
        <ele>900.2</ele>
        <time>2022-10-25T11:44:14Z</time>
      </trkpt>
      <trkpt lat="46.6684" lon="6.07595">
        <ele>900.2</ele>
        <time>2022-10-25T11:44:18Z</time>
      </trkpt>
      <trkpt lat="46.66836" lon="6.07591">
        <ele>900.4</ele>
        <time>2022-10-25T11:44:22Z</time>
      </trkpt>
      <trkpt lat="46.66832" lon="6.07587">
        <ele>900.7</ele>
        <time>2022-10-25T11:44:27Z</time>
      </trkpt>
      <trkpt lat="46.66828" lon="6.07585">
        <ele>901.4</ele>
        <time>2022-10-25T11:44:32Z</time>
      </trkpt>
      <trkpt lat="46.66824" lon="6.07582">
        <ele>901.9</ele>
        <time>2022-10-25T11:44:42Z</time>
      </trkpt>
      <trkpt lat="46.6682" lon="6.07577">
        <ele>901.7</ele>
        <time>2022-10-25T11:44:46Z</time>
      </trkpt>
      <trkpt lat="46.66819" lon="6.07571">
        <ele>900.9</ele>
        <time>2022-10-25T11:44:55Z</time>
      </trkpt>
      <trkpt lat="46.66819" lon="6.07563">
        <ele>899.9</ele>
        <time>2022-10-25T11:45:06Z</time>
      </trkpt>
      <trkpt lat="46.6682" lon="6.07557">
        <ele>900.3</ele>
        <time>2022-10-25T11:45:15Z</time>
      </trkpt>
      <trkpt lat="46.66824" lon="6.07554">
        <ele>900.9</ele>
        <time>2022-10-25T11:45:21Z</time>
      </trkpt>
      <trkpt lat="46.66825" lon="6.07547">
        <ele>900.4</ele>
        <time>2022-10-25T11:45:30Z</time>
      </trkpt>
      <trkpt lat="46.66825" lon="6.0754">
        <ele>901.1</ele>
        <time>2022-10-25T11:45:42Z</time>
      </trkpt>
      <trkpt lat="46.66825" lon="6.07533">
        <ele>901.3</ele>
        <time>2022-10-25T11:45:50Z</time>
      </trkpt>
      <trkpt lat="46.66826" lon="6.07525">
        <ele>901.7</ele>
        <time>2022-10-25T11:46:00Z</time>
      </trkpt>
      <trkpt lat="46.66823" lon="6.0752">
        <ele>901.7</ele>
        <time>2022-10-25T11:46:05Z</time>
      </trkpt>
      <trkpt lat="46.66821" lon="6.07514">
        <ele>901.5</ele>
        <time>2022-10-25T11:46:11Z</time>
      </trkpt>
      <trkpt lat="46.66819" lon="6.07507">
        <ele>902.1</ele>
        <time>2022-10-25T11:46:18Z</time>
      </trkpt>
      <trkpt lat="46.66817" lon="6.07501">
        <ele>902.2</ele>
        <time>2022-10-25T11:46:28Z</time>
      </trkpt>
      <trkpt lat="46.66816" lon="6.07494">
        <ele>903</ele>
        <time>2022-10-25T11:46:36Z</time>
      </trkpt>
      <trkpt lat="46.66814" lon="6.07488">
        <ele>905.1</ele>
        <time>2022-10-25T11:46:45Z</time>
      </trkpt>
      <trkpt lat="46.66811" lon="6.07482">
        <ele>907.1</ele>
        <time>2022-10-25T11:46:57Z</time>
      </trkpt>
      <trkpt lat="46.66807" lon="6.07477">
        <ele>907</ele>
        <time>2022-10-25T11:47:03Z</time>
      </trkpt>
      <trkpt lat="46.66804" lon="6.07471">
        <ele>907.1</ele>
        <time>2022-10-25T11:47:08Z</time>
      </trkpt>
      <trkpt lat="46.66801" lon="6.07465">
        <ele>907.7</ele>
        <time>2022-10-25T11:47:15Z</time>
      </trkpt>
      <trkpt lat="46.668" lon="6.07459">
        <ele>908.6</ele>
        <time>2022-10-25T11:47:23Z</time>
      </trkpt>
      <trkpt lat="46.66802" lon="6.07453">
        <ele>910.2</ele>
        <time>2022-10-25T11:47:37Z</time>
      </trkpt>
      <trkpt lat="46.66805" lon="6.07447">
        <ele>912.8</ele>
        <time>2022-10-25T11:47:52Z</time>
      </trkpt>
      <trkpt lat="46.66804" lon="6.0744">
        <ele>914</ele>
        <time>2022-10-25T11:48:11Z</time>
      </trkpt>
      <trkpt lat="46.66804" lon="6.07433">
        <ele>916.7</ele>
        <time>2022-10-25T11:48:24Z</time>
      </trkpt>
      <trkpt lat="46.66803" lon="6.07426">
        <ele>918.5</ele>
        <time>2022-10-25T11:48:34Z</time>
      </trkpt>
      <trkpt lat="46.66802" lon="6.07419">
        <ele>919.4</ele>
        <time>2022-10-25T11:48:42Z</time>
      </trkpt>
      <trkpt lat="46.668" lon="6.07412">
        <ele>920.5</ele>
        <time>2022-10-25T11:48:49Z</time>
      </trkpt>
      <trkpt lat="46.66798" lon="6.07405">
        <ele>922.4</ele>
        <time>2022-10-25T11:48:57Z</time>
      </trkpt>
      <trkpt lat="46.66795" lon="6.074">
        <ele>924.7</ele>
        <time>2022-10-25T11:49:03Z</time>
      </trkpt>
      <trkpt lat="46.66792" lon="6.07394">
        <ele>926.3</ele>
        <time>2022-10-25T11:49:08Z</time>
      </trkpt>
      <trkpt lat="46.6679" lon="6.07389">
        <ele>927.3</ele>
        <time>2022-10-25T11:49:14Z</time>
      </trkpt>
      <trkpt lat="46.66787" lon="6.07383">
        <ele>928.4</ele>
        <time>2022-10-25T11:49:22Z</time>
      </trkpt>
      <trkpt lat="46.66785" lon="6.07376">
        <ele>929.7</ele>
        <time>2022-10-25T11:49:29Z</time>
      </trkpt>
      <trkpt lat="46.66782" lon="6.0737">
        <ele>930.1</ele>
        <time>2022-10-25T11:49:36Z</time>
      </trkpt>
      <trkpt lat="46.66779" lon="6.07364">
        <ele>930.3</ele>
        <time>2022-10-25T11:49:41Z</time>
      </trkpt>
      <trkpt lat="46.66775" lon="6.07361">
        <ele>938.1</ele>
        <time>2022-10-25T11:51:36Z</time>
      </trkpt>
      <trkpt lat="46.66771" lon="6.07356">
        <ele>940.1</ele>
        <time>2022-10-25T11:51:44Z</time>
      </trkpt>
      <trkpt lat="46.66769" lon="6.0735">
        <ele>940.5</ele>
        <time>2022-10-25T11:51:51Z</time>
      </trkpt>
      <trkpt lat="46.66766" lon="6.07344">
        <ele>940.4</ele>
        <time>2022-10-25T11:51:57Z</time>
      </trkpt>
      <trkpt lat="46.66763" lon="6.07338">
        <ele>940.3</ele>
        <time>2022-10-25T11:52:03Z</time>
      </trkpt>
      <trkpt lat="46.66761" lon="6.07332">
        <ele>940.2</ele>
        <time>2022-10-25T11:52:09Z</time>
      </trkpt>
      <trkpt lat="46.6676" lon="6.07325">
        <ele>939.4</ele>
        <time>2022-10-25T11:52:16Z</time>
      </trkpt>
      <trkpt lat="46.66759" lon="6.07318">
        <ele>938.1</ele>
        <time>2022-10-25T11:52:22Z</time>
      </trkpt>
      <trkpt lat="46.66757" lon="6.07311">
        <ele>937.2</ele>
        <time>2022-10-25T11:52:28Z</time>
      </trkpt>
      <trkpt lat="46.66755" lon="6.07304">
        <ele>936.8</ele>
        <time>2022-10-25T11:52:33Z</time>
      </trkpt>
      <trkpt lat="46.66753" lon="6.07296">
        <ele>936.9</ele>
        <time>2022-10-25T11:52:39Z</time>
      </trkpt>
      <trkpt lat="46.6675" lon="6.0729">
        <ele>937.7</ele>
        <time>2022-10-25T11:52:44Z</time>
      </trkpt>
      <trkpt lat="46.66747" lon="6.07283">
        <ele>938.7</ele>
        <time>2022-10-25T11:52:50Z</time>
      </trkpt>
      <trkpt lat="46.66744" lon="6.07278">
        <ele>939.6</ele>
        <time>2022-10-25T11:52:56Z</time>
      </trkpt>
      <trkpt lat="46.66742" lon="6.07272">
        <ele>940.5</ele>
        <time>2022-10-25T11:53:01Z</time>
      </trkpt>
      <trkpt lat="46.6674" lon="6.07265">
        <ele>941.6</ele>
        <time>2022-10-25T11:53:06Z</time>
      </trkpt>
      <trkpt lat="46.66739" lon="6.07258">
        <ele>943</ele>
        <time>2022-10-25T11:53:12Z</time>
      </trkpt>
      <trkpt lat="46.66737" lon="6.07252">
        <ele>943.9</ele>
        <time>2022-10-25T11:53:17Z</time>
      </trkpt>
      <trkpt lat="46.66734" lon="6.07245">
        <ele>944.2</ele>
        <time>2022-10-25T11:53:22Z</time>
      </trkpt>
      <trkpt lat="46.66732" lon="6.07239">
        <ele>944</ele>
        <time>2022-10-25T11:53:27Z</time>
      </trkpt>
      <trkpt lat="46.66729" lon="6.07234">
        <ele>944.2</ele>
        <time>2022-10-25T11:53:32Z</time>
      </trkpt>
      <trkpt lat="46.66726" lon="6.07227">
        <ele>944.2</ele>
        <time>2022-10-25T11:53:37Z</time>
      </trkpt>
      <trkpt lat="46.66722" lon="6.07222">
        <ele>944.2</ele>
        <time>2022-10-25T11:53:42Z</time>
      </trkpt>
      <trkpt lat="46.6672" lon="6.07216">
        <ele>944.2</ele>
        <time>2022-10-25T11:53:48Z</time>
      </trkpt>
      <trkpt lat="46.66718" lon="6.07209">
        <ele>944.4</ele>
        <time>2022-10-25T11:53:53Z</time>
      </trkpt>
      <trkpt lat="46.66715" lon="6.07203">
        <ele>944.8</ele>
        <time>2022-10-25T11:53:58Z</time>
      </trkpt>
      <trkpt lat="46.66714" lon="6.07197">
        <ele>945</ele>
        <time>2022-10-25T11:54:04Z</time>
      </trkpt>
      <trkpt lat="46.66711" lon="6.0719">
        <ele>944.7</ele>
        <time>2022-10-25T11:54:09Z</time>
      </trkpt>
      <trkpt lat="46.66709" lon="6.07183">
        <ele>944.2</ele>
        <time>2022-10-25T11:54:14Z</time>
      </trkpt>
      <trkpt lat="46.66707" lon="6.07177">
        <ele>943.2</ele>
        <time>2022-10-25T11:54:19Z</time>
      </trkpt>
      <trkpt lat="46.66705" lon="6.07171">
        <ele>942.6</ele>
        <time>2022-10-25T11:54:24Z</time>
      </trkpt>
      <trkpt lat="46.66702" lon="6.07164">
        <ele>942.7</ele>
        <time>2022-10-25T11:54:29Z</time>
      </trkpt>
      <trkpt lat="46.667" lon="6.07157">
        <ele>942.8</ele>
        <time>2022-10-25T11:54:34Z</time>
      </trkpt>
      <trkpt lat="46.66698" lon="6.0715">
        <ele>942.6</ele>
        <time>2022-10-25T11:54:40Z</time>
      </trkpt>
      <trkpt lat="46.66696" lon="6.07144">
        <ele>943.5</ele>
        <time>2022-10-25T11:54:47Z</time>
      </trkpt>
      <trkpt lat="46.66692" lon="6.0714">
        <ele>944.8</ele>
        <time>2022-10-25T11:54:57Z</time>
      </trkpt>
      <trkpt lat="46.66689" lon="6.07134">
        <ele>945.6</ele>
        <time>2022-10-25T11:55:05Z</time>
      </trkpt>
      <trkpt lat="46.66686" lon="6.07127">
        <ele>945.7</ele>
        <time>2022-10-25T11:55:10Z</time>
      </trkpt>
      <trkpt lat="46.66683" lon="6.07122">
        <ele>944.9</ele>
        <time>2022-10-25T11:55:16Z</time>
      </trkpt>
      <trkpt lat="46.66682" lon="6.07115">
        <ele>942.9</ele>
        <time>2022-10-25T11:55:27Z</time>
      </trkpt>
      <trkpt lat="46.66681" lon="6.07107">
        <ele>942.7</ele>
        <time>2022-10-25T11:55:31Z</time>
      </trkpt>
      <trkpt lat="46.6668" lon="6.071">
        <ele>942.9</ele>
        <time>2022-10-25T11:55:35Z</time>
      </trkpt>
      <trkpt lat="46.6668" lon="6.07093">
        <ele>943.6</ele>
        <time>2022-10-25T11:55:39Z</time>
      </trkpt>
      <trkpt lat="46.66679" lon="6.07086">
        <ele>944.5</ele>
        <time>2022-10-25T11:55:43Z</time>
      </trkpt>
      <trkpt lat="46.66678" lon="6.07079">
        <ele>945.4</ele>
        <time>2022-10-25T11:55:47Z</time>
      </trkpt>
      <trkpt lat="46.66676" lon="6.07072">
        <ele>946.1</ele>
        <time>2022-10-25T11:55:51Z</time>
      </trkpt>
      <trkpt lat="46.66675" lon="6.07065">
        <ele>946.8</ele>
        <time>2022-10-25T11:55:55Z</time>
      </trkpt>
      <trkpt lat="46.66673" lon="6.07059">
        <ele>947.1</ele>
        <time>2022-10-25T11:55:59Z</time>
      </trkpt>
      <trkpt lat="46.66671" lon="6.07052">
        <ele>947.4</ele>
        <time>2022-10-25T11:56:03Z</time>
      </trkpt>
      <trkpt lat="46.6667" lon="6.07046">
        <ele>947.7</ele>
        <time>2022-10-25T11:56:07Z</time>
      </trkpt>
      <trkpt lat="46.66667" lon="6.07039">
        <ele>947.8</ele>
        <time>2022-10-25T11:56:12Z</time>
      </trkpt>
      <trkpt lat="46.66665" lon="6.07033">
        <ele>947.5</ele>
        <time>2022-10-25T11:56:16Z</time>
      </trkpt>
      <trkpt lat="46.66662" lon="6.07027">
        <ele>947.3</ele>
        <time>2022-10-25T11:56:21Z</time>
      </trkpt>
      <trkpt lat="46.66659" lon="6.07021">
        <ele>947.2</ele>
        <time>2022-10-25T11:56:26Z</time>
      </trkpt>
      <trkpt lat="46.66656" lon="6.07015">
        <ele>947.2</ele>
        <time>2022-10-25T11:56:31Z</time>
      </trkpt>
      <trkpt lat="46.66653" lon="6.07009">
        <ele>947</ele>
        <time>2022-10-25T11:56:36Z</time>
      </trkpt>
      <trkpt lat="46.6665" lon="6.07004">
        <ele>946.8</ele>
        <time>2022-10-25T11:56:41Z</time>
      </trkpt>
      <trkpt lat="46.66645" lon="6.07001">
        <ele>946.7</ele>
        <time>2022-10-25T11:56:47Z</time>
      </trkpt>
      <trkpt lat="46.66642" lon="6.06995">
        <ele>946.9</ele>
        <time>2022-10-25T11:56:52Z</time>
      </trkpt>
      <trkpt lat="46.66639" lon="6.06989">
        <ele>947</ele>
        <time>2022-10-25T11:56:57Z</time>
      </trkpt>
      <trkpt lat="46.66636" lon="6.06983">
        <ele>947.1</ele>
        <time>2022-10-25T11:57:03Z</time>
      </trkpt>
      <trkpt lat="46.66634" lon="6.06976">
        <ele>947.1</ele>
        <time>2022-10-25T11:57:08Z</time>
      </trkpt>
      <trkpt lat="46.66632" lon="6.06969">
        <ele>947.3</ele>
        <time>2022-10-25T11:57:13Z</time>
      </trkpt>
      <trkpt lat="46.66629" lon="6.06963">
        <ele>947.6</ele>
        <time>2022-10-25T11:57:18Z</time>
      </trkpt>
      <trkpt lat="46.66626" lon="6.06957">
        <ele>947.5</ele>
        <time>2022-10-25T11:57:23Z</time>
      </trkpt>
      <trkpt lat="46.66623" lon="6.06951">
        <ele>947.3</ele>
        <time>2022-10-25T11:57:28Z</time>
      </trkpt>
      <trkpt lat="46.66622" lon="6.06945">
        <ele>947.7</ele>
        <time>2022-10-25T11:57:32Z</time>
      </trkpt>
      <trkpt lat="46.6662" lon="6.06938">
        <ele>948.4</ele>
        <time>2022-10-25T11:57:37Z</time>
      </trkpt>
      <trkpt lat="46.66617" lon="6.06931">
        <ele>948.5</ele>
        <time>2022-10-25T11:57:43Z</time>
      </trkpt>
      <trkpt lat="46.66615" lon="6.06924">
        <ele>948</ele>
        <time>2022-10-25T11:57:48Z</time>
      </trkpt>
      <trkpt lat="46.66613" lon="6.06918">
        <ele>947.3</ele>
        <time>2022-10-25T11:57:52Z</time>
      </trkpt>
      <trkpt lat="46.66611" lon="6.06911">
        <ele>946.5</ele>
        <time>2022-10-25T11:57:57Z</time>
      </trkpt>
      <trkpt lat="46.66609" lon="6.06904">
        <ele>945.9</ele>
        <time>2022-10-25T11:58:02Z</time>
      </trkpt>
      <trkpt lat="46.66607" lon="6.06896">
        <ele>945.4</ele>
        <time>2022-10-25T11:58:07Z</time>
      </trkpt>
      <trkpt lat="46.66605" lon="6.06889">
        <ele>945.1</ele>
        <time>2022-10-25T11:58:12Z</time>
      </trkpt>
      <trkpt lat="46.66602" lon="6.06883">
        <ele>943.9</ele>
        <time>2022-10-25T11:58:17Z</time>
      </trkpt>
      <trkpt lat="46.666" lon="6.06875">
        <ele>941.8</ele>
        <time>2022-10-25T11:58:22Z</time>
      </trkpt>
      <trkpt lat="46.66598" lon="6.0687">
        <ele>940.3</ele>
        <time>2022-10-25T11:58:26Z</time>
      </trkpt>
      <trkpt lat="46.66595" lon="6.06863">
        <ele>938.8</ele>
        <time>2022-10-25T11:58:31Z</time>
      </trkpt>
      <trkpt lat="46.66592" lon="6.06858">
        <ele>938.3</ele>
        <time>2022-10-25T11:58:35Z</time>
      </trkpt>
      <trkpt lat="46.6659" lon="6.06851">
        <ele>938.1</ele>
        <time>2022-10-25T11:58:40Z</time>
      </trkpt>
      <trkpt lat="46.66587" lon="6.06845">
        <ele>937.8</ele>
        <time>2022-10-25T11:58:44Z</time>
      </trkpt>
      <trkpt lat="46.66585" lon="6.06839">
        <ele>938</ele>
        <time>2022-10-25T11:58:48Z</time>
      </trkpt>
      <trkpt lat="46.66584" lon="6.06832">
        <ele>938.4</ele>
        <time>2022-10-25T11:58:53Z</time>
      </trkpt>
      <trkpt lat="46.66584" lon="6.06824">
        <ele>938.5</ele>
        <time>2022-10-25T11:58:58Z</time>
      </trkpt>
      <trkpt lat="46.66582" lon="6.06817">
        <ele>938.5</ele>
        <time>2022-10-25T11:59:02Z</time>
      </trkpt>
      <trkpt lat="46.6658" lon="6.06811">
        <ele>938.5</ele>
        <time>2022-10-25T11:59:07Z</time>
      </trkpt>
      <trkpt lat="46.66578" lon="6.06803">
        <ele>938.1</ele>
        <time>2022-10-25T11:59:12Z</time>
      </trkpt>
      <trkpt lat="46.66576" lon="6.06796">
        <ele>938.2</ele>
        <time>2022-10-25T11:59:17Z</time>
      </trkpt>
      <trkpt lat="46.66573" lon="6.0679">
        <ele>939.1</ele>
        <time>2022-10-25T11:59:22Z</time>
      </trkpt>
      <trkpt lat="46.6657" lon="6.06784">
        <ele>940.3</ele>
        <time>2022-10-25T11:59:28Z</time>
      </trkpt>
      <trkpt lat="46.66568" lon="6.06777">
        <ele>940.8</ele>
        <time>2022-10-25T11:59:33Z</time>
      </trkpt>
      <trkpt lat="46.66566" lon="6.0677">
        <ele>940.5</ele>
        <time>2022-10-25T11:59:38Z</time>
      </trkpt>
      <trkpt lat="46.66565" lon="6.06763">
        <ele>940.1</ele>
        <time>2022-10-25T11:59:43Z</time>
      </trkpt>
      <trkpt lat="46.66564" lon="6.06755">
        <ele>940.2</ele>
        <time>2022-10-25T11:59:48Z</time>
      </trkpt>
      <trkpt lat="46.66562" lon="6.06748">
        <ele>940.4</ele>
        <time>2022-10-25T11:59:53Z</time>
      </trkpt>
      <trkpt lat="46.6656" lon="6.06741">
        <ele>940.8</ele>
        <time>2022-10-25T11:59:58Z</time>
      </trkpt>
      <trkpt lat="46.66559" lon="6.06734">
        <ele>941.2</ele>
        <time>2022-10-25T12:00:03Z</time>
      </trkpt>
      <trkpt lat="46.66558" lon="6.06727">
        <ele>941.3</ele>
        <time>2022-10-25T12:00:08Z</time>
      </trkpt>
      <trkpt lat="46.66556" lon="6.0672">
        <ele>941.7</ele>
        <time>2022-10-25T12:00:13Z</time>
      </trkpt>
      <trkpt lat="46.66554" lon="6.06713">
        <ele>942.9</ele>
        <time>2022-10-25T12:00:18Z</time>
      </trkpt>
      <trkpt lat="46.66552" lon="6.06706">
        <ele>944.4</ele>
        <time>2022-10-25T12:00:24Z</time>
      </trkpt>
      <trkpt lat="46.6655" lon="6.06698">
        <ele>945</ele>
        <time>2022-10-25T12:00:29Z</time>
      </trkpt>
      <trkpt lat="46.66549" lon="6.06691">
        <ele>945.3</ele>
        <time>2022-10-25T12:00:34Z</time>
      </trkpt>
      <trkpt lat="46.66547" lon="6.06684">
        <ele>945.8</ele>
        <time>2022-10-25T12:00:40Z</time>
      </trkpt>
      <trkpt lat="46.66545" lon="6.06677">
        <ele>946.3</ele>
        <time>2022-10-25T12:00:46Z</time>
      </trkpt>
      <trkpt lat="46.66544" lon="6.06671">
        <ele>946.4</ele>
        <time>2022-10-25T12:00:51Z</time>
      </trkpt>
      <trkpt lat="46.66542" lon="6.06663">
        <ele>946</ele>
        <time>2022-10-25T12:00:56Z</time>
      </trkpt>
      <trkpt lat="46.66541" lon="6.06657">
        <ele>945.3</ele>
        <time>2022-10-25T12:01:01Z</time>
      </trkpt>
      <trkpt lat="46.66538" lon="6.0665">
        <ele>945.2</ele>
        <time>2022-10-25T12:01:06Z</time>
      </trkpt>
      <trkpt lat="46.66537" lon="6.06643">
        <ele>945.4</ele>
        <time>2022-10-25T12:01:11Z</time>
      </trkpt>
      <trkpt lat="46.66537" lon="6.06636">
        <ele>944.9</ele>
        <time>2022-10-25T12:01:16Z</time>
      </trkpt>
      <trkpt lat="46.66536" lon="6.06629">
        <ele>943.9</ele>
        <time>2022-10-25T12:01:21Z</time>
      </trkpt>
      <trkpt lat="46.66535" lon="6.06622">
        <ele>942.9</ele>
        <time>2022-10-25T12:01:26Z</time>
      </trkpt>
      <trkpt lat="46.66535" lon="6.06615">
        <ele>941.9</ele>
        <time>2022-10-25T12:01:31Z</time>
      </trkpt>
      <trkpt lat="46.66534" lon="6.06608">
        <ele>941.5</ele>
        <time>2022-10-25T12:01:36Z</time>
      </trkpt>
      <trkpt lat="46.66533" lon="6.066">
        <ele>941.4</ele>
        <time>2022-10-25T12:01:41Z</time>
      </trkpt>
      <trkpt lat="46.66532" lon="6.06593">
        <ele>941.1</ele>
        <time>2022-10-25T12:01:46Z</time>
      </trkpt>
      <trkpt lat="46.66531" lon="6.06585">
        <ele>941</ele>
        <time>2022-10-25T12:01:51Z</time>
      </trkpt>
      <trkpt lat="46.66531" lon="6.06578">
        <ele>940.8</ele>
        <time>2022-10-25T12:01:56Z</time>
      </trkpt>
      <trkpt lat="46.6653" lon="6.06571">
        <ele>940.7</ele>
        <time>2022-10-25T12:02:01Z</time>
      </trkpt>
      <trkpt lat="46.6653" lon="6.06564">
        <ele>941</ele>
        <time>2022-10-25T12:02:06Z</time>
      </trkpt>
      <trkpt lat="46.66529" lon="6.06557">
        <ele>941.1</ele>
        <time>2022-10-25T12:02:11Z</time>
      </trkpt>
      <trkpt lat="46.66528" lon="6.06549">
        <ele>941.8</ele>
        <time>2022-10-25T12:02:17Z</time>
      </trkpt>
      <trkpt lat="46.66527" lon="6.06543">
        <ele>942.3</ele>
        <time>2022-10-25T12:02:22Z</time>
      </trkpt>
      <trkpt lat="46.66527" lon="6.06535">
        <ele>943.4</ele>
        <time>2022-10-25T12:02:28Z</time>
      </trkpt>
      <trkpt lat="46.66528" lon="6.06528">
        <ele>944.1</ele>
        <time>2022-10-25T12:02:34Z</time>
      </trkpt>
      <trkpt lat="46.66527" lon="6.06521">
        <ele>944.7</ele>
        <time>2022-10-25T12:02:40Z</time>
      </trkpt>
      <trkpt lat="46.66525" lon="6.06513">
        <ele>945.4</ele>
        <time>2022-10-25T12:02:45Z</time>
      </trkpt>
      <trkpt lat="46.66523" lon="6.06507">
        <ele>946.1</ele>
        <time>2022-10-25T12:02:49Z</time>
      </trkpt>
      <trkpt lat="46.6652" lon="6.06501">
        <ele>947</ele>
        <time>2022-10-25T12:02:53Z</time>
      </trkpt>
      <trkpt lat="46.66519" lon="6.06494">
        <ele>948.1</ele>
        <time>2022-10-25T12:02:59Z</time>
      </trkpt>
      <trkpt lat="46.66519" lon="6.06487">
        <ele>948.8</ele>
        <time>2022-10-25T12:03:03Z</time>
      </trkpt>
      <trkpt lat="46.66517" lon="6.06479">
        <ele>949.8</ele>
        <time>2022-10-25T12:03:08Z</time>
      </trkpt>
      <trkpt lat="46.66515" lon="6.06473">
        <ele>950.7</ele>
        <time>2022-10-25T12:03:13Z</time>
      </trkpt>
      <trkpt lat="46.66512" lon="6.06467">
        <ele>951</ele>
        <time>2022-10-25T12:03:17Z</time>
      </trkpt>
      <trkpt lat="46.6651" lon="6.06461">
        <ele>951.5</ele>
        <time>2022-10-25T12:03:22Z</time>
      </trkpt>
      <trkpt lat="46.66509" lon="6.06454">
        <ele>951.8</ele>
        <time>2022-10-25T12:03:27Z</time>
      </trkpt>
      <trkpt lat="46.66506" lon="6.06447">
        <ele>951.3</ele>
        <time>2022-10-25T12:03:32Z</time>
      </trkpt>
      <trkpt lat="46.66505" lon="6.06439">
        <ele>950.7</ele>
        <time>2022-10-25T12:03:37Z</time>
      </trkpt>
      <trkpt lat="46.66503" lon="6.06433">
        <ele>950.3</ele>
        <time>2022-10-25T12:03:42Z</time>
      </trkpt>
      <trkpt lat="46.66501" lon="6.06427">
        <ele>949.3</ele>
        <time>2022-10-25T12:03:47Z</time>
      </trkpt>
      <trkpt lat="46.66499" lon="6.0642">
        <ele>948.2</ele>
        <time>2022-10-25T12:03:52Z</time>
      </trkpt>
      <trkpt lat="46.66497" lon="6.06414">
        <ele>947.4</ele>
        <time>2022-10-25T12:03:56Z</time>
      </trkpt>
      <trkpt lat="46.66495" lon="6.06407">
        <ele>946.5</ele>
        <time>2022-10-25T12:04:00Z</time>
      </trkpt>
      <trkpt lat="46.66494" lon="6.06399">
        <ele>945.4</ele>
        <time>2022-10-25T12:04:05Z</time>
      </trkpt>
      <trkpt lat="46.66492" lon="6.06392">
        <ele>944.6</ele>
        <time>2022-10-25T12:04:11Z</time>
      </trkpt>
      <trkpt lat="46.66492" lon="6.06385">
        <ele>944.5</ele>
        <time>2022-10-25T12:04:18Z</time>
      </trkpt>
      <trkpt lat="46.66488" lon="6.0638">
        <ele>943.7</ele>
        <time>2022-10-25T12:04:30Z</time>
      </trkpt>
      <trkpt lat="46.66487" lon="6.06373">
        <ele>943.7</ele>
        <time>2022-10-25T12:04:37Z</time>
      </trkpt>
      <trkpt lat="46.66487" lon="6.06366">
        <ele>944.4</ele>
        <time>2022-10-25T12:04:43Z</time>
      </trkpt>
      <trkpt lat="46.66486" lon="6.06359">
        <ele>944.9</ele>
        <time>2022-10-25T12:04:48Z</time>
      </trkpt>
      <trkpt lat="46.66483" lon="6.06353">
        <ele>945.6</ele>
        <time>2022-10-25T12:04:56Z</time>
      </trkpt>
      <trkpt lat="46.66481" lon="6.06348">
        <ele>945.7</ele>
        <time>2022-10-25T12:05:02Z</time>
      </trkpt>
      <trkpt lat="46.66479" lon="6.06341">
        <ele>946.2</ele>
        <time>2022-10-25T12:05:08Z</time>
      </trkpt>
      <trkpt lat="46.66476" lon="6.06334">
        <ele>946.6</ele>
        <time>2022-10-25T12:05:14Z</time>
      </trkpt>
      <trkpt lat="46.66473" lon="6.06329">
        <ele>946.7</ele>
        <time>2022-10-25T12:05:18Z</time>
      </trkpt>
      <trkpt lat="46.66471" lon="6.06323">
        <ele>946.9</ele>
        <time>2022-10-25T12:05:23Z</time>
      </trkpt>
      <trkpt lat="46.66468" lon="6.06316">
        <ele>947.1</ele>
        <time>2022-10-25T12:05:29Z</time>
      </trkpt>
      <trkpt lat="46.66464" lon="6.06312">
        <ele>947.7</ele>
        <time>2022-10-25T12:05:35Z</time>
      </trkpt>
      <trkpt lat="46.6646" lon="6.06307">
        <ele>948.2</ele>
        <time>2022-10-25T12:05:41Z</time>
      </trkpt>
      <trkpt lat="46.66457" lon="6.06303">
        <ele>948.4</ele>
        <time>2022-10-25T12:05:47Z</time>
      </trkpt>
      <trkpt lat="46.66452" lon="6.063">
        <ele>948.6</ele>
        <time>2022-10-25T12:05:53Z</time>
      </trkpt>
      <trkpt lat="46.66448" lon="6.06296">
        <ele>948.5</ele>
        <time>2022-10-25T12:05:59Z</time>
      </trkpt>
      <trkpt lat="46.66444" lon="6.06291">
        <ele>947.9</ele>
        <time>2022-10-25T12:06:06Z</time>
      </trkpt>
      <trkpt lat="46.6644" lon="6.06286">
        <ele>947.3</ele>
        <time>2022-10-25T12:06:12Z</time>
      </trkpt>
      <trkpt lat="46.66438" lon="6.06279">
        <ele>946.6</ele>
        <time>2022-10-25T12:06:18Z</time>
      </trkpt>
      <trkpt lat="46.66435" lon="6.06273">
        <ele>945.8</ele>
        <time>2022-10-25T12:06:23Z</time>
      </trkpt>
      <trkpt lat="46.66431" lon="6.06267">
        <ele>945.6</ele>
        <time>2022-10-25T12:06:28Z</time>
      </trkpt>
      <trkpt lat="46.66428" lon="6.06262">
        <ele>945.7</ele>
        <time>2022-10-25T12:06:33Z</time>
      </trkpt>
      <trkpt lat="46.66425" lon="6.06256">
        <ele>945.9</ele>
        <time>2022-10-25T12:06:39Z</time>
      </trkpt>
      <trkpt lat="46.66422" lon="6.06251">
        <ele>945.8</ele>
        <time>2022-10-25T12:06:45Z</time>
      </trkpt>
      <trkpt lat="46.66418" lon="6.06246">
        <ele>945.2</ele>
        <time>2022-10-25T12:06:50Z</time>
      </trkpt>
      <trkpt lat="46.66415" lon="6.06241">
        <ele>944.7</ele>
        <time>2022-10-25T12:06:56Z</time>
      </trkpt>
      <trkpt lat="46.66411" lon="6.06236">
        <ele>943.5</ele>
        <time>2022-10-25T12:07:02Z</time>
      </trkpt>
      <trkpt lat="46.66407" lon="6.06231">
        <ele>941.2</ele>
        <time>2022-10-25T12:07:08Z</time>
      </trkpt>
      <trkpt lat="46.66403" lon="6.06228">
        <ele>938.4</ele>
        <time>2022-10-25T12:07:14Z</time>
      </trkpt>
      <trkpt lat="46.66399" lon="6.06226">
        <ele>936.4</ele>
        <time>2022-10-25T12:07:18Z</time>
      </trkpt>
      <trkpt lat="46.66394" lon="6.06222">
        <ele>934.4</ele>
        <time>2022-10-25T12:07:23Z</time>
      </trkpt>
      <trkpt lat="46.6639" lon="6.06222">
        <ele>932.9</ele>
        <time>2022-10-25T12:07:32Z</time>
      </trkpt>
      <trkpt lat="46.66387" lon="6.06217">
        <ele>933.1</ele>
        <time>2022-10-25T12:07:40Z</time>
      </trkpt>
      <trkpt lat="46.66385" lon="6.0621">
        <ele>933.5</ele>
        <time>2022-10-25T12:07:44Z</time>
      </trkpt>
      <trkpt lat="46.66384" lon="6.06203">
        <ele>933.8</ele>
        <time>2022-10-25T12:07:48Z</time>
      </trkpt>
      <trkpt lat="46.66383" lon="6.06196">
        <ele>934.4</ele>
        <time>2022-10-25T12:07:52Z</time>
      </trkpt>
      <trkpt lat="46.66381" lon="6.06188">
        <ele>935.2</ele>
        <time>2022-10-25T12:07:57Z</time>
      </trkpt>
      <trkpt lat="46.6638" lon="6.06181">
        <ele>936.2</ele>
        <time>2022-10-25T12:08:02Z</time>
      </trkpt>
      <trkpt lat="46.66378" lon="6.06174">
        <ele>936.9</ele>
        <time>2022-10-25T12:08:07Z</time>
      </trkpt>
      <trkpt lat="46.66376" lon="6.06167">
        <ele>937.5</ele>
        <time>2022-10-25T12:08:12Z</time>
      </trkpt>
      <trkpt lat="46.66376" lon="6.06159">
        <ele>938.1</ele>
        <time>2022-10-25T12:08:17Z</time>
      </trkpt>
      <trkpt lat="46.66375" lon="6.06152">
        <ele>938.6</ele>
        <time>2022-10-25T12:08:22Z</time>
      </trkpt>
      <trkpt lat="46.66373" lon="6.06146">
        <ele>939</ele>
        <time>2022-10-25T12:08:27Z</time>
      </trkpt>
      <trkpt lat="46.66371" lon="6.06139">
        <ele>939</ele>
        <time>2022-10-25T12:08:32Z</time>
      </trkpt>
      <trkpt lat="46.66368" lon="6.06132">
        <ele>938.7</ele>
        <time>2022-10-25T12:08:37Z</time>
      </trkpt>
      <trkpt lat="46.66366" lon="6.06127">
        <ele>938.5</ele>
        <time>2022-10-25T12:08:41Z</time>
      </trkpt>
      <trkpt lat="46.66365" lon="6.0612">
        <ele>938.2</ele>
        <time>2022-10-25T12:08:53Z</time>
      </trkpt>
      <trkpt lat="46.66362" lon="6.06113">
        <ele>938.8</ele>
        <time>2022-10-25T12:08:59Z</time>
      </trkpt>
      <trkpt lat="46.6636" lon="6.06107">
        <ele>939</ele>
        <time>2022-10-25T12:09:03Z</time>
      </trkpt>
      <trkpt lat="46.66358" lon="6.06101">
        <ele>939.3</ele>
        <time>2022-10-25T12:09:07Z</time>
      </trkpt>
      <trkpt lat="46.66356" lon="6.06094">
        <ele>939.7</ele>
        <time>2022-10-25T12:09:12Z</time>
      </trkpt>
      <trkpt lat="46.66354" lon="6.06088">
        <ele>939.8</ele>
        <time>2022-10-25T12:09:16Z</time>
      </trkpt>
      <trkpt lat="46.66351" lon="6.06082">
        <ele>940.3</ele>
        <time>2022-10-25T12:09:20Z</time>
      </trkpt>
      <trkpt lat="46.66348" lon="6.06076">
        <ele>941.3</ele>
        <time>2022-10-25T12:09:24Z</time>
      </trkpt>
      <trkpt lat="46.66346" lon="6.06069">
        <ele>942.6</ele>
        <time>2022-10-25T12:09:29Z</time>
      </trkpt>
      <trkpt lat="46.66345" lon="6.06062">
        <ele>943.4</ele>
        <time>2022-10-25T12:09:35Z</time>
      </trkpt>
      <trkpt lat="46.66342" lon="6.06055">
        <ele>943.5</ele>
        <time>2022-10-25T12:09:40Z</time>
      </trkpt>
      <trkpt lat="46.66339" lon="6.06049">
        <ele>943.7</ele>
        <time>2022-10-25T12:09:44Z</time>
      </trkpt>
      <trkpt lat="46.66337" lon="6.06042">
        <ele>943.9</ele>
        <time>2022-10-25T12:09:49Z</time>
      </trkpt>
      <trkpt lat="46.66336" lon="6.06035">
        <ele>944.4</ele>
        <time>2022-10-25T12:09:54Z</time>
      </trkpt>
      <trkpt lat="46.66334" lon="6.06027">
        <ele>945</ele>
        <time>2022-10-25T12:09:59Z</time>
      </trkpt>
      <trkpt lat="46.66331" lon="6.0602">
        <ele>945.4</ele>
        <time>2022-10-25T12:10:04Z</time>
      </trkpt>
      <trkpt lat="46.66329" lon="6.06013">
        <ele>946</ele>
        <time>2022-10-25T12:10:09Z</time>
      </trkpt>
      <trkpt lat="46.66326" lon="6.06007">
        <ele>946.7</ele>
        <time>2022-10-25T12:10:13Z</time>
      </trkpt>
      <trkpt lat="46.66325" lon="6.06001">
        <ele>946.5</ele>
        <time>2022-10-25T12:10:18Z</time>
      </trkpt>
      <trkpt lat="46.66323" lon="6.05994">
        <ele>945.7</ele>
        <time>2022-10-25T12:10:23Z</time>
      </trkpt>
      <trkpt lat="46.66321" lon="6.05988">
        <ele>945.1</ele>
        <time>2022-10-25T12:10:27Z</time>
      </trkpt>
      <trkpt lat="46.66319" lon="6.05982">
        <ele>944.8</ele>
        <time>2022-10-25T12:10:31Z</time>
      </trkpt>
      <trkpt lat="46.66317" lon="6.05975">
        <ele>944.3</ele>
        <time>2022-10-25T12:10:36Z</time>
      </trkpt>
      <trkpt lat="46.66315" lon="6.05969">
        <ele>944.1</ele>
        <time>2022-10-25T12:10:40Z</time>
      </trkpt>
      <trkpt lat="46.66313" lon="6.05962">
        <ele>944.1</ele>
        <time>2022-10-25T12:10:44Z</time>
      </trkpt>
      <trkpt lat="46.6631" lon="6.05957">
        <ele>944.6</ele>
        <time>2022-10-25T12:10:49Z</time>
      </trkpt>
      <trkpt lat="46.66309" lon="6.05949">
        <ele>945.8</ele>
        <time>2022-10-25T12:10:55Z</time>
      </trkpt>
      <trkpt lat="46.66308" lon="6.05941">
        <ele>946.5</ele>
        <time>2022-10-25T12:11:00Z</time>
      </trkpt>
      <trkpt lat="46.66306" lon="6.05934">
        <ele>946.8</ele>
        <time>2022-10-25T12:11:05Z</time>
      </trkpt>
      <trkpt lat="46.66304" lon="6.05928">
        <ele>946.9</ele>
        <time>2022-10-25T12:11:10Z</time>
      </trkpt>
      <trkpt lat="46.66302" lon="6.05922">
        <ele>947.1</ele>
        <time>2022-10-25T12:11:15Z</time>
      </trkpt>
      <trkpt lat="46.66299" lon="6.05915">
        <ele>947.8</ele>
        <time>2022-10-25T12:11:20Z</time>
      </trkpt>
      <trkpt lat="46.66296" lon="6.05908">
        <ele>948.6</ele>
        <time>2022-10-25T12:11:25Z</time>
      </trkpt>
      <trkpt lat="46.66293" lon="6.05902">
        <ele>949.2</ele>
        <time>2022-10-25T12:11:30Z</time>
      </trkpt>
      <trkpt lat="46.66291" lon="6.05896">
        <ele>949.8</ele>
        <time>2022-10-25T12:11:34Z</time>
      </trkpt>
      <trkpt lat="46.6629" lon="6.0589">
        <ele>950.7</ele>
        <time>2022-10-25T12:11:38Z</time>
      </trkpt>
      <trkpt lat="46.66288" lon="6.05883">
        <ele>951.4</ele>
        <time>2022-10-25T12:11:42Z</time>
      </trkpt>
      <trkpt lat="46.66286" lon="6.05877">
        <ele>952.2</ele>
        <time>2022-10-25T12:11:47Z</time>
      </trkpt>
      <trkpt lat="46.66283" lon="6.0587">
        <ele>953.5</ele>
        <time>2022-10-25T12:11:52Z</time>
      </trkpt>
      <trkpt lat="46.66281" lon="6.05863">
        <ele>954.3</ele>
        <time>2022-10-25T12:11:57Z</time>
      </trkpt>
      <trkpt lat="46.66279" lon="6.05856">
        <ele>955</ele>
        <time>2022-10-25T12:12:02Z</time>
      </trkpt>
      <trkpt lat="46.66276" lon="6.0585">
        <ele>955.8</ele>
        <time>2022-10-25T12:12:07Z</time>
      </trkpt>
      <trkpt lat="46.66273" lon="6.05844">
        <ele>956.6</ele>
        <time>2022-10-25T12:12:13Z</time>
      </trkpt>
      <trkpt lat="46.6627" lon="6.05839">
        <ele>956.5</ele>
        <time>2022-10-25T12:12:18Z</time>
      </trkpt>
      <trkpt lat="46.66268" lon="6.05832">
        <ele>956.3</ele>
        <time>2022-10-25T12:12:23Z</time>
      </trkpt>
      <trkpt lat="46.66266" lon="6.05825">
        <ele>956.1</ele>
        <time>2022-10-25T12:12:28Z</time>
      </trkpt>
      <trkpt lat="46.66263" lon="6.05819">
        <ele>956.4</ele>
        <time>2022-10-25T12:12:32Z</time>
      </trkpt>
      <trkpt lat="46.66261" lon="6.05812">
        <ele>956.7</ele>
        <time>2022-10-25T12:12:36Z</time>
      </trkpt>
      <trkpt lat="46.66259" lon="6.05806">
        <ele>957.2</ele>
        <time>2022-10-25T12:12:40Z</time>
      </trkpt>
      <trkpt lat="46.66256" lon="6.058">
        <ele>957.4</ele>
        <time>2022-10-25T12:12:45Z</time>
      </trkpt>
      <trkpt lat="46.66254" lon="6.05794">
        <ele>957.8</ele>
        <time>2022-10-25T12:12:50Z</time>
      </trkpt>
      <trkpt lat="46.66252" lon="6.05787">
        <ele>958.2</ele>
        <time>2022-10-25T12:12:55Z</time>
      </trkpt>
      <trkpt lat="46.66249" lon="6.0578">
        <ele>958.2</ele>
        <time>2022-10-25T12:13:00Z</time>
      </trkpt>
      <trkpt lat="46.66247" lon="6.05774">
        <ele>958.4</ele>
        <time>2022-10-25T12:13:04Z</time>
      </trkpt>
      <trkpt lat="46.66246" lon="6.05767">
        <ele>958.9</ele>
        <time>2022-10-25T12:13:08Z</time>
      </trkpt>
      <trkpt lat="46.66245" lon="6.0576">
        <ele>959.4</ele>
        <time>2022-10-25T12:13:12Z</time>
      </trkpt>
      <trkpt lat="46.66243" lon="6.05752">
        <ele>959.8</ele>
        <time>2022-10-25T12:13:17Z</time>
      </trkpt>
      <trkpt lat="46.66241" lon="6.05745">
        <ele>960.2</ele>
        <time>2022-10-25T12:13:22Z</time>
      </trkpt>
      <trkpt lat="46.66239" lon="6.05738">
        <ele>960.9</ele>
        <time>2022-10-25T12:13:27Z</time>
      </trkpt>
      <trkpt lat="46.66237" lon="6.05732">
        <ele>961.5</ele>
        <time>2022-10-25T12:13:32Z</time>
      </trkpt>
      <trkpt lat="46.66235" lon="6.05726">
        <ele>961.8</ele>
        <time>2022-10-25T12:13:37Z</time>
      </trkpt>
      <trkpt lat="46.66233" lon="6.0572">
        <ele>961.7</ele>
        <time>2022-10-25T12:13:42Z</time>
      </trkpt>
      <trkpt lat="46.6623" lon="6.05714">
        <ele>961.7</ele>
        <time>2022-10-25T12:13:46Z</time>
      </trkpt>
      <trkpt lat="46.66228" lon="6.05707">
        <ele>961.5</ele>
        <time>2022-10-25T12:13:51Z</time>
      </trkpt>
      <trkpt lat="46.66227" lon="6.057">
        <ele>960.5</ele>
        <time>2022-10-25T12:13:56Z</time>
      </trkpt>
      <trkpt lat="46.66225" lon="6.05693">
        <ele>959.5</ele>
        <time>2022-10-25T12:14:01Z</time>
      </trkpt>
      <trkpt lat="46.66222" lon="6.05687">
        <ele>959.4</ele>
        <time>2022-10-25T12:14:06Z</time>
      </trkpt>
      <trkpt lat="46.66219" lon="6.05681">
        <ele>959.4</ele>
        <time>2022-10-25T12:14:10Z</time>
      </trkpt>
      <trkpt lat="46.66216" lon="6.05675">
        <ele>959.4</ele>
        <time>2022-10-25T12:14:15Z</time>
      </trkpt>
      <trkpt lat="46.66214" lon="6.05668">
        <ele>959.2</ele>
        <time>2022-10-25T12:14:20Z</time>
      </trkpt>
      <trkpt lat="46.66211" lon="6.05662">
        <ele>959</ele>
        <time>2022-10-25T12:14:25Z</time>
      </trkpt>
      <trkpt lat="46.66208" lon="6.05656">
        <ele>958.6</ele>
        <time>2022-10-25T12:14:29Z</time>
      </trkpt>
      <trkpt lat="46.66207" lon="6.0565">
        <ele>957.9</ele>
        <time>2022-10-25T12:14:34Z</time>
      </trkpt>
      <trkpt lat="46.66204" lon="6.05643">
        <ele>957.4</ele>
        <time>2022-10-25T12:14:39Z</time>
      </trkpt>
      <trkpt lat="46.66203" lon="6.05637">
        <ele>957.2</ele>
        <time>2022-10-25T12:14:44Z</time>
      </trkpt>
      <trkpt lat="46.662" lon="6.05632">
        <ele>957.3</ele>
        <time>2022-10-25T12:14:48Z</time>
      </trkpt>
      <trkpt lat="46.66198" lon="6.05626">
        <ele>957.2</ele>
        <time>2022-10-25T12:14:52Z</time>
      </trkpt>
      <trkpt lat="46.66195" lon="6.05619">
        <ele>957.6</ele>
        <time>2022-10-25T12:14:57Z</time>
      </trkpt>
      <trkpt lat="46.66194" lon="6.05611">
        <ele>957.8</ele>
        <time>2022-10-25T12:15:02Z</time>
      </trkpt>
      <trkpt lat="46.66191" lon="6.05605">
        <ele>957.5</ele>
        <time>2022-10-25T12:15:07Z</time>
      </trkpt>
      <trkpt lat="46.66189" lon="6.05598">
        <ele>957.5</ele>
        <time>2022-10-25T12:15:12Z</time>
      </trkpt>
      <trkpt lat="46.66187" lon="6.05592">
        <ele>957.4</ele>
        <time>2022-10-25T12:15:16Z</time>
      </trkpt>
      <trkpt lat="46.66185" lon="6.05585">
        <ele>956.8</ele>
        <time>2022-10-25T12:15:21Z</time>
      </trkpt>
      <trkpt lat="46.66181" lon="6.05579">
        <ele>956.8</ele>
        <time>2022-10-25T12:15:26Z</time>
      </trkpt>
      <trkpt lat="46.66178" lon="6.05573">
        <ele>957.6</ele>
        <time>2022-10-25T12:15:31Z</time>
      </trkpt>
      <trkpt lat="46.66176" lon="6.05566">
        <ele>957.7</ele>
        <time>2022-10-25T12:15:36Z</time>
      </trkpt>
      <trkpt lat="46.66174" lon="6.0556">
        <ele>957.6</ele>
        <time>2022-10-25T12:15:41Z</time>
      </trkpt>
      <trkpt lat="46.66173" lon="6.05554">
        <ele>957.6</ele>
        <time>2022-10-25T12:15:45Z</time>
      </trkpt>
      <trkpt lat="46.66171" lon="6.05547">
        <ele>957.6</ele>
        <time>2022-10-25T12:15:49Z</time>
      </trkpt>
      <trkpt lat="46.66169" lon="6.05541">
        <ele>957.3</ele>
        <time>2022-10-25T12:15:53Z</time>
      </trkpt>
      <trkpt lat="46.66166" lon="6.05534">
        <ele>957.4</ele>
        <time>2022-10-25T12:15:58Z</time>
      </trkpt>
      <trkpt lat="46.66165" lon="6.05528">
        <ele>957.3</ele>
        <time>2022-10-25T12:16:03Z</time>
      </trkpt>
      <trkpt lat="46.66162" lon="6.05521">
        <ele>957</ele>
        <time>2022-10-25T12:16:08Z</time>
      </trkpt>
      <trkpt lat="46.66159" lon="6.05515">
        <ele>956.9</ele>
        <time>2022-10-25T12:16:12Z</time>
      </trkpt>
      <trkpt lat="46.66157" lon="6.05509">
        <ele>956.7</ele>
        <time>2022-10-25T12:16:17Z</time>
      </trkpt>
      <trkpt lat="46.66156" lon="6.05501">
        <ele>956.4</ele>
        <time>2022-10-25T12:16:22Z</time>
      </trkpt>
      <trkpt lat="46.66154" lon="6.05494">
        <ele>956.4</ele>
        <time>2022-10-25T12:16:27Z</time>
      </trkpt>
      <trkpt lat="46.66151" lon="6.05488">
        <ele>955.9</ele>
        <time>2022-10-25T12:16:32Z</time>
      </trkpt>
      <trkpt lat="46.6615" lon="6.05481">
        <ele>955.6</ele>
        <time>2022-10-25T12:16:37Z</time>
      </trkpt>
      <trkpt lat="46.66149" lon="6.05474">
        <ele>954.9</ele>
        <time>2022-10-25T12:16:42Z</time>
      </trkpt>
      <trkpt lat="46.66147" lon="6.05467">
        <ele>953.6</ele>
        <time>2022-10-25T12:16:47Z</time>
      </trkpt>
      <trkpt lat="46.66146" lon="6.05461">
        <ele>952.8</ele>
        <time>2022-10-25T12:16:51Z</time>
      </trkpt>
      <trkpt lat="46.66143" lon="6.05455">
        <ele>952.2</ele>
        <time>2022-10-25T12:16:55Z</time>
      </trkpt>
      <trkpt lat="46.66142" lon="6.05448">
        <ele>951.7</ele>
        <time>2022-10-25T12:16:59Z</time>
      </trkpt>
      <trkpt lat="46.6614" lon="6.05441">
        <ele>951.5</ele>
        <time>2022-10-25T12:17:03Z</time>
      </trkpt>
      <trkpt lat="46.66139" lon="6.05433">
        <ele>952.2</ele>
        <time>2022-10-25T12:17:07Z</time>
      </trkpt>
      <trkpt lat="46.66139" lon="6.05426">
        <ele>953</ele>
        <time>2022-10-25T12:17:11Z</time>
      </trkpt>
      <trkpt lat="46.66139" lon="6.05419">
        <ele>953.1</ele>
        <time>2022-10-25T12:17:16Z</time>
      </trkpt>
      <trkpt lat="46.66138" lon="6.05411">
        <ele>952.5</ele>
        <time>2022-10-25T12:17:21Z</time>
      </trkpt>
      <trkpt lat="46.66136" lon="6.05404">
        <ele>951.9</ele>
        <time>2022-10-25T12:17:25Z</time>
      </trkpt>
      <trkpt lat="46.66135" lon="6.05397">
        <ele>951.1</ele>
        <time>2022-10-25T12:17:30Z</time>
      </trkpt>
      <trkpt lat="46.66135" lon="6.0539">
        <ele>950.9</ele>
        <time>2022-10-25T12:17:35Z</time>
      </trkpt>
      <trkpt lat="46.66134" lon="6.05384">
        <ele>950.8</ele>
        <time>2022-10-25T12:17:39Z</time>
      </trkpt>
      <trkpt lat="46.66133" lon="6.05376">
        <ele>951.4</ele>
        <time>2022-10-25T12:17:44Z</time>
      </trkpt>
      <trkpt lat="46.66131" lon="6.05369">
        <ele>952.3</ele>
        <time>2022-10-25T12:17:49Z</time>
      </trkpt>
      <trkpt lat="46.66129" lon="6.05362">
        <ele>952.9</ele>
        <time>2022-10-25T12:17:54Z</time>
      </trkpt>
      <trkpt lat="46.66128" lon="6.05355">
        <ele>953.5</ele>
        <time>2022-10-25T12:17:59Z</time>
      </trkpt>
      <trkpt lat="46.66125" lon="6.05348">
        <ele>954.2</ele>
        <time>2022-10-25T12:18:03Z</time>
      </trkpt>
      <trkpt lat="46.66122" lon="6.05342">
        <ele>955.1</ele>
        <time>2022-10-25T12:18:07Z</time>
      </trkpt>
      <trkpt lat="46.6612" lon="6.05334">
        <ele>956.2</ele>
        <time>2022-10-25T12:18:12Z</time>
      </trkpt>
      <trkpt lat="46.66117" lon="6.05327">
        <ele>957.7</ele>
        <time>2022-10-25T12:18:17Z</time>
      </trkpt>
      <trkpt lat="46.66115" lon="6.0532">
        <ele>958.3</ele>
        <time>2022-10-25T12:18:23Z</time>
      </trkpt>
      <trkpt lat="46.66113" lon="6.05313">
        <ele>958.1</ele>
        <time>2022-10-25T12:18:28Z</time>
      </trkpt>
      <trkpt lat="46.66111" lon="6.05307">
        <ele>957.6</ele>
        <time>2022-10-25T12:18:33Z</time>
      </trkpt>
      <trkpt lat="46.6611" lon="6.05299">
        <ele>956.7</ele>
        <time>2022-10-25T12:18:38Z</time>
      </trkpt>
      <trkpt lat="46.6611" lon="6.05291">
        <ele>956.1</ele>
        <time>2022-10-25T12:18:43Z</time>
      </trkpt>
      <trkpt lat="46.66107" lon="6.05284">
        <ele>956.2</ele>
        <time>2022-10-25T12:18:48Z</time>
      </trkpt>
      <trkpt lat="46.66105" lon="6.05277">
        <ele>956</ele>
        <time>2022-10-25T12:18:53Z</time>
      </trkpt>
      <trkpt lat="46.66103" lon="6.0527">
        <ele>954.9</ele>
        <time>2022-10-25T12:18:58Z</time>
      </trkpt>
      <trkpt lat="46.66102" lon="6.05262">
        <ele>953.3</ele>
        <time>2022-10-25T12:19:03Z</time>
      </trkpt>
      <trkpt lat="46.66101" lon="6.05256">
        <ele>952.3</ele>
        <time>2022-10-25T12:19:08Z</time>
      </trkpt>
      <trkpt lat="46.66098" lon="6.0525">
        <ele>952.3</ele>
        <time>2022-10-25T12:19:13Z</time>
      </trkpt>
      <trkpt lat="46.66098" lon="6.05242">
        <ele>952.1</ele>
        <time>2022-10-25T12:19:18Z</time>
      </trkpt>
      <trkpt lat="46.66097" lon="6.05236">
        <ele>952.1</ele>
        <time>2022-10-25T12:19:22Z</time>
      </trkpt>
      <trkpt lat="46.66095" lon="6.05229">
        <ele>952.5</ele>
        <time>2022-10-25T12:19:26Z</time>
      </trkpt>
      <trkpt lat="46.66092" lon="6.05224">
        <ele>953.3</ele>
        <time>2022-10-25T12:19:30Z</time>
      </trkpt>
      <trkpt lat="46.6609" lon="6.05217">
        <ele>954.4</ele>
        <time>2022-10-25T12:19:35Z</time>
      </trkpt>
      <trkpt lat="46.66091" lon="6.05209">
        <ele>954.4</ele>
        <time>2022-10-25T12:19:40Z</time>
      </trkpt>
      <trkpt lat="46.66091" lon="6.05202">
        <ele>953.7</ele>
        <time>2022-10-25T12:19:45Z</time>
      </trkpt>
      <trkpt lat="46.66091" lon="6.05194">
        <ele>953.2</ele>
        <time>2022-10-25T12:19:50Z</time>
      </trkpt>
      <trkpt lat="46.66091" lon="6.05186">
        <ele>953.1</ele>
        <time>2022-10-25T12:19:55Z</time>
      </trkpt>
      <trkpt lat="46.66091" lon="6.05179">
        <ele>952.9</ele>
        <time>2022-10-25T12:20:00Z</time>
      </trkpt>
      <trkpt lat="46.66091" lon="6.05171">
        <ele>952.8</ele>
        <time>2022-10-25T12:20:05Z</time>
      </trkpt>
      <trkpt lat="46.66092" lon="6.05164">
        <ele>952.8</ele>
        <time>2022-10-25T12:20:10Z</time>
      </trkpt>
      <trkpt lat="46.66092" lon="6.05157">
        <ele>952.7</ele>
        <time>2022-10-25T12:20:15Z</time>
      </trkpt>
      <trkpt lat="46.66091" lon="6.0515">
        <ele>952.4</ele>
        <time>2022-10-25T12:20:20Z</time>
      </trkpt>
      <trkpt lat="46.66088" lon="6.05144">
        <ele>952.8</ele>
        <time>2022-10-25T12:20:24Z</time>
      </trkpt>
      <trkpt lat="46.66088" lon="6.05137">
        <ele>954.2</ele>
        <time>2022-10-25T12:20:29Z</time>
      </trkpt>
      <trkpt lat="46.6609" lon="6.0513">
        <ele>955.1</ele>
        <time>2022-10-25T12:20:34Z</time>
      </trkpt>
      <trkpt lat="46.66092" lon="6.05123">
        <ele>955.1</ele>
        <time>2022-10-25T12:20:39Z</time>
      </trkpt>
      <trkpt lat="46.66095" lon="6.05117">
        <ele>955.2</ele>
        <time>2022-10-25T12:20:44Z</time>
      </trkpt>
      <trkpt lat="46.66097" lon="6.05112">
        <ele>955.1</ele>
        <time>2022-10-25T12:20:48Z</time>
      </trkpt>
      <trkpt lat="46.66099" lon="6.05106">
        <ele>954.7</ele>
        <time>2022-10-25T12:20:52Z</time>
      </trkpt>
      <trkpt lat="46.66101" lon="6.05099">
        <ele>953.9</ele>
        <time>2022-10-25T12:20:57Z</time>
      </trkpt>
      <trkpt lat="46.66103" lon="6.05092">
        <ele>953.2</ele>
        <time>2022-10-25T12:21:02Z</time>
      </trkpt>
      <trkpt lat="46.66103" lon="6.05084">
        <ele>952.8</ele>
        <time>2022-10-25T12:21:07Z</time>
      </trkpt>
      <trkpt lat="46.66102" lon="6.05078">
        <ele>953</ele>
        <time>2022-10-25T12:21:12Z</time>
      </trkpt>
      <trkpt lat="46.661" lon="6.05071">
        <ele>954.2</ele>
        <time>2022-10-25T12:21:17Z</time>
      </trkpt>
      <trkpt lat="46.66097" lon="6.05066">
        <ele>955.2</ele>
        <time>2022-10-25T12:21:21Z</time>
      </trkpt>
      <trkpt lat="46.66094" lon="6.05061">
        <ele>956.4</ele>
        <time>2022-10-25T12:21:26Z</time>
      </trkpt>
      <trkpt lat="46.66091" lon="6.05055">
        <ele>957.6</ele>
        <time>2022-10-25T12:21:31Z</time>
      </trkpt>
      <trkpt lat="46.66089" lon="6.05048">
        <ele>958.2</ele>
        <time>2022-10-25T12:21:36Z</time>
      </trkpt>
      <trkpt lat="46.66086" lon="6.05041">
        <ele>958.5</ele>
        <time>2022-10-25T12:21:40Z</time>
      </trkpt>
      <trkpt lat="46.66084" lon="6.05035">
        <ele>958.9</ele>
        <time>2022-10-25T12:21:45Z</time>
      </trkpt>
      <trkpt lat="46.66082" lon="6.05027">
        <ele>959.5</ele>
        <time>2022-10-25T12:21:50Z</time>
      </trkpt>
      <trkpt lat="46.6608" lon="6.05021">
        <ele>959.8</ele>
        <time>2022-10-25T12:21:54Z</time>
      </trkpt>
      <trkpt lat="46.66078" lon="6.05015">
        <ele>960.4</ele>
        <time>2022-10-25T12:21:58Z</time>
      </trkpt>
      <trkpt lat="46.66075" lon="6.05009">
        <ele>961.4</ele>
        <time>2022-10-25T12:22:02Z</time>
      </trkpt>
      <trkpt lat="46.66072" lon="6.05003">
        <ele>962.4</ele>
        <time>2022-10-25T12:22:07Z</time>
      </trkpt>
      <trkpt lat="46.6607" lon="6.04997">
        <ele>962.9</ele>
        <time>2022-10-25T12:22:11Z</time>
      </trkpt>
      <trkpt lat="46.66067" lon="6.0499">
        <ele>963.5</ele>
        <time>2022-10-25T12:22:15Z</time>
      </trkpt>
      <trkpt lat="46.66064" lon="6.04985">
        <ele>963.9</ele>
        <time>2022-10-25T12:22:19Z</time>
      </trkpt>
      <trkpt lat="46.66061" lon="6.04979">
        <ele>964.5</ele>
        <time>2022-10-25T12:22:24Z</time>
      </trkpt>
      <trkpt lat="46.66058" lon="6.04973">
        <ele>964.9</ele>
        <time>2022-10-25T12:22:28Z</time>
      </trkpt>
      <trkpt lat="46.66055" lon="6.04968">
        <ele>965.1</ele>
        <time>2022-10-25T12:22:32Z</time>
      </trkpt>
      <trkpt lat="46.66051" lon="6.04965">
        <ele>965.4</ele>
        <time>2022-10-25T12:22:36Z</time>
      </trkpt>
      <trkpt lat="46.66046" lon="6.04963">
        <ele>965.4</ele>
        <time>2022-10-25T12:22:40Z</time>
      </trkpt>
      <trkpt lat="46.66042" lon="6.04959">
        <ele>964.9</ele>
        <time>2022-10-25T12:22:46Z</time>
      </trkpt>
      <trkpt lat="46.66037" lon="6.04957">
        <ele>964.7</ele>
        <time>2022-10-25T12:22:51Z</time>
      </trkpt>
      <trkpt lat="46.66033" lon="6.04954">
        <ele>963.9</ele>
        <time>2022-10-25T12:22:56Z</time>
      </trkpt>
      <trkpt lat="46.66028" lon="6.0495">
        <ele>963.3</ele>
        <time>2022-10-25T12:23:01Z</time>
      </trkpt>
      <trkpt lat="46.66025" lon="6.04945">
        <ele>962.8</ele>
        <time>2022-10-25T12:23:05Z</time>
      </trkpt>
      <trkpt lat="46.66021" lon="6.0494">
        <ele>961.8</ele>
        <time>2022-10-25T12:23:09Z</time>
      </trkpt>
      <trkpt lat="46.66017" lon="6.04936">
        <ele>960.4</ele>
        <time>2022-10-25T12:23:14Z</time>
      </trkpt>
      <trkpt lat="46.66013" lon="6.04933">
        <ele>959.2</ele>
        <time>2022-10-25T12:23:19Z</time>
      </trkpt>
      <trkpt lat="46.66009" lon="6.0493">
        <ele>958.1</ele>
        <time>2022-10-25T12:23:25Z</time>
      </trkpt>
      <trkpt lat="46.66005" lon="6.04926">
        <ele>957.1</ele>
        <time>2022-10-25T12:23:31Z</time>
      </trkpt>
      <trkpt lat="46.66001" lon="6.04922">
        <ele>955.6</ele>
        <time>2022-10-25T12:23:37Z</time>
      </trkpt>
      <trkpt lat="46.65997" lon="6.0492">
        <ele>954.1</ele>
        <time>2022-10-25T12:23:43Z</time>
      </trkpt>
      <trkpt lat="46.65993" lon="6.04916">
        <ele>953.2</ele>
        <time>2022-10-25T12:23:48Z</time>
      </trkpt>
      <trkpt lat="46.65989" lon="6.04914">
        <ele>952.8</ele>
        <time>2022-10-25T12:23:53Z</time>
      </trkpt>
      <trkpt lat="46.65984" lon="6.04912">
        <ele>952.6</ele>
        <time>2022-10-25T12:23:58Z</time>
      </trkpt>
      <trkpt lat="46.65978" lon="6.04909">
        <ele>952.8</ele>
        <time>2022-10-25T12:24:03Z</time>
      </trkpt>
      <trkpt lat="46.65974" lon="6.04907">
        <ele>953.1</ele>
        <time>2022-10-25T12:24:07Z</time>
      </trkpt>
      <trkpt lat="46.65969" lon="6.04904">
        <ele>953.4</ele>
        <time>2022-10-25T12:24:12Z</time>
      </trkpt>
      <trkpt lat="46.65964" lon="6.04902">
        <ele>953.4</ele>
        <time>2022-10-25T12:24:17Z</time>
      </trkpt>
      <trkpt lat="46.65959" lon="6.049">
        <ele>952.8</ele>
        <time>2022-10-25T12:24:22Z</time>
      </trkpt>
      <trkpt lat="46.65954" lon="6.04897">
        <ele>951.7</ele>
        <time>2022-10-25T12:24:28Z</time>
      </trkpt>
      <trkpt lat="46.6595" lon="6.04893">
        <ele>950.5</ele>
        <time>2022-10-25T12:24:38Z</time>
      </trkpt>
      <trkpt lat="46.65948" lon="6.04886">
        <ele>950.7</ele>
        <time>2022-10-25T12:24:46Z</time>
      </trkpt>
      <trkpt lat="46.65945" lon="6.04879">
        <ele>949.6</ele>
        <time>2022-10-25T12:24:52Z</time>
      </trkpt>
      <trkpt lat="46.65942" lon="6.04873">
        <ele>948.8</ele>
        <time>2022-10-25T12:24:57Z</time>
      </trkpt>
      <trkpt lat="46.65938" lon="6.04868">
        <ele>948.3</ele>
        <time>2022-10-25T12:25:01Z</time>
      </trkpt>
      <trkpt lat="46.65934" lon="6.04863">
        <ele>947.9</ele>
        <time>2022-10-25T12:25:06Z</time>
      </trkpt>
      <trkpt lat="46.65932" lon="6.04858">
        <ele>947.3</ele>
        <time>2022-10-25T12:25:11Z</time>
      </trkpt>
      <trkpt lat="46.6593" lon="6.04851">
        <ele>946.6</ele>
        <time>2022-10-25T12:25:16Z</time>
      </trkpt>
      <trkpt lat="46.65927" lon="6.04845">
        <ele>945.7</ele>
        <time>2022-10-25T12:25:21Z</time>
      </trkpt>
      <trkpt lat="46.65923" lon="6.04839">
        <ele>945</ele>
        <time>2022-10-25T12:25:25Z</time>
      </trkpt>
      <trkpt lat="46.6592" lon="6.04834">
        <ele>944.3</ele>
        <time>2022-10-25T12:25:31Z</time>
      </trkpt>
      <trkpt lat="46.65916" lon="6.04829">
        <ele>947.6</ele>
        <time>2022-10-25T12:26:50Z</time>
      </trkpt>
      <trkpt lat="46.65913" lon="6.04823">
        <ele>949.5</ele>
        <time>2022-10-25T12:26:54Z</time>
      </trkpt>
      <trkpt lat="46.6591" lon="6.04816">
        <ele>951.1</ele>
        <time>2022-10-25T12:26:58Z</time>
      </trkpt>
      <trkpt lat="46.65906" lon="6.0481">
        <ele>952.5</ele>
        <time>2022-10-25T12:27:02Z</time>
      </trkpt>
      <trkpt lat="46.65902" lon="6.04806">
        <ele>953.8</ele>
        <time>2022-10-25T12:27:06Z</time>
      </trkpt>
      <trkpt lat="46.65898" lon="6.048">
        <ele>954.5</ele>
        <time>2022-10-25T12:27:11Z</time>
      </trkpt>
      <trkpt lat="46.65895" lon="6.04793">
        <ele>955.3</ele>
        <time>2022-10-25T12:27:15Z</time>
      </trkpt>
      <trkpt lat="46.65894" lon="6.04787">
        <ele>955.9</ele>
        <time>2022-10-25T12:27:19Z</time>
      </trkpt>
      <trkpt lat="46.65894" lon="6.0478">
        <ele>956.6</ele>
        <time>2022-10-25T12:27:24Z</time>
      </trkpt>
      <trkpt lat="46.65891" lon="6.04773">
        <ele>956.8</ele>
        <time>2022-10-25T12:27:29Z</time>
      </trkpt>
      <trkpt lat="46.65888" lon="6.04768">
        <ele>956.7</ele>
        <time>2022-10-25T12:27:33Z</time>
      </trkpt>
      <trkpt lat="46.65885" lon="6.04762">
        <ele>956.6</ele>
        <time>2022-10-25T12:27:37Z</time>
      </trkpt>
      <trkpt lat="46.65882" lon="6.04757">
        <ele>956.8</ele>
        <time>2022-10-25T12:27:41Z</time>
      </trkpt>
      <trkpt lat="46.65879" lon="6.04751">
        <ele>957</ele>
        <time>2022-10-25T12:27:45Z</time>
      </trkpt>
      <trkpt lat="46.65876" lon="6.04745">
        <ele>957.2</ele>
        <time>2022-10-25T12:27:49Z</time>
      </trkpt>
      <trkpt lat="46.65874" lon="6.04738">
        <ele>957.7</ele>
        <time>2022-10-25T12:27:54Z</time>
      </trkpt>
      <trkpt lat="46.6587" lon="6.04733">
        <ele>958</ele>
        <time>2022-10-25T12:27:57Z</time>
      </trkpt>
      <trkpt lat="46.65866" lon="6.04729">
        <ele>958.6</ele>
        <time>2022-10-25T12:28:00Z</time>
      </trkpt>
      <trkpt lat="46.65863" lon="6.04723">
        <ele>959.1</ele>
        <time>2022-10-25T12:28:04Z</time>
      </trkpt>
      <trkpt lat="46.65859" lon="6.04716">
        <ele>959.4</ele>
        <time>2022-10-25T12:28:08Z</time>
      </trkpt>
      <trkpt lat="46.65855" lon="6.04711">
        <ele>959.2</ele>
        <time>2022-10-25T12:28:12Z</time>
      </trkpt>
      <trkpt lat="46.65852" lon="6.04706">
        <ele>958.6</ele>
        <time>2022-10-25T12:28:16Z</time>
      </trkpt>
      <trkpt lat="46.6585" lon="6.04699">
        <ele>957.5</ele>
        <time>2022-10-25T12:28:21Z</time>
      </trkpt>
      <trkpt lat="46.65847" lon="6.04693">
        <ele>956.7</ele>
        <time>2022-10-25T12:28:25Z</time>
      </trkpt>
      <trkpt lat="46.65843" lon="6.04687">
        <ele>956.1</ele>
        <time>2022-10-25T12:28:29Z</time>
      </trkpt>
      <trkpt lat="46.6584" lon="6.04682">
        <ele>955.7</ele>
        <time>2022-10-25T12:28:32Z</time>
      </trkpt>
      <trkpt lat="46.65838" lon="6.04675">
        <ele>955.5</ele>
        <time>2022-10-25T12:28:35Z</time>
      </trkpt>
      <trkpt lat="46.65836" lon="6.04668">
        <ele>955.2</ele>
        <time>2022-10-25T12:28:39Z</time>
      </trkpt>
      <trkpt lat="46.65833" lon="6.04663">
        <ele>954.7</ele>
        <time>2022-10-25T12:28:43Z</time>
      </trkpt>
      <trkpt lat="46.65832" lon="6.04656">
        <ele>954.4</ele>
        <time>2022-10-25T12:28:48Z</time>
      </trkpt>
      <trkpt lat="46.65828" lon="6.04649">
        <ele>954.5</ele>
        <time>2022-10-25T12:28:53Z</time>
      </trkpt>
      <trkpt lat="46.65825" lon="6.04645">
        <ele>955.1</ele>
        <time>2022-10-25T12:28:58Z</time>
      </trkpt>
      <trkpt lat="46.65821" lon="6.04639">
        <ele>955.5</ele>
        <time>2022-10-25T12:29:06Z</time>
      </trkpt>
      <trkpt lat="46.65816" lon="6.04637">
        <ele>955.4</ele>
        <time>2022-10-25T12:29:10Z</time>
      </trkpt>
      <trkpt lat="46.65812" lon="6.04633">
        <ele>955.2</ele>
        <time>2022-10-25T12:29:14Z</time>
      </trkpt>
      <trkpt lat="46.65808" lon="6.04628">
        <ele>954.8</ele>
        <time>2022-10-25T12:29:18Z</time>
      </trkpt>
      <trkpt lat="46.65804" lon="6.04624">
        <ele>954.6</ele>
        <time>2022-10-25T12:29:22Z</time>
      </trkpt>
      <trkpt lat="46.65799" lon="6.04621">
        <ele>954</ele>
        <time>2022-10-25T12:29:27Z</time>
      </trkpt>
      <trkpt lat="46.65794" lon="6.04618">
        <ele>952.8</ele>
        <time>2022-10-25T12:29:33Z</time>
      </trkpt>
      <trkpt lat="46.6579" lon="6.04615">
        <ele>952.5</ele>
        <time>2022-10-25T12:29:37Z</time>
      </trkpt>
      <trkpt lat="46.65785" lon="6.04615">
        <ele>951.5</ele>
        <time>2022-10-25T12:29:43Z</time>
      </trkpt>
      <trkpt lat="46.6578" lon="6.04613">
        <ele>950.6</ele>
        <time>2022-10-25T12:29:48Z</time>
      </trkpt>
      <trkpt lat="46.65775" lon="6.04612">
        <ele>949.7</ele>
        <time>2022-10-25T12:29:53Z</time>
      </trkpt>
      <trkpt lat="46.6577" lon="6.0461">
        <ele>949.5</ele>
        <time>2022-10-25T12:29:58Z</time>
      </trkpt>
      <trkpt lat="46.65766" lon="6.04606">
        <ele>948.8</ele>
        <time>2022-10-25T12:30:03Z</time>
      </trkpt>
      <trkpt lat="46.65761" lon="6.04602">
        <ele>948.2</ele>
        <time>2022-10-25T12:30:08Z</time>
      </trkpt>
      <trkpt lat="46.65757" lon="6.04599">
        <ele>947.7</ele>
        <time>2022-10-25T12:30:13Z</time>
      </trkpt>
      <trkpt lat="46.65753" lon="6.04596">
        <ele>947.1</ele>
        <time>2022-10-25T12:30:18Z</time>
      </trkpt>
      <trkpt lat="46.65748" lon="6.04594">
        <ele>946.9</ele>
        <time>2022-10-25T12:30:23Z</time>
      </trkpt>
      <trkpt lat="46.65744" lon="6.04592">
        <ele>947.1</ele>
        <time>2022-10-25T12:30:27Z</time>
      </trkpt>
      <trkpt lat="46.65738" lon="6.0459">
        <ele>947.8</ele>
        <time>2022-10-25T12:30:32Z</time>
      </trkpt>
      <trkpt lat="46.65733" lon="6.04588">
        <ele>948.6</ele>
        <time>2022-10-25T12:30:36Z</time>
      </trkpt>
      <trkpt lat="46.65728" lon="6.04585">
        <ele>949.2</ele>
        <time>2022-10-25T12:30:40Z</time>
      </trkpt>
      <trkpt lat="46.65724" lon="6.04583">
        <ele>949.3</ele>
        <time>2022-10-25T12:30:44Z</time>
      </trkpt>
      <trkpt lat="46.6572" lon="6.04578">
        <ele>949.5</ele>
        <time>2022-10-25T12:30:49Z</time>
      </trkpt>
      <trkpt lat="46.65716" lon="6.04574">
        <ele>949.5</ele>
        <time>2022-10-25T12:30:54Z</time>
      </trkpt>
      <trkpt lat="46.65712" lon="6.04571">
        <ele>949.2</ele>
        <time>2022-10-25T12:30:58Z</time>
      </trkpt>
      <trkpt lat="46.65707" lon="6.04569">
        <ele>948.5</ele>
        <time>2022-10-25T12:31:02Z</time>
      </trkpt>
      <trkpt lat="46.65704" lon="6.04565">
        <ele>947.4</ele>
        <time>2022-10-25T12:31:07Z</time>
      </trkpt>
      <trkpt lat="46.65699" lon="6.04562">
        <ele>946.3</ele>
        <time>2022-10-25T12:31:12Z</time>
      </trkpt>
      <trkpt lat="46.65696" lon="6.04557">
        <ele>946.2</ele>
        <time>2022-10-25T12:31:17Z</time>
      </trkpt>
      <trkpt lat="46.65693" lon="6.04551">
        <ele>946.9</ele>
        <time>2022-10-25T12:31:24Z</time>
      </trkpt>
      <trkpt lat="46.65689" lon="6.04549">
        <ele>947.7</ele>
        <time>2022-10-25T12:31:34Z</time>
      </trkpt>
      <trkpt lat="46.65684" lon="6.04546">
        <ele>948.1</ele>
        <time>2022-10-25T12:31:55Z</time>
      </trkpt>
      <trkpt lat="46.65681" lon="6.04541">
        <ele>947.6</ele>
        <time>2022-10-25T12:31:59Z</time>
      </trkpt>
      <trkpt lat="46.65677" lon="6.04537">
        <ele>947.5</ele>
        <time>2022-10-25T12:32:03Z</time>
      </trkpt>
      <trkpt lat="46.65672" lon="6.04533">
        <ele>947.5</ele>
        <time>2022-10-25T12:32:08Z</time>
      </trkpt>
      <trkpt lat="46.65668" lon="6.04529">
        <ele>947.6</ele>
        <time>2022-10-25T12:32:12Z</time>
      </trkpt>
      <trkpt lat="46.65664" lon="6.04526">
        <ele>947.4</ele>
        <time>2022-10-25T12:32:16Z</time>
      </trkpt>
      <trkpt lat="46.65659" lon="6.04524">
        <ele>946.9</ele>
        <time>2022-10-25T12:32:21Z</time>
      </trkpt>
      <trkpt lat="46.65654" lon="6.04521">
        <ele>947.4</ele>
        <time>2022-10-25T12:32:25Z</time>
      </trkpt>
      <trkpt lat="46.6565" lon="6.04517">
        <ele>947.7</ele>
        <time>2022-10-25T12:32:29Z</time>
      </trkpt>
      <trkpt lat="46.65645" lon="6.04515">
        <ele>947.8</ele>
        <time>2022-10-25T12:32:33Z</time>
      </trkpt>
      <trkpt lat="46.6564" lon="6.04511">
        <ele>948</ele>
        <time>2022-10-25T12:32:37Z</time>
      </trkpt>
      <trkpt lat="46.65638" lon="6.04506">
        <ele>948.1</ele>
        <time>2022-10-25T12:32:41Z</time>
      </trkpt>
      <trkpt lat="46.65635" lon="6.04499">
        <ele>948.4</ele>
        <time>2022-10-25T12:32:46Z</time>
      </trkpt>
      <trkpt lat="46.65633" lon="6.04493">
        <ele>948</ele>
        <time>2022-10-25T12:32:50Z</time>
      </trkpt>
      <trkpt lat="46.6563" lon="6.04487">
        <ele>947</ele>
        <time>2022-10-25T12:32:54Z</time>
      </trkpt>
      <trkpt lat="46.65626" lon="6.04483">
        <ele>944.9</ele>
        <time>2022-10-25T12:33:02Z</time>
      </trkpt>
      <trkpt lat="46.65623" lon="6.04478">
        <ele>946</ele>
        <time>2022-10-25T12:33:25Z</time>
      </trkpt>
      <trkpt lat="46.65618" lon="6.04477">
        <ele>946.1</ele>
        <time>2022-10-25T12:33:31Z</time>
      </trkpt>
      <trkpt lat="46.65614" lon="6.04472">
        <ele>946.5</ele>
        <time>2022-10-25T12:33:46Z</time>
      </trkpt>
      <trkpt lat="46.6561" lon="6.04468">
        <ele>947</ele>
        <time>2022-10-25T12:33:51Z</time>
      </trkpt>
      <trkpt lat="46.65605" lon="6.04463">
        <ele>947.3</ele>
        <time>2022-10-25T12:33:56Z</time>
      </trkpt>
      <trkpt lat="46.65602" lon="6.04458">
        <ele>947.6</ele>
        <time>2022-10-25T12:34:00Z</time>
      </trkpt>
      <trkpt lat="46.65598" lon="6.04452">
        <ele>947.9</ele>
        <time>2022-10-25T12:34:05Z</time>
      </trkpt>
      <trkpt lat="46.65595" lon="6.04447">
        <ele>947.9</ele>
        <time>2022-10-25T12:34:10Z</time>
      </trkpt>
      <trkpt lat="46.65591" lon="6.04441">
        <ele>947.3</ele>
        <time>2022-10-25T12:34:15Z</time>
      </trkpt>
      <trkpt lat="46.65588" lon="6.04435">
        <ele>947.2</ele>
        <time>2022-10-25T12:34:20Z</time>
      </trkpt>
      <trkpt lat="46.65585" lon="6.0443">
        <ele>947.6</ele>
        <time>2022-10-25T12:34:25Z</time>
      </trkpt>
      <trkpt lat="46.65581" lon="6.04424">
        <ele>948.5</ele>
        <time>2022-10-25T12:34:30Z</time>
      </trkpt>
      <trkpt lat="46.65578" lon="6.04419">
        <ele>949.5</ele>
        <time>2022-10-25T12:34:34Z</time>
      </trkpt>
      <trkpt lat="46.65575" lon="6.04413">
        <ele>950.1</ele>
        <time>2022-10-25T12:34:38Z</time>
      </trkpt>
      <trkpt lat="46.65572" lon="6.04407">
        <ele>950.4</ele>
        <time>2022-10-25T12:34:43Z</time>
      </trkpt>
      <trkpt lat="46.65568" lon="6.04402">
        <ele>950.1</ele>
        <time>2022-10-25T12:34:48Z</time>
      </trkpt>
      <trkpt lat="46.65565" lon="6.04396">
        <ele>949.9</ele>
        <time>2022-10-25T12:34:53Z</time>
      </trkpt>
      <trkpt lat="46.65562" lon="6.0439">
        <ele>949.8</ele>
        <time>2022-10-25T12:34:58Z</time>
      </trkpt>
      <trkpt lat="46.65558" lon="6.04385">
        <ele>949.6</ele>
        <time>2022-10-25T12:35:02Z</time>
      </trkpt>
      <trkpt lat="46.65556" lon="6.04379">
        <ele>949.1</ele>
        <time>2022-10-25T12:35:08Z</time>
      </trkpt>
      <trkpt lat="46.65553" lon="6.04373">
        <ele>948.9</ele>
        <time>2022-10-25T12:35:13Z</time>
      </trkpt>
      <trkpt lat="46.6555" lon="6.04367">
        <ele>949.1</ele>
        <time>2022-10-25T12:35:18Z</time>
      </trkpt>
      <trkpt lat="46.65547" lon="6.04361">
        <ele>949</ele>
        <time>2022-10-25T12:35:23Z</time>
      </trkpt>
      <trkpt lat="46.65544" lon="6.04354">
        <ele>949.1</ele>
        <time>2022-10-25T12:35:28Z</time>
      </trkpt>
      <trkpt lat="46.65541" lon="6.04349">
        <ele>949.1</ele>
        <time>2022-10-25T12:35:33Z</time>
      </trkpt>
      <trkpt lat="46.65537" lon="6.04344">
        <ele>948.8</ele>
        <time>2022-10-25T12:35:38Z</time>
      </trkpt>
      <trkpt lat="46.65533" lon="6.04339">
        <ele>948.7</ele>
        <time>2022-10-25T12:35:43Z</time>
      </trkpt>
      <trkpt lat="46.6553" lon="6.04333">
        <ele>948.8</ele>
        <time>2022-10-25T12:35:48Z</time>
      </trkpt>
      <trkpt lat="46.65528" lon="6.04327">
        <ele>949.1</ele>
        <time>2022-10-25T12:35:53Z</time>
      </trkpt>
      <trkpt lat="46.65525" lon="6.04322">
        <ele>949.6</ele>
        <time>2022-10-25T12:35:59Z</time>
      </trkpt>
      <trkpt lat="46.65522" lon="6.04317">
        <ele>949.9</ele>
        <time>2022-10-25T12:36:04Z</time>
      </trkpt>
      <trkpt lat="46.65518" lon="6.04313">
        <ele>949.5</ele>
        <time>2022-10-25T12:36:09Z</time>
      </trkpt>
      <trkpt lat="46.65513" lon="6.0431">
        <ele>949.2</ele>
        <time>2022-10-25T12:36:14Z</time>
      </trkpt>
      <trkpt lat="46.65508" lon="6.04307">
        <ele>949.2</ele>
        <time>2022-10-25T12:36:19Z</time>
      </trkpt>
      <trkpt lat="46.65504" lon="6.04303">
        <ele>948.9</ele>
        <time>2022-10-25T12:36:25Z</time>
      </trkpt>
      <trkpt lat="46.655" lon="6.04299">
        <ele>948.6</ele>
        <time>2022-10-25T12:36:31Z</time>
      </trkpt>
      <trkpt lat="46.65495" lon="6.04295">
        <ele>947.9</ele>
        <time>2022-10-25T12:36:36Z</time>
      </trkpt>
      <trkpt lat="46.65491" lon="6.0429">
        <ele>946.4</ele>
        <time>2022-10-25T12:36:41Z</time>
      </trkpt>
      <trkpt lat="46.65487" lon="6.04286">
        <ele>944.5</ele>
        <time>2022-10-25T12:36:47Z</time>
      </trkpt>
      <trkpt lat="46.65482" lon="6.04283">
        <ele>943.2</ele>
        <time>2022-10-25T12:36:52Z</time>
      </trkpt>
      <trkpt lat="46.65479" lon="6.04279">
        <ele>941.7</ele>
        <time>2022-10-25T12:37:01Z</time>
      </trkpt>
      <trkpt lat="46.65475" lon="6.04273">
        <ele>941.8</ele>
        <time>2022-10-25T12:37:13Z</time>
      </trkpt>
      <trkpt lat="46.65473" lon="6.04267">
        <ele>941.7</ele>
        <time>2022-10-25T12:37:19Z</time>
      </trkpt>
      <trkpt lat="46.65471" lon="6.04261">
        <ele>941.4</ele>
        <time>2022-10-25T12:37:24Z</time>
      </trkpt>
      <trkpt lat="46.65467" lon="6.04255">
        <ele>941.4</ele>
        <time>2022-10-25T12:37:29Z</time>
      </trkpt>
      <trkpt lat="46.65462" lon="6.04253">
        <ele>941.7</ele>
        <time>2022-10-25T12:37:34Z</time>
      </trkpt>
      <trkpt lat="46.65457" lon="6.04255">
        <ele>942.4</ele>
        <time>2022-10-25T12:37:39Z</time>
      </trkpt>
      <trkpt lat="46.65453" lon="6.04259">
        <ele>942.6</ele>
        <time>2022-10-25T12:37:45Z</time>
      </trkpt>
      <trkpt lat="46.6545" lon="6.04264">
        <ele>942.4</ele>
        <time>2022-10-25T12:37:51Z</time>
      </trkpt>
      <trkpt lat="46.65446" lon="6.04268">
        <ele>941.9</ele>
        <time>2022-10-25T12:37:57Z</time>
      </trkpt>
      <trkpt lat="46.65441" lon="6.04271">
        <ele>941.7</ele>
        <time>2022-10-25T12:38:01Z</time>
      </trkpt>
      <trkpt lat="46.65434" lon="6.04276">
        <ele>950.3</ele>
        <time>2022-10-25T12:38:09Z</time>
      </trkpt>
      <trkpt lat="46.6543" lon="6.0427">
        <ele>957.6</ele>
        <time>2022-10-25T12:38:20Z</time>
      </trkpt>
      <trkpt lat="46.65429" lon="6.04263">
        <ele>957.3</ele>
        <time>2022-10-25T12:38:23Z</time>
      </trkpt>
      <trkpt lat="46.65426" lon="6.04256">
        <ele>956</ele>
        <time>2022-10-25T12:38:27Z</time>
      </trkpt>
      <trkpt lat="46.65423" lon="6.04251">
        <ele>950.6</ele>
        <time>2022-10-25T12:38:34Z</time>
      </trkpt>
      <trkpt lat="46.6542" lon="6.04245">
        <ele>946.4</ele>
        <time>2022-10-25T12:38:40Z</time>
      </trkpt>
      <trkpt lat="46.65417" lon="6.04239">
        <ele>944</ele>
        <time>2022-10-25T12:38:45Z</time>
      </trkpt>
      <trkpt lat="46.65415" lon="6.04233">
        <ele>941.8</ele>
        <time>2022-10-25T12:38:52Z</time>
      </trkpt>
      <trkpt lat="46.65412" lon="6.04228">
        <ele>940.5</ele>
        <time>2022-10-25T12:38:58Z</time>
      </trkpt>
      <trkpt lat="46.65409" lon="6.04221">
        <ele>939.8</ele>
        <time>2022-10-25T12:39:03Z</time>
      </trkpt>
      <trkpt lat="46.65407" lon="6.04215">
        <ele>938.6</ele>
        <time>2022-10-25T12:39:07Z</time>
      </trkpt>
      <trkpt lat="46.65404" lon="6.04208">
        <ele>938.3</ele>
        <time>2022-10-25T12:39:12Z</time>
      </trkpt>
      <trkpt lat="46.65401" lon="6.04202">
        <ele>937.8</ele>
        <time>2022-10-25T12:39:17Z</time>
      </trkpt>
      <trkpt lat="46.65398" lon="6.04197">
        <ele>937.1</ele>
        <time>2022-10-25T12:39:21Z</time>
      </trkpt>
      <trkpt lat="46.65396" lon="6.0419">
        <ele>937</ele>
        <time>2022-10-25T12:39:26Z</time>
      </trkpt>
      <trkpt lat="46.65393" lon="6.04185">
        <ele>936.6</ele>
        <time>2022-10-25T12:39:31Z</time>
      </trkpt>
      <trkpt lat="46.6539" lon="6.04178">
        <ele>936.3</ele>
        <time>2022-10-25T12:39:36Z</time>
      </trkpt>
      <trkpt lat="46.65388" lon="6.04173">
        <ele>936.1</ele>
        <time>2022-10-25T12:39:40Z</time>
      </trkpt>
      <trkpt lat="46.65385" lon="6.04168">
        <ele>936</ele>
        <time>2022-10-25T12:39:44Z</time>
      </trkpt>
      <trkpt lat="46.65382" lon="6.04162">
        <ele>935.4</ele>
        <time>2022-10-25T12:39:48Z</time>
      </trkpt>
      <trkpt lat="46.65379" lon="6.04157">
        <ele>934.9</ele>
        <time>2022-10-25T12:39:52Z</time>
      </trkpt>
      <trkpt lat="46.65375" lon="6.04152">
        <ele>934.8</ele>
        <time>2022-10-25T12:39:56Z</time>
      </trkpt>
      <trkpt lat="46.65372" lon="6.04146">
        <ele>935.6</ele>
        <time>2022-10-25T12:40:02Z</time>
      </trkpt>
      <trkpt lat="46.65368" lon="6.04142">
        <ele>936.1</ele>
        <time>2022-10-25T12:40:07Z</time>
      </trkpt>
      <trkpt lat="46.65364" lon="6.04138">
        <ele>936</ele>
        <time>2022-10-25T12:40:12Z</time>
      </trkpt>
      <trkpt lat="46.6536" lon="6.04134">
        <ele>936</ele>
        <time>2022-10-25T12:40:17Z</time>
      </trkpt>
      <trkpt lat="46.65357" lon="6.04128">
        <ele>935.1</ele>
        <time>2022-10-25T12:40:22Z</time>
      </trkpt>
      <trkpt lat="46.65355" lon="6.04123">
        <ele>933.5</ele>
        <time>2022-10-25T12:40:27Z</time>
      </trkpt>
      <trkpt lat="46.6535" lon="6.04118">
        <ele>931.8</ele>
        <time>2022-10-25T12:40:34Z</time>
      </trkpt>
      <trkpt lat="46.65346" lon="6.04114">
        <ele>931.3</ele>
        <time>2022-10-25T12:40:38Z</time>
      </trkpt>
      <trkpt lat="46.65342" lon="6.0411">
        <ele>931.2</ele>
        <time>2022-10-25T12:40:42Z</time>
      </trkpt>
      <trkpt lat="46.65338" lon="6.04105">
        <ele>931.2</ele>
        <time>2022-10-25T12:40:47Z</time>
      </trkpt>
      <trkpt lat="46.65335" lon="6.041">
        <ele>931.1</ele>
        <time>2022-10-25T12:40:52Z</time>
      </trkpt>
      <trkpt lat="46.65331" lon="6.04094">
        <ele>931.5</ele>
        <time>2022-10-25T12:40:58Z</time>
      </trkpt>
      <trkpt lat="46.65327" lon="6.0409">
        <ele>931.7</ele>
        <time>2022-10-25T12:41:03Z</time>
      </trkpt>
      <trkpt lat="46.65323" lon="6.04085">
        <ele>931.8</ele>
        <time>2022-10-25T12:41:08Z</time>
      </trkpt>
      <trkpt lat="46.65319" lon="6.04081">
        <ele>931.1</ele>
        <time>2022-10-25T12:41:13Z</time>
      </trkpt>
      <trkpt lat="46.65314" lon="6.04078">
        <ele>929.5</ele>
        <time>2022-10-25T12:41:26Z</time>
      </trkpt>
      <trkpt lat="46.65309" lon="6.04076">
        <ele>931.1</ele>
        <time>2022-10-25T12:41:42Z</time>
      </trkpt>
      <trkpt lat="46.65305" lon="6.04072">
        <ele>931</ele>
        <time>2022-10-25T12:41:47Z</time>
      </trkpt>
      <trkpt lat="46.65301" lon="6.04067">
        <ele>931</ele>
        <time>2022-10-25T12:41:52Z</time>
      </trkpt>
      <trkpt lat="46.65298" lon="6.04063">
        <ele>931</ele>
        <time>2022-10-25T12:41:58Z</time>
      </trkpt>
      <trkpt lat="46.65293" lon="6.0406">
        <ele>930.6</ele>
        <time>2022-10-25T12:42:03Z</time>
      </trkpt>
      <trkpt lat="46.65288" lon="6.04059">
        <ele>930.2</ele>
        <time>2022-10-25T12:42:09Z</time>
      </trkpt>
      <trkpt lat="46.65284" lon="6.04061">
        <ele>929.3</ele>
        <time>2022-10-25T12:42:16Z</time>
      </trkpt>
      <trkpt lat="46.65282" lon="6.04067">
        <ele>927.1</ele>
        <time>2022-10-25T12:42:23Z</time>
      </trkpt>
      <trkpt lat="46.65278" lon="6.04073">
        <ele>925.7</ele>
        <time>2022-10-25T12:42:29Z</time>
      </trkpt>
      <trkpt lat="46.65274" lon="6.04076">
        <ele>925.3</ele>
        <time>2022-10-25T12:42:33Z</time>
      </trkpt>
      <trkpt lat="46.65269" lon="6.0408">
        <ele>924.9</ele>
        <time>2022-10-25T12:42:38Z</time>
      </trkpt>
      <trkpt lat="46.65265" lon="6.04084">
        <ele>924.8</ele>
        <time>2022-10-25T12:42:44Z</time>
      </trkpt>
      <trkpt lat="46.65261" lon="6.0409">
        <ele>925.1</ele>
        <time>2022-10-25T12:42:51Z</time>
      </trkpt>
      <trkpt lat="46.65258" lon="6.04095">
        <ele>924.9</ele>
        <time>2022-10-25T12:42:56Z</time>
      </trkpt>
      <trkpt lat="46.65254" lon="6.04098">
        <ele>924.5</ele>
        <time>2022-10-25T12:43:00Z</time>
      </trkpt>
      <trkpt lat="46.65249" lon="6.04099">
        <ele>924.4</ele>
        <time>2022-10-25T12:43:04Z</time>
      </trkpt>
      <trkpt lat="46.65244" lon="6.041">
        <ele>924.3</ele>
        <time>2022-10-25T12:43:11Z</time>
      </trkpt>
      <trkpt lat="46.65241" lon="6.04094">
        <ele>924.4</ele>
        <time>2022-10-25T12:43:18Z</time>
      </trkpt>
      <trkpt lat="46.65237" lon="6.0409">
        <ele>924.7</ele>
        <time>2022-10-25T12:43:23Z</time>
      </trkpt>
      <trkpt lat="46.65234" lon="6.04085">
        <ele>925</ele>
        <time>2022-10-25T12:43:29Z</time>
      </trkpt>
      <trkpt lat="46.6523" lon="6.04081">
        <ele>924.8</ele>
        <time>2022-10-25T12:43:35Z</time>
      </trkpt>
      <trkpt lat="46.65226" lon="6.04078">
        <ele>924.4</ele>
        <time>2022-10-25T12:43:42Z</time>
      </trkpt>
      <trkpt lat="46.65221" lon="6.04077">
        <ele>923.7</ele>
        <time>2022-10-25T12:43:50Z</time>
      </trkpt>
      <trkpt lat="46.65215" lon="6.04075">
        <ele>922.8</ele>
        <time>2022-10-25T12:43:56Z</time>
      </trkpt>
      <trkpt lat="46.6521" lon="6.04077">
        <ele>921.6</ele>
        <time>2022-10-25T12:44:03Z</time>
      </trkpt>
      <trkpt lat="46.65205" lon="6.0408">
        <ele>921.2</ele>
        <time>2022-10-25T12:44:09Z</time>
      </trkpt>
      <trkpt lat="46.65201" lon="6.04083">
        <ele>921.6</ele>
        <time>2022-10-25T12:44:14Z</time>
      </trkpt>
      <trkpt lat="46.65197" lon="6.04086">
        <ele>921.4</ele>
        <time>2022-10-25T12:44:19Z</time>
      </trkpt>
      <trkpt lat="46.65192" lon="6.04089">
        <ele>920.5</ele>
        <time>2022-10-25T12:44:25Z</time>
      </trkpt>
      <trkpt lat="46.65188" lon="6.04092">
        <ele>919.5</ele>
        <time>2022-10-25T12:44:31Z</time>
      </trkpt>
      <trkpt lat="46.65183" lon="6.04094">
        <ele>918.5</ele>
        <time>2022-10-25T12:44:37Z</time>
      </trkpt>
      <trkpt lat="46.65178" lon="6.04095">
        <ele>917.8</ele>
        <time>2022-10-25T12:44:41Z</time>
      </trkpt>
      <trkpt lat="46.65174" lon="6.04097">
        <ele>916.9</ele>
        <time>2022-10-25T12:44:47Z</time>
      </trkpt>
      <trkpt lat="46.65169" lon="6.04097">
        <ele>915.1</ele>
        <time>2022-10-25T12:44:54Z</time>
      </trkpt>
      <trkpt lat="46.65164" lon="6.04095">
        <ele>914.2</ele>
        <time>2022-10-25T12:44:59Z</time>
      </trkpt>
      <trkpt lat="46.65159" lon="6.04095">
        <ele>912.8</ele>
        <time>2022-10-25T12:45:04Z</time>
      </trkpt>
      <trkpt lat="46.65154" lon="6.04096">
        <ele>912.5</ele>
        <time>2022-10-25T12:45:08Z</time>
      </trkpt>
      <trkpt lat="46.65149" lon="6.04098">
        <ele>911.5</ele>
        <time>2022-10-25T12:45:13Z</time>
      </trkpt>
      <trkpt lat="46.65144" lon="6.04101">
        <ele>910.4</ele>
        <time>2022-10-25T12:45:18Z</time>
      </trkpt>
      <trkpt lat="46.6514" lon="6.04105">
        <ele>909.6</ele>
        <time>2022-10-25T12:45:23Z</time>
      </trkpt>
      <trkpt lat="46.65135" lon="6.04109">
        <ele>909.3</ele>
        <time>2022-10-25T12:45:28Z</time>
      </trkpt>
      <trkpt lat="46.65131" lon="6.04113">
        <ele>909.3</ele>
        <time>2022-10-25T12:45:33Z</time>
      </trkpt>
      <trkpt lat="46.65127" lon="6.04116">
        <ele>909.1</ele>
        <time>2022-10-25T12:45:37Z</time>
      </trkpt>
      <trkpt lat="46.65123" lon="6.0412">
        <ele>909.4</ele>
        <time>2022-10-25T12:45:41Z</time>
      </trkpt>
      <trkpt lat="46.65118" lon="6.04122">
        <ele>909.3</ele>
        <time>2022-10-25T12:45:46Z</time>
      </trkpt>
      <trkpt lat="46.65114" lon="6.04125">
        <ele>908.9</ele>
        <time>2022-10-25T12:45:51Z</time>
      </trkpt>
      <trkpt lat="46.65109" lon="6.04128">
        <ele>908.8</ele>
        <time>2022-10-25T12:45:56Z</time>
      </trkpt>
      <trkpt lat="46.65105" lon="6.04131">
        <ele>908.6</ele>
        <time>2022-10-25T12:46:01Z</time>
      </trkpt>
      <trkpt lat="46.651" lon="6.04133">
        <ele>908.7</ele>
        <time>2022-10-25T12:46:06Z</time>
      </trkpt>
      <trkpt lat="46.65095" lon="6.04135">
        <ele>908.4</ele>
        <time>2022-10-25T12:46:11Z</time>
      </trkpt>
      <trkpt lat="46.65091" lon="6.04138">
        <ele>908.3</ele>
        <time>2022-10-25T12:46:15Z</time>
      </trkpt>
      <trkpt lat="46.65086" lon="6.04142">
        <ele>908.1</ele>
        <time>2022-10-25T12:46:19Z</time>
      </trkpt>
      <trkpt lat="46.65082" lon="6.04145">
        <ele>908.1</ele>
        <time>2022-10-25T12:46:24Z</time>
      </trkpt>
      <trkpt lat="46.65079" lon="6.04151">
        <ele>908.1</ele>
        <time>2022-10-25T12:46:31Z</time>
      </trkpt>
      <trkpt lat="46.65075" lon="6.04156">
        <ele>907.6</ele>
        <time>2022-10-25T12:46:35Z</time>
      </trkpt>
      <trkpt lat="46.65071" lon="6.04161">
        <ele>907.5</ele>
        <time>2022-10-25T12:46:39Z</time>
      </trkpt>
      <trkpt lat="46.65068" lon="6.04166">
        <ele>908</ele>
        <time>2022-10-25T12:46:43Z</time>
      </trkpt>
      <trkpt lat="46.65064" lon="6.04171">
        <ele>908.6</ele>
        <time>2022-10-25T12:46:47Z</time>
      </trkpt>
      <trkpt lat="46.6506" lon="6.04176">
        <ele>909.2</ele>
        <time>2022-10-25T12:46:52Z</time>
      </trkpt>
      <trkpt lat="46.65058" lon="6.04182">
        <ele>909.7</ele>
        <time>2022-10-25T12:46:56Z</time>
      </trkpt>
      <trkpt lat="46.65056" lon="6.04188">
        <ele>910.1</ele>
        <time>2022-10-25T12:47:01Z</time>
      </trkpt>
      <trkpt lat="46.65054" lon="6.04194">
        <ele>910.8</ele>
        <time>2022-10-25T12:47:05Z</time>
      </trkpt>
      <trkpt lat="46.65051" lon="6.04199">
        <ele>911.6</ele>
        <time>2022-10-25T12:47:09Z</time>
      </trkpt>
      <trkpt lat="46.65049" lon="6.04205">
        <ele>912.3</ele>
        <time>2022-10-25T12:47:13Z</time>
      </trkpt>
      <trkpt lat="46.65047" lon="6.04212">
        <ele>912.4</ele>
        <time>2022-10-25T12:47:18Z</time>
      </trkpt>
      <trkpt lat="46.65047" lon="6.0422">
        <ele>911.8</ele>
        <time>2022-10-25T12:47:23Z</time>
      </trkpt>
      <trkpt lat="46.65046" lon="6.04227">
        <ele>911.3</ele>
        <time>2022-10-25T12:47:28Z</time>
      </trkpt>
      <trkpt lat="46.65045" lon="6.04234">
        <ele>911.2</ele>
        <time>2022-10-25T12:47:33Z</time>
      </trkpt>
      <trkpt lat="46.65045" lon="6.04241">
        <ele>911.6</ele>
        <time>2022-10-25T12:47:37Z</time>
      </trkpt>
      <trkpt lat="46.65045" lon="6.04249">
        <ele>912</ele>
        <time>2022-10-25T12:47:42Z</time>
      </trkpt>
      <trkpt lat="46.65044" lon="6.04256">
        <ele>912.4</ele>
        <time>2022-10-25T12:47:47Z</time>
      </trkpt>
      <trkpt lat="46.65043" lon="6.04263">
        <ele>912.2</ele>
        <time>2022-10-25T12:47:51Z</time>
      </trkpt>
      <trkpt lat="46.65044" lon="6.04271">
        <ele>911.7</ele>
        <time>2022-10-25T12:47:56Z</time>
      </trkpt>
      <trkpt lat="46.65045" lon="6.04279">
        <ele>911.4</ele>
        <time>2022-10-25T12:48:01Z</time>
      </trkpt>
      <trkpt lat="46.65046" lon="6.04286">
        <ele>911.3</ele>
        <time>2022-10-25T12:48:05Z</time>
      </trkpt>
      <trkpt lat="46.65047" lon="6.04293">
        <ele>911.2</ele>
        <time>2022-10-25T12:48:09Z</time>
      </trkpt>
      <trkpt lat="46.65046" lon="6.043">
        <ele>911.2</ele>
        <time>2022-10-25T12:48:14Z</time>
      </trkpt>
      <trkpt lat="46.65045" lon="6.04307">
        <ele>911.1</ele>
        <time>2022-10-25T12:48:20Z</time>
      </trkpt>
      <trkpt lat="46.65045" lon="6.04313">
        <ele>910.8</ele>
        <time>2022-10-25T12:48:25Z</time>
      </trkpt>
      <trkpt lat="46.65045" lon="6.04321">
        <ele>911.1</ele>
        <time>2022-10-25T12:48:31Z</time>
      </trkpt>
      <trkpt lat="46.65045" lon="6.04328">
        <ele>911.8</ele>
        <time>2022-10-25T12:48:36Z</time>
      </trkpt>
      <trkpt lat="46.65045" lon="6.04335">
        <ele>912.4</ele>
        <time>2022-10-25T12:48:41Z</time>
      </trkpt>
      <trkpt lat="46.65045" lon="6.04342">
        <ele>913</ele>
        <time>2022-10-25T12:48:45Z</time>
      </trkpt>
      <trkpt lat="46.65045" lon="6.04349">
        <ele>913.9</ele>
        <time>2022-10-25T12:48:49Z</time>
      </trkpt>
      <trkpt lat="46.65044" lon="6.04357">
        <ele>915.6</ele>
        <time>2022-10-25T12:48:54Z</time>
      </trkpt>
      <trkpt lat="46.65045" lon="6.04364">
        <ele>917.2</ele>
        <time>2022-10-25T12:48:59Z</time>
      </trkpt>
      <trkpt lat="46.65043" lon="6.04371">
        <ele>917.6</ele>
        <time>2022-10-25T12:49:05Z</time>
      </trkpt>
      <trkpt lat="46.65043" lon="6.04379">
        <ele>918.2</ele>
        <time>2022-10-25T12:49:23Z</time>
      </trkpt>
      <trkpt lat="46.65042" lon="6.04386">
        <ele>919</ele>
        <time>2022-10-25T12:49:28Z</time>
      </trkpt>
      <trkpt lat="46.65042" lon="6.04392">
        <ele>920.9</ele>
        <time>2022-10-25T12:49:36Z</time>
      </trkpt>
      <trkpt lat="46.65042" lon="6.04399">
        <ele>921.6</ele>
        <time>2022-10-25T12:49:43Z</time>
      </trkpt>
      <trkpt lat="46.65042" lon="6.04406">
        <ele>920.8</ele>
        <time>2022-10-25T12:49:51Z</time>
      </trkpt>
      <trkpt lat="46.6504" lon="6.04413">
        <ele>920.3</ele>
        <time>2022-10-25T12:49:54Z</time>
      </trkpt>
      <trkpt lat="46.65039" lon="6.04419">
        <ele>920</ele>
        <time>2022-10-25T12:49:58Z</time>
      </trkpt>
      <trkpt lat="46.65035" lon="6.04424">
        <ele>919.5</ele>
        <time>2022-10-25T12:50:03Z</time>
      </trkpt>
      <trkpt lat="46.65032" lon="6.04429">
        <ele>918.3</ele>
        <time>2022-10-25T12:50:09Z</time>
      </trkpt>
      <trkpt lat="46.6503" lon="6.04435">
        <ele>917</ele>
        <time>2022-10-25T12:50:17Z</time>
      </trkpt>
      <trkpt lat="46.65026" lon="6.0444">
        <ele>917</ele>
        <time>2022-10-25T12:50:24Z</time>
      </trkpt>
      <trkpt lat="46.65023" lon="6.04445">
        <ele>917.1</ele>
        <time>2022-10-25T12:50:29Z</time>
      </trkpt>
      <trkpt lat="46.65018" lon="6.0445">
        <ele>916.9</ele>
        <time>2022-10-25T12:50:34Z</time>
      </trkpt>
      <trkpt lat="46.65015" lon="6.04455">
        <ele>917.2</ele>
        <time>2022-10-25T12:50:38Z</time>
      </trkpt>
      <trkpt lat="46.65011" lon="6.04459">
        <ele>917.1</ele>
        <time>2022-10-25T12:50:43Z</time>
      </trkpt>
      <trkpt lat="46.65006" lon="6.04461">
        <ele>915.9</ele>
        <time>2022-10-25T12:50:50Z</time>
      </trkpt>
      <trkpt lat="46.65003" lon="6.04466">
        <ele>914.6</ele>
        <time>2022-10-25T12:50:56Z</time>
      </trkpt>
      <trkpt lat="46.64999" lon="6.0447">
        <ele>912.9</ele>
        <time>2022-10-25T12:51:03Z</time>
      </trkpt>
      <trkpt lat="46.64995" lon="6.04475">
        <ele>912.6</ele>
        <time>2022-10-25T12:51:08Z</time>
      </trkpt>
      <trkpt lat="46.64992" lon="6.0448">
        <ele>912.7</ele>
        <time>2022-10-25T12:51:13Z</time>
      </trkpt>
      <trkpt lat="46.64987" lon="6.04484">
        <ele>912.1</ele>
        <time>2022-10-25T12:51:19Z</time>
      </trkpt>
      <trkpt lat="46.64984" lon="6.04488">
        <ele>911</ele>
        <time>2022-10-25T12:51:24Z</time>
      </trkpt>
      <trkpt lat="46.64981" lon="6.04493">
        <ele>910.2</ele>
        <time>2022-10-25T12:51:29Z</time>
      </trkpt>
      <trkpt lat="46.64977" lon="6.04499">
        <ele>909.9</ele>
        <time>2022-10-25T12:51:33Z</time>
      </trkpt>
      <trkpt lat="46.64974" lon="6.04504">
        <ele>909.8</ele>
        <time>2022-10-25T12:51:38Z</time>
      </trkpt>
      <trkpt lat="46.64969" lon="6.04508">
        <ele>909.9</ele>
        <time>2022-10-25T12:51:43Z</time>
      </trkpt>
      <trkpt lat="46.64966" lon="6.04513">
        <ele>910</ele>
        <time>2022-10-25T12:51:48Z</time>
      </trkpt>
      <trkpt lat="46.64962" lon="6.04518">
        <ele>909.8</ele>
        <time>2022-10-25T12:51:53Z</time>
      </trkpt>
      <trkpt lat="46.64959" lon="6.04523">
        <ele>910.1</ele>
        <time>2022-10-25T12:51:58Z</time>
      </trkpt>
      <trkpt lat="46.64955" lon="6.04529">
        <ele>910.2</ele>
        <time>2022-10-25T12:52:04Z</time>
      </trkpt>
      <trkpt lat="46.64952" lon="6.04534">
        <ele>910.1</ele>
        <time>2022-10-25T12:52:09Z</time>
      </trkpt>
      <trkpt lat="46.64948" lon="6.04538">
        <ele>910.2</ele>
        <time>2022-10-25T12:52:15Z</time>
      </trkpt>
      <trkpt lat="46.64944" lon="6.04541">
        <ele>909.8</ele>
        <time>2022-10-25T12:52:21Z</time>
      </trkpt>
      <trkpt lat="46.64939" lon="6.04544">
        <ele>908.6</ele>
        <time>2022-10-25T12:52:27Z</time>
      </trkpt>
      <trkpt lat="46.64934" lon="6.04546">
        <ele>907.8</ele>
        <time>2022-10-25T12:52:33Z</time>
      </trkpt>
      <trkpt lat="46.6493" lon="6.04547">
        <ele>907.6</ele>
        <time>2022-10-25T12:52:38Z</time>
      </trkpt>
      <trkpt lat="46.64925" lon="6.04548">
        <ele>907.3</ele>
        <time>2022-10-25T12:52:43Z</time>
      </trkpt>
      <trkpt lat="46.6492" lon="6.04551">
        <ele>907.4</ele>
        <time>2022-10-25T12:52:48Z</time>
      </trkpt>
      <trkpt lat="46.64917" lon="6.04556">
        <ele>907.3</ele>
        <time>2022-10-25T12:52:54Z</time>
      </trkpt>
      <trkpt lat="46.64914" lon="6.04563">
        <ele>907</ele>
        <time>2022-10-25T12:53:00Z</time>
      </trkpt>
      <trkpt lat="46.64911" lon="6.04568">
        <ele>906.8</ele>
        <time>2022-10-25T12:53:07Z</time>
      </trkpt>
      <trkpt lat="46.64909" lon="6.04575">
        <ele>906.5</ele>
        <time>2022-10-25T12:53:12Z</time>
      </trkpt>
      <trkpt lat="46.64908" lon="6.04582">
        <ele>906.1</ele>
        <time>2022-10-25T12:53:21Z</time>
      </trkpt>
      <trkpt lat="46.64906" lon="6.04589">
        <ele>905.6</ele>
        <time>2022-10-25T12:53:27Z</time>
      </trkpt>
      <trkpt lat="46.64903" lon="6.04595">
        <ele>904.9</ele>
        <time>2022-10-25T12:53:32Z</time>
      </trkpt>
      <trkpt lat="46.649" lon="6.046">
        <ele>904.4</ele>
        <time>2022-10-25T12:53:36Z</time>
      </trkpt>
      <trkpt lat="46.64897" lon="6.04606">
        <ele>904</ele>
        <time>2022-10-25T12:53:41Z</time>
      </trkpt>
      <trkpt lat="46.64896" lon="6.04613">
        <ele>903.7</ele>
        <time>2022-10-25T12:53:46Z</time>
      </trkpt>
      <trkpt lat="46.64895" lon="6.04621">
        <ele>903.8</ele>
        <time>2022-10-25T12:53:52Z</time>
      </trkpt>
      <trkpt lat="46.64894" lon="6.04627">
        <ele>903.9</ele>
        <time>2022-10-25T12:53:57Z</time>
      </trkpt>
      <trkpt lat="46.64893" lon="6.04634">
        <ele>903.2</ele>
        <time>2022-10-25T12:54:03Z</time>
      </trkpt>
      <trkpt lat="46.64892" lon="6.04641">
        <ele>902.3</ele>
        <time>2022-10-25T12:54:08Z</time>
      </trkpt>
      <trkpt lat="46.6489" lon="6.04646">
        <ele>901.5</ele>
        <time>2022-10-25T12:54:12Z</time>
      </trkpt>
      <trkpt lat="46.64886" lon="6.04651">
        <ele>900.7</ele>
        <time>2022-10-25T12:54:17Z</time>
      </trkpt>
      <trkpt lat="46.64882" lon="6.04657">
        <ele>900.7</ele>
        <time>2022-10-25T12:54:22Z</time>
      </trkpt>
      <trkpt lat="46.64879" lon="6.04662">
        <ele>900.8</ele>
        <time>2022-10-25T12:54:27Z</time>
      </trkpt>
      <trkpt lat="46.64876" lon="6.04667">
        <ele>900.6</ele>
        <time>2022-10-25T12:54:32Z</time>
      </trkpt>
      <trkpt lat="46.64873" lon="6.04672">
        <ele>899.9</ele>
        <time>2022-10-25T12:54:37Z</time>
      </trkpt>
      <trkpt lat="46.6487" lon="6.04677">
        <ele>899.1</ele>
        <time>2022-10-25T12:54:42Z</time>
      </trkpt>
      <trkpt lat="46.64866" lon="6.04681">
        <ele>898.5</ele>
        <time>2022-10-25T12:54:50Z</time>
      </trkpt>
      <trkpt lat="46.64862" lon="6.04686">
        <ele>898.6</ele>
        <time>2022-10-25T12:54:57Z</time>
      </trkpt>
      <trkpt lat="46.64857" lon="6.04689">
        <ele>898.1</ele>
        <time>2022-10-25T12:55:03Z</time>
      </trkpt>
      <trkpt lat="46.64854" lon="6.04695">
        <ele>896.9</ele>
        <time>2022-10-25T12:55:09Z</time>
      </trkpt>
      <trkpt lat="46.6485" lon="6.04701">
        <ele>895.5</ele>
        <time>2022-10-25T12:55:14Z</time>
      </trkpt>
      <trkpt lat="46.64846" lon="6.04706">
        <ele>894.7</ele>
        <time>2022-10-25T12:55:19Z</time>
      </trkpt>
      <trkpt lat="46.64842" lon="6.0471">
        <ele>894</ele>
        <time>2022-10-25T12:55:24Z</time>
      </trkpt>
      <trkpt lat="46.64837" lon="6.04713">
        <ele>894</ele>
        <time>2022-10-25T12:55:29Z</time>
      </trkpt>
      <trkpt lat="46.64833" lon="6.04717">
        <ele>893.9</ele>
        <time>2022-10-25T12:55:34Z</time>
      </trkpt>
      <trkpt lat="46.64829" lon="6.0472">
        <ele>893.5</ele>
        <time>2022-10-25T12:55:38Z</time>
      </trkpt>
      <trkpt lat="46.64824" lon="6.04723">
        <ele>893</ele>
        <time>2022-10-25T12:55:42Z</time>
      </trkpt>
      <trkpt lat="46.6482" lon="6.04726">
        <ele>892.9</ele>
        <time>2022-10-25T12:55:46Z</time>
      </trkpt>
      <trkpt lat="46.64815" lon="6.04729">
        <ele>892.7</ele>
        <time>2022-10-25T12:55:51Z</time>
      </trkpt>
      <trkpt lat="46.6481" lon="6.04731">
        <ele>892.7</ele>
        <time>2022-10-25T12:55:56Z</time>
      </trkpt>
      <trkpt lat="46.64806" lon="6.04734">
        <ele>892.6</ele>
        <time>2022-10-25T12:56:02Z</time>
      </trkpt>
      <trkpt lat="46.64802" lon="6.04735">
        <ele>892.2</ele>
        <time>2022-10-25T12:56:10Z</time>
      </trkpt>
      <trkpt lat="46.64797" lon="6.04736">
        <ele>890.3</ele>
        <time>2022-10-25T12:56:47Z</time>
      </trkpt>
      <trkpt lat="46.64792" lon="6.04741">
        <ele>891.1</ele>
        <time>2022-10-25T12:56:54Z</time>
      </trkpt>
      <trkpt lat="46.64788" lon="6.04743">
        <ele>891.3</ele>
        <time>2022-10-25T12:56:58Z</time>
      </trkpt>
      <trkpt lat="46.64783" lon="6.04747">
        <ele>891.7</ele>
        <time>2022-10-25T12:57:02Z</time>
      </trkpt>
      <trkpt lat="46.64779" lon="6.0475">
        <ele>892.3</ele>
        <time>2022-10-25T12:57:06Z</time>
      </trkpt>
      <trkpt lat="46.64778" lon="6.04757">
        <ele>892.2</ele>
        <time>2022-10-25T12:57:13Z</time>
      </trkpt>
      <trkpt lat="46.64778" lon="6.04764">
        <ele>891.4</ele>
        <time>2022-10-25T12:57:20Z</time>
      </trkpt>
      <trkpt lat="46.64777" lon="6.04771">
        <ele>889.5</ele>
        <time>2022-10-25T12:57:28Z</time>
      </trkpt>
      <trkpt lat="46.64776" lon="6.04778">
        <ele>888.4</ele>
        <time>2022-10-25T12:57:33Z</time>
      </trkpt>
      <trkpt lat="46.64776" lon="6.04784">
        <ele>888.2</ele>
        <time>2022-10-25T12:57:38Z</time>
      </trkpt>
      <trkpt lat="46.64776" lon="6.04791">
        <ele>887.4</ele>
        <time>2022-10-25T12:57:43Z</time>
      </trkpt>
      <trkpt lat="46.64776" lon="6.04798">
        <ele>886.3</ele>
        <time>2022-10-25T12:57:48Z</time>
      </trkpt>
      <trkpt lat="46.64776" lon="6.04806">
        <ele>885.7</ele>
        <time>2022-10-25T12:57:54Z</time>
      </trkpt>
      <trkpt lat="46.64776" lon="6.04812">
        <ele>885.6</ele>
        <time>2022-10-25T12:58:02Z</time>
      </trkpt>
      <trkpt lat="46.64776" lon="6.04819">
        <ele>885.9</ele>
        <time>2022-10-25T12:58:08Z</time>
      </trkpt>
      <trkpt lat="46.64778" lon="6.04826">
        <ele>886</ele>
        <time>2022-10-25T12:58:14Z</time>
      </trkpt>
      <trkpt lat="46.64778" lon="6.04833">
        <ele>885.5</ele>
        <time>2022-10-25T12:58:19Z</time>
      </trkpt>
      <trkpt lat="46.64777" lon="6.04841">
        <ele>884.9</ele>
        <time>2022-10-25T12:58:24Z</time>
      </trkpt>
      <trkpt lat="46.64777" lon="6.04847">
        <ele>884.9</ele>
        <time>2022-10-25T12:58:29Z</time>
      </trkpt>
      <trkpt lat="46.64779" lon="6.04854">
        <ele>884.5</ele>
        <time>2022-10-25T12:58:35Z</time>
      </trkpt>
      <trkpt lat="46.6478" lon="6.04862">
        <ele>883</ele>
        <time>2022-10-25T12:58:43Z</time>
      </trkpt>
      <trkpt lat="46.6478" lon="6.0487">
        <ele>881.8</ele>
        <time>2022-10-25T12:58:48Z</time>
      </trkpt>
      <trkpt lat="46.64781" lon="6.04878">
        <ele>881.1</ele>
        <time>2022-10-25T12:58:53Z</time>
      </trkpt>
      <trkpt lat="46.64782" lon="6.04885">
        <ele>880.4</ele>
        <time>2022-10-25T12:58:59Z</time>
      </trkpt>
      <trkpt lat="46.64782" lon="6.04892">
        <ele>879.7</ele>
        <time>2022-10-25T12:59:04Z</time>
      </trkpt>
      <trkpt lat="46.64783" lon="6.04899">
        <ele>879.3</ele>
        <time>2022-10-25T12:59:09Z</time>
      </trkpt>
      <trkpt lat="46.64783" lon="6.04906">
        <ele>879</ele>
        <time>2022-10-25T12:59:14Z</time>
      </trkpt>
      <trkpt lat="46.64784" lon="6.04914">
        <ele>878.7</ele>
        <time>2022-10-25T12:59:19Z</time>
      </trkpt>
      <trkpt lat="46.64783" lon="6.04921">
        <ele>878.5</ele>
        <time>2022-10-25T12:59:24Z</time>
      </trkpt>
      <trkpt lat="46.64784" lon="6.04927">
        <ele>878.1</ele>
        <time>2022-10-25T12:59:29Z</time>
      </trkpt>
      <trkpt lat="46.64784" lon="6.04935">
        <ele>877.2</ele>
        <time>2022-10-25T12:59:34Z</time>
      </trkpt>
      <trkpt lat="46.64785" lon="6.04943">
        <ele>876.6</ele>
        <time>2022-10-25T12:59:38Z</time>
      </trkpt>
      <trkpt lat="46.64785" lon="6.04949">
        <ele>876.1</ele>
        <time>2022-10-25T12:59:42Z</time>
      </trkpt>
      <trkpt lat="46.64786" lon="6.04956">
        <ele>876.2</ele>
        <time>2022-10-25T12:59:47Z</time>
      </trkpt>
      <trkpt lat="46.64787" lon="6.04964">
        <ele>877.4</ele>
        <time>2022-10-25T12:59:52Z</time>
      </trkpt>
      <trkpt lat="46.64788" lon="6.04971">
        <ele>878.5</ele>
        <time>2022-10-25T12:59:58Z</time>
      </trkpt>
      <trkpt lat="46.64788" lon="6.04979">
        <ele>878.8</ele>
        <time>2022-10-25T13:00:03Z</time>
      </trkpt>
      <trkpt lat="46.64788" lon="6.04986">
        <ele>878.8</ele>
        <time>2022-10-25T13:00:08Z</time>
      </trkpt>
      <trkpt lat="46.64787" lon="6.04993">
        <ele>878.5</ele>
        <time>2022-10-25T13:00:13Z</time>
      </trkpt>
      <trkpt lat="46.64787" lon="6.05">
        <ele>877.6</ele>
        <time>2022-10-25T13:00:18Z</time>
      </trkpt>
      <trkpt lat="46.64788" lon="6.05007">
        <ele>876.3</ele>
        <time>2022-10-25T13:00:24Z</time>
      </trkpt>
      <trkpt lat="46.6479" lon="6.05014">
        <ele>875.6</ele>
        <time>2022-10-25T13:00:30Z</time>
      </trkpt>
      <trkpt lat="46.64793" lon="6.0502">
        <ele>874.7</ele>
        <time>2022-10-25T13:00:37Z</time>
      </trkpt>
      <trkpt lat="46.64796" lon="6.05025">
        <ele>873.3</ele>
        <time>2022-10-25T13:00:46Z</time>
      </trkpt>
      <trkpt lat="46.64799" lon="6.0503">
        <ele>871.2</ele>
        <time>2022-10-25T13:00:52Z</time>
      </trkpt>
      <trkpt lat="46.64801" lon="6.05036">
        <ele>869</ele>
        <time>2022-10-25T13:00:57Z</time>
      </trkpt>
      <trkpt lat="46.64804" lon="6.05042">
        <ele>867.6</ele>
        <time>2022-10-25T13:01:02Z</time>
      </trkpt>
      <trkpt lat="46.64807" lon="6.05047">
        <ele>867.2</ele>
        <time>2022-10-25T13:01:06Z</time>
      </trkpt>
      <trkpt lat="46.64803" lon="6.05052">
        <ele>868.8</ele>
        <time>2022-10-25T13:01:26Z</time>
      </trkpt>
      <trkpt lat="46.64799" lon="6.05058">
        <ele>871</ele>
        <time>2022-10-25T13:01:32Z</time>
      </trkpt>
      <trkpt lat="46.64794" lon="6.05059">
        <ele>872.6</ele>
        <time>2022-10-25T13:01:39Z</time>
      </trkpt>
      <trkpt lat="46.64789" lon="6.05065">
        <ele>872.8</ele>
        <time>2022-10-25T13:01:58Z</time>
      </trkpt>
      <trkpt lat="46.64785" lon="6.05069">
        <ele>872.6</ele>
        <time>2022-10-25T13:02:01Z</time>
      </trkpt>
      <trkpt lat="46.64782" lon="6.05074">
        <ele>872</ele>
        <time>2022-10-25T13:02:06Z</time>
      </trkpt>
      <trkpt lat="46.64783" lon="6.05081">
        <ele>871.1</ele>
        <time>2022-10-25T13:02:14Z</time>
      </trkpt>
      <trkpt lat="46.64784" lon="6.05089">
        <ele>869.4</ele>
        <time>2022-10-25T13:02:23Z</time>
      </trkpt>
      <trkpt lat="46.64784" lon="6.05097">
        <ele>868.3</ele>
        <time>2022-10-25T13:02:26Z</time>
      </trkpt>
      <trkpt lat="46.64783" lon="6.05104">
        <ele>866.8</ele>
        <time>2022-10-25T13:02:30Z</time>
      </trkpt>
      <trkpt lat="46.64784" lon="6.05112">
        <ele>865.6</ele>
        <time>2022-10-25T13:02:35Z</time>
      </trkpt>
      <trkpt lat="46.64784" lon="6.0512">
        <ele>864.7</ele>
        <time>2022-10-25T13:02:40Z</time>
      </trkpt>
      <trkpt lat="46.64784" lon="6.05127">
        <ele>864.1</ele>
        <time>2022-10-25T13:02:45Z</time>
      </trkpt>
      <trkpt lat="46.64783" lon="6.05135">
        <ele>863.9</ele>
        <time>2022-10-25T13:02:52Z</time>
      </trkpt>
      <trkpt lat="46.64783" lon="6.05143">
        <ele>863.8</ele>
        <time>2022-10-25T13:02:57Z</time>
      </trkpt>
      <trkpt lat="46.64783" lon="6.05151">
        <ele>863.6</ele>
        <time>2022-10-25T13:03:02Z</time>
      </trkpt>
      <trkpt lat="46.64782" lon="6.05158">
        <ele>863.4</ele>
        <time>2022-10-25T13:03:06Z</time>
      </trkpt>
      <trkpt lat="46.64782" lon="6.05167">
        <ele>863.5</ele>
        <time>2022-10-25T13:03:10Z</time>
      </trkpt>
      <trkpt lat="46.6478" lon="6.05174">
        <ele>863.6</ele>
        <time>2022-10-25T13:03:14Z</time>
      </trkpt>
      <trkpt lat="46.64779" lon="6.05181">
        <ele>863.6</ele>
        <time>2022-10-25T13:03:19Z</time>
      </trkpt>
      <trkpt lat="46.64776" lon="6.05187">
        <ele>863.7</ele>
        <time>2022-10-25T13:03:23Z</time>
      </trkpt>
      <trkpt lat="46.64773" lon="6.05193">
        <ele>864</ele>
        <time>2022-10-25T13:03:27Z</time>
      </trkpt>
      <trkpt lat="46.64769" lon="6.05198">
        <ele>864.4</ele>
        <time>2022-10-25T13:03:32Z</time>
      </trkpt>
      <trkpt lat="46.64764" lon="6.052">
        <ele>864.3</ele>
        <time>2022-10-25T13:03:38Z</time>
      </trkpt>
      <trkpt lat="46.64759" lon="6.05201">
        <ele>863.1</ele>
        <time>2022-10-25T13:03:47Z</time>
      </trkpt>
      <trkpt lat="46.64754" lon="6.05201">
        <ele>862.7</ele>
        <time>2022-10-25T13:03:53Z</time>
      </trkpt>
      <trkpt lat="46.64749" lon="6.05201">
        <ele>862.3</ele>
        <time>2022-10-25T13:03:59Z</time>
      </trkpt>
      <trkpt lat="46.64744" lon="6.05201">
        <ele>861.8</ele>
        <time>2022-10-25T13:04:04Z</time>
      </trkpt>
      <trkpt lat="46.64739" lon="6.05198">
        <ele>861.3</ele>
        <time>2022-10-25T13:04:10Z</time>
      </trkpt>
      <trkpt lat="46.64734" lon="6.05196">
        <ele>859.8</ele>
        <time>2022-10-25T13:04:19Z</time>
      </trkpt>
      <trkpt lat="46.64739" lon="6.05192">
        <ele>857.6</ele>
        <time>2022-10-25T13:04:59Z</time>
      </trkpt>
      <trkpt lat="46.64734" lon="6.05197">
        <ele>854.6</ele>
        <time>2022-10-25T13:05:19Z</time>
      </trkpt>
      <trkpt lat="46.6473" lon="6.052">
        <ele>853.1</ele>
        <time>2022-10-25T13:05:25Z</time>
      </trkpt>
      <trkpt lat="46.64725" lon="6.05199">
        <ele>852.7</ele>
        <time>2022-10-25T13:05:30Z</time>
      </trkpt>
      <trkpt lat="46.6472" lon="6.05195">
        <ele>853.7</ele>
        <time>2022-10-25T13:05:40Z</time>
      </trkpt>
      <trkpt lat="46.64716" lon="6.05194">
        <ele>854.2</ele>
        <time>2022-10-25T13:05:46Z</time>
      </trkpt>
      <trkpt lat="46.64711" lon="6.05193">
        <ele>854.4</ele>
        <time>2022-10-25T13:05:52Z</time>
      </trkpt>
      <trkpt lat="46.64706" lon="6.05191">
        <ele>854.3</ele>
        <time>2022-10-25T13:05:57Z</time>
      </trkpt>
      <trkpt lat="46.64702" lon="6.05188">
        <ele>854.3</ele>
        <time>2022-10-25T13:06:02Z</time>
      </trkpt>
      <trkpt lat="46.64697" lon="6.05185">
        <ele>854.5</ele>
        <time>2022-10-25T13:06:08Z</time>
      </trkpt>
      <trkpt lat="46.64692" lon="6.05184">
        <ele>854.6</ele>
        <time>2022-10-25T13:06:13Z</time>
      </trkpt>
      <trkpt lat="46.64688" lon="6.05182">
        <ele>854.5</ele>
        <time>2022-10-25T13:06:19Z</time>
      </trkpt>
      <trkpt lat="46.64683" lon="6.05179">
        <ele>854.3</ele>
        <time>2022-10-25T13:06:25Z</time>
      </trkpt>
      <trkpt lat="46.64678" lon="6.05176">
        <ele>853.8</ele>
        <time>2022-10-25T13:06:30Z</time>
      </trkpt>
      <trkpt lat="46.64674" lon="6.05174">
        <ele>853.4</ele>
        <time>2022-10-25T13:06:35Z</time>
      </trkpt>
      <trkpt lat="46.64669" lon="6.0517">
        <ele>852.8</ele>
        <time>2022-10-25T13:06:40Z</time>
      </trkpt>
      <trkpt lat="46.64666" lon="6.05166">
        <ele>852</ele>
        <time>2022-10-25T13:06:45Z</time>
      </trkpt>
      <trkpt lat="46.64662" lon="6.05161">
        <ele>851</ele>
        <time>2022-10-25T13:06:50Z</time>
      </trkpt>
      <trkpt lat="46.6466" lon="6.05154">
        <ele>849.8</ele>
        <time>2022-10-25T13:06:55Z</time>
      </trkpt>
      <trkpt lat="46.64658" lon="6.05147">
        <ele>847.7</ele>
        <time>2022-10-25T13:07:01Z</time>
      </trkpt>
      <trkpt lat="46.64655" lon="6.05141">
        <ele>846.7</ele>
        <time>2022-10-25T13:07:05Z</time>
      </trkpt>
      <trkpt lat="46.64653" lon="6.05134">
        <ele>845.9</ele>
        <time>2022-10-25T13:07:10Z</time>
      </trkpt>
      <trkpt lat="46.64651" lon="6.05128">
        <ele>845.4</ele>
        <time>2022-10-25T13:07:15Z</time>
      </trkpt>
      <trkpt lat="46.64648" lon="6.05123">
        <ele>845</ele>
        <time>2022-10-25T13:07:19Z</time>
      </trkpt>
      <trkpt lat="46.64643" lon="6.0512">
        <ele>844.7</ele>
        <time>2022-10-25T13:07:23Z</time>
      </trkpt>
      <trkpt lat="46.64638" lon="6.0512">
        <ele>844.5</ele>
        <time>2022-10-25T13:07:28Z</time>
      </trkpt>
      <trkpt lat="46.64633" lon="6.05119">
        <ele>844.7</ele>
        <time>2022-10-25T13:07:33Z</time>
      </trkpt>
      <trkpt lat="46.64628" lon="6.05118">
        <ele>844.8</ele>
        <time>2022-10-25T13:07:37Z</time>
      </trkpt>
      <trkpt lat="46.64623" lon="6.05118">
        <ele>844.9</ele>
        <time>2022-10-25T13:07:41Z</time>
      </trkpt>
      <trkpt lat="46.64618" lon="6.05117">
        <ele>845</ele>
        <time>2022-10-25T13:07:46Z</time>
      </trkpt>
      <trkpt lat="46.64613" lon="6.05117">
        <ele>845.2</ele>
        <time>2022-10-25T13:07:50Z</time>
      </trkpt>
      <trkpt lat="46.64609" lon="6.05117">
        <ele>845.2</ele>
        <time>2022-10-25T13:07:54Z</time>
      </trkpt>
      <trkpt lat="46.64604" lon="6.05116">
        <ele>845.3</ele>
        <time>2022-10-25T13:07:59Z</time>
      </trkpt>
      <trkpt lat="46.646" lon="6.05113">
        <ele>845.3</ele>
        <time>2022-10-25T13:08:05Z</time>
      </trkpt>
      <trkpt lat="46.646" lon="6.05106">
        <ele>845.5</ele>
        <time>2022-10-25T13:08:11Z</time>
      </trkpt>
      <trkpt lat="46.64597" lon="6.051">
        <ele>845.4</ele>
        <time>2022-10-25T13:08:16Z</time>
      </trkpt>
      <trkpt lat="46.64596" lon="6.05093">
        <ele>844.8</ele>
        <time>2022-10-25T13:08:23Z</time>
      </trkpt>
      <trkpt lat="46.64596" lon="6.05085">
        <ele>843.2</ele>
        <time>2022-10-25T13:08:30Z</time>
      </trkpt>
      <trkpt lat="46.64593" lon="6.05079">
        <ele>842.3</ele>
        <time>2022-10-25T13:08:36Z</time>
      </trkpt>
      <trkpt lat="46.64589" lon="6.05075">
        <ele>841.8</ele>
        <time>2022-10-25T13:08:42Z</time>
      </trkpt>
      <trkpt lat="46.64586" lon="6.0507">
        <ele>842</ele>
        <time>2022-10-25T13:08:48Z</time>
      </trkpt>
      <trkpt lat="46.64583" lon="6.05065">
        <ele>842</ele>
        <time>2022-10-25T13:08:52Z</time>
      </trkpt>
      <trkpt lat="46.6458" lon="6.05057">
        <ele>841.2</ele>
        <time>2022-10-25T13:08:57Z</time>
      </trkpt>
      <trkpt lat="46.64577" lon="6.05052">
        <ele>840.4</ele>
        <time>2022-10-25T13:09:01Z</time>
      </trkpt>
      <trkpt lat="46.64574" lon="6.05045">
        <ele>839.7</ele>
        <time>2022-10-25T13:09:06Z</time>
      </trkpt>
      <trkpt lat="46.6457" lon="6.05041">
        <ele>839.1</ele>
        <time>2022-10-25T13:09:11Z</time>
      </trkpt>
      <trkpt lat="46.64567" lon="6.05035">
        <ele>839</ele>
        <time>2022-10-25T13:09:15Z</time>
      </trkpt>
      <trkpt lat="46.64564" lon="6.0503">
        <ele>839.1</ele>
        <time>2022-10-25T13:09:19Z</time>
      </trkpt>
      <trkpt lat="46.64562" lon="6.05022">
        <ele>839.6</ele>
        <time>2022-10-25T13:09:24Z</time>
      </trkpt>
      <trkpt lat="46.64559" lon="6.05016">
        <ele>839.9</ele>
        <time>2022-10-25T13:09:30Z</time>
      </trkpt>
      <trkpt lat="46.64555" lon="6.05011">
        <ele>839.1</ele>
        <time>2022-10-25T13:09:37Z</time>
      </trkpt>
      <trkpt lat="46.64551" lon="6.05007">
        <ele>838.2</ele>
        <time>2022-10-25T13:09:42Z</time>
      </trkpt>
      <trkpt lat="46.64547" lon="6.05002">
        <ele>837.3</ele>
        <time>2022-10-25T13:09:46Z</time>
      </trkpt>
      <trkpt lat="46.64544" lon="6.04997">
        <ele>841.4</ele>
        <time>2022-10-25T13:12:32Z</time>
      </trkpt>
      <trkpt lat="46.6454" lon="6.04993">
        <ele>841.5</ele>
        <time>2022-10-25T13:12:38Z</time>
      </trkpt>
      <trkpt lat="46.64536" lon="6.04989">
        <ele>840.9</ele>
        <time>2022-10-25T13:12:47Z</time>
      </trkpt>
      <trkpt lat="46.64532" lon="6.04984">
        <ele>840.1</ele>
        <time>2022-10-25T13:12:53Z</time>
      </trkpt>
      <trkpt lat="46.6453" lon="6.04978">
        <ele>838.7</ele>
        <time>2022-10-25T13:12:58Z</time>
      </trkpt>
      <trkpt lat="46.64528" lon="6.04971">
        <ele>837.7</ele>
        <time>2022-10-25T13:13:03Z</time>
      </trkpt>
      <trkpt lat="46.64527" lon="6.04964">
        <ele>837.1</ele>
        <time>2022-10-25T13:13:08Z</time>
      </trkpt>
      <trkpt lat="46.64524" lon="6.04957">
        <ele>836.9</ele>
        <time>2022-10-25T13:13:13Z</time>
      </trkpt>
      <trkpt lat="46.64522" lon="6.04951">
        <ele>836.8</ele>
        <time>2022-10-25T13:13:18Z</time>
      </trkpt>
      <trkpt lat="46.64518" lon="6.04945">
        <ele>837.4</ele>
        <time>2022-10-25T13:13:24Z</time>
      </trkpt>
      <trkpt lat="46.64515" lon="6.0494">
        <ele>838</ele>
        <time>2022-10-25T13:13:28Z</time>
      </trkpt>
      <trkpt lat="46.6451" lon="6.04937">
        <ele>838.4</ele>
        <time>2022-10-25T13:13:35Z</time>
      </trkpt>
      <trkpt lat="46.64504" lon="6.04936">
        <ele>838.7</ele>
        <time>2022-10-25T13:13:40Z</time>
      </trkpt>
      <trkpt lat="46.64499" lon="6.04935">
        <ele>838.9</ele>
        <time>2022-10-25T13:13:45Z</time>
      </trkpt>
      <trkpt lat="46.64495" lon="6.04936">
        <ele>839.4</ele>
        <time>2022-10-25T13:13:49Z</time>
      </trkpt>
      <trkpt lat="46.6449" lon="6.04939">
        <ele>840.1</ele>
        <time>2022-10-25T13:13:54Z</time>
      </trkpt>
      <trkpt lat="46.64486" lon="6.04942">
        <ele>841</ele>
        <time>2022-10-25T13:13:59Z</time>
      </trkpt>
      <trkpt lat="46.64481" lon="6.04946">
        <ele>842</ele>
        <time>2022-10-25T13:14:03Z</time>
      </trkpt>
      <trkpt lat="46.64477" lon="6.0495">
        <ele>843.2</ele>
        <time>2022-10-25T13:14:07Z</time>
      </trkpt>
      <trkpt lat="46.64473" lon="6.04955">
        <ele>844.8</ele>
        <time>2022-10-25T13:14:13Z</time>
      </trkpt>
      <trkpt lat="46.6447" lon="6.04959">
        <ele>845.4</ele>
        <time>2022-10-25T13:14:17Z</time>
      </trkpt>
      <trkpt lat="46.64466" lon="6.04963">
        <ele>846.2</ele>
        <time>2022-10-25T13:14:22Z</time>
      </trkpt>
      <trkpt lat="46.64461" lon="6.04965">
        <ele>847</ele>
        <time>2022-10-25T13:14:26Z</time>
      </trkpt>
      <trkpt lat="46.64456" lon="6.04967">
        <ele>848.9</ele>
        <time>2022-10-25T13:14:32Z</time>
      </trkpt>
      <trkpt lat="46.64452" lon="6.04968">
        <ele>850.1</ele>
        <time>2022-10-25T13:14:37Z</time>
      </trkpt>
      <trkpt lat="46.64447" lon="6.04968">
        <ele>850.5</ele>
        <time>2022-10-25T13:14:41Z</time>
      </trkpt>
      <trkpt lat="46.64442" lon="6.04967">
        <ele>850.4</ele>
        <time>2022-10-25T13:14:47Z</time>
      </trkpt>
      <trkpt lat="46.64437" lon="6.04966">
        <ele>850.2</ele>
        <time>2022-10-25T13:14:52Z</time>
      </trkpt>
      <trkpt lat="46.64433" lon="6.04964">
        <ele>849.9</ele>
        <time>2022-10-25T13:14:58Z</time>
      </trkpt>
      <trkpt lat="46.64428" lon="6.0496">
        <ele>849.1</ele>
        <time>2022-10-25T13:15:07Z</time>
      </trkpt>
      <trkpt lat="46.64423" lon="6.04959">
        <ele>848.6</ele>
        <time>2022-10-25T13:15:11Z</time>
      </trkpt>
      <trkpt lat="46.64418" lon="6.04957">
        <ele>847.6</ele>
        <time>2022-10-25T13:15:15Z</time>
      </trkpt>
      <trkpt lat="46.64414" lon="6.04954">
        <ele>846.4</ele>
        <time>2022-10-25T13:15:20Z</time>
      </trkpt>
      <trkpt lat="46.6441" lon="6.04951">
        <ele>845.2</ele>
        <time>2022-10-25T13:15:25Z</time>
      </trkpt>
      <trkpt lat="46.64406" lon="6.04945">
        <ele>844.1</ele>
        <time>2022-10-25T13:15:29Z</time>
      </trkpt>
      <trkpt lat="46.64402" lon="6.0494">
        <ele>843.4</ele>
        <time>2022-10-25T13:15:33Z</time>
      </trkpt>
      <trkpt lat="46.64399" lon="6.04935">
        <ele>843.2</ele>
        <time>2022-10-25T13:15:37Z</time>
      </trkpt>
      <trkpt lat="46.64396" lon="6.04928">
        <ele>843.4</ele>
        <time>2022-10-25T13:15:42Z</time>
      </trkpt>
      <trkpt lat="46.64395" lon="6.04921">
        <ele>843</ele>
        <time>2022-10-25T13:15:47Z</time>
      </trkpt>
      <trkpt lat="46.64394" lon="6.04913">
        <ele>842.6</ele>
        <time>2022-10-25T13:15:51Z</time>
      </trkpt>
      <trkpt lat="46.64394" lon="6.04906">
        <ele>842.2</ele>
        <time>2022-10-25T13:15:55Z</time>
      </trkpt>
      <trkpt lat="46.64393" lon="6.04899">
        <ele>842.1</ele>
        <time>2022-10-25T13:15:59Z</time>
      </trkpt>
      <trkpt lat="46.64394" lon="6.04892">
        <ele>842.1</ele>
        <time>2022-10-25T13:16:03Z</time>
      </trkpt>
      <trkpt lat="46.64393" lon="6.04886">
        <ele>842.2</ele>
        <time>2022-10-25T13:16:07Z</time>
      </trkpt>
      <trkpt lat="46.64393" lon="6.04879">
        <ele>842.6</ele>
        <time>2022-10-25T13:16:12Z</time>
      </trkpt>
      <trkpt lat="46.64392" lon="6.04871">
        <ele>842.1</ele>
        <time>2022-10-25T13:16:17Z</time>
      </trkpt>
      <trkpt lat="46.64393" lon="6.04863">
        <ele>841.5</ele>
        <time>2022-10-25T13:16:21Z</time>
      </trkpt>
      <trkpt lat="46.64393" lon="6.04857">
        <ele>841</ele>
        <time>2022-10-25T13:16:25Z</time>
      </trkpt>
      <trkpt lat="46.64394" lon="6.0485">
        <ele>841.2</ele>
        <time>2022-10-25T13:16:29Z</time>
      </trkpt>
      <trkpt lat="46.64394" lon="6.04843">
        <ele>841.6</ele>
        <time>2022-10-25T13:16:33Z</time>
      </trkpt>
      <trkpt lat="46.64395" lon="6.04836">
        <ele>842.3</ele>
        <time>2022-10-25T13:16:38Z</time>
      </trkpt>
      <trkpt lat="46.64396" lon="6.04828">
        <ele>842.8</ele>
        <time>2022-10-25T13:16:43Z</time>
      </trkpt>
      <trkpt lat="46.64396" lon="6.04821">
        <ele>843</ele>
        <time>2022-10-25T13:16:47Z</time>
      </trkpt>
      <trkpt lat="46.64396" lon="6.04814">
        <ele>842.9</ele>
        <time>2022-10-25T13:16:52Z</time>
      </trkpt>
      <trkpt lat="46.64397" lon="6.04806">
        <ele>843</ele>
        <time>2022-10-25T13:16:57Z</time>
      </trkpt>
      <trkpt lat="46.64398" lon="6.048">
        <ele>843.1</ele>
        <time>2022-10-25T13:17:01Z</time>
      </trkpt>
      <trkpt lat="46.64398" lon="6.04792">
        <ele>843.6</ele>
        <time>2022-10-25T13:17:06Z</time>
      </trkpt>
      <trkpt lat="46.64398" lon="6.04785">
        <ele>844.1</ele>
        <time>2022-10-25T13:17:11Z</time>
      </trkpt>
      <trkpt lat="46.64397" lon="6.04777">
        <ele>844.6</ele>
        <time>2022-10-25T13:17:16Z</time>
      </trkpt>
      <trkpt lat="46.64397" lon="6.04769">
        <ele>845.2</ele>
        <time>2022-10-25T13:17:21Z</time>
      </trkpt>
      <trkpt lat="46.64397" lon="6.04762">
        <ele>845.1</ele>
        <time>2022-10-25T13:17:26Z</time>
      </trkpt>
      <trkpt lat="46.64397" lon="6.04754">
        <ele>844.8</ele>
        <time>2022-10-25T13:17:30Z</time>
      </trkpt>
      <trkpt lat="46.64396" lon="6.04747">
        <ele>844.6</ele>
        <time>2022-10-25T13:17:35Z</time>
      </trkpt>
      <trkpt lat="46.64396" lon="6.04739">
        <ele>843.8</ele>
        <time>2022-10-25T13:17:40Z</time>
      </trkpt>
      <trkpt lat="46.64394" lon="6.04732">
        <ele>842.6</ele>
        <time>2022-10-25T13:17:44Z</time>
      </trkpt>
      <trkpt lat="46.64393" lon="6.04725">
        <ele>841.6</ele>
        <time>2022-10-25T13:17:48Z</time>
      </trkpt>
      <trkpt lat="46.64392" lon="6.04717">
        <ele>840</ele>
        <time>2022-10-25T13:17:54Z</time>
      </trkpt>
      <trkpt lat="46.64391" lon="6.0471">
        <ele>839.2</ele>
        <time>2022-10-25T13:17:58Z</time>
      </trkpt>
      <trkpt lat="46.6439" lon="6.04703">
        <ele>838.5</ele>
        <time>2022-10-25T13:18:02Z</time>
      </trkpt>
      <trkpt lat="46.64389" lon="6.04696">
        <ele>837.2</ele>
        <time>2022-10-25T13:18:07Z</time>
      </trkpt>
      <trkpt lat="46.64387" lon="6.0469">
        <ele>836.5</ele>
        <time>2022-10-25T13:18:11Z</time>
      </trkpt>
      <trkpt lat="46.64386" lon="6.04683">
        <ele>836</ele>
        <time>2022-10-25T13:18:15Z</time>
      </trkpt>
      <trkpt lat="46.64385" lon="6.04677">
        <ele>836.1</ele>
        <time>2022-10-25T13:18:19Z</time>
      </trkpt>
      <trkpt lat="46.64383" lon="6.0467">
        <ele>836.4</ele>
        <time>2022-10-25T13:18:23Z</time>
      </trkpt>
      <trkpt lat="46.64382" lon="6.04663">
        <ele>837.1</ele>
        <time>2022-10-25T13:18:27Z</time>
      </trkpt>
      <trkpt lat="46.6438" lon="6.04655">
        <ele>838.1</ele>
        <time>2022-10-25T13:18:32Z</time>
      </trkpt>
      <trkpt lat="46.64379" lon="6.04648">
        <ele>838.5</ele>
        <time>2022-10-25T13:18:37Z</time>
      </trkpt>
      <trkpt lat="46.64377" lon="6.04641">
        <ele>838.3</ele>
        <time>2022-10-25T13:18:42Z</time>
      </trkpt>
      <trkpt lat="46.64376" lon="6.04634">
        <ele>838.5</ele>
        <time>2022-10-25T13:18:47Z</time>
      </trkpt>
      <trkpt lat="46.64375" lon="6.04627">
        <ele>839.3</ele>
        <time>2022-10-25T13:18:53Z</time>
      </trkpt>
      <trkpt lat="46.64374" lon="6.04619">
        <ele>840.8</ele>
        <time>2022-10-25T13:18:58Z</time>
      </trkpt>
      <trkpt lat="46.64373" lon="6.04612">
        <ele>842.2</ele>
        <time>2022-10-25T13:19:03Z</time>
      </trkpt>
      <trkpt lat="46.64373" lon="6.04605">
        <ele>843.3</ele>
        <time>2022-10-25T13:19:08Z</time>
      </trkpt>
      <trkpt lat="46.64372" lon="6.04598">
        <ele>844</ele>
        <time>2022-10-25T13:19:12Z</time>
      </trkpt>
      <trkpt lat="46.64371" lon="6.0459">
        <ele>844.9</ele>
        <time>2022-10-25T13:19:17Z</time>
      </trkpt>
      <trkpt lat="46.6437" lon="6.04582">
        <ele>845.6</ele>
        <time>2022-10-25T13:19:21Z</time>
      </trkpt>
      <trkpt lat="46.64368" lon="6.04575">
        <ele>846.4</ele>
        <time>2022-10-25T13:19:25Z</time>
      </trkpt>
      <trkpt lat="46.64367" lon="6.04567">
        <ele>847.2</ele>
        <time>2022-10-25T13:19:31Z</time>
      </trkpt>
      <trkpt lat="46.64366" lon="6.0456">
        <ele>847.2</ele>
        <time>2022-10-25T13:19:37Z</time>
      </trkpt>
      <trkpt lat="46.64364" lon="6.04553">
        <ele>846.8</ele>
        <time>2022-10-25T13:19:43Z</time>
      </trkpt>
      <trkpt lat="46.64363" lon="6.04546">
        <ele>846.3</ele>
        <time>2022-10-25T13:19:50Z</time>
      </trkpt>
      <trkpt lat="46.64363" lon="6.04539">
        <ele>847.2</ele>
        <time>2022-10-25T13:19:55Z</time>
      </trkpt>
      <trkpt lat="46.64364" lon="6.04533">
        <ele>848.7</ele>
        <time>2022-10-25T13:20:00Z</time>
      </trkpt>
      <trkpt lat="46.64363" lon="6.04525">
        <ele>850.4</ele>
        <time>2022-10-25T13:20:05Z</time>
      </trkpt>
      <trkpt lat="46.64362" lon="6.04518">
        <ele>851.4</ele>
        <time>2022-10-25T13:20:10Z</time>
      </trkpt>
      <trkpt lat="46.64361" lon="6.04511">
        <ele>851.4</ele>
        <time>2022-10-25T13:20:15Z</time>
      </trkpt>
      <trkpt lat="46.64361" lon="6.04504">
        <ele>852.4</ele>
        <time>2022-10-25T13:20:24Z</time>
      </trkpt>
      <trkpt lat="46.64356" lon="6.04506">
        <ele>854.3</ele>
        <time>2022-10-25T13:20:51Z</time>
      </trkpt>
      <trkpt lat="46.64357" lon="6.04498">
        <ele>853.9</ele>
        <time>2022-10-25T13:21:04Z</time>
      </trkpt>
      <trkpt lat="46.64358" lon="6.04492">
        <ele>854.4</ele>
        <time>2022-10-25T13:21:09Z</time>
      </trkpt>
      <trkpt lat="46.64359" lon="6.04485">
        <ele>855</ele>
        <time>2022-10-25T13:21:15Z</time>
      </trkpt>
      <trkpt lat="46.64362" lon="6.0448">
        <ele>855</ele>
        <time>2022-10-25T13:21:21Z</time>
      </trkpt>
      <trkpt lat="46.64366" lon="6.04476">
        <ele>855.2</ele>
        <time>2022-10-25T13:21:28Z</time>
      </trkpt>
      <trkpt lat="46.6437" lon="6.04471">
        <ele>855.9</ele>
        <time>2022-10-25T13:21:34Z</time>
      </trkpt>
      <trkpt lat="46.64373" lon="6.04465">
        <ele>856.4</ele>
        <time>2022-10-25T13:21:39Z</time>
      </trkpt>
      <trkpt lat="46.64376" lon="6.04459">
        <ele>856</ele>
        <time>2022-10-25T13:21:45Z</time>
      </trkpt>
      <trkpt lat="46.64378" lon="6.04453">
        <ele>855.3</ele>
        <time>2022-10-25T13:21:50Z</time>
      </trkpt>
      <trkpt lat="46.64382" lon="6.04448">
        <ele>854.6</ele>
        <time>2022-10-25T13:21:55Z</time>
      </trkpt>
      <trkpt lat="46.64384" lon="6.04442">
        <ele>854</ele>
        <time>2022-10-25T13:22:00Z</time>
      </trkpt>
      <trkpt lat="46.64387" lon="6.04435">
        <ele>853.7</ele>
        <time>2022-10-25T13:22:05Z</time>
      </trkpt>
      <trkpt lat="46.64388" lon="6.04427">
        <ele>853.5</ele>
        <time>2022-10-25T13:22:10Z</time>
      </trkpt>
      <trkpt lat="46.64389" lon="6.0442">
        <ele>853.2</ele>
        <time>2022-10-25T13:22:15Z</time>
      </trkpt>
      <trkpt lat="46.64388" lon="6.04413">
        <ele>852.3</ele>
        <time>2022-10-25T13:22:20Z</time>
      </trkpt>
      <trkpt lat="46.64389" lon="6.04405">
        <ele>851.7</ele>
        <time>2022-10-25T13:22:25Z</time>
      </trkpt>
      <trkpt lat="46.64388" lon="6.04398">
        <ele>851.4</ele>
        <time>2022-10-25T13:22:30Z</time>
      </trkpt>
      <trkpt lat="46.64387" lon="6.04392">
        <ele>851.3</ele>
        <time>2022-10-25T13:22:34Z</time>
      </trkpt>
      <trkpt lat="46.64386" lon="6.04385">
        <ele>851.3</ele>
        <time>2022-10-25T13:22:38Z</time>
      </trkpt>
      <trkpt lat="46.64384" lon="6.04378">
        <ele>851.3</ele>
        <time>2022-10-25T13:22:42Z</time>
      </trkpt>
      <trkpt lat="46.64383" lon="6.04371">
        <ele>851.1</ele>
        <time>2022-10-25T13:22:46Z</time>
      </trkpt>
      <trkpt lat="46.64382" lon="6.04364">
        <ele>850.9</ele>
        <time>2022-10-25T13:22:50Z</time>
      </trkpt>
      <trkpt lat="46.64381" lon="6.04358">
        <ele>850.6</ele>
        <time>2022-10-25T13:22:54Z</time>
      </trkpt>
      <trkpt lat="46.6438" lon="6.04351">
        <ele>849.7</ele>
        <time>2022-10-25T13:22:59Z</time>
      </trkpt>
      <trkpt lat="46.64379" lon="6.04344">
        <ele>849.6</ele>
        <time>2022-10-25T13:23:04Z</time>
      </trkpt>
      <trkpt lat="46.64376" lon="6.04337">
        <ele>849.9</ele>
        <time>2022-10-25T13:23:09Z</time>
      </trkpt>
      <trkpt lat="46.64374" lon="6.04331">
        <ele>850.3</ele>
        <time>2022-10-25T13:23:13Z</time>
      </trkpt>
      <trkpt lat="46.64372" lon="6.04325">
        <ele>850.2</ele>
        <time>2022-10-25T13:23:18Z</time>
      </trkpt>
      <trkpt lat="46.64371" lon="6.04318">
        <ele>850.1</ele>
        <time>2022-10-25T13:23:23Z</time>
      </trkpt>
      <trkpt lat="46.64369" lon="6.0431">
        <ele>850.4</ele>
        <time>2022-10-25T13:23:27Z</time>
      </trkpt>
      <trkpt lat="46.64367" lon="6.04304">
        <ele>850.9</ele>
        <time>2022-10-25T13:23:31Z</time>
      </trkpt>
      <trkpt lat="46.64364" lon="6.04298">
        <ele>851</ele>
        <time>2022-10-25T13:23:35Z</time>
      </trkpt>
      <trkpt lat="46.64364" lon="6.0429">
        <ele>850.7</ele>
        <time>2022-10-25T13:23:41Z</time>
      </trkpt>
      <trkpt lat="46.64364" lon="6.04283">
        <ele>850.4</ele>
        <time>2022-10-25T13:23:46Z</time>
      </trkpt>
      <trkpt lat="46.64364" lon="6.04276">
        <ele>850.1</ele>
        <time>2022-10-25T13:23:50Z</time>
      </trkpt>
      <trkpt lat="46.64363" lon="6.04269">
        <ele>849.8</ele>
        <time>2022-10-25T13:23:54Z</time>
      </trkpt>
      <trkpt lat="46.64364" lon="6.04262">
        <ele>849.4</ele>
        <time>2022-10-25T13:23:59Z</time>
      </trkpt>
      <trkpt lat="46.64365" lon="6.04254">
        <ele>848.9</ele>
        <time>2022-10-25T13:24:04Z</time>
      </trkpt>
      <trkpt lat="46.64364" lon="6.04247">
        <ele>848.5</ele>
        <time>2022-10-25T13:24:08Z</time>
      </trkpt>
      <trkpt lat="46.64364" lon="6.0424">
        <ele>848</ele>
        <time>2022-10-25T13:24:14Z</time>
      </trkpt>
      <trkpt lat="46.64364" lon="6.04233">
        <ele>847.3</ele>
        <time>2022-10-25T13:24:19Z</time>
      </trkpt>
      <trkpt lat="46.64363" lon="6.04226">
        <ele>846</ele>
        <time>2022-10-25T13:24:24Z</time>
      </trkpt>
      <trkpt lat="46.64362" lon="6.04219">
        <ele>844.5</ele>
        <time>2022-10-25T13:24:31Z</time>
      </trkpt>
      <trkpt lat="46.64361" lon="6.04212">
        <ele>844.6</ele>
        <time>2022-10-25T13:24:40Z</time>
      </trkpt>
      <trkpt lat="46.64358" lon="6.04205">
        <ele>845.6</ele>
        <time>2022-10-25T13:24:46Z</time>
      </trkpt>
      <trkpt lat="46.64356" lon="6.04198">
        <ele>846.5</ele>
        <time>2022-10-25T13:24:51Z</time>
      </trkpt>
      <trkpt lat="46.64355" lon="6.04191">
        <ele>847</ele>
        <time>2022-10-25T13:24:55Z</time>
      </trkpt>
      <trkpt lat="46.64353" lon="6.04184">
        <ele>847.9</ele>
        <time>2022-10-25T13:24:59Z</time>
      </trkpt>
      <trkpt lat="46.64351" lon="6.04177">
        <ele>849.1</ele>
        <time>2022-10-25T13:25:03Z</time>
      </trkpt>
      <trkpt lat="46.64349" lon="6.0417">
        <ele>850.5</ele>
        <time>2022-10-25T13:25:07Z</time>
      </trkpt>
      <trkpt lat="46.64348" lon="6.04163">
        <ele>851.9</ele>
        <time>2022-10-25T13:25:11Z</time>
      </trkpt>
      <trkpt lat="46.64346" lon="6.04156">
        <ele>853.2</ele>
        <time>2022-10-25T13:25:15Z</time>
      </trkpt>
      <trkpt lat="46.64345" lon="6.04149">
        <ele>854.4</ele>
        <time>2022-10-25T13:25:21Z</time>
      </trkpt>
      <trkpt lat="46.64344" lon="6.04142">
        <ele>854</ele>
        <time>2022-10-25T13:25:27Z</time>
      </trkpt>
      <trkpt lat="46.64343" lon="6.04134">
        <ele>853.5</ele>
        <time>2022-10-25T13:25:33Z</time>
      </trkpt>
      <trkpt lat="46.64341" lon="6.04128">
        <ele>853.2</ele>
        <time>2022-10-25T13:25:38Z</time>
      </trkpt>
      <trkpt lat="46.64339" lon="6.04121">
        <ele>853</ele>
        <time>2022-10-25T13:25:42Z</time>
      </trkpt>
      <trkpt lat="46.64336" lon="6.04116">
        <ele>852.9</ele>
        <time>2022-10-25T13:25:46Z</time>
      </trkpt>
      <trkpt lat="46.64334" lon="6.04109">
        <ele>852.4</ele>
        <time>2022-10-25T13:25:51Z</time>
      </trkpt>
      <trkpt lat="46.64331" lon="6.04103">
        <ele>851.5</ele>
        <time>2022-10-25T13:25:55Z</time>
      </trkpt>
      <trkpt lat="46.64329" lon="6.04096">
        <ele>850.3</ele>
        <time>2022-10-25T13:26:01Z</time>
      </trkpt>
      <trkpt lat="46.64328" lon="6.04089">
        <ele>849.6</ele>
        <time>2022-10-25T13:26:07Z</time>
      </trkpt>
      <trkpt lat="46.64328" lon="6.04082">
        <ele>848.9</ele>
        <time>2022-10-25T13:26:11Z</time>
      </trkpt>
      <trkpt lat="46.64326" lon="6.04075">
        <ele>848.4</ele>
        <time>2022-10-25T13:26:15Z</time>
      </trkpt>
      <trkpt lat="46.64326" lon="6.04067">
        <ele>848.1</ele>
        <time>2022-10-25T13:26:20Z</time>
      </trkpt>
      <trkpt lat="46.64323" lon="6.04061">
        <ele>847.6</ele>
        <time>2022-10-25T13:26:26Z</time>
      </trkpt>
      <trkpt lat="46.64322" lon="6.04054">
        <ele>847.2</ele>
        <time>2022-10-25T13:26:31Z</time>
      </trkpt>
      <trkpt lat="46.64321" lon="6.04047">
        <ele>846.8</ele>
        <time>2022-10-25T13:26:35Z</time>
      </trkpt>
      <trkpt lat="46.64318" lon="6.04042">
        <ele>846.4</ele>
        <time>2022-10-25T13:26:39Z</time>
      </trkpt>
      <trkpt lat="46.64317" lon="6.04035">
        <ele>846.2</ele>
        <time>2022-10-25T13:26:43Z</time>
      </trkpt>
      <trkpt lat="46.64316" lon="6.04028">
        <ele>845.8</ele>
        <time>2022-10-25T13:26:49Z</time>
      </trkpt>
      <trkpt lat="46.64314" lon="6.04021">
        <ele>845</ele>
        <time>2022-10-25T13:26:54Z</time>
      </trkpt>
      <trkpt lat="46.64311" lon="6.04015">
        <ele>844.4</ele>
        <time>2022-10-25T13:26:58Z</time>
      </trkpt>
      <trkpt lat="46.64309" lon="6.0401">
        <ele>844</ele>
        <time>2022-10-25T13:27:02Z</time>
      </trkpt>
      <trkpt lat="46.64308" lon="6.04003">
        <ele>844.4</ele>
        <time>2022-10-25T13:27:08Z</time>
      </trkpt>
      <trkpt lat="46.64309" lon="6.03995">
        <ele>844.9</ele>
        <time>2022-10-25T13:27:13Z</time>
      </trkpt>
      <trkpt lat="46.64309" lon="6.03986">
        <ele>845.3</ele>
        <time>2022-10-25T13:27:18Z</time>
      </trkpt>
      <trkpt lat="46.64307" lon="6.0398">
        <ele>845.1</ele>
        <time>2022-10-25T13:27:22Z</time>
      </trkpt>
      <trkpt lat="46.64305" lon="6.03973">
        <ele>844.9</ele>
        <time>2022-10-25T13:27:27Z</time>
      </trkpt>
      <trkpt lat="46.64305" lon="6.03966">
        <ele>844.2</ele>
        <time>2022-10-25T13:27:34Z</time>
      </trkpt>
      <trkpt lat="46.64303" lon="6.0396">
        <ele>843.1</ele>
        <time>2022-10-25T13:27:41Z</time>
      </trkpt>
      <trkpt lat="46.64304" lon="6.03953">
        <ele>841.1</ele>
        <time>2022-10-25T13:27:48Z</time>
      </trkpt>
      <trkpt lat="46.64302" lon="6.03946">
        <ele>839.6</ele>
        <time>2022-10-25T13:27:54Z</time>
      </trkpt>
      <trkpt lat="46.643" lon="6.03939">
        <ele>839</ele>
        <time>2022-10-25T13:27:58Z</time>
      </trkpt>
      <trkpt lat="46.64299" lon="6.03932">
        <ele>838.9</ele>
        <time>2022-10-25T13:28:03Z</time>
      </trkpt>
      <trkpt lat="46.64298" lon="6.03925">
        <ele>837.3</ele>
        <time>2022-10-25T13:28:11Z</time>
      </trkpt>
      <trkpt lat="46.64295" lon="6.03917">
        <ele>836.4</ele>
        <time>2022-10-25T13:28:16Z</time>
      </trkpt>
      <trkpt lat="46.64293" lon="6.0391">
        <ele>836.4</ele>
        <time>2022-10-25T13:28:20Z</time>
      </trkpt>
      <trkpt lat="46.64292" lon="6.03903">
        <ele>836.7</ele>
        <time>2022-10-25T13:28:25Z</time>
      </trkpt>
      <trkpt lat="46.64291" lon="6.03896">
        <ele>836.2</ele>
        <time>2022-10-25T13:28:29Z</time>
      </trkpt>
      <trkpt lat="46.64288" lon="6.0389">
        <ele>835.3</ele>
        <time>2022-10-25T13:28:33Z</time>
      </trkpt>
      <trkpt lat="46.64285" lon="6.03884">
        <ele>834.7</ele>
        <time>2022-10-25T13:28:39Z</time>
      </trkpt>
      <trkpt lat="46.64282" lon="6.03878">
        <ele>834.8</ele>
        <time>2022-10-25T13:28:44Z</time>
      </trkpt>
      <trkpt lat="46.64278" lon="6.03874">
        <ele>834.4</ele>
        <time>2022-10-25T13:28:49Z</time>
      </trkpt>
      <trkpt lat="46.64274" lon="6.03871">
        <ele>833.4</ele>
        <time>2022-10-25T13:28:54Z</time>
      </trkpt>
      <trkpt lat="46.6427" lon="6.03866">
        <ele>831.9</ele>
        <time>2022-10-25T13:28:59Z</time>
      </trkpt>
      <trkpt lat="46.64267" lon="6.0386">
        <ele>830.9</ele>
        <time>2022-10-25T13:29:04Z</time>
      </trkpt>
      <trkpt lat="46.64263" lon="6.03854">
        <ele>830.1</ele>
        <time>2022-10-25T13:29:09Z</time>
      </trkpt>
      <trkpt lat="46.6426" lon="6.03848">
        <ele>829.4</ele>
        <time>2022-10-25T13:29:14Z</time>
      </trkpt>
      <trkpt lat="46.64256" lon="6.03845">
        <ele>828.4</ele>
        <time>2022-10-25T13:29:19Z</time>
      </trkpt>
      <trkpt lat="46.64253" lon="6.03839">
        <ele>827.4</ele>
        <time>2022-10-25T13:29:25Z</time>
      </trkpt>
      <trkpt lat="46.64249" lon="6.03835">
        <ele>827.1</ele>
        <time>2022-10-25T13:29:31Z</time>
      </trkpt>
      <trkpt lat="46.64245" lon="6.03831">
        <ele>827</ele>
        <time>2022-10-25T13:29:37Z</time>
      </trkpt>
      <trkpt lat="46.64241" lon="6.03828">
        <ele>826.7</ele>
        <time>2022-10-25T13:29:44Z</time>
      </trkpt>
      <trkpt lat="46.64237" lon="6.03825">
        <ele>826</ele>
        <time>2022-10-25T13:29:48Z</time>
      </trkpt>
      <trkpt lat="46.64233" lon="6.03823">
        <ele>825.4</ele>
        <time>2022-10-25T13:29:51Z</time>
      </trkpt>
      <trkpt lat="46.64228" lon="6.0382">
        <ele>825.3</ele>
        <time>2022-10-25T13:29:55Z</time>
      </trkpt>
      <trkpt lat="46.64222" lon="6.03821">
        <ele>826.1</ele>
        <time>2022-10-25T13:30:01Z</time>
      </trkpt>
      <trkpt lat="46.64217" lon="6.03819">
        <ele>826.8</ele>
        <time>2022-10-25T13:30:05Z</time>
      </trkpt>
      <trkpt lat="46.64212" lon="6.0382">
        <ele>828</ele>
        <time>2022-10-25T13:30:10Z</time>
      </trkpt>
      <trkpt lat="46.64208" lon="6.0382">
        <ele>828.8</ele>
        <time>2022-10-25T13:30:15Z</time>
      </trkpt>
      <trkpt lat="46.64203" lon="6.03825">
        <ele>828.8</ele>
        <time>2022-10-25T13:30:20Z</time>
      </trkpt>
      <trkpt lat="46.64199" lon="6.0383">
        <ele>828.4</ele>
        <time>2022-10-25T13:30:24Z</time>
      </trkpt>
      <trkpt lat="46.64194" lon="6.03834">
        <ele>828.7</ele>
        <time>2022-10-25T13:30:28Z</time>
      </trkpt>
      <trkpt lat="46.64189" lon="6.03836">
        <ele>830</ele>
        <time>2022-10-25T13:30:33Z</time>
      </trkpt>
      <trkpt lat="46.64185" lon="6.03839">
        <ele>831</ele>
        <time>2022-10-25T13:30:38Z</time>
      </trkpt>
      <trkpt lat="46.64182" lon="6.03843">
        <ele>831.2</ele>
        <time>2022-10-25T13:30:42Z</time>
      </trkpt>
      <trkpt lat="46.64178" lon="6.03847">
        <ele>831.4</ele>
        <time>2022-10-25T13:30:47Z</time>
      </trkpt>
      <trkpt lat="46.64173" lon="6.0385">
        <ele>831.6</ele>
        <time>2022-10-25T13:30:52Z</time>
      </trkpt>
      <trkpt lat="46.64168" lon="6.03852">
        <ele>831.6</ele>
        <time>2022-10-25T13:30:57Z</time>
      </trkpt>
      <trkpt lat="46.64163" lon="6.03854">
        <ele>832</ele>
        <time>2022-10-25T13:31:03Z</time>
      </trkpt>
      <trkpt lat="46.64158" lon="6.03851">
        <ele>832.2</ele>
        <time>2022-10-25T13:31:09Z</time>
      </trkpt>
      <trkpt lat="46.64155" lon="6.03847">
        <ele>832.3</ele>
        <time>2022-10-25T13:31:14Z</time>
      </trkpt>
      <trkpt lat="46.64149" lon="6.03845">
        <ele>832.6</ele>
        <time>2022-10-25T13:31:19Z</time>
      </trkpt>
      <trkpt lat="46.64145" lon="6.03843">
        <ele>832.6</ele>
        <time>2022-10-25T13:31:23Z</time>
      </trkpt>
      <trkpt lat="46.64139" lon="6.03843">
        <ele>833.1</ele>
        <time>2022-10-25T13:31:30Z</time>
      </trkpt>
      <trkpt lat="46.64134" lon="6.03842">
        <ele>833.6</ele>
        <time>2022-10-25T13:31:35Z</time>
      </trkpt>
      <trkpt lat="46.6413" lon="6.0384">
        <ele>833.6</ele>
        <time>2022-10-25T13:31:39Z</time>
      </trkpt>
      <trkpt lat="46.64126" lon="6.03836">
        <ele>832.6</ele>
        <time>2022-10-25T13:31:44Z</time>
      </trkpt>
      <trkpt lat="46.64121" lon="6.03833">
        <ele>831.4</ele>
        <time>2022-10-25T13:31:49Z</time>
      </trkpt>
      <trkpt lat="46.64116" lon="6.0383">
        <ele>830.3</ele>
        <time>2022-10-25T13:31:54Z</time>
      </trkpt>
      <trkpt lat="46.64112" lon="6.03826">
        <ele>829.5</ele>
        <time>2022-10-25T13:31:59Z</time>
      </trkpt>
      <trkpt lat="46.64108" lon="6.03821">
        <ele>829.1</ele>
        <time>2022-10-25T13:32:04Z</time>
      </trkpt>
      <trkpt lat="46.64104" lon="6.03817">
        <ele>828.4</ele>
        <time>2022-10-25T13:32:10Z</time>
      </trkpt>
      <trkpt lat="46.641" lon="6.03814">
        <ele>827.1</ele>
        <time>2022-10-25T13:32:16Z</time>
      </trkpt>
      <trkpt lat="46.64097" lon="6.03808">
        <ele>826.5</ele>
        <time>2022-10-25T13:32:22Z</time>
      </trkpt>
      <trkpt lat="46.64095" lon="6.03802">
        <ele>825.3</ele>
        <time>2022-10-25T13:32:29Z</time>
      </trkpt>
      <trkpt lat="46.64092" lon="6.03796">
        <ele>824.2</ele>
        <time>2022-10-25T13:32:35Z</time>
      </trkpt>
      <trkpt lat="46.64089" lon="6.03792">
        <ele>823.4</ele>
        <time>2022-10-25T13:32:39Z</time>
      </trkpt>
      <trkpt lat="46.64086" lon="6.03786">
        <ele>822.8</ele>
        <time>2022-10-25T13:32:43Z</time>
      </trkpt>
      <trkpt lat="46.64083" lon="6.03781">
        <ele>822.5</ele>
        <time>2022-10-25T13:32:49Z</time>
      </trkpt>
      <trkpt lat="46.64081" lon="6.03773">
        <ele>822.9</ele>
        <time>2022-10-25T13:32:55Z</time>
      </trkpt>
      <trkpt lat="46.64081" lon="6.03766">
        <ele>823.5</ele>
        <time>2022-10-25T13:32:59Z</time>
      </trkpt>
      <trkpt lat="46.64081" lon="6.03759">
        <ele>824.5</ele>
        <time>2022-10-25T13:33:04Z</time>
      </trkpt>
      <trkpt lat="46.64081" lon="6.03752">
        <ele>825.4</ele>
        <time>2022-10-25T13:33:10Z</time>
      </trkpt>
      <trkpt lat="46.6408" lon="6.03745">
        <ele>825.3</ele>
        <time>2022-10-25T13:33:16Z</time>
      </trkpt>
      <trkpt lat="46.6408" lon="6.03738">
        <ele>824.8</ele>
        <time>2022-10-25T13:33:21Z</time>
      </trkpt>
      <trkpt lat="46.64079" lon="6.03731">
        <ele>825.5</ele>
        <time>2022-10-25T13:33:25Z</time>
      </trkpt>
      <trkpt lat="46.64076" lon="6.03724">
        <ele>825.6</ele>
        <time>2022-10-25T13:33:30Z</time>
      </trkpt>
      <trkpt lat="46.64075" lon="6.03716">
        <ele>825.3</ele>
        <time>2022-10-25T13:33:36Z</time>
      </trkpt>
      <trkpt lat="46.64072" lon="6.03711">
        <ele>824.6</ele>
        <time>2022-10-25T13:33:41Z</time>
      </trkpt>
      <trkpt lat="46.64068" lon="6.03705">
        <ele>823.6</ele>
        <time>2022-10-25T13:33:46Z</time>
      </trkpt>
      <trkpt lat="46.64065" lon="6.03699">
        <ele>822.7</ele>
        <time>2022-10-25T13:33:52Z</time>
      </trkpt>
      <trkpt lat="46.64062" lon="6.03693">
        <ele>822.3</ele>
        <time>2022-10-25T13:33:58Z</time>
      </trkpt>
      <trkpt lat="46.6406" lon="6.03687">
        <ele>821.8</ele>
        <time>2022-10-25T13:34:03Z</time>
      </trkpt>
      <trkpt lat="46.64056" lon="6.03682">
        <ele>821</ele>
        <time>2022-10-25T13:34:08Z</time>
      </trkpt>
      <trkpt lat="46.64052" lon="6.03679">
        <ele>819.4</ele>
        <time>2022-10-25T13:34:14Z</time>
      </trkpt>
      <trkpt lat="46.64049" lon="6.03673">
        <ele>817.1</ele>
        <time>2022-10-25T13:34:22Z</time>
      </trkpt>
      <trkpt lat="46.64045" lon="6.03668">
        <ele>816</ele>
        <time>2022-10-25T13:34:26Z</time>
      </trkpt>
      <trkpt lat="46.64041" lon="6.03665">
        <ele>814.8</ele>
        <time>2022-10-25T13:34:31Z</time>
      </trkpt>
      <trkpt lat="46.64039" lon="6.03659">
        <ele>814.2</ele>
        <time>2022-10-25T13:34:37Z</time>
      </trkpt>
      <trkpt lat="46.64035" lon="6.03654">
        <ele>814.1</ele>
        <time>2022-10-25T13:34:43Z</time>
      </trkpt>
      <trkpt lat="46.64031" lon="6.0365">
        <ele>814.1</ele>
        <time>2022-10-25T13:34:48Z</time>
      </trkpt>
      <trkpt lat="46.64026" lon="6.03647">
        <ele>814</ele>
        <time>2022-10-25T13:34:53Z</time>
      </trkpt>
      <trkpt lat="46.64021" lon="6.03643">
        <ele>814</ele>
        <time>2022-10-25T13:34:57Z</time>
      </trkpt>
      <trkpt lat="46.64016" lon="6.0364">
        <ele>814</ele>
        <time>2022-10-25T13:35:02Z</time>
      </trkpt>
      <trkpt lat="46.64011" lon="6.03637">
        <ele>813.9</ele>
        <time>2022-10-25T13:35:07Z</time>
      </trkpt>
      <trkpt lat="46.64008" lon="6.03633">
        <ele>813.1</ele>
        <time>2022-10-25T13:35:13Z</time>
      </trkpt>
      <trkpt lat="46.64004" lon="6.03629">
        <ele>811.8</ele>
        <time>2022-10-25T13:35:20Z</time>
      </trkpt>
      <trkpt lat="46.64" lon="6.03623">
        <ele>811.4</ele>
        <time>2022-10-25T13:35:26Z</time>
      </trkpt>
      <trkpt lat="46.63997" lon="6.03617">
        <ele>811.1</ele>
        <time>2022-10-25T13:35:31Z</time>
      </trkpt>
      <trkpt lat="46.63993" lon="6.03612">
        <ele>810.8</ele>
        <time>2022-10-25T13:35:36Z</time>
      </trkpt>
      <trkpt lat="46.6399" lon="6.03607">
        <ele>810</ele>
        <time>2022-10-25T13:35:42Z</time>
      </trkpt>
      <trkpt lat="46.63986" lon="6.03603">
        <ele>808.7</ele>
        <time>2022-10-25T13:35:48Z</time>
      </trkpt>
      <trkpt lat="46.63982" lon="6.03598">
        <ele>807.1</ele>
        <time>2022-10-25T13:35:53Z</time>
      </trkpt>
      <trkpt lat="46.6398" lon="6.03592">
        <ele>804.4</ele>
        <time>2022-10-25T13:35:59Z</time>
      </trkpt>
      <trkpt lat="46.63978" lon="6.03585">
        <ele>801.4</ele>
        <time>2022-10-25T13:36:05Z</time>
      </trkpt>
      <trkpt lat="46.63974" lon="6.03579">
        <ele>799.5</ele>
        <time>2022-10-25T13:36:10Z</time>
      </trkpt>
      <trkpt lat="46.63971" lon="6.03574">
        <ele>798.1</ele>
        <time>2022-10-25T13:36:15Z</time>
      </trkpt>
      <trkpt lat="46.63968" lon="6.03569">
        <ele>797</ele>
        <time>2022-10-25T13:36:21Z</time>
      </trkpt>
      <trkpt lat="46.63964" lon="6.03565">
        <ele>796.1</ele>
        <time>2022-10-25T13:36:26Z</time>
      </trkpt>
      <trkpt lat="46.63959" lon="6.03564">
        <ele>796</ele>
        <time>2022-10-25T13:36:31Z</time>
      </trkpt>
      <trkpt lat="46.63954" lon="6.03562">
        <ele>796.9</ele>
        <time>2022-10-25T13:36:37Z</time>
      </trkpt>
      <trkpt lat="46.63949" lon="6.03559">
        <ele>797.7</ele>
        <time>2022-10-25T13:36:41Z</time>
      </trkpt>
      <trkpt lat="46.63944" lon="6.03557">
        <ele>798.1</ele>
        <time>2022-10-25T13:36:45Z</time>
      </trkpt>
      <trkpt lat="46.63939" lon="6.03557">
        <ele>798</ele>
        <time>2022-10-25T13:36:49Z</time>
      </trkpt>
      <trkpt lat="46.63934" lon="6.03557">
        <ele>798.1</ele>
        <time>2022-10-25T13:36:54Z</time>
      </trkpt>
      <trkpt lat="46.63929" lon="6.03559">
        <ele>798.6</ele>
        <time>2022-10-25T13:36:59Z</time>
      </trkpt>
      <trkpt lat="46.63923" lon="6.03559">
        <ele>799.2</ele>
        <time>2022-10-25T13:37:04Z</time>
      </trkpt>
      <trkpt lat="46.63919" lon="6.03557">
        <ele>799.2</ele>
        <time>2022-10-25T13:37:08Z</time>
      </trkpt>
      <trkpt lat="46.63914" lon="6.03555">
        <ele>798.3</ele>
        <time>2022-10-25T13:37:13Z</time>
      </trkpt>
      <trkpt lat="46.63909" lon="6.03557">
        <ele>796.7</ele>
        <time>2022-10-25T13:37:18Z</time>
      </trkpt>
      <trkpt lat="46.63904" lon="6.03559">
        <ele>795.9</ele>
        <time>2022-10-25T13:37:23Z</time>
      </trkpt>
      <trkpt lat="46.63899" lon="6.03558">
        <ele>796.3</ele>
        <time>2022-10-25T13:37:27Z</time>
      </trkpt>
      <trkpt lat="46.63894" lon="6.03558">
        <ele>797.3</ele>
        <time>2022-10-25T13:37:31Z</time>
      </trkpt>
      <trkpt lat="46.6389" lon="6.0356">
        <ele>799.5</ele>
        <time>2022-10-25T13:37:36Z</time>
      </trkpt>
      <trkpt lat="46.63885" lon="6.03562">
        <ele>801.3</ele>
        <time>2022-10-25T13:37:40Z</time>
      </trkpt>
      <trkpt lat="46.6388" lon="6.03563">
        <ele>802.8</ele>
        <time>2022-10-25T13:37:44Z</time>
      </trkpt>
      <trkpt lat="46.63875" lon="6.03563">
        <ele>804</ele>
        <time>2022-10-25T13:37:48Z</time>
      </trkpt>
      <trkpt lat="46.63871" lon="6.03563">
        <ele>804.1</ele>
        <time>2022-10-25T13:37:53Z</time>
      </trkpt>
      <trkpt lat="46.63865" lon="6.03563">
        <ele>803.7</ele>
        <time>2022-10-25T13:38:00Z</time>
      </trkpt>
      <trkpt lat="46.6386" lon="6.03562">
        <ele>803.6</ele>
        <time>2022-10-25T13:38:05Z</time>
      </trkpt>
      <trkpt lat="46.63855" lon="6.03561">
        <ele>803.4</ele>
        <time>2022-10-25T13:38:09Z</time>
      </trkpt>
      <trkpt lat="46.6385" lon="6.03557">
        <ele>803.1</ele>
        <time>2022-10-25T13:38:13Z</time>
      </trkpt>
      <trkpt lat="46.63846" lon="6.03554">
        <ele>802.9</ele>
        <time>2022-10-25T13:38:17Z</time>
      </trkpt>
      <trkpt lat="46.63842" lon="6.03549">
        <ele>802.7</ele>
        <time>2022-10-25T13:38:22Z</time>
      </trkpt>
      <trkpt lat="46.63838" lon="6.03545">
        <ele>802.9</ele>
        <time>2022-10-25T13:38:26Z</time>
      </trkpt>
      <trkpt lat="46.63836" lon="6.03538">
        <ele>802.8</ele>
        <time>2022-10-25T13:38:31Z</time>
      </trkpt>
      <trkpt lat="46.63835" lon="6.03531">
        <ele>802.2</ele>
        <time>2022-10-25T13:38:36Z</time>
      </trkpt>
      <trkpt lat="46.63835" lon="6.03523">
        <ele>801</ele>
        <time>2022-10-25T13:38:41Z</time>
      </trkpt>
      <trkpt lat="46.63833" lon="6.03516">
        <ele>800.5</ele>
        <time>2022-10-25T13:38:46Z</time>
      </trkpt>
      <trkpt lat="46.63832" lon="6.03509">
        <ele>799.6</ele>
        <time>2022-10-25T13:38:52Z</time>
      </trkpt>
      <trkpt lat="46.63832" lon="6.03501">
        <ele>798.8</ele>
        <time>2022-10-25T13:38:57Z</time>
      </trkpt>
      <trkpt lat="46.63831" lon="6.03494">
        <ele>798.5</ele>
        <time>2022-10-25T13:39:02Z</time>
      </trkpt>
      <trkpt lat="46.63828" lon="6.03488">
        <ele>798.3</ele>
        <time>2022-10-25T13:39:08Z</time>
      </trkpt>
      <trkpt lat="46.63827" lon="6.03481">
        <ele>797.7</ele>
        <time>2022-10-25T13:39:13Z</time>
      </trkpt>
      <trkpt lat="46.63827" lon="6.03474">
        <ele>797.2</ele>
        <time>2022-10-25T13:39:18Z</time>
      </trkpt>
      <trkpt lat="46.63826" lon="6.03468">
        <ele>796.7</ele>
        <time>2022-10-25T13:39:24Z</time>
      </trkpt>
      <trkpt lat="46.63826" lon="6.0346">
        <ele>795.2</ele>
        <time>2022-10-25T13:39:33Z</time>
      </trkpt>
      <trkpt lat="46.63824" lon="6.03454">
        <ele>794.7</ele>
        <time>2022-10-25T13:39:36Z</time>
      </trkpt>
      <trkpt lat="46.63822" lon="6.03446">
        <ele>794.1</ele>
        <time>2022-10-25T13:39:40Z</time>
      </trkpt>
      <trkpt lat="46.6382" lon="6.03439">
        <ele>793.6</ele>
        <time>2022-10-25T13:39:44Z</time>
      </trkpt>
      <trkpt lat="46.63819" lon="6.03432">
        <ele>792.9</ele>
        <time>2022-10-25T13:39:49Z</time>
      </trkpt>
      <trkpt lat="46.6382" lon="6.03425">
        <ele>792.5</ele>
        <time>2022-10-25T13:39:54Z</time>
      </trkpt>
      <trkpt lat="46.63818" lon="6.03419">
        <ele>792.9</ele>
        <time>2022-10-25T13:40:00Z</time>
      </trkpt>
      <trkpt lat="46.63816" lon="6.03413">
        <ele>794.2</ele>
        <time>2022-10-25T13:40:05Z</time>
      </trkpt>
      <trkpt lat="46.63812" lon="6.03406">
        <ele>795.9</ele>
        <time>2022-10-25T13:40:10Z</time>
      </trkpt>
      <trkpt lat="46.63811" lon="6.034">
        <ele>797.2</ele>
        <time>2022-10-25T13:40:13Z</time>
      </trkpt>
      <trkpt lat="46.63806" lon="6.03395">
        <ele>796.8</ele>
        <time>2022-10-25T13:40:33Z</time>
      </trkpt>
      <trkpt lat="46.63805" lon="6.03387">
        <ele>795.9</ele>
        <time>2022-10-25T13:40:37Z</time>
      </trkpt>
      <trkpt lat="46.63803" lon="6.03381">
        <ele>795.2</ele>
        <time>2022-10-25T13:40:41Z</time>
      </trkpt>
      <trkpt lat="46.63803" lon="6.03373">
        <ele>794.5</ele>
        <time>2022-10-25T13:40:45Z</time>
      </trkpt>
      <trkpt lat="46.63803" lon="6.03365">
        <ele>793.3</ele>
        <time>2022-10-25T13:40:49Z</time>
      </trkpt>
      <trkpt lat="46.63803" lon="6.03357">
        <ele>792.5</ele>
        <time>2022-10-25T13:40:53Z</time>
      </trkpt>
      <trkpt lat="46.63802" lon="6.03348">
        <ele>792.4</ele>
        <time>2022-10-25T13:40:57Z</time>
      </trkpt>
      <trkpt lat="46.63802" lon="6.03341">
        <ele>792.9</ele>
        <time>2022-10-25T13:41:00Z</time>
      </trkpt>
      <trkpt lat="46.63802" lon="6.03334">
        <ele>793.7</ele>
        <time>2022-10-25T13:41:03Z</time>
      </trkpt>
      <trkpt lat="46.63802" lon="6.03327">
        <ele>794.5</ele>
        <time>2022-10-25T13:41:06Z</time>
      </trkpt>
      <trkpt lat="46.63802" lon="6.03319">
        <ele>795.9</ele>
        <time>2022-10-25T13:41:11Z</time>
      </trkpt>
      <trkpt lat="46.63801" lon="6.03311">
        <ele>796.4</ele>
        <time>2022-10-25T13:41:15Z</time>
      </trkpt>
      <trkpt lat="46.63801" lon="6.03304">
        <ele>796.3</ele>
        <time>2022-10-25T13:41:20Z</time>
      </trkpt>
      <trkpt lat="46.63801" lon="6.03297">
        <ele>795.3</ele>
        <time>2022-10-25T13:41:26Z</time>
      </trkpt>
      <trkpt lat="46.63801" lon="6.0329">
        <ele>794.3</ele>
        <time>2022-10-25T13:41:31Z</time>
      </trkpt>
      <trkpt lat="46.63801" lon="6.03282">
        <ele>793.4</ele>
        <time>2022-10-25T13:41:36Z</time>
      </trkpt>
      <trkpt lat="46.63802" lon="6.03276">
        <ele>792.7</ele>
        <time>2022-10-25T13:41:40Z</time>
      </trkpt>
      <trkpt lat="46.63805" lon="6.0327">
        <ele>791.4</ele>
        <time>2022-10-25T13:41:45Z</time>
      </trkpt>
      <trkpt lat="46.63808" lon="6.03265">
        <ele>790.2</ele>
        <time>2022-10-25T13:41:50Z</time>
      </trkpt>
      <trkpt lat="46.63812" lon="6.03262">
        <ele>789.1</ele>
        <time>2022-10-25T13:41:55Z</time>
      </trkpt>
      <trkpt lat="46.63817" lon="6.03259">
        <ele>788.5</ele>
        <time>2022-10-25T13:42:00Z</time>
      </trkpt>
      <trkpt lat="46.6382" lon="6.03254">
        <ele>788.2</ele>
        <time>2022-10-25T13:42:05Z</time>
      </trkpt>
      <trkpt lat="46.63824" lon="6.03251">
        <ele>787.5</ele>
        <time>2022-10-25T13:42:10Z</time>
      </trkpt>
      <trkpt lat="46.6383" lon="6.03249">
        <ele>786.3</ele>
        <time>2022-10-25T13:42:14Z</time>
      </trkpt>
      <trkpt lat="46.63835" lon="6.03247">
        <ele>785.1</ele>
        <time>2022-10-25T13:42:18Z</time>
      </trkpt>
      <trkpt lat="46.63838" lon="6.03242">
        <ele>783.5</ele>
        <time>2022-10-25T13:42:22Z</time>
      </trkpt>
      <trkpt lat="46.63842" lon="6.03238">
        <ele>781.6</ele>
        <time>2022-10-25T13:42:27Z</time>
      </trkpt>
      <trkpt lat="46.63846" lon="6.03233">
        <ele>779.9</ele>
        <time>2022-10-25T13:42:32Z</time>
      </trkpt>
      <trkpt lat="46.63848" lon="6.03227">
        <ele>778.9</ele>
        <time>2022-10-25T13:42:37Z</time>
      </trkpt>
      <trkpt lat="46.63851" lon="6.0322">
        <ele>778.5</ele>
        <time>2022-10-25T13:42:42Z</time>
      </trkpt>
      <trkpt lat="46.63852" lon="6.03213">
        <ele>779</ele>
        <time>2022-10-25T13:42:47Z</time>
      </trkpt>
      <trkpt lat="46.63852" lon="6.03206">
        <ele>779.4</ele>
        <time>2022-10-25T13:42:51Z</time>
      </trkpt>
      <trkpt lat="46.63854" lon="6.03199">
        <ele>779.8</ele>
        <time>2022-10-25T13:42:55Z</time>
      </trkpt>
      <trkpt lat="46.63854" lon="6.03192">
        <ele>780.5</ele>
        <time>2022-10-25T13:42:59Z</time>
      </trkpt>
      <trkpt lat="46.63855" lon="6.03185">
        <ele>780.8</ele>
        <time>2022-10-25T13:43:04Z</time>
      </trkpt>
      <trkpt lat="46.63857" lon="6.03179">
        <ele>780.5</ele>
        <time>2022-10-25T13:43:09Z</time>
      </trkpt>
      <trkpt lat="46.6386" lon="6.03174">
        <ele>780.2</ele>
        <time>2022-10-25T13:43:13Z</time>
      </trkpt>
      <trkpt lat="46.63863" lon="6.03168">
        <ele>779.9</ele>
        <time>2022-10-25T13:43:18Z</time>
      </trkpt>
      <trkpt lat="46.63865" lon="6.03161">
        <ele>779.7</ele>
        <time>2022-10-25T13:43:23Z</time>
      </trkpt>
      <trkpt lat="46.63868" lon="6.03156">
        <ele>779.5</ele>
        <time>2022-10-25T13:43:28Z</time>
      </trkpt>
      <trkpt lat="46.63873" lon="6.03152">
        <ele>779.2</ele>
        <time>2022-10-25T13:43:33Z</time>
      </trkpt>
      <trkpt lat="46.63877" lon="6.0315">
        <ele>778.6</ele>
        <time>2022-10-25T13:43:39Z</time>
      </trkpt>
      <trkpt lat="46.63883" lon="6.03149">
        <ele>778.7</ele>
        <time>2022-10-25T13:43:45Z</time>
      </trkpt>
      <trkpt lat="46.63888" lon="6.03149">
        <ele>778.8</ele>
        <time>2022-10-25T13:43:56Z</time>
      </trkpt>
      <trkpt lat="46.63892" lon="6.03151">
        <ele>778.4</ele>
        <time>2022-10-25T13:44:00Z</time>
      </trkpt>
      <trkpt lat="46.63897" lon="6.03152">
        <ele>778.1</ele>
        <time>2022-10-25T13:44:03Z</time>
      </trkpt>
      <trkpt lat="46.63902" lon="6.03152">
        <ele>778</ele>
        <time>2022-10-25T13:44:06Z</time>
      </trkpt>
      <trkpt lat="46.63908" lon="6.03153">
        <ele>778.2</ele>
        <time>2022-10-25T13:44:10Z</time>
      </trkpt>
      <trkpt lat="46.63912" lon="6.03155">
        <ele>778.8</ele>
        <time>2022-10-25T13:44:14Z</time>
      </trkpt>
      <trkpt lat="46.63917" lon="6.03156">
        <ele>779.6</ele>
        <time>2022-10-25T13:44:20Z</time>
      </trkpt>
      <trkpt lat="46.63922" lon="6.03157">
        <ele>780.6</ele>
        <time>2022-10-25T13:44:29Z</time>
      </trkpt>
      <trkpt lat="46.63927" lon="6.03158">
        <ele>780.9</ele>
        <time>2022-10-25T13:44:35Z</time>
      </trkpt>
      <trkpt lat="46.63931" lon="6.0316">
        <ele>781.1</ele>
        <time>2022-10-25T13:44:39Z</time>
      </trkpt>
      <trkpt lat="46.63937" lon="6.03163">
        <ele>781.2</ele>
        <time>2022-10-25T13:44:43Z</time>
      </trkpt>
      <trkpt lat="46.63943" lon="6.03165">
        <ele>781.5</ele>
        <time>2022-10-25T13:44:46Z</time>
      </trkpt>
      <trkpt lat="46.63948" lon="6.03167">
        <ele>782</ele>
        <time>2022-10-25T13:44:49Z</time>
      </trkpt>
      <trkpt lat="46.63952" lon="6.03168">
        <ele>782.6</ele>
        <time>2022-10-25T13:44:52Z</time>
      </trkpt>
      <trkpt lat="46.63957" lon="6.0317">
        <ele>783.5</ele>
        <time>2022-10-25T13:44:55Z</time>
      </trkpt>
      <trkpt lat="46.63962" lon="6.03171">
        <ele>784.7</ele>
        <time>2022-10-25T13:44:58Z</time>
      </trkpt>
      <trkpt lat="46.63967" lon="6.03174">
        <ele>786.2</ele>
        <time>2022-10-25T13:45:02Z</time>
      </trkpt>
      <trkpt lat="46.63971" lon="6.03178">
        <ele>787.5</ele>
        <time>2022-10-25T13:45:07Z</time>
      </trkpt>
      <trkpt lat="46.63975" lon="6.03183">
        <ele>788.4</ele>
        <time>2022-10-25T13:45:11Z</time>
      </trkpt>
      <trkpt lat="46.6398" lon="6.03187">
        <ele>788.9</ele>
        <time>2022-10-25T13:45:15Z</time>
      </trkpt>
      <trkpt lat="46.63984" lon="6.03189">
        <ele>789</ele>
        <time>2022-10-25T13:45:20Z</time>
      </trkpt>
      <trkpt lat="46.6399" lon="6.03191">
        <ele>788.4</ele>
        <time>2022-10-25T13:45:26Z</time>
      </trkpt>
      <trkpt lat="46.63994" lon="6.03193">
        <ele>787.8</ele>
        <time>2022-10-25T13:45:30Z</time>
      </trkpt>
      <trkpt lat="46.63998" lon="6.03195">
        <ele>787.1</ele>
        <time>2022-10-25T13:45:34Z</time>
      </trkpt>
      <trkpt lat="46.64003" lon="6.03197">
        <ele>786.5</ele>
        <time>2022-10-25T13:45:38Z</time>
      </trkpt>
      <trkpt lat="46.64008" lon="6.03199">
        <ele>785.7</ele>
        <time>2022-10-25T13:45:45Z</time>
      </trkpt>
      <trkpt lat="46.64013" lon="6.03201">
        <ele>785.3</ele>
        <time>2022-10-25T13:45:51Z</time>
      </trkpt>
      <trkpt lat="46.64018" lon="6.03203">
        <ele>785.3</ele>
        <time>2022-10-25T13:45:56Z</time>
      </trkpt>
      <trkpt lat="46.64023" lon="6.03202">
        <ele>784.6</ele>
        <time>2022-10-25T13:46:01Z</time>
      </trkpt>
      <trkpt lat="46.64027" lon="6.03198">
        <ele>782.7</ele>
        <time>2022-10-25T13:46:06Z</time>
      </trkpt>
      <trkpt lat="46.64031" lon="6.03192">
        <ele>780.7</ele>
        <time>2022-10-25T13:46:11Z</time>
      </trkpt>
      <trkpt lat="46.64032" lon="6.03185">
        <ele>779.8</ele>
        <time>2022-10-25T13:46:14Z</time>
      </trkpt>
      <trkpt lat="46.64033" lon="6.03179">
        <ele>779.7</ele>
        <time>2022-10-25T13:46:17Z</time>
      </trkpt>
      <trkpt lat="46.64035" lon="6.03172">
        <ele>780.7</ele>
        <time>2022-10-25T13:46:21Z</time>
      </trkpt>
      <trkpt lat="46.64037" lon="6.03165">
        <ele>782</ele>
        <time>2022-10-25T13:46:27Z</time>
      </trkpt>
      <trkpt lat="46.64039" lon="6.03158">
        <ele>782.5</ele>
        <time>2022-10-25T13:46:32Z</time>
      </trkpt>
      <trkpt lat="46.64041" lon="6.03151">
        <ele>782.8</ele>
        <time>2022-10-25T13:46:38Z</time>
      </trkpt>
      <trkpt lat="46.64045" lon="6.03146">
        <ele>783.2</ele>
        <time>2022-10-25T13:46:46Z</time>
      </trkpt>
      <trkpt lat="46.6405" lon="6.03146">
        <ele>783.7</ele>
        <time>2022-10-25T13:46:52Z</time>
      </trkpt>
      <trkpt lat="46.64055" lon="6.03149">
        <ele>784</ele>
        <time>2022-10-25T13:46:57Z</time>
      </trkpt>
      <trkpt lat="46.64059" lon="6.03153">
        <ele>785</ele>
        <time>2022-10-25T13:47:02Z</time>
      </trkpt>
      <trkpt lat="46.64063" lon="6.03159">
        <ele>786.4</ele>
        <time>2022-10-25T13:47:08Z</time>
      </trkpt>
      <trkpt lat="46.64065" lon="6.03165">
        <ele>787.2</ele>
        <time>2022-10-25T13:47:14Z</time>
      </trkpt>
      <trkpt lat="46.64069" lon="6.0317">
        <ele>787.7</ele>
        <time>2022-10-25T13:47:20Z</time>
      </trkpt>
      <trkpt lat="46.64073" lon="6.03175">
        <ele>788.3</ele>
        <time>2022-10-25T13:47:26Z</time>
      </trkpt>
      <trkpt lat="46.64076" lon="6.0318">
        <ele>789.2</ele>
        <time>2022-10-25T13:47:30Z</time>
      </trkpt>
      <trkpt lat="46.64078" lon="6.03187">
        <ele>789.9</ele>
        <time>2022-10-25T13:47:34Z</time>
      </trkpt>
      <trkpt lat="46.64081" lon="6.03193">
        <ele>790.4</ele>
        <time>2022-10-25T13:47:40Z</time>
      </trkpt>
      <trkpt lat="46.64084" lon="6.03198">
        <ele>791.6</ele>
        <time>2022-10-25T13:47:47Z</time>
      </trkpt>
      <trkpt lat="46.64088" lon="6.03203">
        <ele>792.8</ele>
        <time>2022-10-25T13:47:52Z</time>
      </trkpt>
      <trkpt lat="46.64091" lon="6.03207">
        <ele>793.7</ele>
        <time>2022-10-25T13:47:57Z</time>
      </trkpt>
      <trkpt lat="46.64095" lon="6.03211">
        <ele>794.6</ele>
        <time>2022-10-25T13:48:02Z</time>
      </trkpt>
      <trkpt lat="46.64098" lon="6.03217">
        <ele>795.6</ele>
        <time>2022-10-25T13:48:06Z</time>
      </trkpt>
      <trkpt lat="46.64104" lon="6.03218">
        <ele>797.1</ele>
        <time>2022-10-25T13:48:10Z</time>
      </trkpt>
      <trkpt lat="46.64108" lon="6.03216">
        <ele>797.6</ele>
        <time>2022-10-25T13:48:15Z</time>
      </trkpt>
      <trkpt lat="46.64113" lon="6.03215">
        <ele>797.3</ele>
        <time>2022-10-25T13:48:21Z</time>
      </trkpt>
      <trkpt lat="46.64118" lon="6.03212">
        <ele>796.7</ele>
        <time>2022-10-25T13:48:27Z</time>
      </trkpt>
      <trkpt lat="46.64124" lon="6.0321">
        <ele>795.2</ele>
        <time>2022-10-25T13:48:31Z</time>
      </trkpt>
      <trkpt lat="46.64129" lon="6.03208">
        <ele>794</ele>
        <time>2022-10-25T13:48:35Z</time>
      </trkpt>
      <trkpt lat="46.64134" lon="6.03204">
        <ele>793.5</ele>
        <time>2022-10-25T13:48:40Z</time>
      </trkpt>
      <trkpt lat="46.64139" lon="6.03201">
        <ele>793.8</ele>
        <time>2022-10-25T13:48:44Z</time>
      </trkpt>
      <trkpt lat="46.64143" lon="6.03198">
        <ele>793.9</ele>
        <time>2022-10-25T13:48:48Z</time>
      </trkpt>
      <trkpt lat="46.64148" lon="6.03196">
        <ele>793.9</ele>
        <time>2022-10-25T13:48:54Z</time>
      </trkpt>
      <trkpt lat="46.64151" lon="6.0319">
        <ele>793.7</ele>
        <time>2022-10-25T13:48:58Z</time>
      </trkpt>
      <trkpt lat="46.64154" lon="6.03182">
        <ele>793.2</ele>
        <time>2022-10-25T13:49:02Z</time>
      </trkpt>
      <trkpt lat="46.64157" lon="6.03175">
        <ele>792.5</ele>
        <time>2022-10-25T13:49:06Z</time>
      </trkpt>
      <trkpt lat="46.6416" lon="6.0317">
        <ele>792.5</ele>
        <time>2022-10-25T13:49:10Z</time>
      </trkpt>
      <trkpt lat="46.64164" lon="6.03164">
        <ele>792.4</ele>
        <time>2022-10-25T13:49:15Z</time>
      </trkpt>
      <trkpt lat="46.64165" lon="6.03158">
        <ele>792.7</ele>
        <time>2022-10-25T13:49:19Z</time>
      </trkpt>
      <trkpt lat="46.64166" lon="6.0315">
        <ele>794</ele>
        <time>2022-10-25T13:49:23Z</time>
      </trkpt>
      <trkpt lat="46.64166" lon="6.03143">
        <ele>796</ele>
        <time>2022-10-25T13:49:27Z</time>
      </trkpt>
      <trkpt lat="46.64165" lon="6.03136">
        <ele>797.8</ele>
        <time>2022-10-25T13:49:31Z</time>
      </trkpt>
      <trkpt lat="46.64164" lon="6.03129">
        <ele>799.4</ele>
        <time>2022-10-25T13:49:36Z</time>
      </trkpt>
      <trkpt lat="46.64164" lon="6.03122">
        <ele>800.6</ele>
        <time>2022-10-25T13:49:40Z</time>
      </trkpt>
      <trkpt lat="46.64163" lon="6.03115">
        <ele>801.6</ele>
        <time>2022-10-25T13:49:45Z</time>
      </trkpt>
      <trkpt lat="46.6416" lon="6.03108">
        <ele>801.4</ele>
        <time>2022-10-25T13:49:50Z</time>
      </trkpt>
      <trkpt lat="46.64158" lon="6.03101">
        <ele>801</ele>
        <time>2022-10-25T13:49:54Z</time>
      </trkpt>
      <trkpt lat="46.64154" lon="6.03094">
        <ele>800.5</ele>
        <time>2022-10-25T13:49:59Z</time>
      </trkpt>
      <trkpt lat="46.64152" lon="6.03087">
        <ele>800.7</ele>
        <time>2022-10-25T13:50:04Z</time>
      </trkpt>
      <trkpt lat="46.64149" lon="6.03083">
        <ele>800.8</ele>
        <time>2022-10-25T13:50:08Z</time>
      </trkpt>
      <trkpt lat="46.64145" lon="6.03078">
        <ele>800.6</ele>
        <time>2022-10-25T13:50:12Z</time>
      </trkpt>
      <trkpt lat="46.64141" lon="6.03073">
        <ele>800.4</ele>
        <time>2022-10-25T13:50:16Z</time>
      </trkpt>
      <trkpt lat="46.64138" lon="6.03068">
        <ele>800.1</ele>
        <time>2022-10-25T13:50:20Z</time>
      </trkpt>
      <trkpt lat="46.64134" lon="6.03063">
        <ele>799.2</ele>
        <time>2022-10-25T13:50:25Z</time>
      </trkpt>
      <trkpt lat="46.6413" lon="6.03059">
        <ele>798</ele>
        <time>2022-10-25T13:50:30Z</time>
      </trkpt>
      <trkpt lat="46.64126" lon="6.03054">
        <ele>796.6</ele>
        <time>2022-10-25T13:50:35Z</time>
      </trkpt>
      <trkpt lat="46.64123" lon="6.03049">
        <ele>795.5</ele>
        <time>2022-10-25T13:50:39Z</time>
      </trkpt>
      <trkpt lat="46.64119" lon="6.03043">
        <ele>794.4</ele>
        <time>2022-10-25T13:50:44Z</time>
      </trkpt>
      <trkpt lat="46.64115" lon="6.03038">
        <ele>793.6</ele>
        <time>2022-10-25T13:50:49Z</time>
      </trkpt>
      <trkpt lat="46.64117" lon="6.03032">
        <ele>792.9</ele>
        <time>2022-10-25T13:50:57Z</time>
      </trkpt>
      <trkpt lat="46.64112" lon="6.03032">
        <ele>792.2</ele>
        <time>2022-10-25T13:51:29Z</time>
      </trkpt>
      <trkpt lat="46.64109" lon="6.03027">
        <ele>791.3</ele>
        <time>2022-10-25T13:51:35Z</time>
      </trkpt>
      <trkpt lat="46.64106" lon="6.03022">
        <ele>790.8</ele>
        <time>2022-10-25T13:51:40Z</time>
      </trkpt>
      <trkpt lat="46.64101" lon="6.03019">
        <ele>790.6</ele>
        <time>2022-10-25T13:51:44Z</time>
      </trkpt>
      <trkpt lat="46.64096" lon="6.03016">
        <ele>790.7</ele>
        <time>2022-10-25T13:51:49Z</time>
      </trkpt>
      <trkpt lat="46.64092" lon="6.03014">
        <ele>790.6</ele>
        <time>2022-10-25T13:51:56Z</time>
      </trkpt>
      <trkpt lat="46.64087" lon="6.03014">
        <ele>790.1</ele>
        <time>2022-10-25T13:52:02Z</time>
      </trkpt>
      <trkpt lat="46.64083" lon="6.0301">
        <ele>790.2</ele>
        <time>2022-10-25T13:52:08Z</time>
      </trkpt>
      <trkpt lat="46.64078" lon="6.03006">
        <ele>790.6</ele>
        <time>2022-10-25T13:52:13Z</time>
      </trkpt>
      <trkpt lat="46.64073" lon="6.03003">
        <ele>790.6</ele>
        <time>2022-10-25T13:52:17Z</time>
      </trkpt>
      <trkpt lat="46.64068" lon="6.02999">
        <ele>790.6</ele>
        <time>2022-10-25T13:52:21Z</time>
      </trkpt>
      <trkpt lat="46.64063" lon="6.02996">
        <ele>790.9</ele>
        <time>2022-10-25T13:52:25Z</time>
      </trkpt>
      <trkpt lat="46.64057" lon="6.02994">
        <ele>791</ele>
        <time>2022-10-25T13:52:29Z</time>
      </trkpt>
      <trkpt lat="46.64052" lon="6.02992">
        <ele>791.3</ele>
        <time>2022-10-25T13:52:33Z</time>
      </trkpt>
      <trkpt lat="46.64046" lon="6.02991">
        <ele>791.3</ele>
        <time>2022-10-25T13:52:37Z</time>
      </trkpt>
      <trkpt lat="46.64041" lon="6.02991">
        <ele>791.3</ele>
        <time>2022-10-25T13:52:41Z</time>
      </trkpt>
      <trkpt lat="46.64037" lon="6.02992">
        <ele>791.4</ele>
        <time>2022-10-25T13:52:46Z</time>
      </trkpt>
      <trkpt lat="46.64031" lon="6.02992">
        <ele>791.2</ele>
        <time>2022-10-25T13:52:52Z</time>
      </trkpt>
      <trkpt lat="46.64025" lon="6.02992">
        <ele>790.9</ele>
        <time>2022-10-25T13:52:57Z</time>
      </trkpt>
      <trkpt lat="46.6402" lon="6.02993">
        <ele>790.3</ele>
        <time>2022-10-25T13:53:01Z</time>
      </trkpt>
      <trkpt lat="46.64015" lon="6.02996">
        <ele>789.4</ele>
        <time>2022-10-25T13:53:06Z</time>
      </trkpt>
      <trkpt lat="46.6401" lon="6.02997">
        <ele>788.8</ele>
        <time>2022-10-25T13:53:10Z</time>
      </trkpt>
      <trkpt lat="46.64005" lon="6.02997">
        <ele>787.8</ele>
        <time>2022-10-25T13:53:15Z</time>
      </trkpt>
      <trkpt lat="46.64" lon="6.02998">
        <ele>786.7</ele>
        <time>2022-10-25T13:53:21Z</time>
      </trkpt>
      <trkpt lat="46.63994" lon="6.02999">
        <ele>786.1</ele>
        <time>2022-10-25T13:53:26Z</time>
      </trkpt>
      <trkpt lat="46.63989" lon="6.03">
        <ele>785.8</ele>
        <time>2022-10-25T13:53:30Z</time>
      </trkpt>
      <trkpt lat="46.63985" lon="6.02999">
        <ele>785.5</ele>
        <time>2022-10-25T13:53:34Z</time>
      </trkpt>
      <trkpt lat="46.6398" lon="6.03001">
        <ele>784.9</ele>
        <time>2022-10-25T13:53:40Z</time>
      </trkpt>
      <trkpt lat="46.63975" lon="6.03003">
        <ele>784.4</ele>
        <time>2022-10-25T13:53:44Z</time>
      </trkpt>
      <trkpt lat="46.6397" lon="6.03004">
        <ele>784.3</ele>
        <time>2022-10-25T13:53:48Z</time>
      </trkpt>
      <trkpt lat="46.63964" lon="6.03005">
        <ele>784.2</ele>
        <time>2022-10-25T13:53:52Z</time>
      </trkpt>
      <trkpt lat="46.63959" lon="6.03006">
        <ele>784.5</ele>
        <time>2022-10-25T13:53:56Z</time>
      </trkpt>
      <trkpt lat="46.63954" lon="6.03007">
        <ele>785</ele>
        <time>2022-10-25T13:54:00Z</time>
      </trkpt>
      <trkpt lat="46.63949" lon="6.03008">
        <ele>785.3</ele>
        <time>2022-10-25T13:54:05Z</time>
      </trkpt>
      <trkpt lat="46.63944" lon="6.03009">
        <ele>785.4</ele>
        <time>2022-10-25T13:54:09Z</time>
      </trkpt>
      <trkpt lat="46.63939" lon="6.0301">
        <ele>785.6</ele>
        <time>2022-10-25T13:54:13Z</time>
      </trkpt>
      <trkpt lat="46.63933" lon="6.03012">
        <ele>785.8</ele>
        <time>2022-10-25T13:54:17Z</time>
      </trkpt>
      <trkpt lat="46.63928" lon="6.03013">
        <ele>785.9</ele>
        <time>2022-10-25T13:54:21Z</time>
      </trkpt>
      <trkpt lat="46.63923" lon="6.03014">
        <ele>785.7</ele>
        <time>2022-10-25T13:54:27Z</time>
      </trkpt>
      <trkpt lat="46.63918" lon="6.03014">
        <ele>785.8</ele>
        <time>2022-10-25T13:54:32Z</time>
      </trkpt>
      <trkpt lat="46.63913" lon="6.03014">
        <ele>786.2</ele>
        <time>2022-10-25T13:54:37Z</time>
      </trkpt>
      <trkpt lat="46.63908" lon="6.03012">
        <ele>787.1</ele>
        <time>2022-10-25T13:54:42Z</time>
      </trkpt>
      <trkpt lat="46.63904" lon="6.03009">
        <ele>788.3</ele>
        <time>2022-10-25T13:54:48Z</time>
      </trkpt>
      <trkpt lat="46.63899" lon="6.03006">
        <ele>789.3</ele>
        <time>2022-10-25T13:54:53Z</time>
      </trkpt>
      <trkpt lat="46.63894" lon="6.03004">
        <ele>790.5</ele>
        <time>2022-10-25T13:54:58Z</time>
      </trkpt>
      <trkpt lat="46.63889" lon="6.03003">
        <ele>791</ele>
        <time>2022-10-25T13:55:03Z</time>
      </trkpt>
      <trkpt lat="46.63885" lon="6.03003">
        <ele>790.7</ele>
        <time>2022-10-25T13:55:12Z</time>
      </trkpt>
    </trkseg>
  </trk>
</gpx>